<?xml version="1.0" encoding="UTF-8" standalone="no" ?>
<gpx xmlns="http://www.topografix.com/GPX/1/1" xmlns:xsi="http://www.w3.org/2001/XMLSchema-instance" xsi:schemaLocation="http://www.topografix.com/GPX/1/1 http://www.topografix.com/GPX/1/1/gpx.xsd" version="1.1" creator="VisuGPX - https://www.visugpx.com">
  <metadata>
    <name>VTT samedi 4 septembre 2021</name>
    <desc><![CDATA[Très beau temps, départ à 14h05, montée de Montcey où, après quelques tergivestrations, on a pris la direction de Dampvalley Les Colombes  : après une rude côte (j'ai marché) et une sévère descente Chris et Jacky sont passés dans la Colombine en vélo. Ensuite on a longé la rivière, très sympa, avec une autre côte où j'ai marché encore. Jacky nous ayant semé au km18 en prenant la direction du tunnel, et Chris voulant le rattraper, notre groupe a éclaté et se retrouver n'a pas été si simple. Chris est même tombée de son VAE. A l'avenir , chacun devra se munir d'un téléphone...]]></desc>
  </metadata>
  <wpt lat="47.64398" lon="6.18345">
    <ele>227.6</ele>
    <name><![CDATA[0000316]]></name>
    <type><![CDATA[Point de départ]]></type>
  </wpt>
  <wpt lat="47.6444" lon="6.18325">
    <ele>231.7</ele>
    <name><![CDATA[0000317]]></name>
    <desc><![CDATA[<p><br /><h3>Nom: Segment: 1</h3><br />Heure de départ: 09/04/2021 14:04<br/>Heure d'arrivée: 09/04/2021 16:38<br/>Distance: 25,8km (02:34)<br/>Temps déplacement: 02:07<br/>Vitesse moyenne: 10,04 km/h<br/>Vitesse moyenne mouv.: 12,12 km/h<br/>Vitesse Max.: 37,5 km/h<br/>Altitude minimale: 161 m<br/>Altitude maximale: 322 m<br/>Vitesse de montée: 382,4 m/h<br/>Vitesse de descente: -431,3 m/h<br/>Gain d'altitude: 513 m<br/>Perte d'altitude: -443 m<br/>Temps de montée: 01:20<br/>Temps de descente: 01:01<br/></p>]]></desc>
    <type><![CDATA[Point d'arrivée]]></type>
  </wpt>
  <trk>
    <name><![CDATA[2021-09-04 14:04]]></name>
    <desc><![CDATA[<p>Heure de départ: 09/04/2021 14:04<br/>Heure d'arrivée: 09/04/2021 16:38<br/>Distance: 25,8 km (02:34)<br/>Temps déplacement: 02:07<br/>Vitesse moyenne: 10,04 km/h<br/>Vitesse moyenne mouv.: 12,13 km/h<br/>Vitesse Max.: 37,5 km/h<br/>Altitude minimale: 161 m<br/>Altitude maximale: 322 m<br/>Vitesse de montée: 341 m/h<br/>Vitesse de descente: -425 m/h<br/>Gain d'altitude: 458 m<br/>Perte d'altitude: -409 m<br/>Temps de montée: 01:20<br/>Temps de descente: 00:57<br/></p><hr align="center" width="480" style="height: 2px; width: 517px"/>]]></desc>
    <trkseg>
      <trkpt lat="47.64398" lon="6.18345">
        <ele>227.6</ele>
        <time>2021-09-04T12:04:18Z</time>
      </trkpt>
      <trkpt lat="47.64394" lon="6.1835">
        <ele>227.6</ele>
        <time>2021-09-04T12:04:23Z</time>
      </trkpt>
      <trkpt lat="47.64387" lon="6.18344">
        <ele>226.4</ele>
        <time>2021-09-04T12:04:29Z</time>
      </trkpt>
      <trkpt lat="47.64383" lon="6.18351">
        <ele>226.5</ele>
        <time>2021-09-04T12:04:31Z</time>
      </trkpt>
      <trkpt lat="47.64379" lon="6.18355">
        <ele>226.3</ele>
        <time>2021-09-04T12:04:32Z</time>
      </trkpt>
      <trkpt lat="47.64368" lon="6.18366">
        <ele>225.8</ele>
        <time>2021-09-04T12:04:35Z</time>
      </trkpt>
      <trkpt lat="47.64364" lon="6.1837">
        <ele>225.5</ele>
        <time>2021-09-04T12:04:36Z</time>
      </trkpt>
      <trkpt lat="47.6436" lon="6.18375">
        <ele>225.1</ele>
        <time>2021-09-04T12:04:37Z</time>
      </trkpt>
      <trkpt lat="47.64351" lon="6.18389">
        <ele>224.4</ele>
        <time>2021-09-04T12:04:40Z</time>
      </trkpt>
      <trkpt lat="47.64348" lon="6.18394">
        <ele>224.1</ele>
        <time>2021-09-04T12:04:42Z</time>
      </trkpt>
      <trkpt lat="47.64344" lon="6.18403">
        <ele>223.6</ele>
        <time>2021-09-04T12:04:44Z</time>
      </trkpt>
      <trkpt lat="47.64341" lon="6.18409">
        <ele>223.3</ele>
        <time>2021-09-04T12:04:46Z</time>
      </trkpt>
      <trkpt lat="47.64337" lon="6.18417">
        <ele>222.7</ele>
        <time>2021-09-04T12:04:48Z</time>
      </trkpt>
      <trkpt lat="47.64337" lon="6.18433">
        <ele>223.1</ele>
        <time>2021-09-04T12:04:49Z</time>
      </trkpt>
      <trkpt lat="47.6434" lon="6.18439">
        <ele>223.8</ele>
        <time>2021-09-04T12:04:53Z</time>
      </trkpt>
      <trkpt lat="47.64343" lon="6.18444">
        <ele>224.4</ele>
        <time>2021-09-04T12:04:55Z</time>
      </trkpt>
      <trkpt lat="47.64347" lon="6.1845">
        <ele>225.2</ele>
        <time>2021-09-04T12:04:58Z</time>
      </trkpt>
      <trkpt lat="47.64351" lon="6.18454">
        <ele>226</ele>
        <time>2021-09-04T12:05:02Z</time>
      </trkpt>
      <trkpt lat="47.64355" lon="6.18458">
        <ele>226.7</ele>
        <time>2021-09-04T12:05:07Z</time>
      </trkpt>
      <trkpt lat="47.64359" lon="6.18462">
        <ele>227.3</ele>
        <time>2021-09-04T12:05:10Z</time>
      </trkpt>
      <trkpt lat="47.64363" lon="6.18468">
        <ele>228</ele>
        <time>2021-09-04T12:05:13Z</time>
      </trkpt>
      <trkpt lat="47.64367" lon="6.18468">
        <ele>228.8</ele>
        <time>2021-09-04T12:05:20Z</time>
      </trkpt>
      <trkpt lat="47.64372" lon="6.18472">
        <ele>229.5</ele>
        <time>2021-09-04T12:05:27Z</time>
      </trkpt>
      <trkpt lat="47.64377" lon="6.18471">
        <ele>230.3</ele>
        <time>2021-09-04T12:05:29Z</time>
      </trkpt>
      <trkpt lat="47.64382" lon="6.18472">
        <ele>231.1</ele>
        <time>2021-09-04T12:05:33Z</time>
      </trkpt>
      <trkpt lat="47.64387" lon="6.18474">
        <ele>231.9</ele>
        <time>2021-09-04T12:05:40Z</time>
      </trkpt>
      <trkpt lat="47.64392" lon="6.18474">
        <ele>232.7</ele>
        <time>2021-09-04T12:05:44Z</time>
      </trkpt>
      <trkpt lat="47.64398" lon="6.18474">
        <ele>233.6</ele>
        <time>2021-09-04T12:05:47Z</time>
      </trkpt>
      <trkpt lat="47.64403" lon="6.18474">
        <ele>234.4</ele>
        <time>2021-09-04T12:05:51Z</time>
      </trkpt>
      <trkpt lat="47.64408" lon="6.18475">
        <ele>235.2</ele>
        <time>2021-09-04T12:05:55Z</time>
      </trkpt>
      <trkpt lat="47.64413" lon="6.18476">
        <ele>235.9</ele>
        <time>2021-09-04T12:05:58Z</time>
      </trkpt>
      <trkpt lat="47.64418" lon="6.18476">
        <ele>236.7</ele>
        <time>2021-09-04T12:06:01Z</time>
      </trkpt>
      <trkpt lat="47.64423" lon="6.18478">
        <ele>237.5</ele>
        <time>2021-09-04T12:06:04Z</time>
      </trkpt>
      <trkpt lat="47.64428" lon="6.18482">
        <ele>238.2</ele>
        <time>2021-09-04T12:06:08Z</time>
      </trkpt>
      <trkpt lat="47.64433" lon="6.18485">
        <ele>238.7</ele>
        <time>2021-09-04T12:06:11Z</time>
      </trkpt>
      <trkpt lat="47.64437" lon="6.1849">
        <ele>239.3</ele>
        <time>2021-09-04T12:06:13Z</time>
      </trkpt>
      <trkpt lat="47.64444" lon="6.18497">
        <ele>240</ele>
        <time>2021-09-04T12:06:15Z</time>
      </trkpt>
      <trkpt lat="47.64449" lon="6.18503">
        <ele>240.3</ele>
        <time>2021-09-04T12:06:17Z</time>
      </trkpt>
      <trkpt lat="47.64458" lon="6.18511">
        <ele>240.4</ele>
        <time>2021-09-04T12:06:20Z</time>
      </trkpt>
      <trkpt lat="47.64464" lon="6.18517">
        <ele>240.4</ele>
        <time>2021-09-04T12:06:22Z</time>
      </trkpt>
      <trkpt lat="47.6447" lon="6.18523">
        <ele>240.5</ele>
        <time>2021-09-04T12:06:25Z</time>
      </trkpt>
      <trkpt lat="47.64475" lon="6.18526">
        <ele>240.5</ele>
        <time>2021-09-04T12:06:27Z</time>
      </trkpt>
      <trkpt lat="47.6448" lon="6.1853">
        <ele>240.6</ele>
        <time>2021-09-04T12:06:27Z</time>
      </trkpt>
      <trkpt lat="47.64485" lon="6.18533">
        <ele>240.8</ele>
        <time>2021-09-04T12:06:32Z</time>
      </trkpt>
      <trkpt lat="47.64491" lon="6.18535">
        <ele>241.1</ele>
        <time>2021-09-04T12:06:35Z</time>
      </trkpt>
      <trkpt lat="47.64495" lon="6.18536">
        <ele>241.5</ele>
        <time>2021-09-04T12:06:38Z</time>
      </trkpt>
      <trkpt lat="47.64501" lon="6.18537">
        <ele>241.8</ele>
        <time>2021-09-04T12:06:42Z</time>
      </trkpt>
      <trkpt lat="47.64505" lon="6.18539">
        <ele>241.9</ele>
        <time>2021-09-04T12:06:45Z</time>
      </trkpt>
      <trkpt lat="47.64511" lon="6.18541">
        <ele>241.8</ele>
        <time>2021-09-04T12:06:46Z</time>
      </trkpt>
      <trkpt lat="47.64515" lon="6.18542">
        <ele>242</ele>
        <time>2021-09-04T12:06:49Z</time>
      </trkpt>
      <trkpt lat="47.6452" lon="6.18544">
        <ele>242.1</ele>
        <time>2021-09-04T12:06:52Z</time>
      </trkpt>
      <trkpt lat="47.64525" lon="6.18548">
        <ele>241.9</ele>
        <time>2021-09-04T12:06:55Z</time>
      </trkpt>
      <trkpt lat="47.6453" lon="6.18551">
        <ele>241.8</ele>
        <time>2021-09-04T12:07:01Z</time>
      </trkpt>
      <trkpt lat="47.64534" lon="6.18553">
        <ele>241.9</ele>
        <time>2021-09-04T12:07:05Z</time>
      </trkpt>
      <trkpt lat="47.64538" lon="6.18556">
        <ele>241.8</ele>
        <time>2021-09-04T12:07:10Z</time>
      </trkpt>
      <trkpt lat="47.64543" lon="6.18558">
        <ele>242</ele>
        <time>2021-09-04T12:07:16Z</time>
      </trkpt>
      <trkpt lat="47.64548" lon="6.1856">
        <ele>242.1</ele>
        <time>2021-09-04T12:07:19Z</time>
      </trkpt>
      <trkpt lat="47.64552" lon="6.18563">
        <ele>242.2</ele>
        <time>2021-09-04T12:07:21Z</time>
      </trkpt>
      <trkpt lat="47.64556" lon="6.18566">
        <ele>242.1</ele>
        <time>2021-09-04T12:07:24Z</time>
      </trkpt>
      <trkpt lat="47.64562" lon="6.18569">
        <ele>242.3</ele>
        <time>2021-09-04T12:07:25Z</time>
      </trkpt>
      <trkpt lat="47.64567" lon="6.18573">
        <ele>242.4</ele>
        <time>2021-09-04T12:07:30Z</time>
      </trkpt>
      <trkpt lat="47.64573" lon="6.18576">
        <ele>242.7</ele>
        <time>2021-09-04T12:07:33Z</time>
      </trkpt>
      <trkpt lat="47.64578" lon="6.18578">
        <ele>242.9</ele>
        <time>2021-09-04T12:07:36Z</time>
      </trkpt>
      <trkpt lat="47.64583" lon="6.18581">
        <ele>243.2</ele>
        <time>2021-09-04T12:07:36Z</time>
      </trkpt>
      <trkpt lat="47.64589" lon="6.18582">
        <ele>243.4</ele>
        <time>2021-09-04T12:07:41Z</time>
      </trkpt>
      <trkpt lat="47.64595" lon="6.18584">
        <ele>243.5</ele>
        <time>2021-09-04T12:07:44Z</time>
      </trkpt>
      <trkpt lat="47.64601" lon="6.18586">
        <ele>243.5</ele>
        <time>2021-09-04T12:07:45Z</time>
      </trkpt>
      <trkpt lat="47.64605" lon="6.18589">
        <ele>243.5</ele>
        <time>2021-09-04T12:07:50Z</time>
      </trkpt>
      <trkpt lat="47.6461" lon="6.18591">
        <ele>243.5</ele>
        <time>2021-09-04T12:07:53Z</time>
      </trkpt>
      <trkpt lat="47.64615" lon="6.18592">
        <ele>243.7</ele>
        <time>2021-09-04T12:07:55Z</time>
      </trkpt>
      <trkpt lat="47.6462" lon="6.18592">
        <ele>244</ele>
        <time>2021-09-04T12:07:56Z</time>
      </trkpt>
      <trkpt lat="47.64625" lon="6.18592">
        <ele>244.3</ele>
        <time>2021-09-04T12:08:01Z</time>
      </trkpt>
      <trkpt lat="47.64631" lon="6.18593">
        <ele>244.5</ele>
        <time>2021-09-04T12:08:05Z</time>
      </trkpt>
      <trkpt lat="47.64636" lon="6.18595">
        <ele>244.6</ele>
        <time>2021-09-04T12:08:08Z</time>
      </trkpt>
      <trkpt lat="47.64642" lon="6.18598">
        <ele>244.8</ele>
        <time>2021-09-04T12:08:12Z</time>
      </trkpt>
      <trkpt lat="47.64646" lon="6.18601">
        <ele>244.8</ele>
        <time>2021-09-04T12:08:12Z</time>
      </trkpt>
      <trkpt lat="47.6465" lon="6.18605">
        <ele>244.8</ele>
        <time>2021-09-04T12:08:17Z</time>
      </trkpt>
      <trkpt lat="47.64655" lon="6.1861">
        <ele>244.9</ele>
        <time>2021-09-04T12:08:20Z</time>
      </trkpt>
      <trkpt lat="47.6466" lon="6.18613">
        <ele>245</ele>
        <time>2021-09-04T12:08:23Z</time>
      </trkpt>
      <trkpt lat="47.64664" lon="6.18618">
        <ele>245.1</ele>
        <time>2021-09-04T12:08:26Z</time>
      </trkpt>
      <trkpt lat="47.64669" lon="6.18623">
        <ele>245.3</ele>
        <time>2021-09-04T12:08:28Z</time>
      </trkpt>
      <trkpt lat="47.64672" lon="6.18628">
        <ele>245.4</ele>
        <time>2021-09-04T12:08:31Z</time>
      </trkpt>
      <trkpt lat="47.64676" lon="6.18633">
        <ele>245.6</ele>
        <time>2021-09-04T12:08:33Z</time>
      </trkpt>
      <trkpt lat="47.6468" lon="6.18638">
        <ele>245.8</ele>
        <time>2021-09-04T12:08:36Z</time>
      </trkpt>
      <trkpt lat="47.64685" lon="6.18643">
        <ele>246.1</ele>
        <time>2021-09-04T12:08:38Z</time>
      </trkpt>
      <trkpt lat="47.6469" lon="6.18647">
        <ele>246.4</ele>
        <time>2021-09-04T12:08:41Z</time>
      </trkpt>
      <trkpt lat="47.64695" lon="6.18651">
        <ele>246.7</ele>
        <time>2021-09-04T12:08:43Z</time>
      </trkpt>
      <trkpt lat="47.64699" lon="6.18654">
        <ele>247</ele>
        <time>2021-09-04T12:08:43Z</time>
      </trkpt>
      <trkpt lat="47.64704" lon="6.1866">
        <ele>247.3</ele>
        <time>2021-09-04T12:08:49Z</time>
      </trkpt>
      <trkpt lat="47.64708" lon="6.18663">
        <ele>247.6</ele>
        <time>2021-09-04T12:08:50Z</time>
      </trkpt>
      <trkpt lat="47.64713" lon="6.18668">
        <ele>247.9</ele>
        <time>2021-09-04T12:08:57Z</time>
      </trkpt>
      <trkpt lat="47.64717" lon="6.18674">
        <ele>248.3</ele>
        <time>2021-09-04T12:09:01Z</time>
      </trkpt>
      <trkpt lat="47.6472" lon="6.18679">
        <ele>248.5</ele>
        <time>2021-09-04T12:09:04Z</time>
      </trkpt>
      <trkpt lat="47.64724" lon="6.18684">
        <ele>248.7</ele>
        <time>2021-09-04T12:09:07Z</time>
      </trkpt>
      <trkpt lat="47.64727" lon="6.18689">
        <ele>249.1</ele>
        <time>2021-09-04T12:09:08Z</time>
      </trkpt>
      <trkpt lat="47.64732" lon="6.18694">
        <ele>249.6</ele>
        <time>2021-09-04T12:09:14Z</time>
      </trkpt>
      <trkpt lat="47.64736" lon="6.18699">
        <ele>250.1</ele>
        <time>2021-09-04T12:09:17Z</time>
      </trkpt>
      <trkpt lat="47.64739" lon="6.18703">
        <ele>250.5</ele>
        <time>2021-09-04T12:09:20Z</time>
      </trkpt>
      <trkpt lat="47.64744" lon="6.18707">
        <ele>251.1</ele>
        <time>2021-09-04T12:09:21Z</time>
      </trkpt>
      <trkpt lat="47.64747" lon="6.18713">
        <ele>251.6</ele>
        <time>2021-09-04T12:09:26Z</time>
      </trkpt>
      <trkpt lat="47.64751" lon="6.18719">
        <ele>252</ele>
        <time>2021-09-04T12:09:29Z</time>
      </trkpt>
      <trkpt lat="47.64754" lon="6.18725">
        <ele>252.3</ele>
        <time>2021-09-04T12:09:32Z</time>
      </trkpt>
      <trkpt lat="47.64757" lon="6.18732">
        <ele>252.5</ele>
        <time>2021-09-04T12:09:33Z</time>
      </trkpt>
      <trkpt lat="47.64759" lon="6.18737">
        <ele>252.7</ele>
        <time>2021-09-04T12:09:38Z</time>
      </trkpt>
      <trkpt lat="47.64763" lon="6.18743">
        <ele>252.9</ele>
        <time>2021-09-04T12:09:39Z</time>
      </trkpt>
      <trkpt lat="47.64767" lon="6.18745">
        <ele>253.2</ele>
        <time>2021-09-04T12:09:44Z</time>
      </trkpt>
      <trkpt lat="47.64772" lon="6.18748">
        <ele>253.6</ele>
        <time>2021-09-04T12:09:47Z</time>
      </trkpt>
      <trkpt lat="47.64776" lon="6.18753">
        <ele>253.9</ele>
        <time>2021-09-04T12:09:50Z</time>
      </trkpt>
      <trkpt lat="47.64778" lon="6.1876">
        <ele>254.1</ele>
        <time>2021-09-04T12:09:53Z</time>
      </trkpt>
      <trkpt lat="47.6478" lon="6.18766">
        <ele>254.3</ele>
        <time>2021-09-04T12:09:55Z</time>
      </trkpt>
      <trkpt lat="47.64781" lon="6.18773">
        <ele>254.4</ele>
        <time>2021-09-04T12:09:57Z</time>
      </trkpt>
      <trkpt lat="47.64784" lon="6.18781">
        <ele>254.7</ele>
        <time>2021-09-04T12:09:59Z</time>
      </trkpt>
      <trkpt lat="47.64786" lon="6.18788">
        <ele>254.8</ele>
        <time>2021-09-04T12:10:02Z</time>
      </trkpt>
      <trkpt lat="47.64789" lon="6.18798">
        <ele>255.1</ele>
        <time>2021-09-04T12:10:02Z</time>
      </trkpt>
      <trkpt lat="47.64791" lon="6.18806">
        <ele>255.3</ele>
        <time>2021-09-04T12:10:04Z</time>
      </trkpt>
      <trkpt lat="47.64793" lon="6.18812">
        <ele>255.4</ele>
        <time>2021-09-04T12:10:08Z</time>
      </trkpt>
      <trkpt lat="47.64795" lon="6.18821">
        <ele>255.6</ele>
        <time>2021-09-04T12:10:10Z</time>
      </trkpt>
      <trkpt lat="47.64797" lon="6.18828">
        <ele>255.8</ele>
        <time>2021-09-04T12:10:12Z</time>
      </trkpt>
      <trkpt lat="47.64799" lon="6.18837">
        <ele>255.9</ele>
        <time>2021-09-04T12:10:12Z</time>
      </trkpt>
      <trkpt lat="47.64801" lon="6.18844">
        <ele>255.9</ele>
        <time>2021-09-04T12:10:15Z</time>
      </trkpt>
      <trkpt lat="47.64803" lon="6.18851">
        <ele>255.9</ele>
        <time>2021-09-04T12:10:18Z</time>
      </trkpt>
      <trkpt lat="47.64805" lon="6.18858">
        <ele>256</ele>
        <time>2021-09-04T12:10:19Z</time>
      </trkpt>
      <trkpt lat="47.64807" lon="6.18865">
        <ele>256.1</ele>
        <time>2021-09-04T12:10:22Z</time>
      </trkpt>
      <trkpt lat="47.64809" lon="6.18871">
        <ele>256.2</ele>
        <time>2021-09-04T12:10:24Z</time>
      </trkpt>
      <trkpt lat="47.64812" lon="6.18878">
        <ele>256.3</ele>
        <time>2021-09-04T12:10:26Z</time>
      </trkpt>
      <trkpt lat="47.64816" lon="6.18884">
        <ele>256.6</ele>
        <time>2021-09-04T12:10:29Z</time>
      </trkpt>
      <trkpt lat="47.6482" lon="6.18887">
        <ele>256.9</ele>
        <time>2021-09-04T12:10:31Z</time>
      </trkpt>
      <trkpt lat="47.64825" lon="6.18889">
        <ele>257.3</ele>
        <time>2021-09-04T12:10:33Z</time>
      </trkpt>
      <trkpt lat="47.6483" lon="6.1889">
        <ele>257.7</ele>
        <time>2021-09-04T12:10:35Z</time>
      </trkpt>
      <trkpt lat="47.64836" lon="6.18891">
        <ele>258.2</ele>
        <time>2021-09-04T12:10:38Z</time>
      </trkpt>
      <trkpt lat="47.64842" lon="6.1889">
        <ele>258.5</ele>
        <time>2021-09-04T12:10:41Z</time>
      </trkpt>
      <trkpt lat="47.64847" lon="6.18888">
        <ele>258.8</ele>
        <time>2021-09-04T12:10:44Z</time>
      </trkpt>
      <trkpt lat="47.64853" lon="6.18883">
        <ele>259.1</ele>
        <time>2021-09-04T12:10:48Z</time>
      </trkpt>
      <trkpt lat="47.64857" lon="6.1888">
        <ele>259.4</ele>
        <time>2021-09-04T12:10:51Z</time>
      </trkpt>
      <trkpt lat="47.64861" lon="6.18876">
        <ele>259.7</ele>
        <time>2021-09-04T12:10:54Z</time>
      </trkpt>
      <trkpt lat="47.64866" lon="6.18873">
        <ele>260</ele>
        <time>2021-09-04T12:10:57Z</time>
      </trkpt>
      <trkpt lat="47.64871" lon="6.18868">
        <ele>260.3</ele>
        <time>2021-09-04T12:10:59Z</time>
      </trkpt>
      <trkpt lat="47.64875" lon="6.18866">
        <ele>260.6</ele>
        <time>2021-09-04T12:11:03Z</time>
      </trkpt>
      <trkpt lat="47.6488" lon="6.18863">
        <ele>260.9</ele>
        <time>2021-09-04T12:11:06Z</time>
      </trkpt>
      <trkpt lat="47.64884" lon="6.18862">
        <ele>261.3</ele>
        <time>2021-09-04T12:11:09Z</time>
      </trkpt>
      <trkpt lat="47.64886" lon="6.1887">
        <ele>261.2</ele>
        <time>2021-09-04T12:11:12Z</time>
      </trkpt>
      <trkpt lat="47.64888" lon="6.18879">
        <ele>261.2</ele>
        <time>2021-09-04T12:11:14Z</time>
      </trkpt>
      <trkpt lat="47.6489" lon="6.18885">
        <ele>261.2</ele>
        <time>2021-09-04T12:11:17Z</time>
      </trkpt>
      <trkpt lat="47.64892" lon="6.18892">
        <ele>261.2</ele>
        <time>2021-09-04T12:11:20Z</time>
      </trkpt>
      <trkpt lat="47.64895" lon="6.18898">
        <ele>261.3</ele>
        <time>2021-09-04T12:11:23Z</time>
      </trkpt>
      <trkpt lat="47.64898" lon="6.18906">
        <ele>261.3</ele>
        <time>2021-09-04T12:11:28Z</time>
      </trkpt>
      <trkpt lat="47.64901" lon="6.18912">
        <ele>261.4</ele>
        <time>2021-09-04T12:11:30Z</time>
      </trkpt>
      <trkpt lat="47.64905" lon="6.18914">
        <ele>261.5</ele>
        <time>2021-09-04T12:11:33Z</time>
      </trkpt>
      <trkpt lat="47.64908" lon="6.18922">
        <ele>261.5</ele>
        <time>2021-09-04T12:11:38Z</time>
      </trkpt>
      <trkpt lat="47.64911" lon="6.18928">
        <ele>261.4</ele>
        <time>2021-09-04T12:11:40Z</time>
      </trkpt>
      <trkpt lat="47.64914" lon="6.18932">
        <ele>261.5</ele>
        <time>2021-09-04T12:12:16Z</time>
      </trkpt>
      <trkpt lat="47.64918" lon="6.18938">
        <ele>261.5</ele>
        <time>2021-09-04T12:12:19Z</time>
      </trkpt>
      <trkpt lat="47.6492" lon="6.18944">
        <ele>261.5</ele>
        <time>2021-09-04T12:12:21Z</time>
      </trkpt>
      <trkpt lat="47.64924" lon="6.18951">
        <ele>261.6</ele>
        <time>2021-09-04T12:12:25Z</time>
      </trkpt>
      <trkpt lat="47.64928" lon="6.18957">
        <ele>261.6</ele>
        <time>2021-09-04T12:12:26Z</time>
      </trkpt>
      <trkpt lat="47.64931" lon="6.18963">
        <ele>261.7</ele>
        <time>2021-09-04T12:12:28Z</time>
      </trkpt>
      <trkpt lat="47.64934" lon="6.18969">
        <ele>261.7</ele>
        <time>2021-09-04T12:12:30Z</time>
      </trkpt>
      <trkpt lat="47.64938" lon="6.18976">
        <ele>261.8</ele>
        <time>2021-09-04T12:12:33Z</time>
      </trkpt>
      <trkpt lat="47.64942" lon="6.18984">
        <ele>261.9</ele>
        <time>2021-09-04T12:12:36Z</time>
      </trkpt>
      <trkpt lat="47.64945" lon="6.18991">
        <ele>261.9</ele>
        <time>2021-09-04T12:12:39Z</time>
      </trkpt>
      <trkpt lat="47.64949" lon="6.18997">
        <ele>262</ele>
        <time>2021-09-04T12:12:41Z</time>
      </trkpt>
      <trkpt lat="47.64953" lon="6.19004">
        <ele>262.1</ele>
        <time>2021-09-04T12:12:43Z</time>
      </trkpt>
      <trkpt lat="47.64956" lon="6.1901">
        <ele>262.2</ele>
        <time>2021-09-04T12:12:45Z</time>
      </trkpt>
      <trkpt lat="47.64959" lon="6.19016">
        <ele>262.3</ele>
        <time>2021-09-04T12:12:46Z</time>
      </trkpt>
      <trkpt lat="47.64962" lon="6.19021">
        <ele>262.5</ele>
        <time>2021-09-04T12:12:48Z</time>
      </trkpt>
      <trkpt lat="47.64965" lon="6.19027">
        <ele>262.6</ele>
        <time>2021-09-04T12:12:50Z</time>
      </trkpt>
      <trkpt lat="47.64969" lon="6.19035">
        <ele>262.7</ele>
        <time>2021-09-04T12:12:54Z</time>
      </trkpt>
      <trkpt lat="47.64973" lon="6.19041">
        <ele>262.9</ele>
        <time>2021-09-04T12:12:55Z</time>
      </trkpt>
      <trkpt lat="47.64976" lon="6.19047">
        <ele>263</ele>
        <time>2021-09-04T12:12:57Z</time>
      </trkpt>
      <trkpt lat="47.64979" lon="6.19052">
        <ele>263.1</ele>
        <time>2021-09-04T12:12:59Z</time>
      </trkpt>
      <trkpt lat="47.64983" lon="6.1906">
        <ele>263.3</ele>
        <time>2021-09-04T12:13:03Z</time>
      </trkpt>
      <trkpt lat="47.64987" lon="6.19066">
        <ele>263.4</ele>
        <time>2021-09-04T12:13:04Z</time>
      </trkpt>
      <trkpt lat="47.64991" lon="6.19075">
        <ele>263.6</ele>
        <time>2021-09-04T12:13:07Z</time>
      </trkpt>
      <trkpt lat="47.64995" lon="6.19082">
        <ele>263.7</ele>
        <time>2021-09-04T12:13:10Z</time>
      </trkpt>
      <trkpt lat="47.64999" lon="6.19088">
        <ele>263.9</ele>
        <time>2021-09-04T12:13:13Z</time>
      </trkpt>
      <trkpt lat="47.65001" lon="6.19094">
        <ele>263.9</ele>
        <time>2021-09-04T12:13:15Z</time>
      </trkpt>
      <trkpt lat="47.65005" lon="6.191">
        <ele>264</ele>
        <time>2021-09-04T12:13:17Z</time>
      </trkpt>
      <trkpt lat="47.65008" lon="6.19106">
        <ele>264.1</ele>
        <time>2021-09-04T12:13:19Z</time>
      </trkpt>
      <trkpt lat="47.65012" lon="6.19113">
        <ele>264.2</ele>
        <time>2021-09-04T12:13:20Z</time>
      </trkpt>
      <trkpt lat="47.65016" lon="6.19119">
        <ele>264.3</ele>
        <time>2021-09-04T12:13:22Z</time>
      </trkpt>
      <trkpt lat="47.65019" lon="6.19124">
        <ele>264.4</ele>
        <time>2021-09-04T12:13:24Z</time>
      </trkpt>
      <trkpt lat="47.65025" lon="6.19132">
        <ele>264.6</ele>
        <time>2021-09-04T12:13:27Z</time>
      </trkpt>
      <trkpt lat="47.65028" lon="6.19137">
        <ele>264.7</ele>
        <time>2021-09-04T12:13:30Z</time>
      </trkpt>
      <trkpt lat="47.65031" lon="6.19143">
        <ele>264.8</ele>
        <time>2021-09-04T12:13:31Z</time>
      </trkpt>
      <trkpt lat="47.65035" lon="6.19151">
        <ele>264.9</ele>
        <time>2021-09-04T12:13:35Z</time>
      </trkpt>
      <trkpt lat="47.65039" lon="6.19157">
        <ele>265</ele>
        <time>2021-09-04T12:13:37Z</time>
      </trkpt>
      <trkpt lat="47.65042" lon="6.19162">
        <ele>265.1</ele>
        <time>2021-09-04T12:13:39Z</time>
      </trkpt>
      <trkpt lat="47.65045" lon="6.19168">
        <ele>265.2</ele>
        <time>2021-09-04T12:13:41Z</time>
      </trkpt>
      <trkpt lat="47.6505" lon="6.19176">
        <ele>265.4</ele>
        <time>2021-09-04T12:13:42Z</time>
      </trkpt>
      <trkpt lat="47.65054" lon="6.19182">
        <ele>265.5</ele>
        <time>2021-09-04T12:13:44Z</time>
      </trkpt>
      <trkpt lat="47.65058" lon="6.19188">
        <ele>265.7</ele>
        <time>2021-09-04T12:13:47Z</time>
      </trkpt>
      <trkpt lat="47.65062" lon="6.19193">
        <ele>265.9</ele>
        <time>2021-09-04T12:13:49Z</time>
      </trkpt>
      <trkpt lat="47.65066" lon="6.19199">
        <ele>266.1</ele>
        <time>2021-09-04T12:13:51Z</time>
      </trkpt>
      <trkpt lat="47.6507" lon="6.19205">
        <ele>266.3</ele>
        <time>2021-09-04T12:13:53Z</time>
      </trkpt>
      <trkpt lat="47.65074" lon="6.19211">
        <ele>266.5</ele>
        <time>2021-09-04T12:13:55Z</time>
      </trkpt>
      <trkpt lat="47.65078" lon="6.19216">
        <ele>266.7</ele>
        <time>2021-09-04T12:13:57Z</time>
      </trkpt>
      <trkpt lat="47.65082" lon="6.19223">
        <ele>266.9</ele>
        <time>2021-09-04T12:13:59Z</time>
      </trkpt>
      <trkpt lat="47.65085" lon="6.19228">
        <ele>267.1</ele>
        <time>2021-09-04T12:14:01Z</time>
      </trkpt>
      <trkpt lat="47.65089" lon="6.19235">
        <ele>267.2</ele>
        <time>2021-09-04T12:14:03Z</time>
      </trkpt>
      <trkpt lat="47.65092" lon="6.19241">
        <ele>267.3</ele>
        <time>2021-09-04T12:14:05Z</time>
      </trkpt>
      <trkpt lat="47.65095" lon="6.19247">
        <ele>267.4</ele>
        <time>2021-09-04T12:14:07Z</time>
      </trkpt>
      <trkpt lat="47.651" lon="6.19253">
        <ele>267.5</ele>
        <time>2021-09-04T12:14:08Z</time>
      </trkpt>
      <trkpt lat="47.65104" lon="6.19259">
        <ele>267.5</ele>
        <time>2021-09-04T12:14:10Z</time>
      </trkpt>
      <trkpt lat="47.65109" lon="6.19267">
        <ele>267.5</ele>
        <time>2021-09-04T12:14:13Z</time>
      </trkpt>
      <trkpt lat="47.65113" lon="6.19272">
        <ele>267.5</ele>
        <time>2021-09-04T12:14:16Z</time>
      </trkpt>
      <trkpt lat="47.65117" lon="6.19277">
        <ele>267.5</ele>
        <time>2021-09-04T12:14:17Z</time>
      </trkpt>
      <trkpt lat="47.65121" lon="6.19283">
        <ele>267.5</ele>
        <time>2021-09-04T12:14:20Z</time>
      </trkpt>
      <trkpt lat="47.65125" lon="6.19289">
        <ele>267.6</ele>
        <time>2021-09-04T12:14:23Z</time>
      </trkpt>
      <trkpt lat="47.65128" lon="6.19296">
        <ele>267.5</ele>
        <time>2021-09-04T12:14:25Z</time>
      </trkpt>
      <trkpt lat="47.65133" lon="6.19302">
        <ele>267.5</ele>
        <time>2021-09-04T12:14:26Z</time>
      </trkpt>
      <trkpt lat="47.65137" lon="6.19305">
        <ele>267.6</ele>
        <time>2021-09-04T12:14:30Z</time>
      </trkpt>
      <trkpt lat="47.65143" lon="6.19312">
        <ele>267.7</ele>
        <time>2021-09-04T12:14:32Z</time>
      </trkpt>
      <trkpt lat="47.65149" lon="6.19318">
        <ele>267.7</ele>
        <time>2021-09-04T12:14:35Z</time>
      </trkpt>
      <trkpt lat="47.65154" lon="6.19324">
        <ele>267.8</ele>
        <time>2021-09-04T12:14:37Z</time>
      </trkpt>
      <trkpt lat="47.65159" lon="6.1933">
        <ele>267.8</ele>
        <time>2021-09-04T12:14:39Z</time>
      </trkpt>
      <trkpt lat="47.65164" lon="6.19336">
        <ele>267.8</ele>
        <time>2021-09-04T12:14:41Z</time>
      </trkpt>
      <trkpt lat="47.65168" lon="6.19342">
        <ele>267.8</ele>
        <time>2021-09-04T12:14:42Z</time>
      </trkpt>
      <trkpt lat="47.65172" lon="6.19348">
        <ele>267.8</ele>
        <time>2021-09-04T12:14:45Z</time>
      </trkpt>
      <trkpt lat="47.65175" lon="6.19352">
        <ele>267.8</ele>
        <time>2021-09-04T12:14:47Z</time>
      </trkpt>
      <trkpt lat="47.65179" lon="6.1936">
        <ele>267.7</ele>
        <time>2021-09-04T12:14:49Z</time>
      </trkpt>
      <trkpt lat="47.65183" lon="6.19369">
        <ele>267.7</ele>
        <time>2021-09-04T12:14:51Z</time>
      </trkpt>
      <trkpt lat="47.65186" lon="6.19377">
        <ele>267.5</ele>
        <time>2021-09-04T12:14:53Z</time>
      </trkpt>
      <trkpt lat="47.65188" lon="6.19383">
        <ele>267.4</ele>
        <time>2021-09-04T12:14:54Z</time>
      </trkpt>
      <trkpt lat="47.6519" lon="6.19391">
        <ele>267.3</ele>
        <time>2021-09-04T12:14:56Z</time>
      </trkpt>
      <trkpt lat="47.65193" lon="6.194">
        <ele>267.1</ele>
        <time>2021-09-04T12:14:58Z</time>
      </trkpt>
      <trkpt lat="47.652" lon="6.19409">
        <ele>267</ele>
        <time>2021-09-04T12:14:59Z</time>
      </trkpt>
      <trkpt lat="47.65206" lon="6.19414">
        <ele>267</ele>
        <time>2021-09-04T12:15:02Z</time>
      </trkpt>
      <trkpt lat="47.65211" lon="6.19419">
        <ele>267</ele>
        <time>2021-09-04T12:15:03Z</time>
      </trkpt>
      <trkpt lat="47.65221" lon="6.19431">
        <ele>267.3</ele>
        <time>2021-09-04T12:15:05Z</time>
      </trkpt>
      <trkpt lat="47.65225" lon="6.19436">
        <ele>267.4</ele>
        <time>2021-09-04T12:15:08Z</time>
      </trkpt>
      <trkpt lat="47.65233" lon="6.19446">
        <ele>267.7</ele>
        <time>2021-09-04T12:15:11Z</time>
      </trkpt>
      <trkpt lat="47.65238" lon="6.1945">
        <ele>267.9</ele>
        <time>2021-09-04T12:15:13Z</time>
      </trkpt>
      <trkpt lat="47.65242" lon="6.19454">
        <ele>268.1</ele>
        <time>2021-09-04T12:15:14Z</time>
      </trkpt>
      <trkpt lat="47.65246" lon="6.19461">
        <ele>268.4</ele>
        <time>2021-09-04T12:15:16Z</time>
      </trkpt>
      <trkpt lat="47.65251" lon="6.19468">
        <ele>268.7</ele>
        <time>2021-09-04T12:15:18Z</time>
      </trkpt>
      <trkpt lat="47.65254" lon="6.19473">
        <ele>268.9</ele>
        <time>2021-09-04T12:15:20Z</time>
      </trkpt>
      <trkpt lat="47.65261" lon="6.19488">
        <ele>269.4</ele>
        <time>2021-09-04T12:15:23Z</time>
      </trkpt>
      <trkpt lat="47.65264" lon="6.19495">
        <ele>269.6</ele>
        <time>2021-09-04T12:15:25Z</time>
      </trkpt>
      <trkpt lat="47.65266" lon="6.19505">
        <ele>269.7</ele>
        <time>2021-09-04T12:15:27Z</time>
      </trkpt>
      <trkpt lat="47.65268" lon="6.19515">
        <ele>269.7</ele>
        <time>2021-09-04T12:15:29Z</time>
      </trkpt>
      <trkpt lat="47.65268" lon="6.19523">
        <ele>269.6</ele>
        <time>2021-09-04T12:15:30Z</time>
      </trkpt>
      <trkpt lat="47.65269" lon="6.1953">
        <ele>269.6</ele>
        <time>2021-09-04T12:15:33Z</time>
      </trkpt>
      <trkpt lat="47.65272" lon="6.1954">
        <ele>269.7</ele>
        <time>2021-09-04T12:15:35Z</time>
      </trkpt>
      <trkpt lat="47.65275" lon="6.19548">
        <ele>269.8</ele>
        <time>2021-09-04T12:15:37Z</time>
      </trkpt>
      <trkpt lat="47.65278" lon="6.19556">
        <ele>269.9</ele>
        <time>2021-09-04T12:15:38Z</time>
      </trkpt>
      <trkpt lat="47.65288" lon="6.19574">
        <ele>270.4</ele>
        <time>2021-09-04T12:15:39Z</time>
      </trkpt>
      <trkpt lat="47.65291" lon="6.19583">
        <ele>270.5</ele>
        <time>2021-09-04T12:15:40Z</time>
      </trkpt>
      <trkpt lat="47.65294" lon="6.19592">
        <ele>270.4</ele>
        <time>2021-09-04T12:15:41Z</time>
      </trkpt>
      <trkpt lat="47.65295" lon="6.19602">
        <ele>270.2</ele>
        <time>2021-09-04T12:15:42Z</time>
      </trkpt>
      <trkpt lat="47.65296" lon="6.19611">
        <ele>270.1</ele>
        <time>2021-09-04T12:15:43Z</time>
      </trkpt>
      <trkpt lat="47.65297" lon="6.1962">
        <ele>269.9</ele>
        <time>2021-09-04T12:15:44Z</time>
      </trkpt>
      <trkpt lat="47.65298" lon="6.19628">
        <ele>269.7</ele>
        <time>2021-09-04T12:15:45Z</time>
      </trkpt>
      <trkpt lat="47.65299" lon="6.19637">
        <ele>269.6</ele>
        <time>2021-09-04T12:15:46Z</time>
      </trkpt>
      <trkpt lat="47.65301" lon="6.19645">
        <ele>269.4</ele>
        <time>2021-09-04T12:15:47Z</time>
      </trkpt>
      <trkpt lat="47.65304" lon="6.19653">
        <ele>269.3</ele>
        <time>2021-09-04T12:15:48Z</time>
      </trkpt>
      <trkpt lat="47.65306" lon="6.19661">
        <ele>269.2</ele>
        <time>2021-09-04T12:15:49Z</time>
      </trkpt>
      <trkpt lat="47.65308" lon="6.19669">
        <ele>269</ele>
        <time>2021-09-04T12:15:50Z</time>
      </trkpt>
      <trkpt lat="47.6531" lon="6.19676">
        <ele>268.6</ele>
        <time>2021-09-04T12:15:51Z</time>
      </trkpt>
      <trkpt lat="47.65313" lon="6.19682">
        <ele>268.3</ele>
        <time>2021-09-04T12:15:52Z</time>
      </trkpt>
      <trkpt lat="47.65315" lon="6.19688">
        <ele>268</ele>
        <time>2021-09-04T12:15:53Z</time>
      </trkpt>
      <trkpt lat="47.65317" lon="6.19694">
        <ele>267.8</ele>
        <time>2021-09-04T12:15:54Z</time>
      </trkpt>
      <trkpt lat="47.65319" lon="6.197">
        <ele>267.6</ele>
        <time>2021-09-04T12:15:55Z</time>
      </trkpt>
      <trkpt lat="47.65322" lon="6.19706">
        <ele>267.4</ele>
        <time>2021-09-04T12:15:56Z</time>
      </trkpt>
      <trkpt lat="47.65324" lon="6.19713">
        <ele>267.2</ele>
        <time>2021-09-04T12:15:57Z</time>
      </trkpt>
      <trkpt lat="47.65327" lon="6.1972">
        <ele>267</ele>
        <time>2021-09-04T12:15:58Z</time>
      </trkpt>
      <trkpt lat="47.6533" lon="6.19727">
        <ele>266.8</ele>
        <time>2021-09-04T12:15:59Z</time>
      </trkpt>
      <trkpt lat="47.65332" lon="6.19735">
        <ele>266.6</ele>
        <time>2021-09-04T12:16:00Z</time>
      </trkpt>
      <trkpt lat="47.65334" lon="6.19742">
        <ele>266.5</ele>
        <time>2021-09-04T12:16:01Z</time>
      </trkpt>
      <trkpt lat="47.65336" lon="6.19749">
        <ele>266.4</ele>
        <time>2021-09-04T12:16:02Z</time>
      </trkpt>
      <trkpt lat="47.6534" lon="6.19758">
        <ele>266.2</ele>
        <time>2021-09-04T12:16:04Z</time>
      </trkpt>
      <trkpt lat="47.65345" lon="6.19765">
        <ele>266.3</ele>
        <time>2021-09-04T12:16:06Z</time>
      </trkpt>
      <trkpt lat="47.65351" lon="6.19775">
        <ele>266.3</ele>
        <time>2021-09-04T12:16:08Z</time>
      </trkpt>
      <trkpt lat="47.65355" lon="6.19782">
        <ele>266.4</ele>
        <time>2021-09-04T12:16:10Z</time>
      </trkpt>
      <trkpt lat="47.65352" lon="6.19773">
        <ele>266.5</ele>
        <time>2021-09-04T12:16:12Z</time>
      </trkpt>
      <trkpt lat="47.65356" lon="6.1978">
        <ele>266.5</ele>
        <time>2021-09-04T12:16:14Z</time>
      </trkpt>
      <trkpt lat="47.65361" lon="6.1979">
        <ele>266.6</ele>
        <time>2021-09-04T12:16:15Z</time>
      </trkpt>
      <trkpt lat="47.65366" lon="6.19798">
        <ele>266.7</ele>
        <time>2021-09-04T12:16:16Z</time>
      </trkpt>
      <trkpt lat="47.65371" lon="6.19806">
        <ele>266.9</ele>
        <time>2021-09-04T12:16:17Z</time>
      </trkpt>
      <trkpt lat="47.65375" lon="6.19814">
        <ele>267.1</ele>
        <time>2021-09-04T12:16:19Z</time>
      </trkpt>
      <trkpt lat="47.65379" lon="6.19821">
        <ele>267.3</ele>
        <time>2021-09-04T12:16:20Z</time>
      </trkpt>
      <trkpt lat="47.65386" lon="6.1983">
        <ele>267.7</ele>
        <time>2021-09-04T12:16:22Z</time>
      </trkpt>
      <trkpt lat="47.65389" lon="6.19837">
        <ele>267.7</ele>
        <time>2021-09-04T12:16:23Z</time>
      </trkpt>
      <trkpt lat="47.65392" lon="6.19842">
        <ele>267.6</ele>
        <time>2021-09-04T12:16:24Z</time>
      </trkpt>
      <trkpt lat="47.65396" lon="6.1985">
        <ele>267.3</ele>
        <time>2021-09-04T12:16:26Z</time>
      </trkpt>
      <trkpt lat="47.65398" lon="6.19856">
        <ele>267</ele>
        <time>2021-09-04T12:16:27Z</time>
      </trkpt>
      <trkpt lat="47.65401" lon="6.19862">
        <ele>266.8</ele>
        <time>2021-09-04T12:16:28Z</time>
      </trkpt>
      <trkpt lat="47.65404" lon="6.1987">
        <ele>266.6</ele>
        <time>2021-09-04T12:16:30Z</time>
      </trkpt>
      <trkpt lat="47.65407" lon="6.19878">
        <ele>266.2</ele>
        <time>2021-09-04T12:16:32Z</time>
      </trkpt>
      <trkpt lat="47.6541" lon="6.19892">
        <ele>265.3</ele>
        <time>2021-09-04T12:16:35Z</time>
      </trkpt>
      <trkpt lat="47.65419" lon="6.1991">
        <ele>264.9</ele>
        <time>2021-09-04T12:16:37Z</time>
      </trkpt>
      <trkpt lat="47.65422" lon="6.19916">
        <ele>264.6</ele>
        <time>2021-09-04T12:16:38Z</time>
      </trkpt>
      <trkpt lat="47.65425" lon="6.19922">
        <ele>264.2</ele>
        <time>2021-09-04T12:16:39Z</time>
      </trkpt>
      <trkpt lat="47.65428" lon="6.19928">
        <ele>263.9</ele>
        <time>2021-09-04T12:16:40Z</time>
      </trkpt>
      <trkpt lat="47.65431" lon="6.19935">
        <ele>263.6</ele>
        <time>2021-09-04T12:16:41Z</time>
      </trkpt>
      <trkpt lat="47.65435" lon="6.19941">
        <ele>263.3</ele>
        <time>2021-09-04T12:16:42Z</time>
      </trkpt>
      <trkpt lat="47.6544" lon="6.19948">
        <ele>263.2</ele>
        <time>2021-09-04T12:16:43Z</time>
      </trkpt>
      <trkpt lat="47.65444" lon="6.19955">
        <ele>263.2</ele>
        <time>2021-09-04T12:16:44Z</time>
      </trkpt>
      <trkpt lat="47.65448" lon="6.19961">
        <ele>263.2</ele>
        <time>2021-09-04T12:16:45Z</time>
      </trkpt>
      <trkpt lat="47.65453" lon="6.19967">
        <ele>263.5</ele>
        <time>2021-09-04T12:16:46Z</time>
      </trkpt>
      <trkpt lat="47.65457" lon="6.19972">
        <ele>263.7</ele>
        <time>2021-09-04T12:16:47Z</time>
      </trkpt>
      <trkpt lat="47.65461" lon="6.19977">
        <ele>263.9</ele>
        <time>2021-09-04T12:16:48Z</time>
      </trkpt>
      <trkpt lat="47.65464" lon="6.19981">
        <ele>264.1</ele>
        <time>2021-09-04T12:16:49Z</time>
      </trkpt>
      <trkpt lat="47.65469" lon="6.19988">
        <ele>264.5</ele>
        <time>2021-09-04T12:16:51Z</time>
      </trkpt>
      <trkpt lat="47.65474" lon="6.19996">
        <ele>264.9</ele>
        <time>2021-09-04T12:16:53Z</time>
      </trkpt>
      <trkpt lat="47.65478" lon="6.20001">
        <ele>265.3</ele>
        <time>2021-09-04T12:16:54Z</time>
      </trkpt>
      <trkpt lat="47.65482" lon="6.20006">
        <ele>265.7</ele>
        <time>2021-09-04T12:16:55Z</time>
      </trkpt>
      <trkpt lat="47.65485" lon="6.20013">
        <ele>265.8</ele>
        <time>2021-09-04T12:16:58Z</time>
      </trkpt>
      <trkpt lat="47.65488" lon="6.20018">
        <ele>266.1</ele>
        <time>2021-09-04T12:16:59Z</time>
      </trkpt>
      <trkpt lat="47.65493" lon="6.20027">
        <ele>266.7</ele>
        <time>2021-09-04T12:17:01Z</time>
      </trkpt>
      <trkpt lat="47.65496" lon="6.20033">
        <ele>267.1</ele>
        <time>2021-09-04T12:17:02Z</time>
      </trkpt>
      <trkpt lat="47.65505" lon="6.20043">
        <ele>267.8</ele>
        <time>2021-09-04T12:17:05Z</time>
      </trkpt>
      <trkpt lat="47.65509" lon="6.20048">
        <ele>267.8</ele>
        <time>2021-09-04T12:17:06Z</time>
      </trkpt>
      <trkpt lat="47.65512" lon="6.20053">
        <ele>267.9</ele>
        <time>2021-09-04T12:17:07Z</time>
      </trkpt>
      <trkpt lat="47.65516" lon="6.20059">
        <ele>268</ele>
        <time>2021-09-04T12:17:09Z</time>
      </trkpt>
      <trkpt lat="47.65521" lon="6.20066">
        <ele>268.1</ele>
        <time>2021-09-04T12:17:11Z</time>
      </trkpt>
      <trkpt lat="47.65526" lon="6.20073">
        <ele>268.2</ele>
        <time>2021-09-04T12:17:13Z</time>
      </trkpt>
      <trkpt lat="47.65529" lon="6.20077">
        <ele>268.3</ele>
        <time>2021-09-04T12:17:15Z</time>
      </trkpt>
      <trkpt lat="47.65534" lon="6.20084">
        <ele>268.4</ele>
        <time>2021-09-04T12:17:17Z</time>
      </trkpt>
      <trkpt lat="47.65539" lon="6.20089">
        <ele>268.3</ele>
        <time>2021-09-04T12:17:19Z</time>
      </trkpt>
      <trkpt lat="47.65544" lon="6.20097">
        <ele>268.1</ele>
        <time>2021-09-04T12:17:20Z</time>
      </trkpt>
      <trkpt lat="47.65549" lon="6.20102">
        <ele>268.2</ele>
        <time>2021-09-04T12:17:22Z</time>
      </trkpt>
      <trkpt lat="47.65552" lon="6.20107">
        <ele>268.1</ele>
        <time>2021-09-04T12:17:25Z</time>
      </trkpt>
      <trkpt lat="47.65557" lon="6.20111">
        <ele>268.3</ele>
        <time>2021-09-04T12:17:27Z</time>
      </trkpt>
      <trkpt lat="47.65561" lon="6.20114">
        <ele>268.6</ele>
        <time>2021-09-04T12:17:28Z</time>
      </trkpt>
      <trkpt lat="47.65568" lon="6.20119">
        <ele>269</ele>
        <time>2021-09-04T12:17:30Z</time>
      </trkpt>
      <trkpt lat="47.65573" lon="6.20123">
        <ele>269.4</ele>
        <time>2021-09-04T12:17:32Z</time>
      </trkpt>
      <trkpt lat="47.65579" lon="6.20127">
        <ele>269.9</ele>
        <time>2021-09-04T12:17:34Z</time>
      </trkpt>
      <trkpt lat="47.65584" lon="6.20131">
        <ele>270.4</ele>
        <time>2021-09-04T12:17:36Z</time>
      </trkpt>
      <trkpt lat="47.65591" lon="6.20136">
        <ele>270.7</ele>
        <time>2021-09-04T12:17:38Z</time>
      </trkpt>
      <trkpt lat="47.65596" lon="6.20139">
        <ele>270.8</ele>
        <time>2021-09-04T12:17:40Z</time>
      </trkpt>
      <trkpt lat="47.65607" lon="6.20146">
        <ele>271.3</ele>
        <time>2021-09-04T12:17:43Z</time>
      </trkpt>
      <trkpt lat="47.65613" lon="6.2015">
        <ele>271.5</ele>
        <time>2021-09-04T12:17:45Z</time>
      </trkpt>
      <trkpt lat="47.65619" lon="6.20155">
        <ele>271.7</ele>
        <time>2021-09-04T12:17:48Z</time>
      </trkpt>
      <trkpt lat="47.65624" lon="6.20159">
        <ele>271.8</ele>
        <time>2021-09-04T12:17:50Z</time>
      </trkpt>
      <trkpt lat="47.65628" lon="6.20162">
        <ele>271.9</ele>
        <time>2021-09-04T12:17:52Z</time>
      </trkpt>
      <trkpt lat="47.65632" lon="6.20166">
        <ele>272</ele>
        <time>2021-09-04T12:17:55Z</time>
      </trkpt>
      <trkpt lat="47.65636" lon="6.20171">
        <ele>271.9</ele>
        <time>2021-09-04T12:17:57Z</time>
      </trkpt>
      <trkpt lat="47.65641" lon="6.20177">
        <ele>271.9</ele>
        <time>2021-09-04T12:17:59Z</time>
      </trkpt>
      <trkpt lat="47.65649" lon="6.20185">
        <ele>272</ele>
        <time>2021-09-04T12:18:00Z</time>
      </trkpt>
      <trkpt lat="47.65654" lon="6.2019">
        <ele>272.1</ele>
        <time>2021-09-04T12:18:03Z</time>
      </trkpt>
      <trkpt lat="47.65658" lon="6.20194">
        <ele>272.3</ele>
        <time>2021-09-04T12:18:04Z</time>
      </trkpt>
      <trkpt lat="47.65668" lon="6.20207">
        <ele>272.7</ele>
        <time>2021-09-04T12:18:07Z</time>
      </trkpt>
      <trkpt lat="47.65672" lon="6.20212">
        <ele>273</ele>
        <time>2021-09-04T12:18:08Z</time>
      </trkpt>
      <trkpt lat="47.65679" lon="6.20221">
        <ele>273.3</ele>
        <time>2021-09-04T12:18:09Z</time>
      </trkpt>
      <trkpt lat="47.65686" lon="6.20228">
        <ele>273.6</ele>
        <time>2021-09-04T12:18:12Z</time>
      </trkpt>
      <trkpt lat="47.6569" lon="6.20233">
        <ele>273.7</ele>
        <time>2021-09-04T12:18:13Z</time>
      </trkpt>
      <trkpt lat="47.657" lon="6.20245">
        <ele>274.1</ele>
        <time>2021-09-04T12:18:16Z</time>
      </trkpt>
      <trkpt lat="47.65706" lon="6.20251">
        <ele>274.1</ele>
        <time>2021-09-04T12:18:17Z</time>
      </trkpt>
      <trkpt lat="47.65709" lon="6.20255">
        <ele>273.7</ele>
        <time>2021-09-04T12:18:19Z</time>
      </trkpt>
      <trkpt lat="47.65713" lon="6.2026">
        <ele>273.2</ele>
        <time>2021-09-04T12:18:20Z</time>
      </trkpt>
      <trkpt lat="47.6572" lon="6.20268">
        <ele>272.4</ele>
        <time>2021-09-04T12:18:22Z</time>
      </trkpt>
      <trkpt lat="47.65726" lon="6.20274">
        <ele>271.8</ele>
        <time>2021-09-04T12:18:24Z</time>
      </trkpt>
      <trkpt lat="47.6573" lon="6.20279">
        <ele>271.3</ele>
        <time>2021-09-04T12:18:25Z</time>
      </trkpt>
      <trkpt lat="47.65742" lon="6.20292">
        <ele>269.9</ele>
        <time>2021-09-04T12:18:26Z</time>
      </trkpt>
      <trkpt lat="47.65747" lon="6.20298">
        <ele>269.2</ele>
        <time>2021-09-04T12:18:27Z</time>
      </trkpt>
      <trkpt lat="47.65753" lon="6.20304">
        <ele>268.5</ele>
        <time>2021-09-04T12:18:28Z</time>
      </trkpt>
      <trkpt lat="47.65759" lon="6.20311">
        <ele>268</ele>
        <time>2021-09-04T12:18:29Z</time>
      </trkpt>
      <trkpt lat="47.65766" lon="6.20317">
        <ele>267.4</ele>
        <time>2021-09-04T12:18:30Z</time>
      </trkpt>
      <trkpt lat="47.65772" lon="6.20323">
        <ele>267</ele>
        <time>2021-09-04T12:18:31Z</time>
      </trkpt>
      <trkpt lat="47.65778" lon="6.20328">
        <ele>266.6</ele>
        <time>2021-09-04T12:18:32Z</time>
      </trkpt>
      <trkpt lat="47.65784" lon="6.20334">
        <ele>266.2</ele>
        <time>2021-09-04T12:18:33Z</time>
      </trkpt>
      <trkpt lat="47.6579" lon="6.20339">
        <ele>266</ele>
        <time>2021-09-04T12:18:34Z</time>
      </trkpt>
      <trkpt lat="47.65796" lon="6.20345">
        <ele>265.9</ele>
        <time>2021-09-04T12:18:35Z</time>
      </trkpt>
      <trkpt lat="47.65802" lon="6.20351">
        <ele>265.8</ele>
        <time>2021-09-04T12:18:36Z</time>
      </trkpt>
      <trkpt lat="47.65808" lon="6.20356">
        <ele>265.7</ele>
        <time>2021-09-04T12:18:37Z</time>
      </trkpt>
      <trkpt lat="47.65814" lon="6.20362">
        <ele>265.6</ele>
        <time>2021-09-04T12:18:38Z</time>
      </trkpt>
      <trkpt lat="47.65819" lon="6.20369">
        <ele>265.3</ele>
        <time>2021-09-04T12:18:39Z</time>
      </trkpt>
      <trkpt lat="47.65825" lon="6.20375">
        <ele>265.1</ele>
        <time>2021-09-04T12:18:40Z</time>
      </trkpt>
      <trkpt lat="47.6583" lon="6.20381">
        <ele>265</ele>
        <time>2021-09-04T12:18:41Z</time>
      </trkpt>
      <trkpt lat="47.65836" lon="6.20386">
        <ele>265</ele>
        <time>2021-09-04T12:18:42Z</time>
      </trkpt>
      <trkpt lat="47.65841" lon="6.20391">
        <ele>265.1</ele>
        <time>2021-09-04T12:18:43Z</time>
      </trkpt>
      <trkpt lat="47.65846" lon="6.20396">
        <ele>265.2</ele>
        <time>2021-09-04T12:18:44Z</time>
      </trkpt>
      <trkpt lat="47.65851" lon="6.20401">
        <ele>265.3</ele>
        <time>2021-09-04T12:18:45Z</time>
      </trkpt>
      <trkpt lat="47.65856" lon="6.20405">
        <ele>265.3</ele>
        <time>2021-09-04T12:18:46Z</time>
      </trkpt>
      <trkpt lat="47.6586" lon="6.2041">
        <ele>265.4</ele>
        <time>2021-09-04T12:18:47Z</time>
      </trkpt>
      <trkpt lat="47.65864" lon="6.20413">
        <ele>265.4</ele>
        <time>2021-09-04T12:18:48Z</time>
      </trkpt>
      <trkpt lat="47.65871" lon="6.2042">
        <ele>265.6</ele>
        <time>2021-09-04T12:18:50Z</time>
      </trkpt>
      <trkpt lat="47.65877" lon="6.20424">
        <ele>265.7</ele>
        <time>2021-09-04T12:18:52Z</time>
      </trkpt>
      <trkpt lat="47.65883" lon="6.2043">
        <ele>265.8</ele>
        <time>2021-09-04T12:18:54Z</time>
      </trkpt>
      <trkpt lat="47.65889" lon="6.20436">
        <ele>265.8</ele>
        <time>2021-09-04T12:18:56Z</time>
      </trkpt>
      <trkpt lat="47.65887" lon="6.20447">
        <ele>264</ele>
        <time>2021-09-04T12:18:59Z</time>
      </trkpt>
      <trkpt lat="47.65894" lon="6.20451">
        <ele>264.3</ele>
        <time>2021-09-04T12:19:01Z</time>
      </trkpt>
      <trkpt lat="47.65909" lon="6.20459">
        <ele>264.9</ele>
        <time>2021-09-04T12:19:04Z</time>
      </trkpt>
      <trkpt lat="47.65921" lon="6.20469">
        <ele>264.9</ele>
        <time>2021-09-04T12:19:06Z</time>
      </trkpt>
      <trkpt lat="47.65926" lon="6.20473">
        <ele>264.7</ele>
        <time>2021-09-04T12:19:09Z</time>
      </trkpt>
      <trkpt lat="47.6593" lon="6.20475">
        <ele>264.7</ele>
        <time>2021-09-04T12:19:10Z</time>
      </trkpt>
      <trkpt lat="47.65937" lon="6.20479">
        <ele>264.7</ele>
        <time>2021-09-04T12:19:11Z</time>
      </trkpt>
      <trkpt lat="47.65941" lon="6.20483">
        <ele>264.6</ele>
        <time>2021-09-04T12:19:14Z</time>
      </trkpt>
      <trkpt lat="47.65947" lon="6.20486">
        <ele>264.7</ele>
        <time>2021-09-04T12:19:16Z</time>
      </trkpt>
      <trkpt lat="47.65957" lon="6.20492">
        <ele>264.6</ele>
        <time>2021-09-04T12:19:17Z</time>
      </trkpt>
      <trkpt lat="47.65961" lon="6.20495">
        <ele>264.5</ele>
        <time>2021-09-04T12:19:21Z</time>
      </trkpt>
      <trkpt lat="47.65967" lon="6.205">
        <ele>264.3</ele>
        <time>2021-09-04T12:19:21Z</time>
      </trkpt>
      <trkpt lat="47.65971" lon="6.20503">
        <ele>264.1</ele>
        <time>2021-09-04T12:19:25Z</time>
      </trkpt>
      <trkpt lat="47.65976" lon="6.20506">
        <ele>264</ele>
        <time>2021-09-04T12:19:26Z</time>
      </trkpt>
      <trkpt lat="47.65982" lon="6.2051">
        <ele>263.8</ele>
        <time>2021-09-04T12:19:28Z</time>
      </trkpt>
      <trkpt lat="47.65989" lon="6.20515">
        <ele>263.7</ele>
        <time>2021-09-04T12:19:31Z</time>
      </trkpt>
      <trkpt lat="47.65994" lon="6.20518">
        <ele>263.7</ele>
        <time>2021-09-04T12:19:33Z</time>
      </trkpt>
      <trkpt lat="47.66" lon="6.20521">
        <ele>263.7</ele>
        <time>2021-09-04T12:19:35Z</time>
      </trkpt>
      <trkpt lat="47.66007" lon="6.20524">
        <ele>264.2</ele>
        <time>2021-09-04T12:19:37Z</time>
      </trkpt>
      <trkpt lat="47.66012" lon="6.20526">
        <ele>264.7</ele>
        <time>2021-09-04T12:19:39Z</time>
      </trkpt>
      <trkpt lat="47.6602" lon="6.20528">
        <ele>265.2</ele>
        <time>2021-09-04T12:19:41Z</time>
      </trkpt>
      <trkpt lat="47.66026" lon="6.20532">
        <ele>265.4</ele>
        <time>2021-09-04T12:19:41Z</time>
      </trkpt>
      <trkpt lat="47.66031" lon="6.20535">
        <ele>265.6</ele>
        <time>2021-09-04T12:19:45Z</time>
      </trkpt>
      <trkpt lat="47.66035" lon="6.20537">
        <ele>265.7</ele>
        <time>2021-09-04T12:19:46Z</time>
      </trkpt>
      <trkpt lat="47.66042" lon="6.20541">
        <ele>265.8</ele>
        <time>2021-09-04T12:19:48Z</time>
      </trkpt>
      <trkpt lat="47.66047" lon="6.20545">
        <ele>265.9</ele>
        <time>2021-09-04T12:19:48Z</time>
      </trkpt>
      <trkpt lat="47.66052" lon="6.20548">
        <ele>265.9</ele>
        <time>2021-09-04T12:19:52Z</time>
      </trkpt>
      <trkpt lat="47.66057" lon="6.20552">
        <ele>265.8</ele>
        <time>2021-09-04T12:19:52Z</time>
      </trkpt>
      <trkpt lat="47.66062" lon="6.20554">
        <ele>266</ele>
        <time>2021-09-04T12:19:56Z</time>
      </trkpt>
      <trkpt lat="47.66066" lon="6.20556">
        <ele>266.3</ele>
        <time>2021-09-04T12:19:58Z</time>
      </trkpt>
      <trkpt lat="47.66071" lon="6.20558">
        <ele>266.4</ele>
        <time>2021-09-04T12:20:00Z</time>
      </trkpt>
      <trkpt lat="47.66077" lon="6.20561">
        <ele>266.6</ele>
        <time>2021-09-04T12:20:02Z</time>
      </trkpt>
      <trkpt lat="47.66083" lon="6.20564">
        <ele>266.6</ele>
        <time>2021-09-04T12:20:04Z</time>
      </trkpt>
      <trkpt lat="47.66088" lon="6.20566">
        <ele>266.8</ele>
        <time>2021-09-04T12:20:06Z</time>
      </trkpt>
      <trkpt lat="47.66094" lon="6.2057">
        <ele>266.6</ele>
        <time>2021-09-04T12:20:08Z</time>
      </trkpt>
      <trkpt lat="47.66101" lon="6.20574">
        <ele>266.6</ele>
        <time>2021-09-04T12:20:10Z</time>
      </trkpt>
      <trkpt lat="47.66108" lon="6.20578">
        <ele>266.5</ele>
        <time>2021-09-04T12:20:11Z</time>
      </trkpt>
      <trkpt lat="47.66113" lon="6.20581">
        <ele>266.3</ele>
        <time>2021-09-04T12:20:15Z</time>
      </trkpt>
      <trkpt lat="47.66118" lon="6.20584">
        <ele>266.2</ele>
        <time>2021-09-04T12:20:17Z</time>
      </trkpt>
      <trkpt lat="47.66123" lon="6.20587">
        <ele>266.2</ele>
        <time>2021-09-04T12:20:19Z</time>
      </trkpt>
      <trkpt lat="47.66128" lon="6.2059">
        <ele>266.2</ele>
        <time>2021-09-04T12:20:21Z</time>
      </trkpt>
      <trkpt lat="47.66132" lon="6.20592">
        <ele>266.2</ele>
        <time>2021-09-04T12:20:23Z</time>
      </trkpt>
      <trkpt lat="47.66138" lon="6.20595">
        <ele>266.2</ele>
        <time>2021-09-04T12:20:25Z</time>
      </trkpt>
      <trkpt lat="47.66143" lon="6.20598">
        <ele>266.2</ele>
        <time>2021-09-04T12:20:27Z</time>
      </trkpt>
      <trkpt lat="47.66147" lon="6.206">
        <ele>266.2</ele>
        <time>2021-09-04T12:20:29Z</time>
      </trkpt>
      <trkpt lat="47.66152" lon="6.20603">
        <ele>266.2</ele>
        <time>2021-09-04T12:20:31Z</time>
      </trkpt>
      <trkpt lat="47.66158" lon="6.20606">
        <ele>266.2</ele>
        <time>2021-09-04T12:20:31Z</time>
      </trkpt>
      <trkpt lat="47.66163" lon="6.20608">
        <ele>266.2</ele>
        <time>2021-09-04T12:20:36Z</time>
      </trkpt>
      <trkpt lat="47.66169" lon="6.20611">
        <ele>266</ele>
        <time>2021-09-04T12:20:38Z</time>
      </trkpt>
      <trkpt lat="47.66174" lon="6.20614">
        <ele>265.4</ele>
        <time>2021-09-04T12:20:38Z</time>
      </trkpt>
      <trkpt lat="47.66179" lon="6.20619">
        <ele>264.5</ele>
        <time>2021-09-04T12:20:42Z</time>
      </trkpt>
      <trkpt lat="47.66188" lon="6.20626">
        <ele>263.1</ele>
        <time>2021-09-04T12:20:44Z</time>
      </trkpt>
      <trkpt lat="47.66209" lon="6.20644">
        <ele>259.5</ele>
        <time>2021-09-04T12:20:44Z</time>
      </trkpt>
      <trkpt lat="47.66217" lon="6.20654">
        <ele>257.8</ele>
        <time>2021-09-04T12:20:45Z</time>
      </trkpt>
      <trkpt lat="47.66224" lon="6.20663">
        <ele>256</ele>
        <time>2021-09-04T12:20:46Z</time>
      </trkpt>
      <trkpt lat="47.6623" lon="6.20671">
        <ele>254.6</ele>
        <time>2021-09-04T12:20:47Z</time>
      </trkpt>
      <trkpt lat="47.66235" lon="6.20679">
        <ele>253.5</ele>
        <time>2021-09-04T12:20:48Z</time>
      </trkpt>
      <trkpt lat="47.6624" lon="6.20687">
        <ele>252.4</ele>
        <time>2021-09-04T12:20:49Z</time>
      </trkpt>
      <trkpt lat="47.66246" lon="6.20694">
        <ele>251.4</ele>
        <time>2021-09-04T12:20:50Z</time>
      </trkpt>
      <trkpt lat="47.66251" lon="6.20702">
        <ele>250.3</ele>
        <time>2021-09-04T12:20:51Z</time>
      </trkpt>
      <trkpt lat="47.66257" lon="6.20708">
        <ele>249.5</ele>
        <time>2021-09-04T12:20:52Z</time>
      </trkpt>
      <trkpt lat="47.66264" lon="6.20714">
        <ele>248.7</ele>
        <time>2021-09-04T12:20:53Z</time>
      </trkpt>
      <trkpt lat="47.6627" lon="6.20718">
        <ele>248</ele>
        <time>2021-09-04T12:20:54Z</time>
      </trkpt>
      <trkpt lat="47.66277" lon="6.20721">
        <ele>247.6</ele>
        <time>2021-09-04T12:20:55Z</time>
      </trkpt>
      <trkpt lat="47.66284" lon="6.20724">
        <ele>247.4</ele>
        <time>2021-09-04T12:20:56Z</time>
      </trkpt>
      <trkpt lat="47.66292" lon="6.20726">
        <ele>247.1</ele>
        <time>2021-09-04T12:20:57Z</time>
      </trkpt>
      <trkpt lat="47.66299" lon="6.20727">
        <ele>247</ele>
        <time>2021-09-04T12:20:58Z</time>
      </trkpt>
      <trkpt lat="47.66306" lon="6.20728">
        <ele>246.9</ele>
        <time>2021-09-04T12:20:59Z</time>
      </trkpt>
      <trkpt lat="47.66313" lon="6.2073">
        <ele>246.7</ele>
        <time>2021-09-04T12:21:00Z</time>
      </trkpt>
      <trkpt lat="47.6632" lon="6.20732">
        <ele>246.5</ele>
        <time>2021-09-04T12:21:01Z</time>
      </trkpt>
      <trkpt lat="47.66326" lon="6.20734">
        <ele>246.3</ele>
        <time>2021-09-04T12:21:02Z</time>
      </trkpt>
      <trkpt lat="47.66332" lon="6.20737">
        <ele>246.1</ele>
        <time>2021-09-04T12:21:03Z</time>
      </trkpt>
      <trkpt lat="47.66338" lon="6.2074">
        <ele>246.2</ele>
        <time>2021-09-04T12:21:04Z</time>
      </trkpt>
      <trkpt lat="47.66343" lon="6.20745">
        <ele>246.2</ele>
        <time>2021-09-04T12:21:05Z</time>
      </trkpt>
      <trkpt lat="47.66349" lon="6.20751">
        <ele>246.2</ele>
        <time>2021-09-04T12:21:06Z</time>
      </trkpt>
      <trkpt lat="47.66355" lon="6.20759">
        <ele>246.1</ele>
        <time>2021-09-04T12:21:07Z</time>
      </trkpt>
      <trkpt lat="47.66359" lon="6.20768">
        <ele>245.8</ele>
        <time>2021-09-04T12:21:08Z</time>
      </trkpt>
      <trkpt lat="47.66363" lon="6.20777">
        <ele>245.4</ele>
        <time>2021-09-04T12:21:09Z</time>
      </trkpt>
      <trkpt lat="47.66366" lon="6.20787">
        <ele>245</ele>
        <time>2021-09-04T12:21:10Z</time>
      </trkpt>
      <trkpt lat="47.66369" lon="6.20797">
        <ele>244.5</ele>
        <time>2021-09-04T12:21:11Z</time>
      </trkpt>
      <trkpt lat="47.66372" lon="6.20806">
        <ele>244.2</ele>
        <time>2021-09-04T12:21:12Z</time>
      </trkpt>
      <trkpt lat="47.66377" lon="6.20814">
        <ele>244.1</ele>
        <time>2021-09-04T12:21:13Z</time>
      </trkpt>
      <trkpt lat="47.66381" lon="6.20822">
        <ele>244</ele>
        <time>2021-09-04T12:21:14Z</time>
      </trkpt>
      <trkpt lat="47.66384" lon="6.20831">
        <ele>243.7</ele>
        <time>2021-09-04T12:21:15Z</time>
      </trkpt>
      <trkpt lat="47.66386" lon="6.20841">
        <ele>243.5</ele>
        <time>2021-09-04T12:21:16Z</time>
      </trkpt>
      <trkpt lat="47.66387" lon="6.20851">
        <ele>243.4</ele>
        <time>2021-09-04T12:21:17Z</time>
      </trkpt>
      <trkpt lat="47.66387" lon="6.20861">
        <ele>243.2</ele>
        <time>2021-09-04T12:21:18Z</time>
      </trkpt>
      <trkpt lat="47.66387" lon="6.20871">
        <ele>243.1</ele>
        <time>2021-09-04T12:21:19Z</time>
      </trkpt>
      <trkpt lat="47.66389" lon="6.2088">
        <ele>243</ele>
        <time>2021-09-04T12:21:20Z</time>
      </trkpt>
      <trkpt lat="47.66391" lon="6.20888">
        <ele>243.1</ele>
        <time>2021-09-04T12:21:21Z</time>
      </trkpt>
      <trkpt lat="47.66393" lon="6.20894">
        <ele>243.2</ele>
        <time>2021-09-04T12:21:22Z</time>
      </trkpt>
      <trkpt lat="47.66395" lon="6.209">
        <ele>243.3</ele>
        <time>2021-09-04T12:21:23Z</time>
      </trkpt>
      <trkpt lat="47.66399" lon="6.20912">
        <ele>243.4</ele>
        <time>2021-09-04T12:21:25Z</time>
      </trkpt>
      <trkpt lat="47.664" lon="6.20921">
        <ele>243.3</ele>
        <time>2021-09-04T12:21:27Z</time>
      </trkpt>
      <trkpt lat="47.66402" lon="6.20933">
        <ele>243</ele>
        <time>2021-09-04T12:21:29Z</time>
      </trkpt>
      <trkpt lat="47.66404" lon="6.20945">
        <ele>242.7</ele>
        <time>2021-09-04T12:21:31Z</time>
      </trkpt>
      <trkpt lat="47.66406" lon="6.20954">
        <ele>242.6</ele>
        <time>2021-09-04T12:21:35Z</time>
      </trkpt>
      <trkpt lat="47.66405" lon="6.20961">
        <ele>242.3</ele>
        <time>2021-09-04T12:21:37Z</time>
      </trkpt>
      <trkpt lat="47.66399" lon="6.20965">
        <ele>241.5</ele>
        <time>2021-09-04T12:21:39Z</time>
      </trkpt>
      <trkpt lat="47.66396" lon="6.20974">
        <ele>241</ele>
        <time>2021-09-04T12:22:06Z</time>
      </trkpt>
      <trkpt lat="47.66396" lon="6.20985">
        <ele>240.5</ele>
        <time>2021-09-04T12:22:06Z</time>
      </trkpt>
      <trkpt lat="47.66396" lon="6.20994">
        <ele>240.3</ele>
        <time>2021-09-04T12:22:10Z</time>
      </trkpt>
      <trkpt lat="47.66396" lon="6.21004">
        <ele>239.8</ele>
        <time>2021-09-04T12:22:12Z</time>
      </trkpt>
      <trkpt lat="47.66397" lon="6.21015">
        <ele>239</ele>
        <time>2021-09-04T12:22:14Z</time>
      </trkpt>
      <trkpt lat="47.66397" lon="6.21026">
        <ele>238.2</ele>
        <time>2021-09-04T12:22:14Z</time>
      </trkpt>
      <trkpt lat="47.66396" lon="6.21033">
        <ele>237.7</ele>
        <time>2021-09-04T12:22:17Z</time>
      </trkpt>
      <trkpt lat="47.66396" lon="6.21041">
        <ele>237.1</ele>
        <time>2021-09-04T12:22:19Z</time>
      </trkpt>
      <trkpt lat="47.66396" lon="6.2105">
        <ele>236.4</ele>
        <time>2021-09-04T12:22:20Z</time>
      </trkpt>
      <trkpt lat="47.66396" lon="6.21064">
        <ele>235.4</ele>
        <time>2021-09-04T12:22:20Z</time>
      </trkpt>
      <trkpt lat="47.66396" lon="6.21071">
        <ele>234.9</ele>
        <time>2021-09-04T12:22:21Z</time>
      </trkpt>
      <trkpt lat="47.66395" lon="6.21077">
        <ele>234.4</ele>
        <time>2021-09-04T12:22:22Z</time>
      </trkpt>
      <trkpt lat="47.66395" lon="6.21089">
        <ele>233.6</ele>
        <time>2021-09-04T12:22:26Z</time>
      </trkpt>
      <trkpt lat="47.66394" lon="6.2111">
        <ele>232.5</ele>
        <time>2021-09-04T12:22:27Z</time>
      </trkpt>
      <trkpt lat="47.66394" lon="6.2112">
        <ele>231.9</ele>
        <time>2021-09-04T12:22:31Z</time>
      </trkpt>
      <trkpt lat="47.66393" lon="6.21135">
        <ele>231.1</ele>
        <time>2021-09-04T12:22:34Z</time>
      </trkpt>
      <trkpt lat="47.66391" lon="6.21145">
        <ele>230.5</ele>
        <time>2021-09-04T12:22:35Z</time>
      </trkpt>
      <trkpt lat="47.66387" lon="6.21154">
        <ele>230</ele>
        <time>2021-09-04T12:22:37Z</time>
      </trkpt>
      <trkpt lat="47.66382" lon="6.21161">
        <ele>229.5</ele>
        <time>2021-09-04T12:22:39Z</time>
      </trkpt>
      <trkpt lat="47.66372" lon="6.21176">
        <ele>228.8</ele>
        <time>2021-09-04T12:22:40Z</time>
      </trkpt>
      <trkpt lat="47.66368" lon="6.2118">
        <ele>228.7</ele>
        <time>2021-09-04T12:22:41Z</time>
      </trkpt>
      <trkpt lat="47.66364" lon="6.21186">
        <ele>228.5</ele>
        <time>2021-09-04T12:22:42Z</time>
      </trkpt>
      <trkpt lat="47.66361" lon="6.21192">
        <ele>228.4</ele>
        <time>2021-09-04T12:22:43Z</time>
      </trkpt>
      <trkpt lat="47.66358" lon="6.21199">
        <ele>228.2</ele>
        <time>2021-09-04T12:22:44Z</time>
      </trkpt>
      <trkpt lat="47.66356" lon="6.21207">
        <ele>228</ele>
        <time>2021-09-04T12:22:45Z</time>
      </trkpt>
      <trkpt lat="47.66352" lon="6.21215">
        <ele>227.9</ele>
        <time>2021-09-04T12:22:46Z</time>
      </trkpt>
      <trkpt lat="47.6635" lon="6.21223">
        <ele>227.7</ele>
        <time>2021-09-04T12:22:47Z</time>
      </trkpt>
      <trkpt lat="47.66347" lon="6.21231">
        <ele>227.5</ele>
        <time>2021-09-04T12:22:48Z</time>
      </trkpt>
      <trkpt lat="47.66344" lon="6.21238">
        <ele>227.4</ele>
        <time>2021-09-04T12:22:49Z</time>
      </trkpt>
      <trkpt lat="47.66341" lon="6.21246">
        <ele>227.2</ele>
        <time>2021-09-04T12:22:50Z</time>
      </trkpt>
      <trkpt lat="47.66338" lon="6.21253">
        <ele>227</ele>
        <time>2021-09-04T12:22:51Z</time>
      </trkpt>
      <trkpt lat="47.66335" lon="6.2126">
        <ele>226.8</ele>
        <time>2021-09-04T12:22:52Z</time>
      </trkpt>
      <trkpt lat="47.66333" lon="6.21268">
        <ele>226.6</ele>
        <time>2021-09-04T12:22:53Z</time>
      </trkpt>
      <trkpt lat="47.66331" lon="6.21277">
        <ele>226.4</ele>
        <time>2021-09-04T12:22:54Z</time>
      </trkpt>
      <trkpt lat="47.6633" lon="6.21285">
        <ele>226.2</ele>
        <time>2021-09-04T12:22:55Z</time>
      </trkpt>
      <trkpt lat="47.66328" lon="6.21292">
        <ele>226.1</ele>
        <time>2021-09-04T12:22:56Z</time>
      </trkpt>
      <trkpt lat="47.66327" lon="6.21299">
        <ele>226</ele>
        <time>2021-09-04T12:22:57Z</time>
      </trkpt>
      <trkpt lat="47.66325" lon="6.21305">
        <ele>225.9</ele>
        <time>2021-09-04T12:22:58Z</time>
      </trkpt>
      <trkpt lat="47.66321" lon="6.21318">
        <ele>225.7</ele>
        <time>2021-09-04T12:23:00Z</time>
      </trkpt>
      <trkpt lat="47.66319" lon="6.21327">
        <ele>225.6</ele>
        <time>2021-09-04T12:23:02Z</time>
      </trkpt>
      <trkpt lat="47.66317" lon="6.21338">
        <ele>225.7</ele>
        <time>2021-09-04T12:23:05Z</time>
      </trkpt>
      <trkpt lat="47.66315" lon="6.21346">
        <ele>226</ele>
        <time>2021-09-04T12:23:08Z</time>
      </trkpt>
      <trkpt lat="47.66313" lon="6.21355">
        <ele>226.3</ele>
        <time>2021-09-04T12:23:10Z</time>
      </trkpt>
      <trkpt lat="47.6631" lon="6.21365">
        <ele>226.6</ele>
        <time>2021-09-04T12:23:10Z</time>
      </trkpt>
      <trkpt lat="47.66306" lon="6.21372">
        <ele>226.9</ele>
        <time>2021-09-04T12:23:14Z</time>
      </trkpt>
      <trkpt lat="47.66303" lon="6.21381">
        <ele>227.2</ele>
        <time>2021-09-04T12:23:15Z</time>
      </trkpt>
      <trkpt lat="47.66301" lon="6.2139">
        <ele>227.5</ele>
        <time>2021-09-04T12:23:18Z</time>
      </trkpt>
      <trkpt lat="47.66299" lon="6.214">
        <ele>227.8</ele>
        <time>2021-09-04T12:23:22Z</time>
      </trkpt>
      <trkpt lat="47.663" lon="6.21422">
        <ele>228.4</ele>
        <time>2021-09-04T12:23:22Z</time>
      </trkpt>
      <trkpt lat="47.663" lon="6.21431">
        <ele>228.6</ele>
        <time>2021-09-04T12:23:23Z</time>
      </trkpt>
      <trkpt lat="47.663" lon="6.21439">
        <ele>228.8</ele>
        <time>2021-09-04T12:23:24Z</time>
      </trkpt>
      <trkpt lat="47.663" lon="6.21448">
        <ele>229</ele>
        <time>2021-09-04T12:23:25Z</time>
      </trkpt>
      <trkpt lat="47.663" lon="6.21456">
        <ele>229.2</ele>
        <time>2021-09-04T12:23:26Z</time>
      </trkpt>
      <trkpt lat="47.663" lon="6.21464">
        <ele>229.5</ele>
        <time>2021-09-04T12:23:27Z</time>
      </trkpt>
      <trkpt lat="47.66299" lon="6.21471">
        <ele>229.7</ele>
        <time>2021-09-04T12:23:28Z</time>
      </trkpt>
      <trkpt lat="47.66299" lon="6.21479">
        <ele>229.9</ele>
        <time>2021-09-04T12:23:29Z</time>
      </trkpt>
      <trkpt lat="47.66299" lon="6.21486">
        <ele>230.1</ele>
        <time>2021-09-04T12:23:30Z</time>
      </trkpt>
      <trkpt lat="47.66298" lon="6.21493">
        <ele>230.3</ele>
        <time>2021-09-04T12:23:31Z</time>
      </trkpt>
      <trkpt lat="47.66298" lon="6.215">
        <ele>230.5</ele>
        <time>2021-09-04T12:23:32Z</time>
      </trkpt>
      <trkpt lat="47.66298" lon="6.21511">
        <ele>231</ele>
        <time>2021-09-04T12:23:34Z</time>
      </trkpt>
      <trkpt lat="47.66297" lon="6.21522">
        <ele>231.4</ele>
        <time>2021-09-04T12:23:36Z</time>
      </trkpt>
      <trkpt lat="47.66298" lon="6.21534">
        <ele>231.8</ele>
        <time>2021-09-04T12:23:38Z</time>
      </trkpt>
      <trkpt lat="47.66299" lon="6.21544">
        <ele>232.1</ele>
        <time>2021-09-04T12:23:44Z</time>
      </trkpt>
      <trkpt lat="47.66301" lon="6.21556">
        <ele>232.3</ele>
        <time>2021-09-04T12:23:44Z</time>
      </trkpt>
      <trkpt lat="47.66303" lon="6.21564">
        <ele>232.3</ele>
        <time>2021-09-04T12:23:48Z</time>
      </trkpt>
      <trkpt lat="47.66305" lon="6.21579">
        <ele>232.5</ele>
        <time>2021-09-04T12:23:51Z</time>
      </trkpt>
      <trkpt lat="47.66309" lon="6.21595">
        <ele>232.3</ele>
        <time>2021-09-04T12:23:52Z</time>
      </trkpt>
      <trkpt lat="47.6631" lon="6.21603">
        <ele>232.2</ele>
        <time>2021-09-04T12:23:56Z</time>
      </trkpt>
      <trkpt lat="47.66312" lon="6.21613">
        <ele>232.1</ele>
        <time>2021-09-04T12:23:59Z</time>
      </trkpt>
      <trkpt lat="47.66314" lon="6.21622">
        <ele>232</ele>
        <time>2021-09-04T12:24:01Z</time>
      </trkpt>
      <trkpt lat="47.66315" lon="6.21631">
        <ele>231.8</ele>
        <time>2021-09-04T12:24:01Z</time>
      </trkpt>
      <trkpt lat="47.66317" lon="6.21642">
        <ele>231.7</ele>
        <time>2021-09-04T12:24:04Z</time>
      </trkpt>
      <trkpt lat="47.66317" lon="6.21649">
        <ele>231.7</ele>
        <time>2021-09-04T12:24:08Z</time>
      </trkpt>
      <trkpt lat="47.66318" lon="6.21656">
        <ele>231.7</ele>
        <time>2021-09-04T12:24:10Z</time>
      </trkpt>
      <trkpt lat="47.66319" lon="6.21665">
        <ele>231.7</ele>
        <time>2021-09-04T12:24:12Z</time>
      </trkpt>
      <trkpt lat="47.66319" lon="6.21674">
        <ele>231.5</ele>
        <time>2021-09-04T12:24:14Z</time>
      </trkpt>
      <trkpt lat="47.66319" lon="6.21682">
        <ele>231.4</ele>
        <time>2021-09-04T12:24:16Z</time>
      </trkpt>
      <trkpt lat="47.66319" lon="6.21691">
        <ele>231.2</ele>
        <time>2021-09-04T12:24:16Z</time>
      </trkpt>
      <trkpt lat="47.66319" lon="6.21698">
        <ele>231.1</ele>
        <time>2021-09-04T12:24:20Z</time>
      </trkpt>
      <trkpt lat="47.66319" lon="6.21705">
        <ele>231</ele>
        <time>2021-09-04T12:24:22Z</time>
      </trkpt>
      <trkpt lat="47.66318" lon="6.21714">
        <ele>230.9</ele>
        <time>2021-09-04T12:24:24Z</time>
      </trkpt>
      <trkpt lat="47.66316" lon="6.21722">
        <ele>231</ele>
        <time>2021-09-04T12:24:26Z</time>
      </trkpt>
      <trkpt lat="47.66314" lon="6.21738">
        <ele>231</ele>
        <time>2021-09-04T12:24:29Z</time>
      </trkpt>
      <trkpt lat="47.66313" lon="6.21746">
        <ele>231</ele>
        <time>2021-09-04T12:24:31Z</time>
      </trkpt>
      <trkpt lat="47.6631" lon="6.21756">
        <ele>231.3</ele>
        <time>2021-09-04T12:24:33Z</time>
      </trkpt>
      <trkpt lat="47.66308" lon="6.21764">
        <ele>231.5</ele>
        <time>2021-09-04T12:24:35Z</time>
      </trkpt>
      <trkpt lat="47.66306" lon="6.21772">
        <ele>231.8</ele>
        <time>2021-09-04T12:24:37Z</time>
      </trkpt>
      <trkpt lat="47.66304" lon="6.21778">
        <ele>232.1</ele>
        <time>2021-09-04T12:24:37Z</time>
      </trkpt>
      <trkpt lat="47.66302" lon="6.21786">
        <ele>232.4</ele>
        <time>2021-09-04T12:24:42Z</time>
      </trkpt>
      <trkpt lat="47.66299" lon="6.21794">
        <ele>232.9</ele>
        <time>2021-09-04T12:24:43Z</time>
      </trkpt>
      <trkpt lat="47.66295" lon="6.21801">
        <ele>233.5</ele>
        <time>2021-09-04T12:24:46Z</time>
      </trkpt>
      <trkpt lat="47.66292" lon="6.21806">
        <ele>233.9</ele>
        <time>2021-09-04T12:24:51Z</time>
      </trkpt>
      <trkpt lat="47.66289" lon="6.21811">
        <ele>234.4</ele>
        <time>2021-09-04T12:24:51Z</time>
      </trkpt>
      <trkpt lat="47.66285" lon="6.21814">
        <ele>235.1</ele>
        <time>2021-09-04T12:24:54Z</time>
      </trkpt>
      <trkpt lat="47.66282" lon="6.21821">
        <ele>235.6</ele>
        <time>2021-09-04T12:24:59Z</time>
      </trkpt>
      <trkpt lat="47.66277" lon="6.21823">
        <ele>236.4</ele>
        <time>2021-09-04T12:25:02Z</time>
      </trkpt>
      <trkpt lat="47.66274" lon="6.21828">
        <ele>237</ele>
        <time>2021-09-04T12:25:07Z</time>
      </trkpt>
      <trkpt lat="47.66271" lon="6.21835">
        <ele>237.4</ele>
        <time>2021-09-04T12:25:10Z</time>
      </trkpt>
      <trkpt lat="47.66269" lon="6.21841">
        <ele>237.9</ele>
        <time>2021-09-04T12:25:13Z</time>
      </trkpt>
      <trkpt lat="47.66268" lon="6.21848">
        <ele>238.3</ele>
        <time>2021-09-04T12:25:34Z</time>
      </trkpt>
      <trkpt lat="47.66267" lon="6.21856">
        <ele>238.5</ele>
        <time>2021-09-04T12:25:37Z</time>
      </trkpt>
      <trkpt lat="47.66267" lon="6.21864">
        <ele>238.6</ele>
        <time>2021-09-04T12:25:40Z</time>
      </trkpt>
      <trkpt lat="47.66267" lon="6.21874">
        <ele>238.9</ele>
        <time>2021-09-04T12:25:45Z</time>
      </trkpt>
      <trkpt lat="47.66263" lon="6.21882">
        <ele>239.5</ele>
        <time>2021-09-04T12:25:46Z</time>
      </trkpt>
      <trkpt lat="47.66259" lon="6.2189">
        <ele>240.3</ele>
        <time>2021-09-04T12:25:49Z</time>
      </trkpt>
      <trkpt lat="47.66255" lon="6.21895">
        <ele>241</ele>
        <time>2021-09-04T12:25:53Z</time>
      </trkpt>
      <trkpt lat="47.6625" lon="6.21902">
        <ele>241.9</ele>
        <time>2021-09-04T12:25:54Z</time>
      </trkpt>
      <trkpt lat="47.66246" lon="6.21906">
        <ele>242.3</ele>
        <time>2021-09-04T12:25:58Z</time>
      </trkpt>
      <trkpt lat="47.66241" lon="6.21911">
        <ele>242.8</ele>
        <time>2021-09-04T12:26:00Z</time>
      </trkpt>
      <trkpt lat="47.66236" lon="6.21917">
        <ele>243.3</ele>
        <time>2021-09-04T12:26:02Z</time>
      </trkpt>
      <trkpt lat="47.66231" lon="6.21922">
        <ele>243.5</ele>
        <time>2021-09-04T12:26:02Z</time>
      </trkpt>
      <trkpt lat="47.66228" lon="6.21927">
        <ele>243.3</ele>
        <time>2021-09-04T12:26:04Z</time>
      </trkpt>
      <trkpt lat="47.66224" lon="6.21934">
        <ele>243.1</ele>
        <time>2021-09-04T12:26:07Z</time>
      </trkpt>
      <trkpt lat="47.66219" lon="6.21937">
        <ele>243.3</ele>
        <time>2021-09-04T12:26:10Z</time>
      </trkpt>
      <trkpt lat="47.66216" lon="6.21941">
        <ele>243.3</ele>
        <time>2021-09-04T12:26:13Z</time>
      </trkpt>
      <trkpt lat="47.66212" lon="6.21945">
        <ele>243.3</ele>
        <time>2021-09-04T12:26:16Z</time>
      </trkpt>
      <trkpt lat="47.66207" lon="6.21949">
        <ele>243.4</ele>
        <time>2021-09-04T12:26:20Z</time>
      </trkpt>
      <trkpt lat="47.66202" lon="6.21951">
        <ele>243.6</ele>
        <time>2021-09-04T12:26:24Z</time>
      </trkpt>
      <trkpt lat="47.66198" lon="6.21955">
        <ele>243.6</ele>
        <time>2021-09-04T12:26:28Z</time>
      </trkpt>
      <trkpt lat="47.66193" lon="6.21958">
        <ele>243.8</ele>
        <time>2021-09-04T12:26:31Z</time>
      </trkpt>
      <trkpt lat="47.66188" lon="6.21959">
        <ele>244.2</ele>
        <time>2021-09-04T12:26:36Z</time>
      </trkpt>
      <trkpt lat="47.66181" lon="6.21959">
        <ele>244.7</ele>
        <time>2021-09-04T12:26:41Z</time>
      </trkpt>
      <trkpt lat="47.66177" lon="6.21958">
        <ele>245.2</ele>
        <time>2021-09-04T12:26:46Z</time>
      </trkpt>
      <trkpt lat="47.66171" lon="6.21955">
        <ele>246</ele>
        <time>2021-09-04T12:26:51Z</time>
      </trkpt>
      <trkpt lat="47.66166" lon="6.21953">
        <ele>246.5</ele>
        <time>2021-09-04T12:26:56Z</time>
      </trkpt>
      <trkpt lat="47.66161" lon="6.21948">
        <ele>247.2</ele>
        <time>2021-09-04T12:27:01Z</time>
      </trkpt>
      <trkpt lat="47.66156" lon="6.21947">
        <ele>247.4</ele>
        <time>2021-09-04T12:27:06Z</time>
      </trkpt>
      <trkpt lat="47.66152" lon="6.2194">
        <ele>248.1</ele>
        <time>2021-09-04T12:27:11Z</time>
      </trkpt>
      <trkpt lat="47.6615" lon="6.21933">
        <ele>248.8</ele>
        <time>2021-09-04T12:27:16Z</time>
      </trkpt>
      <trkpt lat="47.66145" lon="6.21931">
        <ele>249.2</ele>
        <time>2021-09-04T12:27:20Z</time>
      </trkpt>
      <trkpt lat="47.66141" lon="6.21928">
        <ele>249.6</ele>
        <time>2021-09-04T12:27:24Z</time>
      </trkpt>
      <trkpt lat="47.66137" lon="6.21922">
        <ele>250.2</ele>
        <time>2021-09-04T12:27:28Z</time>
      </trkpt>
      <trkpt lat="47.66135" lon="6.21914">
        <ele>250.9</ele>
        <time>2021-09-04T12:27:33Z</time>
      </trkpt>
      <trkpt lat="47.66132" lon="6.21907">
        <ele>251.5</ele>
        <time>2021-09-04T12:27:39Z</time>
      </trkpt>
      <trkpt lat="47.66128" lon="6.21903">
        <ele>251.9</ele>
        <time>2021-09-04T12:27:41Z</time>
      </trkpt>
      <trkpt lat="47.66125" lon="6.21898">
        <ele>252.4</ele>
        <time>2021-09-04T12:27:47Z</time>
      </trkpt>
      <trkpt lat="47.66122" lon="6.21893">
        <ele>252.9</ele>
        <time>2021-09-04T12:27:48Z</time>
      </trkpt>
      <trkpt lat="47.66118" lon="6.21887">
        <ele>253.6</ele>
        <time>2021-09-04T12:27:53Z</time>
      </trkpt>
      <trkpt lat="47.66114" lon="6.2188">
        <ele>254.3</ele>
        <time>2021-09-04T12:27:57Z</time>
      </trkpt>
      <trkpt lat="47.6611" lon="6.21876">
        <ele>254.8</ele>
        <time>2021-09-04T12:28:02Z</time>
      </trkpt>
      <trkpt lat="47.66107" lon="6.2187">
        <ele>255.4</ele>
        <time>2021-09-04T12:28:06Z</time>
      </trkpt>
      <trkpt lat="47.66103" lon="6.21866">
        <ele>256</ele>
        <time>2021-09-04T12:28:12Z</time>
      </trkpt>
      <trkpt lat="47.66099" lon="6.2186">
        <ele>256.6</ele>
        <time>2021-09-04T12:28:15Z</time>
      </trkpt>
      <trkpt lat="47.66096" lon="6.21855">
        <ele>257.3</ele>
        <time>2021-09-04T12:28:18Z</time>
      </trkpt>
      <trkpt lat="47.66091" lon="6.21852">
        <ele>257.8</ele>
        <time>2021-09-04T12:28:24Z</time>
      </trkpt>
      <trkpt lat="47.66088" lon="6.21846">
        <ele>258.5</ele>
        <time>2021-09-04T12:28:27Z</time>
      </trkpt>
      <trkpt lat="47.66085" lon="6.2184">
        <ele>259.3</ele>
        <time>2021-09-04T12:28:31Z</time>
      </trkpt>
      <trkpt lat="47.6608" lon="6.21836">
        <ele>260</ele>
        <time>2021-09-04T12:28:35Z</time>
      </trkpt>
      <trkpt lat="47.66076" lon="6.2183">
        <ele>260.8</ele>
        <time>2021-09-04T12:28:39Z</time>
      </trkpt>
      <trkpt lat="47.66073" lon="6.21824">
        <ele>261.6</ele>
        <time>2021-09-04T12:28:44Z</time>
      </trkpt>
      <trkpt lat="47.66068" lon="6.21819">
        <ele>262.4</ele>
        <time>2021-09-04T12:28:49Z</time>
      </trkpt>
      <trkpt lat="47.66066" lon="6.21813">
        <ele>263.1</ele>
        <time>2021-09-04T12:28:54Z</time>
      </trkpt>
      <trkpt lat="47.66062" lon="6.21808">
        <ele>263.8</ele>
        <time>2021-09-04T12:28:58Z</time>
      </trkpt>
      <trkpt lat="47.66057" lon="6.21805">
        <ele>264.4</ele>
        <time>2021-09-04T12:29:02Z</time>
      </trkpt>
      <trkpt lat="47.66054" lon="6.218">
        <ele>265.1</ele>
        <time>2021-09-04T12:29:06Z</time>
      </trkpt>
      <trkpt lat="47.66051" lon="6.21793">
        <ele>265.8</ele>
        <time>2021-09-04T12:29:10Z</time>
      </trkpt>
      <trkpt lat="47.66047" lon="6.21787">
        <ele>266.6</ele>
        <time>2021-09-04T12:29:14Z</time>
      </trkpt>
      <trkpt lat="47.66043" lon="6.21781">
        <ele>267.3</ele>
        <time>2021-09-04T12:29:19Z</time>
      </trkpt>
      <trkpt lat="47.66039" lon="6.21777">
        <ele>267.9</ele>
        <time>2021-09-04T12:29:23Z</time>
      </trkpt>
      <trkpt lat="47.66036" lon="6.2177">
        <ele>268.6</ele>
        <time>2021-09-04T12:29:27Z</time>
      </trkpt>
      <trkpt lat="47.66032" lon="6.21766">
        <ele>269.2</ele>
        <time>2021-09-04T12:29:31Z</time>
      </trkpt>
      <trkpt lat="47.66028" lon="6.2176">
        <ele>269.8</ele>
        <time>2021-09-04T12:29:35Z</time>
      </trkpt>
      <trkpt lat="47.66023" lon="6.21757">
        <ele>270.4</ele>
        <time>2021-09-04T12:29:39Z</time>
      </trkpt>
      <trkpt lat="47.66019" lon="6.21754">
        <ele>270.8</ele>
        <time>2021-09-04T12:29:43Z</time>
      </trkpt>
      <trkpt lat="47.66015" lon="6.2175">
        <ele>271.3</ele>
        <time>2021-09-04T12:29:46Z</time>
      </trkpt>
      <trkpt lat="47.66009" lon="6.21751">
        <ele>271.5</ele>
        <time>2021-09-04T12:29:50Z</time>
      </trkpt>
      <trkpt lat="47.66004" lon="6.21752">
        <ele>271.7</ele>
        <time>2021-09-04T12:29:54Z</time>
      </trkpt>
      <trkpt lat="47.65999" lon="6.2175">
        <ele>272.1</ele>
        <time>2021-09-04T12:29:58Z</time>
      </trkpt>
      <trkpt lat="47.65994" lon="6.21746">
        <ele>272.3</ele>
        <time>2021-09-04T12:30:02Z</time>
      </trkpt>
      <trkpt lat="47.65989" lon="6.21745">
        <ele>272.6</ele>
        <time>2021-09-04T12:30:06Z</time>
      </trkpt>
      <trkpt lat="47.65983" lon="6.21745">
        <ele>272.8</ele>
        <time>2021-09-04T12:30:10Z</time>
      </trkpt>
      <trkpt lat="47.65978" lon="6.21747">
        <ele>273.1</ele>
        <time>2021-09-04T12:30:14Z</time>
      </trkpt>
      <trkpt lat="47.65973" lon="6.21747">
        <ele>273.3</ele>
        <time>2021-09-04T12:30:15Z</time>
      </trkpt>
      <trkpt lat="47.65967" lon="6.21749">
        <ele>273.6</ele>
        <time>2021-09-04T12:30:19Z</time>
      </trkpt>
      <trkpt lat="47.65961" lon="6.2175">
        <ele>273.9</ele>
        <time>2021-09-04T12:30:21Z</time>
      </trkpt>
      <trkpt lat="47.65955" lon="6.21755">
        <ele>274</ele>
        <time>2021-09-04T12:30:24Z</time>
      </trkpt>
      <trkpt lat="47.65949" lon="6.21759">
        <ele>274.2</ele>
        <time>2021-09-04T12:30:28Z</time>
      </trkpt>
      <trkpt lat="47.65946" lon="6.21764">
        <ele>274.4</ele>
        <time>2021-09-04T12:30:31Z</time>
      </trkpt>
      <trkpt lat="47.65944" lon="6.21772">
        <ele>274.4</ele>
        <time>2021-09-04T12:30:34Z</time>
      </trkpt>
      <trkpt lat="47.65941" lon="6.21778">
        <ele>274.5</ele>
        <time>2021-09-04T12:30:36Z</time>
      </trkpt>
      <trkpt lat="47.65936" lon="6.21781">
        <ele>274.8</ele>
        <time>2021-09-04T12:30:40Z</time>
      </trkpt>
      <trkpt lat="47.65932" lon="6.21782">
        <ele>275.2</ele>
        <time>2021-09-04T12:30:44Z</time>
      </trkpt>
      <trkpt lat="47.65927" lon="6.21787">
        <ele>275.5</ele>
        <time>2021-09-04T12:30:47Z</time>
      </trkpt>
      <trkpt lat="47.65923" lon="6.21791">
        <ele>275.9</ele>
        <time>2021-09-04T12:30:52Z</time>
      </trkpt>
      <trkpt lat="47.65918" lon="6.21793">
        <ele>276.4</ele>
        <time>2021-09-04T12:30:56Z</time>
      </trkpt>
      <trkpt lat="47.65914" lon="6.21796">
        <ele>276.9</ele>
        <time>2021-09-04T12:30:58Z</time>
      </trkpt>
      <trkpt lat="47.6591" lon="6.21801">
        <ele>277.5</ele>
        <time>2021-09-04T12:31:03Z</time>
      </trkpt>
      <trkpt lat="47.65906" lon="6.21805">
        <ele>278.1</ele>
        <time>2021-09-04T12:31:05Z</time>
      </trkpt>
      <trkpt lat="47.65902" lon="6.21811">
        <ele>278.8</ele>
        <time>2021-09-04T12:31:09Z</time>
      </trkpt>
      <trkpt lat="47.65898" lon="6.21815">
        <ele>279.6</ele>
        <time>2021-09-04T12:31:13Z</time>
      </trkpt>
      <trkpt lat="47.65895" lon="6.21822">
        <ele>280.2</ele>
        <time>2021-09-04T12:31:17Z</time>
      </trkpt>
      <trkpt lat="47.65892" lon="6.21829">
        <ele>280.8</ele>
        <time>2021-09-04T12:31:22Z</time>
      </trkpt>
      <trkpt lat="47.65891" lon="6.21837">
        <ele>281.1</ele>
        <time>2021-09-04T12:31:28Z</time>
      </trkpt>
      <trkpt lat="47.6589" lon="6.21843">
        <ele>281.4</ele>
        <time>2021-09-04T12:32:53Z</time>
      </trkpt>
      <trkpt lat="47.65888" lon="6.21853">
        <ele>282</ele>
        <time>2021-09-04T12:32:54Z</time>
      </trkpt>
      <trkpt lat="47.65887" lon="6.2186">
        <ele>282.4</ele>
        <time>2021-09-04T12:32:58Z</time>
      </trkpt>
      <trkpt lat="47.65887" lon="6.21868">
        <ele>282.7</ele>
        <time>2021-09-04T12:33:00Z</time>
      </trkpt>
      <trkpt lat="47.65887" lon="6.21875">
        <ele>282.9</ele>
        <time>2021-09-04T12:33:03Z</time>
      </trkpt>
      <trkpt lat="47.65886" lon="6.21882">
        <ele>283.2</ele>
        <time>2021-09-04T12:33:06Z</time>
      </trkpt>
      <trkpt lat="47.65885" lon="6.2189">
        <ele>283.6</ele>
        <time>2021-09-04T12:33:08Z</time>
      </trkpt>
      <trkpt lat="47.65884" lon="6.21898">
        <ele>284.1</ele>
        <time>2021-09-04T12:33:13Z</time>
      </trkpt>
      <trkpt lat="47.65883" lon="6.21904">
        <ele>284.4</ele>
        <time>2021-09-04T12:33:15Z</time>
      </trkpt>
      <trkpt lat="47.65881" lon="6.21913">
        <ele>285.1</ele>
        <time>2021-09-04T12:33:20Z</time>
      </trkpt>
      <trkpt lat="47.6588" lon="6.21921">
        <ele>285.4</ele>
        <time>2021-09-04T12:33:24Z</time>
      </trkpt>
      <trkpt lat="47.65879" lon="6.21928">
        <ele>285.5</ele>
        <time>2021-09-04T12:33:26Z</time>
      </trkpt>
      <trkpt lat="47.65877" lon="6.21937">
        <ele>285.9</ele>
        <time>2021-09-04T12:33:28Z</time>
      </trkpt>
      <trkpt lat="47.65875" lon="6.21943">
        <ele>286.2</ele>
        <time>2021-09-04T12:33:31Z</time>
      </trkpt>
      <trkpt lat="47.65873" lon="6.21951">
        <ele>286.5</ele>
        <time>2021-09-04T12:33:32Z</time>
      </trkpt>
      <trkpt lat="47.65872" lon="6.21959">
        <ele>286.8</ele>
        <time>2021-09-04T12:33:34Z</time>
      </trkpt>
      <trkpt lat="47.6587" lon="6.21969">
        <ele>287.3</ele>
        <time>2021-09-04T12:33:38Z</time>
      </trkpt>
      <trkpt lat="47.65868" lon="6.21976">
        <ele>287.7</ele>
        <time>2021-09-04T12:33:40Z</time>
      </trkpt>
      <trkpt lat="47.65866" lon="6.21984">
        <ele>288.2</ele>
        <time>2021-09-04T12:33:41Z</time>
      </trkpt>
      <trkpt lat="47.65864" lon="6.21991">
        <ele>288.7</ele>
        <time>2021-09-04T12:33:43Z</time>
      </trkpt>
      <trkpt lat="47.65863" lon="6.21999">
        <ele>289.2</ele>
        <time>2021-09-04T12:33:45Z</time>
      </trkpt>
      <trkpt lat="47.65861" lon="6.22008">
        <ele>289.4</ele>
        <time>2021-09-04T12:33:47Z</time>
      </trkpt>
      <trkpt lat="47.65859" lon="6.22015">
        <ele>289.8</ele>
        <time>2021-09-04T12:33:50Z</time>
      </trkpt>
      <trkpt lat="47.65857" lon="6.22023">
        <ele>290</ele>
        <time>2021-09-04T12:33:52Z</time>
      </trkpt>
      <trkpt lat="47.65856" lon="6.2203">
        <ele>290.1</ele>
        <time>2021-09-04T12:33:54Z</time>
      </trkpt>
      <trkpt lat="47.65854" lon="6.22038">
        <ele>290.5</ele>
        <time>2021-09-04T12:33:55Z</time>
      </trkpt>
      <trkpt lat="47.65852" lon="6.22046">
        <ele>290.8</ele>
        <time>2021-09-04T12:33:58Z</time>
      </trkpt>
      <trkpt lat="47.6585" lon="6.22053">
        <ele>291.3</ele>
        <time>2021-09-04T12:34:00Z</time>
      </trkpt>
      <trkpt lat="47.65847" lon="6.2206">
        <ele>292</ele>
        <time>2021-09-04T12:34:02Z</time>
      </trkpt>
      <trkpt lat="47.65846" lon="6.22067">
        <ele>292.4</ele>
        <time>2021-09-04T12:34:05Z</time>
      </trkpt>
      <trkpt lat="47.65844" lon="6.22074">
        <ele>292.6</ele>
        <time>2021-09-04T12:34:07Z</time>
      </trkpt>
      <trkpt lat="47.65842" lon="6.2208">
        <ele>293.1</ele>
        <time>2021-09-04T12:34:10Z</time>
      </trkpt>
      <trkpt lat="47.6584" lon="6.22088">
        <ele>293.4</ele>
        <time>2021-09-04T12:34:13Z</time>
      </trkpt>
      <trkpt lat="47.65838" lon="6.22096">
        <ele>293.6</ele>
        <time>2021-09-04T12:34:15Z</time>
      </trkpt>
      <trkpt lat="47.65837" lon="6.22102">
        <ele>293.8</ele>
        <time>2021-09-04T12:34:18Z</time>
      </trkpt>
      <trkpt lat="47.65835" lon="6.22109">
        <ele>293.9</ele>
        <time>2021-09-04T12:34:20Z</time>
      </trkpt>
      <trkpt lat="47.65833" lon="6.22116">
        <ele>294.1</ele>
        <time>2021-09-04T12:34:21Z</time>
      </trkpt>
      <trkpt lat="47.6583" lon="6.22123">
        <ele>294.5</ele>
        <time>2021-09-04T12:34:25Z</time>
      </trkpt>
      <trkpt lat="47.65828" lon="6.22131">
        <ele>294.9</ele>
        <time>2021-09-04T12:34:27Z</time>
      </trkpt>
      <trkpt lat="47.65826" lon="6.22139">
        <ele>295.2</ele>
        <time>2021-09-04T12:34:29Z</time>
      </trkpt>
      <trkpt lat="47.65824" lon="6.22145">
        <ele>295.4</ele>
        <time>2021-09-04T12:34:31Z</time>
      </trkpt>
      <trkpt lat="47.6582" lon="6.22162">
        <ele>295.8</ele>
        <time>2021-09-04T12:34:33Z</time>
      </trkpt>
      <trkpt lat="47.65818" lon="6.2217">
        <ele>296.2</ele>
        <time>2021-09-04T12:34:36Z</time>
      </trkpt>
      <trkpt lat="47.65816" lon="6.2218">
        <ele>297</ele>
        <time>2021-09-04T12:34:38Z</time>
      </trkpt>
      <trkpt lat="47.65814" lon="6.22195">
        <ele>297.9</ele>
        <time>2021-09-04T12:34:41Z</time>
      </trkpt>
      <trkpt lat="47.65813" lon="6.22204">
        <ele>298.4</ele>
        <time>2021-09-04T12:34:43Z</time>
      </trkpt>
      <trkpt lat="47.65813" lon="6.22212">
        <ele>298.6</ele>
        <time>2021-09-04T12:34:45Z</time>
      </trkpt>
      <trkpt lat="47.65812" lon="6.22222">
        <ele>299.1</ele>
        <time>2021-09-04T12:34:48Z</time>
      </trkpt>
      <trkpt lat="47.65812" lon="6.22231">
        <ele>299.2</ele>
        <time>2021-09-04T12:34:50Z</time>
      </trkpt>
      <trkpt lat="47.65811" lon="6.22238">
        <ele>299.6</ele>
        <time>2021-09-04T12:34:52Z</time>
      </trkpt>
      <trkpt lat="47.65811" lon="6.22245">
        <ele>299.9</ele>
        <time>2021-09-04T12:34:54Z</time>
      </trkpt>
      <trkpt lat="47.6581" lon="6.22254">
        <ele>300.4</ele>
        <time>2021-09-04T12:34:55Z</time>
      </trkpt>
      <trkpt lat="47.65809" lon="6.22265">
        <ele>301</ele>
        <time>2021-09-04T12:34:59Z</time>
      </trkpt>
      <trkpt lat="47.65809" lon="6.22273">
        <ele>301.3</ele>
        <time>2021-09-04T12:35:01Z</time>
      </trkpt>
      <trkpt lat="47.65808" lon="6.22281">
        <ele>301.8</ele>
        <time>2021-09-04T12:35:03Z</time>
      </trkpt>
      <trkpt lat="47.65808" lon="6.22291">
        <ele>302.3</ele>
        <time>2021-09-04T12:35:05Z</time>
      </trkpt>
      <trkpt lat="47.65807" lon="6.22302">
        <ele>302.6</ele>
        <time>2021-09-04T12:35:07Z</time>
      </trkpt>
      <trkpt lat="47.65807" lon="6.22312">
        <ele>302.9</ele>
        <time>2021-09-04T12:35:08Z</time>
      </trkpt>
      <trkpt lat="47.65809" lon="6.22323">
        <ele>302.4</ele>
        <time>2021-09-04T12:35:10Z</time>
      </trkpt>
      <trkpt lat="47.6581" lon="6.22332">
        <ele>302.1</ele>
        <time>2021-09-04T12:35:13Z</time>
      </trkpt>
      <trkpt lat="47.65811" lon="6.22342">
        <ele>301.7</ele>
        <time>2021-09-04T12:35:14Z</time>
      </trkpt>
      <trkpt lat="47.65811" lon="6.22358">
        <ele>301.9</ele>
        <time>2021-09-04T12:35:15Z</time>
      </trkpt>
      <trkpt lat="47.65811" lon="6.22365">
        <ele>302</ele>
        <time>2021-09-04T12:35:16Z</time>
      </trkpt>
      <trkpt lat="47.6581" lon="6.22372">
        <ele>302.2</ele>
        <time>2021-09-04T12:35:17Z</time>
      </trkpt>
      <trkpt lat="47.65809" lon="6.22385">
        <ele>302.8</ele>
        <time>2021-09-04T12:35:19Z</time>
      </trkpt>
      <trkpt lat="47.65804" lon="6.22392">
        <ele>304.7</ele>
        <time>2021-09-04T12:35:22Z</time>
      </trkpt>
      <trkpt lat="47.65803" lon="6.22412">
        <ele>305.4</ele>
        <time>2021-09-04T12:35:25Z</time>
      </trkpt>
      <trkpt lat="47.65801" lon="6.22427">
        <ele>305.9</ele>
        <time>2021-09-04T12:35:28Z</time>
      </trkpt>
      <trkpt lat="47.65801" lon="6.22434">
        <ele>306.1</ele>
        <time>2021-09-04T12:35:30Z</time>
      </trkpt>
      <trkpt lat="47.658" lon="6.22442">
        <ele>306.3</ele>
        <time>2021-09-04T12:35:32Z</time>
      </trkpt>
      <trkpt lat="47.65798" lon="6.2245">
        <ele>307</ele>
        <time>2021-09-04T12:35:33Z</time>
      </trkpt>
      <trkpt lat="47.65796" lon="6.22458">
        <ele>307.6</ele>
        <time>2021-09-04T12:35:37Z</time>
      </trkpt>
      <trkpt lat="47.65796" lon="6.22467">
        <ele>307.9</ele>
        <time>2021-09-04T12:35:39Z</time>
      </trkpt>
      <trkpt lat="47.65796" lon="6.22475">
        <ele>307.7</ele>
        <time>2021-09-04T12:35:43Z</time>
      </trkpt>
      <trkpt lat="47.65795" lon="6.22483">
        <ele>307.9</ele>
        <time>2021-09-04T12:35:45Z</time>
      </trkpt>
      <trkpt lat="47.65795" lon="6.2249">
        <ele>307.9</ele>
        <time>2021-09-04T12:35:47Z</time>
      </trkpt>
      <trkpt lat="47.65794" lon="6.22497">
        <ele>308.1</ele>
        <time>2021-09-04T12:35:49Z</time>
      </trkpt>
      <trkpt lat="47.65793" lon="6.22507">
        <ele>308</ele>
        <time>2021-09-04T12:35:51Z</time>
      </trkpt>
      <trkpt lat="47.65793" lon="6.22514">
        <ele>307.6</ele>
        <time>2021-09-04T12:35:53Z</time>
      </trkpt>
      <trkpt lat="47.65792" lon="6.2252">
        <ele>307.5</ele>
        <time>2021-09-04T12:35:55Z</time>
      </trkpt>
      <trkpt lat="47.65791" lon="6.22527">
        <ele>307.3</ele>
        <time>2021-09-04T12:35:57Z</time>
      </trkpt>
      <trkpt lat="47.6579" lon="6.22536">
        <ele>306.9</ele>
        <time>2021-09-04T12:36:01Z</time>
      </trkpt>
      <trkpt lat="47.65789" lon="6.22543">
        <ele>306.8</ele>
        <time>2021-09-04T12:36:02Z</time>
      </trkpt>
      <trkpt lat="47.65787" lon="6.2255">
        <ele>306.7</ele>
        <time>2021-09-04T12:36:06Z</time>
      </trkpt>
      <trkpt lat="47.65786" lon="6.22557">
        <ele>306.6</ele>
        <time>2021-09-04T12:36:08Z</time>
      </trkpt>
      <trkpt lat="47.65786" lon="6.22565">
        <ele>306.1</ele>
        <time>2021-09-04T12:36:11Z</time>
      </trkpt>
      <trkpt lat="47.65785" lon="6.22572">
        <ele>305.9</ele>
        <time>2021-09-04T12:36:13Z</time>
      </trkpt>
      <trkpt lat="47.65783" lon="6.22579">
        <ele>305.8</ele>
        <time>2021-09-04T12:36:16Z</time>
      </trkpt>
      <trkpt lat="47.65782" lon="6.22585">
        <ele>305.6</ele>
        <time>2021-09-04T12:36:17Z</time>
      </trkpt>
      <trkpt lat="47.6578" lon="6.22593">
        <ele>305.2</ele>
        <time>2021-09-04T12:36:21Z</time>
      </trkpt>
      <trkpt lat="47.65778" lon="6.226">
        <ele>304.7</ele>
        <time>2021-09-04T12:36:24Z</time>
      </trkpt>
      <trkpt lat="47.65776" lon="6.22609">
        <ele>304.1</ele>
        <time>2021-09-04T12:36:27Z</time>
      </trkpt>
      <trkpt lat="47.65773" lon="6.22615">
        <ele>304</ele>
        <time>2021-09-04T12:36:29Z</time>
      </trkpt>
      <trkpt lat="47.65771" lon="6.22621">
        <ele>303.8</ele>
        <time>2021-09-04T12:36:31Z</time>
      </trkpt>
      <trkpt lat="47.65768" lon="6.22628">
        <ele>303.6</ele>
        <time>2021-09-04T12:36:33Z</time>
      </trkpt>
      <trkpt lat="47.65766" lon="6.22633">
        <ele>303.5</ele>
        <time>2021-09-04T12:36:37Z</time>
      </trkpt>
      <trkpt lat="47.65764" lon="6.22639">
        <ele>303.2</ele>
        <time>2021-09-04T12:36:40Z</time>
      </trkpt>
      <trkpt lat="47.65759" lon="6.22646">
        <ele>303.5</ele>
        <time>2021-09-04T12:36:44Z</time>
      </trkpt>
      <trkpt lat="47.65754" lon="6.2265">
        <ele>304.5</ele>
        <time>2021-09-04T12:36:47Z</time>
      </trkpt>
      <trkpt lat="47.6575" lon="6.22654">
        <ele>305</ele>
        <time>2021-09-04T12:36:50Z</time>
      </trkpt>
      <trkpt lat="47.65746" lon="6.22658">
        <ele>304.9</ele>
        <time>2021-09-04T12:36:54Z</time>
      </trkpt>
      <trkpt lat="47.65742" lon="6.22661">
        <ele>305</ele>
        <time>2021-09-04T12:36:57Z</time>
      </trkpt>
      <trkpt lat="47.65737" lon="6.22662">
        <ele>305.5</ele>
        <time>2021-09-04T12:37:00Z</time>
      </trkpt>
      <trkpt lat="47.65732" lon="6.22663">
        <ele>306.1</ele>
        <time>2021-09-04T12:37:03Z</time>
      </trkpt>
      <trkpt lat="47.65726" lon="6.22664">
        <ele>306.6</ele>
        <time>2021-09-04T12:37:05Z</time>
      </trkpt>
      <trkpt lat="47.6572" lon="6.22666">
        <ele>307.1</ele>
        <time>2021-09-04T12:37:10Z</time>
      </trkpt>
      <trkpt lat="47.65715" lon="6.22669">
        <ele>307.4</ele>
        <time>2021-09-04T12:37:13Z</time>
      </trkpt>
      <trkpt lat="47.65711" lon="6.22672">
        <ele>307.8</ele>
        <time>2021-09-04T12:37:15Z</time>
      </trkpt>
      <trkpt lat="47.65707" lon="6.22675">
        <ele>308.1</ele>
        <time>2021-09-04T12:37:19Z</time>
      </trkpt>
      <trkpt lat="47.65702" lon="6.22679">
        <ele>308.4</ele>
        <time>2021-09-04T12:37:22Z</time>
      </trkpt>
      <trkpt lat="47.65698" lon="6.22684">
        <ele>308.6</ele>
        <time>2021-09-04T12:37:23Z</time>
      </trkpt>
      <trkpt lat="47.65694" lon="6.22688">
        <ele>308.9</ele>
        <time>2021-09-04T12:37:28Z</time>
      </trkpt>
      <trkpt lat="47.65689" lon="6.22693">
        <ele>309.2</ele>
        <time>2021-09-04T12:37:29Z</time>
      </trkpt>
      <trkpt lat="47.65686" lon="6.227">
        <ele>309.1</ele>
        <time>2021-09-04T12:37:32Z</time>
      </trkpt>
      <trkpt lat="47.65683" lon="6.22705">
        <ele>309.1</ele>
        <time>2021-09-04T12:37:36Z</time>
      </trkpt>
      <trkpt lat="47.6568" lon="6.22712">
        <ele>309</ele>
        <time>2021-09-04T12:37:37Z</time>
      </trkpt>
      <trkpt lat="47.65677" lon="6.22718">
        <ele>308.9</ele>
        <time>2021-09-04T12:37:42Z</time>
      </trkpt>
      <trkpt lat="47.65675" lon="6.22724">
        <ele>308.8</ele>
        <time>2021-09-04T12:37:43Z</time>
      </trkpt>
      <trkpt lat="47.65673" lon="6.22731">
        <ele>308.6</ele>
        <time>2021-09-04T12:37:46Z</time>
      </trkpt>
      <trkpt lat="47.6567" lon="6.22738">
        <ele>308.4</ele>
        <time>2021-09-04T12:37:51Z</time>
      </trkpt>
      <trkpt lat="47.65669" lon="6.22747">
        <ele>307.9</ele>
        <time>2021-09-04T12:37:55Z</time>
      </trkpt>
      <trkpt lat="47.6567" lon="6.22754">
        <ele>307.9</ele>
        <time>2021-09-04T12:37:56Z</time>
      </trkpt>
      <trkpt lat="47.6567" lon="6.22761">
        <ele>308.5</ele>
        <time>2021-09-04T12:38:01Z</time>
      </trkpt>
      <trkpt lat="47.6567" lon="6.22769">
        <ele>309.2</ele>
        <time>2021-09-04T12:38:05Z</time>
      </trkpt>
      <trkpt lat="47.65672" lon="6.22775">
        <ele>309.6</ele>
        <time>2021-09-04T12:38:08Z</time>
      </trkpt>
      <trkpt lat="47.65675" lon="6.22784">
        <ele>310</ele>
        <time>2021-09-04T12:38:10Z</time>
      </trkpt>
      <trkpt lat="47.65677" lon="6.22791">
        <ele>310.3</ele>
        <time>2021-09-04T12:38:13Z</time>
      </trkpt>
      <trkpt lat="47.65679" lon="6.22799">
        <ele>310.7</ele>
        <time>2021-09-04T12:38:16Z</time>
      </trkpt>
      <trkpt lat="47.6568" lon="6.22807">
        <ele>311.4</ele>
        <time>2021-09-04T12:38:21Z</time>
      </trkpt>
      <trkpt lat="47.65682" lon="6.22815">
        <ele>311.6</ele>
        <time>2021-09-04T12:38:25Z</time>
      </trkpt>
      <trkpt lat="47.65686" lon="6.22821">
        <ele>311.5</ele>
        <time>2021-09-04T12:38:27Z</time>
      </trkpt>
      <trkpt lat="47.65688" lon="6.22828">
        <ele>311.8</ele>
        <time>2021-09-04T12:38:30Z</time>
      </trkpt>
      <trkpt lat="47.65689" lon="6.22837">
        <ele>312.2</ele>
        <time>2021-09-04T12:38:36Z</time>
      </trkpt>
      <trkpt lat="47.65691" lon="6.22844">
        <ele>312.5</ele>
        <time>2021-09-04T12:38:39Z</time>
      </trkpt>
      <trkpt lat="47.65693" lon="6.22853">
        <ele>312.8</ele>
        <time>2021-09-04T12:38:42Z</time>
      </trkpt>
      <trkpt lat="47.65696" lon="6.22861">
        <ele>313.1</ele>
        <time>2021-09-04T12:38:45Z</time>
      </trkpt>
      <trkpt lat="47.65699" lon="6.2287">
        <ele>313.4</ele>
        <time>2021-09-04T12:38:48Z</time>
      </trkpt>
      <trkpt lat="47.65701" lon="6.22877">
        <ele>313.8</ele>
        <time>2021-09-04T12:38:50Z</time>
      </trkpt>
      <trkpt lat="47.65702" lon="6.22884">
        <ele>314.3</ele>
        <time>2021-09-04T12:38:51Z</time>
      </trkpt>
      <trkpt lat="47.65703" lon="6.2289">
        <ele>314.9</ele>
        <time>2021-09-04T12:38:56Z</time>
      </trkpt>
      <trkpt lat="47.65705" lon="6.22898">
        <ele>315.4</ele>
        <time>2021-09-04T12:38:56Z</time>
      </trkpt>
      <trkpt lat="47.65707" lon="6.22905">
        <ele>316</ele>
        <time>2021-09-04T12:39:01Z</time>
      </trkpt>
      <trkpt lat="47.65709" lon="6.22914">
        <ele>316.7</ele>
        <time>2021-09-04T12:39:04Z</time>
      </trkpt>
      <trkpt lat="47.6571" lon="6.22922">
        <ele>316.9</ele>
        <time>2021-09-04T12:39:04Z</time>
      </trkpt>
      <trkpt lat="47.65711" lon="6.22931">
        <ele>316.9</ele>
        <time>2021-09-04T12:39:09Z</time>
      </trkpt>
      <trkpt lat="47.65712" lon="6.22938">
        <ele>317</ele>
        <time>2021-09-04T12:39:11Z</time>
      </trkpt>
      <trkpt lat="47.65713" lon="6.22945">
        <ele>317</ele>
        <time>2021-09-04T12:39:13Z</time>
      </trkpt>
      <trkpt lat="47.65714" lon="6.22954">
        <ele>317.1</ele>
        <time>2021-09-04T12:39:15Z</time>
      </trkpt>
      <trkpt lat="47.65715" lon="6.22964">
        <ele>317.2</ele>
        <time>2021-09-04T12:39:17Z</time>
      </trkpt>
      <trkpt lat="47.65714" lon="6.22977">
        <ele>317.4</ele>
        <time>2021-09-04T12:39:19Z</time>
      </trkpt>
      <trkpt lat="47.65714" lon="6.22986">
        <ele>317.5</ele>
        <time>2021-09-04T12:39:21Z</time>
      </trkpt>
      <trkpt lat="47.65713" lon="6.22993">
        <ele>317.6</ele>
        <time>2021-09-04T12:39:22Z</time>
      </trkpt>
      <trkpt lat="47.65713" lon="6.23001">
        <ele>317.6</ele>
        <time>2021-09-04T12:39:23Z</time>
      </trkpt>
      <trkpt lat="47.65712" lon="6.23013">
        <ele>317.5</ele>
        <time>2021-09-04T12:39:25Z</time>
      </trkpt>
      <trkpt lat="47.65711" lon="6.23029">
        <ele>317.3</ele>
        <time>2021-09-04T12:39:27Z</time>
      </trkpt>
      <trkpt lat="47.6571" lon="6.23046">
        <ele>317</ele>
        <time>2021-09-04T12:39:27Z</time>
      </trkpt>
      <trkpt lat="47.65709" lon="6.23053">
        <ele>316.9</ele>
        <time>2021-09-04T12:39:28Z</time>
      </trkpt>
      <trkpt lat="47.65706" lon="6.23065">
        <ele>316.6</ele>
        <time>2021-09-04T12:39:29Z</time>
      </trkpt>
      <trkpt lat="47.65705" lon="6.23074">
        <ele>316.4</ele>
        <time>2021-09-04T12:39:30Z</time>
      </trkpt>
      <trkpt lat="47.65705" lon="6.23082">
        <ele>316.3</ele>
        <time>2021-09-04T12:39:31Z</time>
      </trkpt>
      <trkpt lat="47.65704" lon="6.2309">
        <ele>316.2</ele>
        <time>2021-09-04T12:39:32Z</time>
      </trkpt>
      <trkpt lat="47.65704" lon="6.23097">
        <ele>316</ele>
        <time>2021-09-04T12:39:33Z</time>
      </trkpt>
      <trkpt lat="47.65703" lon="6.23104">
        <ele>315.9</ele>
        <time>2021-09-04T12:39:34Z</time>
      </trkpt>
      <trkpt lat="47.65703" lon="6.23111">
        <ele>315.8</ele>
        <time>2021-09-04T12:39:35Z</time>
      </trkpt>
      <trkpt lat="47.65703" lon="6.23122">
        <ele>315.6</ele>
        <time>2021-09-04T12:39:37Z</time>
      </trkpt>
      <trkpt lat="47.65702" lon="6.23132">
        <ele>315.4</ele>
        <time>2021-09-04T12:39:41Z</time>
      </trkpt>
      <trkpt lat="47.65701" lon="6.2314">
        <ele>315.2</ele>
        <time>2021-09-04T12:39:42Z</time>
      </trkpt>
      <trkpt lat="47.657" lon="6.23152">
        <ele>315</ele>
        <time>2021-09-04T12:39:44Z</time>
      </trkpt>
      <trkpt lat="47.65699" lon="6.23158">
        <ele>314.8</ele>
        <time>2021-09-04T12:39:45Z</time>
      </trkpt>
      <trkpt lat="47.65697" lon="6.23168">
        <ele>314.6</ele>
        <time>2021-09-04T12:39:47Z</time>
      </trkpt>
      <trkpt lat="47.65696" lon="6.23178">
        <ele>314.8</ele>
        <time>2021-09-04T12:39:49Z</time>
      </trkpt>
      <trkpt lat="47.65694" lon="6.23197">
        <ele>315.2</ele>
        <time>2021-09-04T12:39:50Z</time>
      </trkpt>
      <trkpt lat="47.65693" lon="6.23206">
        <ele>315.5</ele>
        <time>2021-09-04T12:39:54Z</time>
      </trkpt>
      <trkpt lat="47.65691" lon="6.23217">
        <ele>315.7</ele>
        <time>2021-09-04T12:39:56Z</time>
      </trkpt>
      <trkpt lat="47.65689" lon="6.23233">
        <ele>316.1</ele>
        <time>2021-09-04T12:39:59Z</time>
      </trkpt>
      <trkpt lat="47.65688" lon="6.23248">
        <ele>316.4</ele>
        <time>2021-09-04T12:40:02Z</time>
      </trkpt>
      <trkpt lat="47.65687" lon="6.23257">
        <ele>316.6</ele>
        <time>2021-09-04T12:40:04Z</time>
      </trkpt>
      <trkpt lat="47.65685" lon="6.23268">
        <ele>316.7</ele>
        <time>2021-09-04T12:40:07Z</time>
      </trkpt>
      <trkpt lat="47.65683" lon="6.23282">
        <ele>316.9</ele>
        <time>2021-09-04T12:40:10Z</time>
      </trkpt>
      <trkpt lat="47.65683" lon="6.23289">
        <ele>317</ele>
        <time>2021-09-04T12:40:12Z</time>
      </trkpt>
      <trkpt lat="47.65682" lon="6.23299">
        <ele>317.2</ele>
        <time>2021-09-04T12:40:14Z</time>
      </trkpt>
      <trkpt lat="47.65681" lon="6.23306">
        <ele>317.2</ele>
        <time>2021-09-04T12:40:14Z</time>
      </trkpt>
      <trkpt lat="47.65681" lon="6.23313">
        <ele>317.4</ele>
        <time>2021-09-04T12:40:16Z</time>
      </trkpt>
      <trkpt lat="47.6568" lon="6.23321">
        <ele>317.5</ele>
        <time>2021-09-04T12:40:21Z</time>
      </trkpt>
      <trkpt lat="47.65679" lon="6.23329">
        <ele>317.7</ele>
        <time>2021-09-04T12:40:23Z</time>
      </trkpt>
      <trkpt lat="47.65678" lon="6.23339">
        <ele>317.7</ele>
        <time>2021-09-04T12:40:25Z</time>
      </trkpt>
      <trkpt lat="47.65677" lon="6.23346">
        <ele>317.7</ele>
        <time>2021-09-04T12:40:27Z</time>
      </trkpt>
      <trkpt lat="47.65676" lon="6.23355">
        <ele>317.8</ele>
        <time>2021-09-04T12:40:29Z</time>
      </trkpt>
      <trkpt lat="47.65675" lon="6.23363">
        <ele>317.8</ele>
        <time>2021-09-04T12:40:30Z</time>
      </trkpt>
      <trkpt lat="47.65672" lon="6.23375">
        <ele>317.8</ele>
        <time>2021-09-04T12:40:33Z</time>
      </trkpt>
      <trkpt lat="47.65671" lon="6.23382">
        <ele>317.8</ele>
        <time>2021-09-04T12:40:35Z</time>
      </trkpt>
      <trkpt lat="47.65669" lon="6.23389">
        <ele>317.8</ele>
        <time>2021-09-04T12:40:36Z</time>
      </trkpt>
      <trkpt lat="47.65666" lon="6.23396">
        <ele>317.8</ele>
        <time>2021-09-04T12:40:38Z</time>
      </trkpt>
      <trkpt lat="47.65663" lon="6.23403">
        <ele>317.9</ele>
        <time>2021-09-04T12:40:40Z</time>
      </trkpt>
      <trkpt lat="47.65659" lon="6.23409">
        <ele>318.1</ele>
        <time>2021-09-04T12:40:40Z</time>
      </trkpt>
      <trkpt lat="47.65656" lon="6.23413">
        <ele>318.2</ele>
        <time>2021-09-04T12:40:44Z</time>
      </trkpt>
      <trkpt lat="47.6565" lon="6.2342">
        <ele>318.4</ele>
        <time>2021-09-04T12:40:44Z</time>
      </trkpt>
      <trkpt lat="47.65644" lon="6.23425">
        <ele>318.6</ele>
        <time>2021-09-04T12:40:46Z</time>
      </trkpt>
      <trkpt lat="47.65639" lon="6.23424">
        <ele>318.7</ele>
        <time>2021-09-04T12:40:50Z</time>
      </trkpt>
      <trkpt lat="47.65636" lon="6.23418">
        <ele>318.7</ele>
        <time>2021-09-04T12:40:52Z</time>
      </trkpt>
      <trkpt lat="47.65633" lon="6.23412">
        <ele>318.8</ele>
        <time>2021-09-04T12:40:53Z</time>
      </trkpt>
      <trkpt lat="47.65625" lon="6.23398">
        <ele>318.8</ele>
        <time>2021-09-04T12:40:54Z</time>
      </trkpt>
      <trkpt lat="47.65621" lon="6.23389">
        <ele>318.8</ele>
        <time>2021-09-04T12:40:56Z</time>
      </trkpt>
      <trkpt lat="47.65617" lon="6.23382">
        <ele>318.8</ele>
        <time>2021-09-04T12:41:00Z</time>
      </trkpt>
      <trkpt lat="47.65612" lon="6.23372">
        <ele>318.8</ele>
        <time>2021-09-04T12:41:02Z</time>
      </trkpt>
      <trkpt lat="47.65608" lon="6.23366">
        <ele>318.8</ele>
        <time>2021-09-04T12:41:04Z</time>
      </trkpt>
      <trkpt lat="47.65603" lon="6.23358">
        <ele>318.8</ele>
        <time>2021-09-04T12:41:06Z</time>
      </trkpt>
      <trkpt lat="47.65599" lon="6.23351">
        <ele>318.8</ele>
        <time>2021-09-04T12:41:08Z</time>
      </trkpt>
      <trkpt lat="47.65591" lon="6.23339">
        <ele>318.9</ele>
        <time>2021-09-04T12:41:09Z</time>
      </trkpt>
      <trkpt lat="47.65587" lon="6.23334">
        <ele>318.9</ele>
        <time>2021-09-04T12:41:13Z</time>
      </trkpt>
      <trkpt lat="47.6558" lon="6.23325">
        <ele>318.9</ele>
        <time>2021-09-04T12:41:16Z</time>
      </trkpt>
      <trkpt lat="47.65571" lon="6.23313">
        <ele>319.1</ele>
        <time>2021-09-04T12:41:17Z</time>
      </trkpt>
      <trkpt lat="47.65566" lon="6.23307">
        <ele>319.2</ele>
        <time>2021-09-04T12:41:21Z</time>
      </trkpt>
      <trkpt lat="47.65563" lon="6.23302">
        <ele>319.3</ele>
        <time>2021-09-04T12:41:23Z</time>
      </trkpt>
      <trkpt lat="47.65554" lon="6.23291">
        <ele>319.6</ele>
        <time>2021-09-04T12:41:24Z</time>
      </trkpt>
      <trkpt lat="47.65549" lon="6.23286">
        <ele>319.8</ele>
        <time>2021-09-04T12:41:26Z</time>
      </trkpt>
      <trkpt lat="47.65544" lon="6.2328">
        <ele>320</ele>
        <time>2021-09-04T12:41:28Z</time>
      </trkpt>
      <trkpt lat="47.6554" lon="6.23275">
        <ele>320.2</ele>
        <time>2021-09-04T12:41:30Z</time>
      </trkpt>
      <trkpt lat="47.65536" lon="6.23269">
        <ele>320.4</ele>
        <time>2021-09-04T12:41:32Z</time>
      </trkpt>
      <trkpt lat="47.65532" lon="6.23264">
        <ele>320.5</ele>
        <time>2021-09-04T12:41:34Z</time>
      </trkpt>
      <trkpt lat="47.65528" lon="6.23258">
        <ele>320.6</ele>
        <time>2021-09-04T12:41:36Z</time>
      </trkpt>
      <trkpt lat="47.65526" lon="6.23252">
        <ele>320.6</ele>
        <time>2021-09-04T12:41:38Z</time>
      </trkpt>
      <trkpt lat="47.65522" lon="6.23246">
        <ele>320.9</ele>
        <time>2021-09-04T12:41:41Z</time>
      </trkpt>
      <trkpt lat="47.65519" lon="6.23241">
        <ele>321.3</ele>
        <time>2021-09-04T12:41:44Z</time>
      </trkpt>
      <trkpt lat="47.65516" lon="6.23235">
        <ele>321.8</ele>
        <time>2021-09-04T12:41:47Z</time>
      </trkpt>
      <trkpt lat="47.65515" lon="6.23227">
        <ele>322</ele>
        <time>2021-09-04T12:41:50Z</time>
      </trkpt>
      <trkpt lat="47.65515" lon="6.2322">
        <ele>322.1</ele>
        <time>2021-09-04T12:41:55Z</time>
      </trkpt>
      <trkpt lat="47.65514" lon="6.23212">
        <ele>322.4</ele>
        <time>2021-09-04T12:41:56Z</time>
      </trkpt>
      <trkpt lat="47.65511" lon="6.23205">
        <ele>322.8</ele>
        <time>2021-09-04T12:41:59Z</time>
      </trkpt>
      <trkpt lat="47.65511" lon="6.23197">
        <ele>323</ele>
        <time>2021-09-04T12:42:02Z</time>
      </trkpt>
      <trkpt lat="47.6551" lon="6.23189">
        <ele>323.3</ele>
        <time>2021-09-04T12:42:05Z</time>
      </trkpt>
      <trkpt lat="47.6551" lon="6.23181">
        <ele>323.4</ele>
        <time>2021-09-04T12:42:08Z</time>
      </trkpt>
      <trkpt lat="47.6551" lon="6.23173">
        <ele>323.6</ele>
        <time>2021-09-04T12:42:11Z</time>
      </trkpt>
      <trkpt lat="47.6551" lon="6.23165">
        <ele>323.7</ele>
        <time>2021-09-04T12:42:14Z</time>
      </trkpt>
      <trkpt lat="47.65511" lon="6.23159">
        <ele>323.9</ele>
        <time>2021-09-04T12:42:19Z</time>
      </trkpt>
      <trkpt lat="47.6551" lon="6.23149">
        <ele>324.4</ele>
        <time>2021-09-04T12:42:20Z</time>
      </trkpt>
      <trkpt lat="47.6551" lon="6.23141">
        <ele>324.9</ele>
        <time>2021-09-04T12:42:25Z</time>
      </trkpt>
      <trkpt lat="47.65509" lon="6.23132">
        <ele>325.5</ele>
        <time>2021-09-04T12:42:26Z</time>
      </trkpt>
      <trkpt lat="47.65509" lon="6.23123">
        <ele>325.8</ele>
        <time>2021-09-04T12:42:29Z</time>
      </trkpt>
      <trkpt lat="47.6551" lon="6.23115">
        <ele>326.1</ele>
        <time>2021-09-04T12:42:32Z</time>
      </trkpt>
      <trkpt lat="47.65512" lon="6.23108">
        <ele>326.2</ele>
        <time>2021-09-04T12:42:37Z</time>
      </trkpt>
      <trkpt lat="47.65512" lon="6.23099">
        <ele>326.5</ele>
        <time>2021-09-04T12:42:38Z</time>
      </trkpt>
      <trkpt lat="47.65512" lon="6.23092">
        <ele>326.8</ele>
        <time>2021-09-04T12:42:43Z</time>
      </trkpt>
      <trkpt lat="47.65512" lon="6.23083">
        <ele>327.2</ele>
        <time>2021-09-04T12:42:44Z</time>
      </trkpt>
      <trkpt lat="47.65512" lon="6.23075">
        <ele>327.5</ele>
        <time>2021-09-04T12:42:47Z</time>
      </trkpt>
      <trkpt lat="47.65511" lon="6.23069">
        <ele>327.8</ele>
        <time>2021-09-04T12:42:51Z</time>
      </trkpt>
      <trkpt lat="47.65511" lon="6.2306">
        <ele>328</ele>
        <time>2021-09-04T12:42:52Z</time>
      </trkpt>
      <trkpt lat="47.6551" lon="6.23051">
        <ele>328.3</ele>
        <time>2021-09-04T12:42:57Z</time>
      </trkpt>
      <trkpt lat="47.6551" lon="6.23042">
        <ele>328.4</ele>
        <time>2021-09-04T12:42:59Z</time>
      </trkpt>
      <trkpt lat="47.65511" lon="6.23034">
        <ele>328.6</ele>
        <time>2021-09-04T12:43:02Z</time>
      </trkpt>
      <trkpt lat="47.65511" lon="6.23025">
        <ele>328.8</ele>
        <time>2021-09-04T12:43:05Z</time>
      </trkpt>
      <trkpt lat="47.65513" lon="6.23016">
        <ele>328.8</ele>
        <time>2021-09-04T12:43:08Z</time>
      </trkpt>
      <trkpt lat="47.65513" lon="6.23025">
        <ele>328.6</ele>
        <time>2021-09-04T12:44:01Z</time>
      </trkpt>
      <trkpt lat="47.65512" lon="6.23033">
        <ele>328.5</ele>
        <time>2021-09-04T12:44:03Z</time>
      </trkpt>
      <trkpt lat="47.65512" lon="6.23042">
        <ele>328.3</ele>
        <time>2021-09-04T12:44:07Z</time>
      </trkpt>
      <trkpt lat="47.65511" lon="6.23054">
        <ele>328.1</ele>
        <time>2021-09-04T12:44:07Z</time>
      </trkpt>
      <trkpt lat="47.65511" lon="6.23063">
        <ele>327.9</ele>
        <time>2021-09-04T12:44:11Z</time>
      </trkpt>
      <trkpt lat="47.6551" lon="6.23072">
        <ele>327.8</ele>
        <time>2021-09-04T12:44:13Z</time>
      </trkpt>
      <trkpt lat="47.6551" lon="6.23082">
        <ele>327.7</ele>
        <time>2021-09-04T12:44:15Z</time>
      </trkpt>
      <trkpt lat="47.65509" lon="6.23091">
        <ele>327.3</ele>
        <time>2021-09-04T12:44:17Z</time>
      </trkpt>
      <trkpt lat="47.65508" lon="6.23102">
        <ele>326.9</ele>
        <time>2021-09-04T12:44:19Z</time>
      </trkpt>
      <trkpt lat="47.65507" lon="6.23113">
        <ele>326.6</ele>
        <time>2021-09-04T12:44:19Z</time>
      </trkpt>
      <trkpt lat="47.65508" lon="6.23124">
        <ele>326</ele>
        <time>2021-09-04T12:44:22Z</time>
      </trkpt>
      <trkpt lat="47.65507" lon="6.2313">
        <ele>325.8</ele>
        <time>2021-09-04T12:44:24Z</time>
      </trkpt>
      <trkpt lat="47.65502" lon="6.23136">
        <ele>326.2</ele>
        <time>2021-09-04T12:44:27Z</time>
      </trkpt>
      <trkpt lat="47.65496" lon="6.23134">
        <ele>326.7</ele>
        <time>2021-09-04T12:44:32Z</time>
      </trkpt>
      <trkpt lat="47.6549" lon="6.2313">
        <ele>327</ele>
        <time>2021-09-04T12:44:33Z</time>
      </trkpt>
      <trkpt lat="47.65485" lon="6.23127">
        <ele>327.3</ele>
        <time>2021-09-04T12:44:39Z</time>
      </trkpt>
      <trkpt lat="47.6548" lon="6.23124">
        <ele>327.6</ele>
        <time>2021-09-04T12:44:42Z</time>
      </trkpt>
      <trkpt lat="47.65476" lon="6.23121">
        <ele>328</ele>
        <time>2021-09-04T12:44:43Z</time>
      </trkpt>
      <trkpt lat="47.65471" lon="6.23116">
        <ele>328.4</ele>
        <time>2021-09-04T12:44:46Z</time>
      </trkpt>
      <trkpt lat="47.65466" lon="6.23112">
        <ele>328.9</ele>
        <time>2021-09-04T12:44:49Z</time>
      </trkpt>
      <trkpt lat="47.6546" lon="6.23106">
        <ele>329.4</ele>
        <time>2021-09-04T12:44:52Z</time>
      </trkpt>
      <trkpt lat="47.65455" lon="6.23102">
        <ele>329.9</ele>
        <time>2021-09-04T12:44:55Z</time>
      </trkpt>
      <trkpt lat="47.65451" lon="6.23097">
        <ele>330.4</ele>
        <time>2021-09-04T12:44:58Z</time>
      </trkpt>
      <trkpt lat="47.65453" lon="6.23104">
        <ele>329.9</ele>
        <time>2021-09-04T12:45:39Z</time>
      </trkpt>
      <trkpt lat="47.65456" lon="6.23109">
        <ele>329.4</ele>
        <time>2021-09-04T12:45:41Z</time>
      </trkpt>
      <trkpt lat="47.65459" lon="6.23115">
        <ele>328.9</ele>
        <time>2021-09-04T12:45:45Z</time>
      </trkpt>
      <trkpt lat="47.65465" lon="6.23121">
        <ele>328.3</ele>
        <time>2021-09-04T12:45:48Z</time>
      </trkpt>
      <trkpt lat="47.65474" lon="6.23128">
        <ele>327.6</ele>
        <time>2021-09-04T12:45:51Z</time>
      </trkpt>
      <trkpt lat="47.65485" lon="6.23136">
        <ele>326.9</ele>
        <time>2021-09-04T12:45:54Z</time>
      </trkpt>
      <trkpt lat="47.6549" lon="6.2314">
        <ele>326.5</ele>
        <time>2021-09-04T12:45:56Z</time>
      </trkpt>
      <trkpt lat="47.65495" lon="6.23146">
        <ele>326.1</ele>
        <time>2021-09-04T12:45:56Z</time>
      </trkpt>
      <trkpt lat="47.65497" lon="6.23152">
        <ele>325.7</ele>
        <time>2021-09-04T12:46:00Z</time>
      </trkpt>
      <trkpt lat="47.65498" lon="6.23166">
        <ele>325.1</ele>
        <time>2021-09-04T12:46:02Z</time>
      </trkpt>
      <trkpt lat="47.65497" lon="6.23189">
        <ele>324.5</ele>
        <time>2021-09-04T12:46:03Z</time>
      </trkpt>
      <trkpt lat="47.65497" lon="6.23197">
        <ele>324.3</ele>
        <time>2021-09-04T12:46:04Z</time>
      </trkpt>
      <trkpt lat="47.65496" lon="6.23204">
        <ele>324.1</ele>
        <time>2021-09-04T12:46:05Z</time>
      </trkpt>
      <trkpt lat="47.65496" lon="6.23211">
        <ele>323.9</ele>
        <time>2021-09-04T12:46:06Z</time>
      </trkpt>
      <trkpt lat="47.65496" lon="6.23219">
        <ele>323.7</ele>
        <time>2021-09-04T12:46:07Z</time>
      </trkpt>
      <trkpt lat="47.65497" lon="6.23226">
        <ele>323.6</ele>
        <time>2021-09-04T12:46:08Z</time>
      </trkpt>
      <trkpt lat="47.65498" lon="6.23233">
        <ele>323.4</ele>
        <time>2021-09-04T12:46:09Z</time>
      </trkpt>
      <trkpt lat="47.655" lon="6.23241">
        <ele>323.2</ele>
        <time>2021-09-04T12:46:10Z</time>
      </trkpt>
      <trkpt lat="47.65502" lon="6.23248">
        <ele>322.8</ele>
        <time>2021-09-04T12:46:11Z</time>
      </trkpt>
      <trkpt lat="47.65505" lon="6.23256">
        <ele>322.7</ele>
        <time>2021-09-04T12:46:12Z</time>
      </trkpt>
      <trkpt lat="47.65509" lon="6.23263">
        <ele>322.6</ele>
        <time>2021-09-04T12:46:13Z</time>
      </trkpt>
      <trkpt lat="47.65514" lon="6.23271">
        <ele>322.5</ele>
        <time>2021-09-04T12:46:14Z</time>
      </trkpt>
      <trkpt lat="47.65518" lon="6.23278">
        <ele>322.4</ele>
        <time>2021-09-04T12:46:15Z</time>
      </trkpt>
      <trkpt lat="47.65522" lon="6.23286">
        <ele>322.2</ele>
        <time>2021-09-04T12:46:16Z</time>
      </trkpt>
      <trkpt lat="47.65526" lon="6.23293">
        <ele>322.2</ele>
        <time>2021-09-04T12:46:17Z</time>
      </trkpt>
      <trkpt lat="47.65531" lon="6.233">
        <ele>322.1</ele>
        <time>2021-09-04T12:46:19Z</time>
      </trkpt>
      <trkpt lat="47.65535" lon="6.23307">
        <ele>322</ele>
        <time>2021-09-04T12:46:20Z</time>
      </trkpt>
      <trkpt lat="47.65539" lon="6.23313">
        <ele>321.8</ele>
        <time>2021-09-04T12:46:21Z</time>
      </trkpt>
      <trkpt lat="47.65544" lon="6.23318">
        <ele>321.6</ele>
        <time>2021-09-04T12:46:22Z</time>
      </trkpt>
      <trkpt lat="47.6555" lon="6.23324">
        <ele>321.4</ele>
        <time>2021-09-04T12:46:23Z</time>
      </trkpt>
      <trkpt lat="47.65554" lon="6.23329">
        <ele>321.2</ele>
        <time>2021-09-04T12:46:24Z</time>
      </trkpt>
      <trkpt lat="47.65559" lon="6.23334">
        <ele>321.1</ele>
        <time>2021-09-04T12:46:25Z</time>
      </trkpt>
      <trkpt lat="47.65564" lon="6.2334">
        <ele>320.8</ele>
        <time>2021-09-04T12:46:26Z</time>
      </trkpt>
      <trkpt lat="47.65568" lon="6.23345">
        <ele>320.5</ele>
        <time>2021-09-04T12:46:27Z</time>
      </trkpt>
      <trkpt lat="47.65573" lon="6.23351">
        <ele>320.2</ele>
        <time>2021-09-04T12:46:28Z</time>
      </trkpt>
      <trkpt lat="47.65577" lon="6.23357">
        <ele>319.9</ele>
        <time>2021-09-04T12:46:29Z</time>
      </trkpt>
      <trkpt lat="47.6558" lon="6.23363">
        <ele>319.7</ele>
        <time>2021-09-04T12:46:30Z</time>
      </trkpt>
      <trkpt lat="47.65584" lon="6.23369">
        <ele>319.4</ele>
        <time>2021-09-04T12:46:31Z</time>
      </trkpt>
      <trkpt lat="47.65587" lon="6.23376">
        <ele>319.4</ele>
        <time>2021-09-04T12:46:32Z</time>
      </trkpt>
      <trkpt lat="47.6559" lon="6.23382">
        <ele>319.4</ele>
        <time>2021-09-04T12:46:33Z</time>
      </trkpt>
      <trkpt lat="47.65593" lon="6.23388">
        <ele>319.4</ele>
        <time>2021-09-04T12:46:34Z</time>
      </trkpt>
      <trkpt lat="47.65597" lon="6.23394">
        <ele>319.4</ele>
        <time>2021-09-04T12:46:35Z</time>
      </trkpt>
      <trkpt lat="47.656" lon="6.23399">
        <ele>319.4</ele>
        <time>2021-09-04T12:46:36Z</time>
      </trkpt>
      <trkpt lat="47.65603" lon="6.23405">
        <ele>319.4</ele>
        <time>2021-09-04T12:46:37Z</time>
      </trkpt>
      <trkpt lat="47.65604" lon="6.23412">
        <ele>319.4</ele>
        <time>2021-09-04T12:46:38Z</time>
      </trkpt>
      <trkpt lat="47.65603" lon="6.23419">
        <ele>319.5</ele>
        <time>2021-09-04T12:46:39Z</time>
      </trkpt>
      <trkpt lat="47.65598" lon="6.23424">
        <ele>319.5</ele>
        <time>2021-09-04T12:46:41Z</time>
      </trkpt>
      <trkpt lat="47.65592" lon="6.23428">
        <ele>319.6</ele>
        <time>2021-09-04T12:46:43Z</time>
      </trkpt>
      <trkpt lat="47.65587" lon="6.2343">
        <ele>319.6</ele>
        <time>2021-09-04T12:46:45Z</time>
      </trkpt>
      <trkpt lat="47.65582" lon="6.23431">
        <ele>319.8</ele>
        <time>2021-09-04T12:46:51Z</time>
      </trkpt>
      <trkpt lat="47.65577" lon="6.23433">
        <ele>320.4</ele>
        <time>2021-09-04T12:46:52Z</time>
      </trkpt>
      <trkpt lat="47.65572" lon="6.23437">
        <ele>321</ele>
        <time>2021-09-04T12:46:53Z</time>
      </trkpt>
      <trkpt lat="47.65568" lon="6.23441">
        <ele>321.4</ele>
        <time>2021-09-04T12:46:55Z</time>
      </trkpt>
      <trkpt lat="47.65563" lon="6.23448">
        <ele>321.9</ele>
        <time>2021-09-04T12:46:58Z</time>
      </trkpt>
      <trkpt lat="47.65561" lon="6.23454">
        <ele>322.2</ele>
        <time>2021-09-04T12:47:03Z</time>
      </trkpt>
      <trkpt lat="47.65558" lon="6.23461">
        <ele>322.4</ele>
        <time>2021-09-04T12:47:04Z</time>
      </trkpt>
      <trkpt lat="47.6556" lon="6.2347">
        <ele>322.1</ele>
        <time>2021-09-04T12:47:06Z</time>
      </trkpt>
      <trkpt lat="47.65568" lon="6.23491">
        <ele>320.5</ele>
        <time>2021-09-04T12:47:08Z</time>
      </trkpt>
      <trkpt lat="47.65573" lon="6.23502">
        <ele>319.5</ele>
        <time>2021-09-04T12:47:09Z</time>
      </trkpt>
      <trkpt lat="47.65578" lon="6.23514">
        <ele>318.4</ele>
        <time>2021-09-04T12:47:10Z</time>
      </trkpt>
      <trkpt lat="47.65582" lon="6.23525">
        <ele>317.3</ele>
        <time>2021-09-04T12:47:11Z</time>
      </trkpt>
      <trkpt lat="47.65587" lon="6.23536">
        <ele>316.8</ele>
        <time>2021-09-04T12:47:12Z</time>
      </trkpt>
      <trkpt lat="47.6559" lon="6.23547">
        <ele>316.5</ele>
        <time>2021-09-04T12:47:13Z</time>
      </trkpt>
      <trkpt lat="47.65593" lon="6.23558">
        <ele>316.2</ele>
        <time>2021-09-04T12:47:14Z</time>
      </trkpt>
      <trkpt lat="47.65595" lon="6.23568">
        <ele>315.9</ele>
        <time>2021-09-04T12:47:15Z</time>
      </trkpt>
      <trkpt lat="47.65599" lon="6.23575">
        <ele>315.8</ele>
        <time>2021-09-04T12:47:16Z</time>
      </trkpt>
      <trkpt lat="47.65602" lon="6.23582">
        <ele>315.7</ele>
        <time>2021-09-04T12:47:17Z</time>
      </trkpt>
      <trkpt lat="47.65606" lon="6.23587">
        <ele>315.8</ele>
        <time>2021-09-04T12:47:18Z</time>
      </trkpt>
      <trkpt lat="47.65611" lon="6.23595">
        <ele>315.9</ele>
        <time>2021-09-04T12:47:20Z</time>
      </trkpt>
      <trkpt lat="47.65613" lon="6.23602">
        <ele>316</ele>
        <time>2021-09-04T12:47:22Z</time>
      </trkpt>
      <trkpt lat="47.65611" lon="6.23609">
        <ele>315.8</ele>
        <time>2021-09-04T12:47:24Z</time>
      </trkpt>
      <trkpt lat="47.65603" lon="6.23622">
        <ele>315.2</ele>
        <time>2021-09-04T12:47:27Z</time>
      </trkpt>
      <trkpt lat="47.65595" lon="6.23623">
        <ele>314.7</ele>
        <time>2021-09-04T12:47:29Z</time>
      </trkpt>
      <trkpt lat="47.65593" lon="6.23629">
        <ele>314.5</ele>
        <time>2021-09-04T12:47:30Z</time>
      </trkpt>
      <trkpt lat="47.65592" lon="6.23637">
        <ele>314.3</ele>
        <time>2021-09-04T12:47:31Z</time>
      </trkpt>
      <trkpt lat="47.65591" lon="6.23645">
        <ele>314.1</ele>
        <time>2021-09-04T12:47:32Z</time>
      </trkpt>
      <trkpt lat="47.6559" lon="6.23653">
        <ele>313.8</ele>
        <time>2021-09-04T12:47:33Z</time>
      </trkpt>
      <trkpt lat="47.65589" lon="6.23659">
        <ele>313.6</ele>
        <time>2021-09-04T12:47:34Z</time>
      </trkpt>
      <trkpt lat="47.65586" lon="6.23666">
        <ele>313.3</ele>
        <time>2021-09-04T12:47:38Z</time>
      </trkpt>
      <trkpt lat="47.65586" lon="6.23675">
        <ele>313.4</ele>
        <time>2021-09-04T12:47:39Z</time>
      </trkpt>
      <trkpt lat="47.65585" lon="6.23691">
        <ele>313.7</ele>
        <time>2021-09-04T12:47:41Z</time>
      </trkpt>
      <trkpt lat="47.65584" lon="6.23714">
        <ele>314.2</ele>
        <time>2021-09-04T12:47:44Z</time>
      </trkpt>
      <trkpt lat="47.65584" lon="6.23721">
        <ele>314.4</ele>
        <time>2021-09-04T12:47:45Z</time>
      </trkpt>
      <trkpt lat="47.65581" lon="6.23731">
        <ele>314.5</ele>
        <time>2021-09-04T12:47:47Z</time>
      </trkpt>
      <trkpt lat="47.65577" lon="6.23734">
        <ele>314.4</ele>
        <time>2021-09-04T12:47:49Z</time>
      </trkpt>
      <trkpt lat="47.65572" lon="6.23732">
        <ele>314.3</ele>
        <time>2021-09-04T12:47:52Z</time>
      </trkpt>
      <trkpt lat="47.65568" lon="6.23728">
        <ele>314.1</ele>
        <time>2021-09-04T12:47:57Z</time>
      </trkpt>
      <trkpt lat="47.65562" lon="6.23724">
        <ele>313.8</ele>
        <time>2021-09-04T12:47:59Z</time>
      </trkpt>
      <trkpt lat="47.65555" lon="6.23725">
        <ele>313.7</ele>
        <time>2021-09-04T12:48:02Z</time>
      </trkpt>
      <trkpt lat="47.65549" lon="6.23727">
        <ele>313.6</ele>
        <time>2021-09-04T12:48:04Z</time>
      </trkpt>
      <trkpt lat="47.65543" lon="6.2373">
        <ele>313.4</ele>
        <time>2021-09-04T12:48:06Z</time>
      </trkpt>
      <trkpt lat="47.65537" lon="6.23733">
        <ele>313.3</ele>
        <time>2021-09-04T12:48:08Z</time>
      </trkpt>
      <trkpt lat="47.65529" lon="6.23737">
        <ele>313</ele>
        <time>2021-09-04T12:48:10Z</time>
      </trkpt>
      <trkpt lat="47.65518" lon="6.23741">
        <ele>312.7</ele>
        <time>2021-09-04T12:48:11Z</time>
      </trkpt>
      <trkpt lat="47.65512" lon="6.23742">
        <ele>312.5</ele>
        <time>2021-09-04T12:48:12Z</time>
      </trkpt>
      <trkpt lat="47.65507" lon="6.23743">
        <ele>312.3</ele>
        <time>2021-09-04T12:48:13Z</time>
      </trkpt>
      <trkpt lat="47.65501" lon="6.23745">
        <ele>312.1</ele>
        <time>2021-09-04T12:48:14Z</time>
      </trkpt>
      <trkpt lat="47.65495" lon="6.23746">
        <ele>311.6</ele>
        <time>2021-09-04T12:48:15Z</time>
      </trkpt>
      <trkpt lat="47.65489" lon="6.23748">
        <ele>311</ele>
        <time>2021-09-04T12:48:16Z</time>
      </trkpt>
      <trkpt lat="47.65483" lon="6.23748">
        <ele>310.5</ele>
        <time>2021-09-04T12:48:17Z</time>
      </trkpt>
      <trkpt lat="47.65477" lon="6.23747">
        <ele>310</ele>
        <time>2021-09-04T12:48:18Z</time>
      </trkpt>
      <trkpt lat="47.65472" lon="6.23743">
        <ele>309.7</ele>
        <time>2021-09-04T12:48:19Z</time>
      </trkpt>
      <trkpt lat="47.65467" lon="6.23738">
        <ele>309.7</ele>
        <time>2021-09-04T12:48:20Z</time>
      </trkpt>
      <trkpt lat="47.65463" lon="6.23731">
        <ele>310</ele>
        <time>2021-09-04T12:48:21Z</time>
      </trkpt>
      <trkpt lat="47.65459" lon="6.23724">
        <ele>310.4</ele>
        <time>2021-09-04T12:48:22Z</time>
      </trkpt>
      <trkpt lat="47.65453" lon="6.23716">
        <ele>310.9</ele>
        <time>2021-09-04T12:48:23Z</time>
      </trkpt>
      <trkpt lat="47.65447" lon="6.2371">
        <ele>311.4</ele>
        <time>2021-09-04T12:48:24Z</time>
      </trkpt>
      <trkpt lat="47.6544" lon="6.23707">
        <ele>311.6</ele>
        <time>2021-09-04T12:48:25Z</time>
      </trkpt>
      <trkpt lat="47.65433" lon="6.23705">
        <ele>311.8</ele>
        <time>2021-09-04T12:48:26Z</time>
      </trkpt>
      <trkpt lat="47.65426" lon="6.23703">
        <ele>311.9</ele>
        <time>2021-09-04T12:48:27Z</time>
      </trkpt>
      <trkpt lat="47.65419" lon="6.23703">
        <ele>311.9</ele>
        <time>2021-09-04T12:48:28Z</time>
      </trkpt>
      <trkpt lat="47.65412" lon="6.23705">
        <ele>311.5</ele>
        <time>2021-09-04T12:48:29Z</time>
      </trkpt>
      <trkpt lat="47.65405" lon="6.23707">
        <ele>311</ele>
        <time>2021-09-04T12:48:30Z</time>
      </trkpt>
      <trkpt lat="47.65398" lon="6.23709">
        <ele>310.5</ele>
        <time>2021-09-04T12:48:31Z</time>
      </trkpt>
      <trkpt lat="47.65391" lon="6.23713">
        <ele>309.8</ele>
        <time>2021-09-04T12:48:32Z</time>
      </trkpt>
      <trkpt lat="47.65385" lon="6.23717">
        <ele>309.2</ele>
        <time>2021-09-04T12:48:33Z</time>
      </trkpt>
      <trkpt lat="47.65379" lon="6.23721">
        <ele>308.5</ele>
        <time>2021-09-04T12:48:34Z</time>
      </trkpt>
      <trkpt lat="47.65373" lon="6.23725">
        <ele>307.7</ele>
        <time>2021-09-04T12:48:35Z</time>
      </trkpt>
      <trkpt lat="47.65367" lon="6.2373">
        <ele>307</ele>
        <time>2021-09-04T12:48:36Z</time>
      </trkpt>
      <trkpt lat="47.65361" lon="6.23734">
        <ele>306.3</ele>
        <time>2021-09-04T12:48:37Z</time>
      </trkpt>
      <trkpt lat="47.65355" lon="6.23737">
        <ele>305.9</ele>
        <time>2021-09-04T12:48:38Z</time>
      </trkpt>
      <trkpt lat="47.65348" lon="6.23739">
        <ele>305.5</ele>
        <time>2021-09-04T12:48:39Z</time>
      </trkpt>
      <trkpt lat="47.65342" lon="6.23741">
        <ele>305.3</ele>
        <time>2021-09-04T12:48:40Z</time>
      </trkpt>
      <trkpt lat="47.65335" lon="6.23741">
        <ele>305.2</ele>
        <time>2021-09-04T12:48:41Z</time>
      </trkpt>
      <trkpt lat="47.65328" lon="6.23741">
        <ele>305.1</ele>
        <time>2021-09-04T12:48:42Z</time>
      </trkpt>
      <trkpt lat="47.65321" lon="6.2374">
        <ele>305</ele>
        <time>2021-09-04T12:48:43Z</time>
      </trkpt>
      <trkpt lat="47.65314" lon="6.23739">
        <ele>305</ele>
        <time>2021-09-04T12:48:44Z</time>
      </trkpt>
      <trkpt lat="47.65307" lon="6.23738">
        <ele>304.9</ele>
        <time>2021-09-04T12:48:45Z</time>
      </trkpt>
      <trkpt lat="47.653" lon="6.23736">
        <ele>304.9</ele>
        <time>2021-09-04T12:48:46Z</time>
      </trkpt>
      <trkpt lat="47.65292" lon="6.23733">
        <ele>305</ele>
        <time>2021-09-04T12:48:47Z</time>
      </trkpt>
      <trkpt lat="47.65285" lon="6.23729">
        <ele>305</ele>
        <time>2021-09-04T12:48:48Z</time>
      </trkpt>
      <trkpt lat="47.65278" lon="6.23726">
        <ele>305</ele>
        <time>2021-09-04T12:48:49Z</time>
      </trkpt>
      <trkpt lat="47.65271" lon="6.23722">
        <ele>304.9</ele>
        <time>2021-09-04T12:48:50Z</time>
      </trkpt>
      <trkpt lat="47.65264" lon="6.23718">
        <ele>304.8</ele>
        <time>2021-09-04T12:48:51Z</time>
      </trkpt>
      <trkpt lat="47.65257" lon="6.23714">
        <ele>304.6</ele>
        <time>2021-09-04T12:48:52Z</time>
      </trkpt>
      <trkpt lat="47.6525" lon="6.2371">
        <ele>304.5</ele>
        <time>2021-09-04T12:48:53Z</time>
      </trkpt>
      <trkpt lat="47.65244" lon="6.23704">
        <ele>304.4</ele>
        <time>2021-09-04T12:48:54Z</time>
      </trkpt>
      <trkpt lat="47.65238" lon="6.23698">
        <ele>304.3</ele>
        <time>2021-09-04T12:48:55Z</time>
      </trkpt>
      <trkpt lat="47.65233" lon="6.23692">
        <ele>304.1</ele>
        <time>2021-09-04T12:48:56Z</time>
      </trkpt>
      <trkpt lat="47.65227" lon="6.23686">
        <ele>303.9</ele>
        <time>2021-09-04T12:48:57Z</time>
      </trkpt>
      <trkpt lat="47.65221" lon="6.2368">
        <ele>303.5</ele>
        <time>2021-09-04T12:48:58Z</time>
      </trkpt>
      <trkpt lat="47.65216" lon="6.23673">
        <ele>303.1</ele>
        <time>2021-09-04T12:48:59Z</time>
      </trkpt>
      <trkpt lat="47.6521" lon="6.23667">
        <ele>302.7</ele>
        <time>2021-09-04T12:49:00Z</time>
      </trkpt>
      <trkpt lat="47.65205" lon="6.2366">
        <ele>302.5</ele>
        <time>2021-09-04T12:49:01Z</time>
      </trkpt>
      <trkpt lat="47.65199" lon="6.23653">
        <ele>302.3</ele>
        <time>2021-09-04T12:49:02Z</time>
      </trkpt>
      <trkpt lat="47.65194" lon="6.23647">
        <ele>302</ele>
        <time>2021-09-04T12:49:03Z</time>
      </trkpt>
      <trkpt lat="47.65188" lon="6.23641">
        <ele>301.5</ele>
        <time>2021-09-04T12:49:04Z</time>
      </trkpt>
      <trkpt lat="47.65182" lon="6.23636">
        <ele>301</ele>
        <time>2021-09-04T12:49:05Z</time>
      </trkpt>
      <trkpt lat="47.65176" lon="6.23631">
        <ele>300.5</ele>
        <time>2021-09-04T12:49:06Z</time>
      </trkpt>
      <trkpt lat="47.6517" lon="6.23625">
        <ele>299.9</ele>
        <time>2021-09-04T12:49:07Z</time>
      </trkpt>
      <trkpt lat="47.65164" lon="6.23619">
        <ele>299.5</ele>
        <time>2021-09-04T12:49:08Z</time>
      </trkpt>
      <trkpt lat="47.65159" lon="6.23614">
        <ele>299.3</ele>
        <time>2021-09-04T12:49:09Z</time>
      </trkpt>
      <trkpt lat="47.65152" lon="6.23609">
        <ele>299.1</ele>
        <time>2021-09-04T12:49:10Z</time>
      </trkpt>
      <trkpt lat="47.65146" lon="6.23604">
        <ele>298.9</ele>
        <time>2021-09-04T12:49:11Z</time>
      </trkpt>
      <trkpt lat="47.65139" lon="6.236">
        <ele>298.6</ele>
        <time>2021-09-04T12:49:12Z</time>
      </trkpt>
      <trkpt lat="47.65132" lon="6.23596">
        <ele>298.3</ele>
        <time>2021-09-04T12:49:13Z</time>
      </trkpt>
      <trkpt lat="47.65125" lon="6.23592">
        <ele>298</ele>
        <time>2021-09-04T12:49:14Z</time>
      </trkpt>
      <trkpt lat="47.65119" lon="6.23589">
        <ele>297.7</ele>
        <time>2021-09-04T12:49:15Z</time>
      </trkpt>
      <trkpt lat="47.65112" lon="6.23586">
        <ele>297.4</ele>
        <time>2021-09-04T12:49:16Z</time>
      </trkpt>
      <trkpt lat="47.65105" lon="6.23583">
        <ele>297</ele>
        <time>2021-09-04T12:49:17Z</time>
      </trkpt>
      <trkpt lat="47.65098" lon="6.23581">
        <ele>296.7</ele>
        <time>2021-09-04T12:49:18Z</time>
      </trkpt>
      <trkpt lat="47.6509" lon="6.23578">
        <ele>296.4</ele>
        <time>2021-09-04T12:49:19Z</time>
      </trkpt>
      <trkpt lat="47.65083" lon="6.23575">
        <ele>296</ele>
        <time>2021-09-04T12:49:20Z</time>
      </trkpt>
      <trkpt lat="47.65076" lon="6.23572">
        <ele>295.6</ele>
        <time>2021-09-04T12:49:21Z</time>
      </trkpt>
      <trkpt lat="47.65069" lon="6.23569">
        <ele>295.3</ele>
        <time>2021-09-04T12:49:22Z</time>
      </trkpt>
      <trkpt lat="47.65063" lon="6.23566">
        <ele>295</ele>
        <time>2021-09-04T12:49:23Z</time>
      </trkpt>
      <trkpt lat="47.65057" lon="6.23561">
        <ele>294.6</ele>
        <time>2021-09-04T12:49:24Z</time>
      </trkpt>
      <trkpt lat="47.65051" lon="6.23556">
        <ele>294.3</ele>
        <time>2021-09-04T12:49:25Z</time>
      </trkpt>
      <trkpt lat="47.65046" lon="6.23551">
        <ele>294</ele>
        <time>2021-09-04T12:49:26Z</time>
      </trkpt>
      <trkpt lat="47.6504" lon="6.23545">
        <ele>293.7</ele>
        <time>2021-09-04T12:49:27Z</time>
      </trkpt>
      <trkpt lat="47.65034" lon="6.2354">
        <ele>293.3</ele>
        <time>2021-09-04T12:49:28Z</time>
      </trkpt>
      <trkpt lat="47.65029" lon="6.23533">
        <ele>293</ele>
        <time>2021-09-04T12:49:29Z</time>
      </trkpt>
      <trkpt lat="47.65023" lon="6.23527">
        <ele>292.6</ele>
        <time>2021-09-04T12:49:30Z</time>
      </trkpt>
      <trkpt lat="47.65018" lon="6.2352">
        <ele>292.2</ele>
        <time>2021-09-04T12:49:31Z</time>
      </trkpt>
      <trkpt lat="47.65012" lon="6.23513">
        <ele>291.8</ele>
        <time>2021-09-04T12:49:32Z</time>
      </trkpt>
      <trkpt lat="47.65006" lon="6.23505">
        <ele>291.4</ele>
        <time>2021-09-04T12:49:33Z</time>
      </trkpt>
      <trkpt lat="47.65001" lon="6.23498">
        <ele>291</ele>
        <time>2021-09-04T12:49:34Z</time>
      </trkpt>
      <trkpt lat="47.64995" lon="6.23492">
        <ele>290.7</ele>
        <time>2021-09-04T12:49:35Z</time>
      </trkpt>
      <trkpt lat="47.64989" lon="6.23485">
        <ele>290.5</ele>
        <time>2021-09-04T12:49:36Z</time>
      </trkpt>
      <trkpt lat="47.64982" lon="6.23479">
        <ele>290.2</ele>
        <time>2021-09-04T12:49:37Z</time>
      </trkpt>
      <trkpt lat="47.64976" lon="6.23474">
        <ele>290</ele>
        <time>2021-09-04T12:49:38Z</time>
      </trkpt>
      <trkpt lat="47.6497" lon="6.23469">
        <ele>289.8</ele>
        <time>2021-09-04T12:49:39Z</time>
      </trkpt>
      <trkpt lat="47.64963" lon="6.23465">
        <ele>289.6</ele>
        <time>2021-09-04T12:49:40Z</time>
      </trkpt>
      <trkpt lat="47.64956" lon="6.23462">
        <ele>289.5</ele>
        <time>2021-09-04T12:49:41Z</time>
      </trkpt>
      <trkpt lat="47.6495" lon="6.23459">
        <ele>289.3</ele>
        <time>2021-09-04T12:49:42Z</time>
      </trkpt>
      <trkpt lat="47.64943" lon="6.23455">
        <ele>289.2</ele>
        <time>2021-09-04T12:49:43Z</time>
      </trkpt>
      <trkpt lat="47.64937" lon="6.23452">
        <ele>289</ele>
        <time>2021-09-04T12:49:44Z</time>
      </trkpt>
      <trkpt lat="47.64931" lon="6.2345">
        <ele>288.9</ele>
        <time>2021-09-04T12:49:45Z</time>
      </trkpt>
      <trkpt lat="47.64925" lon="6.23447">
        <ele>288.8</ele>
        <time>2021-09-04T12:49:46Z</time>
      </trkpt>
      <trkpt lat="47.64919" lon="6.23444">
        <ele>288.7</ele>
        <time>2021-09-04T12:49:47Z</time>
      </trkpt>
      <trkpt lat="47.64913" lon="6.23441">
        <ele>288.7</ele>
        <time>2021-09-04T12:49:48Z</time>
      </trkpt>
      <trkpt lat="47.64908" lon="6.23439">
        <ele>288.8</ele>
        <time>2021-09-04T12:49:49Z</time>
      </trkpt>
      <trkpt lat="47.64902" lon="6.23435">
        <ele>288.8</ele>
        <time>2021-09-04T12:49:51Z</time>
      </trkpt>
      <trkpt lat="47.64897" lon="6.23434">
        <ele>288.8</ele>
        <time>2021-09-04T12:50:11Z</time>
      </trkpt>
      <trkpt lat="47.64892" lon="6.2343">
        <ele>288.8</ele>
        <time>2021-09-04T12:50:13Z</time>
      </trkpt>
      <trkpt lat="47.64885" lon="6.23425">
        <ele>288.7</ele>
        <time>2021-09-04T12:50:14Z</time>
      </trkpt>
      <trkpt lat="47.64879" lon="6.23421">
        <ele>288.6</ele>
        <time>2021-09-04T12:50:17Z</time>
      </trkpt>
      <trkpt lat="47.64874" lon="6.23416">
        <ele>288.5</ele>
        <time>2021-09-04T12:50:18Z</time>
      </trkpt>
      <trkpt lat="47.64867" lon="6.23409">
        <ele>288.5</ele>
        <time>2021-09-04T12:50:20Z</time>
      </trkpt>
      <trkpt lat="47.64861" lon="6.23404">
        <ele>288.5</ele>
        <time>2021-09-04T12:50:21Z</time>
      </trkpt>
      <trkpt lat="47.64852" lon="6.23394">
        <ele>288.5</ele>
        <time>2021-09-04T12:50:22Z</time>
      </trkpt>
      <trkpt lat="47.64848" lon="6.2339">
        <ele>288.5</ele>
        <time>2021-09-04T12:50:23Z</time>
      </trkpt>
      <trkpt lat="47.64844" lon="6.23386">
        <ele>288.5</ele>
        <time>2021-09-04T12:50:24Z</time>
      </trkpt>
      <trkpt lat="47.6484" lon="6.23381">
        <ele>288.5</ele>
        <time>2021-09-04T12:50:25Z</time>
      </trkpt>
      <trkpt lat="47.64836" lon="6.23376">
        <ele>288.5</ele>
        <time>2021-09-04T12:50:26Z</time>
      </trkpt>
      <trkpt lat="47.64832" lon="6.23372">
        <ele>288.6</ele>
        <time>2021-09-04T12:50:27Z</time>
      </trkpt>
      <trkpt lat="47.64828" lon="6.23367">
        <ele>288.8</ele>
        <time>2021-09-04T12:50:28Z</time>
      </trkpt>
      <trkpt lat="47.64823" lon="6.23362">
        <ele>289</ele>
        <time>2021-09-04T12:50:29Z</time>
      </trkpt>
      <trkpt lat="47.64819" lon="6.23356">
        <ele>289.2</ele>
        <time>2021-09-04T12:50:30Z</time>
      </trkpt>
      <trkpt lat="47.64814" lon="6.23351">
        <ele>289.3</ele>
        <time>2021-09-04T12:50:31Z</time>
      </trkpt>
      <trkpt lat="47.6481" lon="6.23346">
        <ele>289.4</ele>
        <time>2021-09-04T12:50:32Z</time>
      </trkpt>
      <trkpt lat="47.64805" lon="6.23342">
        <ele>289.4</ele>
        <time>2021-09-04T12:50:33Z</time>
      </trkpt>
      <trkpt lat="47.64801" lon="6.23336">
        <ele>289.4</ele>
        <time>2021-09-04T12:50:34Z</time>
      </trkpt>
      <trkpt lat="47.64797" lon="6.2333">
        <ele>289.4</ele>
        <time>2021-09-04T12:50:35Z</time>
      </trkpt>
      <trkpt lat="47.64793" lon="6.23326">
        <ele>289.5</ele>
        <time>2021-09-04T12:50:36Z</time>
      </trkpt>
      <trkpt lat="47.64788" lon="6.23321">
        <ele>289.4</ele>
        <time>2021-09-04T12:50:37Z</time>
      </trkpt>
      <trkpt lat="47.64784" lon="6.23316">
        <ele>289.4</ele>
        <time>2021-09-04T12:50:38Z</time>
      </trkpt>
      <trkpt lat="47.64779" lon="6.23311">
        <ele>289.2</ele>
        <time>2021-09-04T12:50:39Z</time>
      </trkpt>
      <trkpt lat="47.64775" lon="6.23306">
        <ele>289.1</ele>
        <time>2021-09-04T12:50:40Z</time>
      </trkpt>
      <trkpt lat="47.6477" lon="6.23301">
        <ele>288.9</ele>
        <time>2021-09-04T12:50:41Z</time>
      </trkpt>
      <trkpt lat="47.64766" lon="6.23296">
        <ele>288.6</ele>
        <time>2021-09-04T12:50:42Z</time>
      </trkpt>
      <trkpt lat="47.64761" lon="6.23291">
        <ele>288.3</ele>
        <time>2021-09-04T12:50:43Z</time>
      </trkpt>
      <trkpt lat="47.64756" lon="6.23286">
        <ele>287.9</ele>
        <time>2021-09-04T12:50:44Z</time>
      </trkpt>
      <trkpt lat="47.64751" lon="6.23281">
        <ele>287.5</ele>
        <time>2021-09-04T12:50:45Z</time>
      </trkpt>
      <trkpt lat="47.64745" lon="6.23276">
        <ele>287.2</ele>
        <time>2021-09-04T12:50:46Z</time>
      </trkpt>
      <trkpt lat="47.6474" lon="6.23271">
        <ele>286.8</ele>
        <time>2021-09-04T12:50:47Z</time>
      </trkpt>
      <trkpt lat="47.64735" lon="6.23266">
        <ele>286.5</ele>
        <time>2021-09-04T12:50:48Z</time>
      </trkpt>
      <trkpt lat="47.64729" lon="6.2326">
        <ele>286.1</ele>
        <time>2021-09-04T12:50:49Z</time>
      </trkpt>
      <trkpt lat="47.64724" lon="6.23255">
        <ele>285.6</ele>
        <time>2021-09-04T12:50:50Z</time>
      </trkpt>
      <trkpt lat="47.64719" lon="6.23249">
        <ele>285.3</ele>
        <time>2021-09-04T12:50:51Z</time>
      </trkpt>
      <trkpt lat="47.64713" lon="6.23244">
        <ele>285.2</ele>
        <time>2021-09-04T12:50:52Z</time>
      </trkpt>
      <trkpt lat="47.64708" lon="6.23238">
        <ele>285.1</ele>
        <time>2021-09-04T12:50:53Z</time>
      </trkpt>
      <trkpt lat="47.64703" lon="6.23232">
        <ele>285</ele>
        <time>2021-09-04T12:50:54Z</time>
      </trkpt>
      <trkpt lat="47.64697" lon="6.23226">
        <ele>284.9</ele>
        <time>2021-09-04T12:50:55Z</time>
      </trkpt>
      <trkpt lat="47.64692" lon="6.2322">
        <ele>284.7</ele>
        <time>2021-09-04T12:50:56Z</time>
      </trkpt>
      <trkpt lat="47.64687" lon="6.23213">
        <ele>284.5</ele>
        <time>2021-09-04T12:50:57Z</time>
      </trkpt>
      <trkpt lat="47.64682" lon="6.23206">
        <ele>284.2</ele>
        <time>2021-09-04T12:50:58Z</time>
      </trkpt>
      <trkpt lat="47.64677" lon="6.23199">
        <ele>283.9</ele>
        <time>2021-09-04T12:50:59Z</time>
      </trkpt>
      <trkpt lat="47.64672" lon="6.23192">
        <ele>283.6</ele>
        <time>2021-09-04T12:51:00Z</time>
      </trkpt>
      <trkpt lat="47.64667" lon="6.23185">
        <ele>283.2</ele>
        <time>2021-09-04T12:51:01Z</time>
      </trkpt>
      <trkpt lat="47.64662" lon="6.23178">
        <ele>283.2</ele>
        <time>2021-09-04T12:51:02Z</time>
      </trkpt>
      <trkpt lat="47.64657" lon="6.23171">
        <ele>283.2</ele>
        <time>2021-09-04T12:51:03Z</time>
      </trkpt>
      <trkpt lat="47.64652" lon="6.23164">
        <ele>283.3</ele>
        <time>2021-09-04T12:51:04Z</time>
      </trkpt>
      <trkpt lat="47.64647" lon="6.23157">
        <ele>283.5</ele>
        <time>2021-09-04T12:51:05Z</time>
      </trkpt>
      <trkpt lat="47.64642" lon="6.2315">
        <ele>283.7</ele>
        <time>2021-09-04T12:51:06Z</time>
      </trkpt>
      <trkpt lat="47.64637" lon="6.23142">
        <ele>283.9</ele>
        <time>2021-09-04T12:51:07Z</time>
      </trkpt>
      <trkpt lat="47.64632" lon="6.23135">
        <ele>284.1</ele>
        <time>2021-09-04T12:51:08Z</time>
      </trkpt>
      <trkpt lat="47.64627" lon="6.23128">
        <ele>284.2</ele>
        <time>2021-09-04T12:51:09Z</time>
      </trkpt>
      <trkpt lat="47.64623" lon="6.23122">
        <ele>284.3</ele>
        <time>2021-09-04T12:51:10Z</time>
      </trkpt>
      <trkpt lat="47.64618" lon="6.23116">
        <ele>284.3</ele>
        <time>2021-09-04T12:51:11Z</time>
      </trkpt>
      <trkpt lat="47.64613" lon="6.23109">
        <ele>284.4</ele>
        <time>2021-09-04T12:51:12Z</time>
      </trkpt>
      <trkpt lat="47.64608" lon="6.23103">
        <ele>284.4</ele>
        <time>2021-09-04T12:51:13Z</time>
      </trkpt>
      <trkpt lat="47.64604" lon="6.23098">
        <ele>284.4</ele>
        <time>2021-09-04T12:51:14Z</time>
      </trkpt>
      <trkpt lat="47.64599" lon="6.23093">
        <ele>284.3</ele>
        <time>2021-09-04T12:51:15Z</time>
      </trkpt>
      <trkpt lat="47.64594" lon="6.23088">
        <ele>284.2</ele>
        <time>2021-09-04T12:51:16Z</time>
      </trkpt>
      <trkpt lat="47.64589" lon="6.23083">
        <ele>284.2</ele>
        <time>2021-09-04T12:51:17Z</time>
      </trkpt>
      <trkpt lat="47.64584" lon="6.23079">
        <ele>284.2</ele>
        <time>2021-09-04T12:51:18Z</time>
      </trkpt>
      <trkpt lat="47.64579" lon="6.23075">
        <ele>284.2</ele>
        <time>2021-09-04T12:51:19Z</time>
      </trkpt>
      <trkpt lat="47.64573" lon="6.23072">
        <ele>284.2</ele>
        <time>2021-09-04T12:51:20Z</time>
      </trkpt>
      <trkpt lat="47.64567" lon="6.23069">
        <ele>284.2</ele>
        <time>2021-09-04T12:51:21Z</time>
      </trkpt>
      <trkpt lat="47.64562" lon="6.23066">
        <ele>284.2</ele>
        <time>2021-09-04T12:51:22Z</time>
      </trkpt>
      <trkpt lat="47.64556" lon="6.23062">
        <ele>284.1</ele>
        <time>2021-09-04T12:51:23Z</time>
      </trkpt>
      <trkpt lat="47.6455" lon="6.23059">
        <ele>284</ele>
        <time>2021-09-04T12:51:24Z</time>
      </trkpt>
      <trkpt lat="47.64544" lon="6.23055">
        <ele>283.9</ele>
        <time>2021-09-04T12:51:25Z</time>
      </trkpt>
      <trkpt lat="47.64538" lon="6.23051">
        <ele>283.8</ele>
        <time>2021-09-04T12:51:26Z</time>
      </trkpt>
      <trkpt lat="47.64532" lon="6.23046">
        <ele>283.6</ele>
        <time>2021-09-04T12:51:27Z</time>
      </trkpt>
      <trkpt lat="47.64527" lon="6.23041">
        <ele>283.5</ele>
        <time>2021-09-04T12:51:28Z</time>
      </trkpt>
      <trkpt lat="47.64521" lon="6.23036">
        <ele>283.2</ele>
        <time>2021-09-04T12:51:29Z</time>
      </trkpt>
      <trkpt lat="47.64515" lon="6.23031">
        <ele>283</ele>
        <time>2021-09-04T12:51:30Z</time>
      </trkpt>
      <trkpt lat="47.6451" lon="6.23025">
        <ele>282.7</ele>
        <time>2021-09-04T12:51:31Z</time>
      </trkpt>
      <trkpt lat="47.64504" lon="6.2302">
        <ele>282.4</ele>
        <time>2021-09-04T12:51:32Z</time>
      </trkpt>
      <trkpt lat="47.64498" lon="6.23015">
        <ele>282.2</ele>
        <time>2021-09-04T12:51:33Z</time>
      </trkpt>
      <trkpt lat="47.64493" lon="6.2301">
        <ele>282.3</ele>
        <time>2021-09-04T12:51:34Z</time>
      </trkpt>
      <trkpt lat="47.64488" lon="6.23005">
        <ele>282.4</ele>
        <time>2021-09-04T12:51:35Z</time>
      </trkpt>
      <trkpt lat="47.64482" lon="6.23">
        <ele>282.4</ele>
        <time>2021-09-04T12:51:36Z</time>
      </trkpt>
      <trkpt lat="47.64477" lon="6.22996">
        <ele>282.8</ele>
        <time>2021-09-04T12:51:37Z</time>
      </trkpt>
      <trkpt lat="47.64471" lon="6.22991">
        <ele>283.2</ele>
        <time>2021-09-04T12:51:38Z</time>
      </trkpt>
      <trkpt lat="47.64466" lon="6.22987">
        <ele>283.5</ele>
        <time>2021-09-04T12:51:39Z</time>
      </trkpt>
      <trkpt lat="47.64461" lon="6.22983">
        <ele>283.8</ele>
        <time>2021-09-04T12:51:40Z</time>
      </trkpt>
      <trkpt lat="47.64456" lon="6.22979">
        <ele>284</ele>
        <time>2021-09-04T12:51:41Z</time>
      </trkpt>
      <trkpt lat="47.64451" lon="6.22975">
        <ele>284.2</ele>
        <time>2021-09-04T12:51:42Z</time>
      </trkpt>
      <trkpt lat="47.64447" lon="6.22972">
        <ele>284.3</ele>
        <time>2021-09-04T12:51:43Z</time>
      </trkpt>
      <trkpt lat="47.64442" lon="6.22968">
        <ele>284.5</ele>
        <time>2021-09-04T12:51:44Z</time>
      </trkpt>
      <trkpt lat="47.64437" lon="6.22964">
        <ele>284.6</ele>
        <time>2021-09-04T12:51:45Z</time>
      </trkpt>
      <trkpt lat="47.64433" lon="6.22961">
        <ele>284.6</ele>
        <time>2021-09-04T12:51:46Z</time>
      </trkpt>
      <trkpt lat="47.64428" lon="6.22957">
        <ele>284.7</ele>
        <time>2021-09-04T12:51:47Z</time>
      </trkpt>
      <trkpt lat="47.64424" lon="6.22954">
        <ele>284.7</ele>
        <time>2021-09-04T12:51:48Z</time>
      </trkpt>
      <trkpt lat="47.6442" lon="6.2295">
        <ele>284.7</ele>
        <time>2021-09-04T12:51:49Z</time>
      </trkpt>
      <trkpt lat="47.64416" lon="6.22946">
        <ele>284.7</ele>
        <time>2021-09-04T12:51:50Z</time>
      </trkpt>
      <trkpt lat="47.64412" lon="6.22942">
        <ele>284.7</ele>
        <time>2021-09-04T12:51:51Z</time>
      </trkpt>
      <trkpt lat="47.64405" lon="6.22937">
        <ele>284.9</ele>
        <time>2021-09-04T12:51:53Z</time>
      </trkpt>
      <trkpt lat="47.64399" lon="6.22932">
        <ele>284.9</ele>
        <time>2021-09-04T12:51:55Z</time>
      </trkpt>
      <trkpt lat="47.64394" lon="6.22929">
        <ele>285</ele>
        <time>2021-09-04T12:51:57Z</time>
      </trkpt>
      <trkpt lat="47.64388" lon="6.22926">
        <ele>285</ele>
        <time>2021-09-04T12:51:59Z</time>
      </trkpt>
      <trkpt lat="47.64381" lon="6.22927">
        <ele>285</ele>
        <time>2021-09-04T12:52:04Z</time>
      </trkpt>
      <trkpt lat="47.64376" lon="6.22926">
        <ele>285</ele>
        <time>2021-09-04T12:52:05Z</time>
      </trkpt>
      <trkpt lat="47.64371" lon="6.22926">
        <ele>285.1</ele>
        <time>2021-09-04T12:52:06Z</time>
      </trkpt>
      <trkpt lat="47.64365" lon="6.22926">
        <ele>285.1</ele>
        <time>2021-09-04T12:52:08Z</time>
      </trkpt>
      <trkpt lat="47.64355" lon="6.22927">
        <ele>285.2</ele>
        <time>2021-09-04T12:52:11Z</time>
      </trkpt>
      <trkpt lat="47.64349" lon="6.22929">
        <ele>285.2</ele>
        <time>2021-09-04T12:52:12Z</time>
      </trkpt>
      <trkpt lat="47.64343" lon="6.22929">
        <ele>285.3</ele>
        <time>2021-09-04T12:52:13Z</time>
      </trkpt>
      <trkpt lat="47.64338" lon="6.2293">
        <ele>285.3</ele>
        <time>2021-09-04T12:52:15Z</time>
      </trkpt>
      <trkpt lat="47.64332" lon="6.22931">
        <ele>285.3</ele>
        <time>2021-09-04T12:52:16Z</time>
      </trkpt>
      <trkpt lat="47.64324" lon="6.22932">
        <ele>285.2</ele>
        <time>2021-09-04T12:52:18Z</time>
      </trkpt>
      <trkpt lat="47.64313" lon="6.22932">
        <ele>285</ele>
        <time>2021-09-04T12:52:19Z</time>
      </trkpt>
      <trkpt lat="47.64308" lon="6.22931">
        <ele>284.9</ele>
        <time>2021-09-04T12:52:20Z</time>
      </trkpt>
      <trkpt lat="47.64302" lon="6.22929">
        <ele>284.8</ele>
        <time>2021-09-04T12:52:21Z</time>
      </trkpt>
      <trkpt lat="47.64297" lon="6.22927">
        <ele>284.7</ele>
        <time>2021-09-04T12:52:22Z</time>
      </trkpt>
      <trkpt lat="47.64291" lon="6.22924">
        <ele>284.6</ele>
        <time>2021-09-04T12:52:23Z</time>
      </trkpt>
      <trkpt lat="47.64286" lon="6.2292">
        <ele>284.5</ele>
        <time>2021-09-04T12:52:24Z</time>
      </trkpt>
      <trkpt lat="47.64281" lon="6.22917">
        <ele>284.4</ele>
        <time>2021-09-04T12:52:25Z</time>
      </trkpt>
      <trkpt lat="47.64276" lon="6.22912">
        <ele>284.3</ele>
        <time>2021-09-04T12:52:26Z</time>
      </trkpt>
      <trkpt lat="47.64272" lon="6.22908">
        <ele>284.3</ele>
        <time>2021-09-04T12:52:27Z</time>
      </trkpt>
      <trkpt lat="47.64267" lon="6.22904">
        <ele>284.2</ele>
        <time>2021-09-04T12:52:28Z</time>
      </trkpt>
      <trkpt lat="47.64263" lon="6.22899">
        <ele>284.2</ele>
        <time>2021-09-04T12:52:29Z</time>
      </trkpt>
      <trkpt lat="47.64259" lon="6.22895">
        <ele>284.1</ele>
        <time>2021-09-04T12:52:30Z</time>
      </trkpt>
      <trkpt lat="47.64256" lon="6.2289">
        <ele>284.1</ele>
        <time>2021-09-04T12:52:31Z</time>
      </trkpt>
      <trkpt lat="47.64252" lon="6.22886">
        <ele>284</ele>
        <time>2021-09-04T12:52:32Z</time>
      </trkpt>
      <trkpt lat="47.64248" lon="6.22882">
        <ele>284</ele>
        <time>2021-09-04T12:52:33Z</time>
      </trkpt>
      <trkpt lat="47.64241" lon="6.22874">
        <ele>283.8</ele>
        <time>2021-09-04T12:52:35Z</time>
      </trkpt>
      <trkpt lat="47.64237" lon="6.2287">
        <ele>283.8</ele>
        <time>2021-09-04T12:52:36Z</time>
      </trkpt>
      <trkpt lat="47.64233" lon="6.22867">
        <ele>283.7</ele>
        <time>2021-09-04T12:52:37Z</time>
      </trkpt>
      <trkpt lat="47.64228" lon="6.22863">
        <ele>283.6</ele>
        <time>2021-09-04T12:52:38Z</time>
      </trkpt>
      <trkpt lat="47.64224" lon="6.22859">
        <ele>283.5</ele>
        <time>2021-09-04T12:52:39Z</time>
      </trkpt>
      <trkpt lat="47.64219" lon="6.22855">
        <ele>283.4</ele>
        <time>2021-09-04T12:52:40Z</time>
      </trkpt>
      <trkpt lat="47.64214" lon="6.2285">
        <ele>283.2</ele>
        <time>2021-09-04T12:52:41Z</time>
      </trkpt>
      <trkpt lat="47.64209" lon="6.22846">
        <ele>283.1</ele>
        <time>2021-09-04T12:52:42Z</time>
      </trkpt>
      <trkpt lat="47.64204" lon="6.22842">
        <ele>283</ele>
        <time>2021-09-04T12:52:43Z</time>
      </trkpt>
      <trkpt lat="47.64199" lon="6.22838">
        <ele>282.8</ele>
        <time>2021-09-04T12:52:44Z</time>
      </trkpt>
      <trkpt lat="47.64193" lon="6.22833">
        <ele>282.6</ele>
        <time>2021-09-04T12:52:45Z</time>
      </trkpt>
      <trkpt lat="47.64187" lon="6.22828">
        <ele>282.3</ele>
        <time>2021-09-04T12:52:46Z</time>
      </trkpt>
      <trkpt lat="47.64182" lon="6.22824">
        <ele>282</ele>
        <time>2021-09-04T12:52:47Z</time>
      </trkpt>
      <trkpt lat="47.64176" lon="6.22819">
        <ele>281.7</ele>
        <time>2021-09-04T12:52:48Z</time>
      </trkpt>
      <trkpt lat="47.6417" lon="6.22814">
        <ele>281.4</ele>
        <time>2021-09-04T12:52:49Z</time>
      </trkpt>
      <trkpt lat="47.64164" lon="6.22809">
        <ele>281.1</ele>
        <time>2021-09-04T12:52:50Z</time>
      </trkpt>
      <trkpt lat="47.64157" lon="6.22804">
        <ele>280.8</ele>
        <time>2021-09-04T12:52:51Z</time>
      </trkpt>
      <trkpt lat="47.64151" lon="6.22798">
        <ele>280.6</ele>
        <time>2021-09-04T12:52:52Z</time>
      </trkpt>
      <trkpt lat="47.64145" lon="6.22793">
        <ele>280.4</ele>
        <time>2021-09-04T12:52:53Z</time>
      </trkpt>
      <trkpt lat="47.64139" lon="6.22788">
        <ele>280.2</ele>
        <time>2021-09-04T12:52:54Z</time>
      </trkpt>
      <trkpt lat="47.64133" lon="6.22782">
        <ele>280.1</ele>
        <time>2021-09-04T12:52:55Z</time>
      </trkpt>
      <trkpt lat="47.64128" lon="6.22777">
        <ele>280</ele>
        <time>2021-09-04T12:52:56Z</time>
      </trkpt>
      <trkpt lat="47.64122" lon="6.22772">
        <ele>279.9</ele>
        <time>2021-09-04T12:52:57Z</time>
      </trkpt>
      <trkpt lat="47.64117" lon="6.22766">
        <ele>279.8</ele>
        <time>2021-09-04T12:52:58Z</time>
      </trkpt>
      <trkpt lat="47.64111" lon="6.22761">
        <ele>279.8</ele>
        <time>2021-09-04T12:52:59Z</time>
      </trkpt>
      <trkpt lat="47.64106" lon="6.22756">
        <ele>279.8</ele>
        <time>2021-09-04T12:53:00Z</time>
      </trkpt>
      <trkpt lat="47.64101" lon="6.22751">
        <ele>279.8</ele>
        <time>2021-09-04T12:53:01Z</time>
      </trkpt>
      <trkpt lat="47.64097" lon="6.22745">
        <ele>279.8</ele>
        <time>2021-09-04T12:53:02Z</time>
      </trkpt>
      <trkpt lat="47.64092" lon="6.22741">
        <ele>279.9</ele>
        <time>2021-09-04T12:53:03Z</time>
      </trkpt>
      <trkpt lat="47.64088" lon="6.22736">
        <ele>279.9</ele>
        <time>2021-09-04T12:53:04Z</time>
      </trkpt>
      <trkpt lat="47.64084" lon="6.22732">
        <ele>280</ele>
        <time>2021-09-04T12:53:05Z</time>
      </trkpt>
      <trkpt lat="47.6408" lon="6.22728">
        <ele>280</ele>
        <time>2021-09-04T12:53:06Z</time>
      </trkpt>
      <trkpt lat="47.64076" lon="6.22724">
        <ele>280</ele>
        <time>2021-09-04T12:53:07Z</time>
      </trkpt>
      <trkpt lat="47.64071" lon="6.2272">
        <ele>280.1</ele>
        <time>2021-09-04T12:53:08Z</time>
      </trkpt>
      <trkpt lat="47.64067" lon="6.22717">
        <ele>280.1</ele>
        <time>2021-09-04T12:53:09Z</time>
      </trkpt>
      <trkpt lat="47.64063" lon="6.22714">
        <ele>280.2</ele>
        <time>2021-09-04T12:53:10Z</time>
      </trkpt>
      <trkpt lat="47.64057" lon="6.22708">
        <ele>280.3</ele>
        <time>2021-09-04T12:53:12Z</time>
      </trkpt>
      <trkpt lat="47.64049" lon="6.22701">
        <ele>280.5</ele>
        <time>2021-09-04T12:53:14Z</time>
      </trkpt>
      <trkpt lat="47.64042" lon="6.22695">
        <ele>280.8</ele>
        <time>2021-09-04T12:53:16Z</time>
      </trkpt>
      <trkpt lat="47.64036" lon="6.2269">
        <ele>281.1</ele>
        <time>2021-09-04T12:53:18Z</time>
      </trkpt>
      <trkpt lat="47.6403" lon="6.22691">
        <ele>281.2</ele>
        <time>2021-09-04T12:53:22Z</time>
      </trkpt>
      <trkpt lat="47.64026" lon="6.22687">
        <ele>281.4</ele>
        <time>2021-09-04T12:53:23Z</time>
      </trkpt>
      <trkpt lat="47.6402" lon="6.22681">
        <ele>281.7</ele>
        <time>2021-09-04T12:53:24Z</time>
      </trkpt>
      <trkpt lat="47.64014" lon="6.22676">
        <ele>282.1</ele>
        <time>2021-09-04T12:53:25Z</time>
      </trkpt>
      <trkpt lat="47.64009" lon="6.22671">
        <ele>282.5</ele>
        <time>2021-09-04T12:53:27Z</time>
      </trkpt>
      <trkpt lat="47.64005" lon="6.22667">
        <ele>282.8</ele>
        <time>2021-09-04T12:53:28Z</time>
      </trkpt>
      <trkpt lat="47.63999" lon="6.22663">
        <ele>283.1</ele>
        <time>2021-09-04T12:53:29Z</time>
      </trkpt>
      <trkpt lat="47.63991" lon="6.22663">
        <ele>283.1</ele>
        <time>2021-09-04T12:53:30Z</time>
      </trkpt>
      <trkpt lat="47.63985" lon="6.2267">
        <ele>282.8</ele>
        <time>2021-09-04T12:53:33Z</time>
      </trkpt>
      <trkpt lat="47.63981" lon="6.22683">
        <ele>282.2</ele>
        <time>2021-09-04T12:53:35Z</time>
      </trkpt>
      <trkpt lat="47.63978" lon="6.22692">
        <ele>281.8</ele>
        <time>2021-09-04T12:53:36Z</time>
      </trkpt>
      <trkpt lat="47.63975" lon="6.22698">
        <ele>281.5</ele>
        <time>2021-09-04T12:53:38Z</time>
      </trkpt>
      <trkpt lat="47.63972" lon="6.22705">
        <ele>281.2</ele>
        <time>2021-09-04T12:53:39Z</time>
      </trkpt>
      <trkpt lat="47.6397" lon="6.22716">
        <ele>280.6</ele>
        <time>2021-09-04T12:53:41Z</time>
      </trkpt>
      <trkpt lat="47.63967" lon="6.22722">
        <ele>280.3</ele>
        <time>2021-09-04T12:53:43Z</time>
      </trkpt>
      <trkpt lat="47.6397" lon="6.22716">
        <ele>280.6</ele>
        <time>2021-09-04T12:53:46Z</time>
      </trkpt>
      <trkpt lat="47.63968" lon="6.22724">
        <ele>280.2</ele>
        <time>2021-09-04T12:54:10Z</time>
      </trkpt>
      <trkpt lat="47.63965" lon="6.22736">
        <ele>279.7</ele>
        <time>2021-09-04T12:54:12Z</time>
      </trkpt>
      <trkpt lat="47.63961" lon="6.22748">
        <ele>279.1</ele>
        <time>2021-09-04T12:54:14Z</time>
      </trkpt>
      <trkpt lat="47.63955" lon="6.22769">
        <ele>279.3</ele>
        <time>2021-09-04T12:54:15Z</time>
      </trkpt>
      <trkpt lat="47.63953" lon="6.22777">
        <ele>279.5</ele>
        <time>2021-09-04T12:54:16Z</time>
      </trkpt>
      <trkpt lat="47.6395" lon="6.22785">
        <ele>279.7</ele>
        <time>2021-09-04T12:54:17Z</time>
      </trkpt>
      <trkpt lat="47.63948" lon="6.22792">
        <ele>279.8</ele>
        <time>2021-09-04T12:54:18Z</time>
      </trkpt>
      <trkpt lat="47.63945" lon="6.228">
        <ele>280</ele>
        <time>2021-09-04T12:54:19Z</time>
      </trkpt>
      <trkpt lat="47.63943" lon="6.22807">
        <ele>280.2</ele>
        <time>2021-09-04T12:54:20Z</time>
      </trkpt>
      <trkpt lat="47.6394" lon="6.22814">
        <ele>280.3</ele>
        <time>2021-09-04T12:54:21Z</time>
      </trkpt>
      <trkpt lat="47.63938" lon="6.22821">
        <ele>280.5</ele>
        <time>2021-09-04T12:54:22Z</time>
      </trkpt>
      <trkpt lat="47.63936" lon="6.22828">
        <ele>280.7</ele>
        <time>2021-09-04T12:54:23Z</time>
      </trkpt>
      <trkpt lat="47.63935" lon="6.22835">
        <ele>280.8</ele>
        <time>2021-09-04T12:54:24Z</time>
      </trkpt>
      <trkpt lat="47.63933" lon="6.22841">
        <ele>281.2</ele>
        <time>2021-09-04T12:54:25Z</time>
      </trkpt>
      <trkpt lat="47.6393" lon="6.2285">
        <ele>281.7</ele>
        <time>2021-09-04T12:54:29Z</time>
      </trkpt>
      <trkpt lat="47.63927" lon="6.22859">
        <ele>282.1</ele>
        <time>2021-09-04T12:54:31Z</time>
      </trkpt>
      <trkpt lat="47.63924" lon="6.2287">
        <ele>282.7</ele>
        <time>2021-09-04T12:54:33Z</time>
      </trkpt>
      <trkpt lat="47.63921" lon="6.22884">
        <ele>283.4</ele>
        <time>2021-09-04T12:54:36Z</time>
      </trkpt>
      <trkpt lat="47.63919" lon="6.22891">
        <ele>283.8</ele>
        <time>2021-09-04T12:54:37Z</time>
      </trkpt>
      <trkpt lat="47.63918" lon="6.229">
        <ele>284.2</ele>
        <time>2021-09-04T12:54:39Z</time>
      </trkpt>
      <trkpt lat="47.63917" lon="6.22907">
        <ele>284.5</ele>
        <time>2021-09-04T12:54:41Z</time>
      </trkpt>
      <trkpt lat="47.63915" lon="6.22921">
        <ele>285.5</ele>
        <time>2021-09-04T12:54:44Z</time>
      </trkpt>
      <trkpt lat="47.63913" lon="6.22928">
        <ele>286.2</ele>
        <time>2021-09-04T12:54:45Z</time>
      </trkpt>
      <trkpt lat="47.63911" lon="6.22936">
        <ele>286.9</ele>
        <time>2021-09-04T12:54:46Z</time>
      </trkpt>
      <trkpt lat="47.6391" lon="6.22943">
        <ele>287.5</ele>
        <time>2021-09-04T12:54:49Z</time>
      </trkpt>
      <trkpt lat="47.63908" lon="6.22952">
        <ele>288.4</ele>
        <time>2021-09-04T12:54:51Z</time>
      </trkpt>
      <trkpt lat="47.63906" lon="6.22959">
        <ele>289</ele>
        <time>2021-09-04T12:54:52Z</time>
      </trkpt>
      <trkpt lat="47.63904" lon="6.22967">
        <ele>289.7</ele>
        <time>2021-09-04T12:54:53Z</time>
      </trkpt>
      <trkpt lat="47.63902" lon="6.22974">
        <ele>290.3</ele>
        <time>2021-09-04T12:54:56Z</time>
      </trkpt>
      <trkpt lat="47.63899" lon="6.2298">
        <ele>290.8</ele>
        <time>2021-09-04T12:54:58Z</time>
      </trkpt>
      <trkpt lat="47.63896" lon="6.2299">
        <ele>291.5</ele>
        <time>2021-09-04T12:55:00Z</time>
      </trkpt>
      <trkpt lat="47.63894" lon="6.22997">
        <ele>292.1</ele>
        <time>2021-09-04T12:55:02Z</time>
      </trkpt>
      <trkpt lat="47.63892" lon="6.23004">
        <ele>292.6</ele>
        <time>2021-09-04T12:55:04Z</time>
      </trkpt>
      <trkpt lat="47.63891" lon="6.23011">
        <ele>293.1</ele>
        <time>2021-09-04T12:55:06Z</time>
      </trkpt>
      <trkpt lat="47.6389" lon="6.2302">
        <ele>293.7</ele>
        <time>2021-09-04T12:55:08Z</time>
      </trkpt>
      <trkpt lat="47.63889" lon="6.23028">
        <ele>294.4</ele>
        <time>2021-09-04T12:55:11Z</time>
      </trkpt>
      <trkpt lat="47.63888" lon="6.23036">
        <ele>294.9</ele>
        <time>2021-09-04T12:55:13Z</time>
      </trkpt>
      <trkpt lat="47.63886" lon="6.23045">
        <ele>295.6</ele>
        <time>2021-09-04T12:55:16Z</time>
      </trkpt>
      <trkpt lat="47.63884" lon="6.23052">
        <ele>296</ele>
        <time>2021-09-04T12:55:18Z</time>
      </trkpt>
      <trkpt lat="47.63882" lon="6.23059">
        <ele>296.5</ele>
        <time>2021-09-04T12:55:20Z</time>
      </trkpt>
      <trkpt lat="47.6388" lon="6.23065">
        <ele>296.9</ele>
        <time>2021-09-04T12:55:22Z</time>
      </trkpt>
      <trkpt lat="47.63878" lon="6.23072">
        <ele>297.3</ele>
        <time>2021-09-04T12:55:23Z</time>
      </trkpt>
      <trkpt lat="47.63875" lon="6.23081">
        <ele>297.9</ele>
        <time>2021-09-04T12:55:25Z</time>
      </trkpt>
      <trkpt lat="47.63873" lon="6.23089">
        <ele>298.2</ele>
        <time>2021-09-04T12:55:26Z</time>
      </trkpt>
      <trkpt lat="47.6387" lon="6.23099">
        <ele>298.7</ele>
        <time>2021-09-04T12:55:31Z</time>
      </trkpt>
      <trkpt lat="47.63868" lon="6.23108">
        <ele>299.1</ele>
        <time>2021-09-04T12:55:34Z</time>
      </trkpt>
      <trkpt lat="47.63866" lon="6.23116">
        <ele>299.5</ele>
        <time>2021-09-04T12:55:36Z</time>
      </trkpt>
      <trkpt lat="47.63863" lon="6.23124">
        <ele>299.8</ele>
        <time>2021-09-04T12:55:39Z</time>
      </trkpt>
      <trkpt lat="47.6386" lon="6.2313">
        <ele>300</ele>
        <time>2021-09-04T12:55:41Z</time>
      </trkpt>
      <trkpt lat="47.63857" lon="6.23136">
        <ele>300.3</ele>
        <time>2021-09-04T12:55:41Z</time>
      </trkpt>
      <trkpt lat="47.63853" lon="6.23142">
        <ele>300.5</ele>
        <time>2021-09-04T12:55:46Z</time>
      </trkpt>
      <trkpt lat="47.63849" lon="6.23147">
        <ele>300.6</ele>
        <time>2021-09-04T12:55:48Z</time>
      </trkpt>
      <trkpt lat="47.63844" lon="6.23154">
        <ele>300.7</ele>
        <time>2021-09-04T12:55:51Z</time>
      </trkpt>
      <trkpt lat="47.6384" lon="6.23157">
        <ele>300.8</ele>
        <time>2021-09-04T12:55:53Z</time>
      </trkpt>
      <trkpt lat="47.63836" lon="6.23162">
        <ele>300.9</ele>
        <time>2021-09-04T12:55:55Z</time>
      </trkpt>
      <trkpt lat="47.63831" lon="6.23168">
        <ele>301.3</ele>
        <time>2021-09-04T12:55:58Z</time>
      </trkpt>
      <trkpt lat="47.63827" lon="6.23173">
        <ele>302</ele>
        <time>2021-09-04T12:55:59Z</time>
      </trkpt>
      <trkpt lat="47.63823" lon="6.23179">
        <ele>302.9</ele>
        <time>2021-09-04T12:56:02Z</time>
      </trkpt>
      <trkpt lat="47.63818" lon="6.23185">
        <ele>303.8</ele>
        <time>2021-09-04T12:56:05Z</time>
      </trkpt>
      <trkpt lat="47.63813" lon="6.23193">
        <ele>304.7</ele>
        <time>2021-09-04T12:56:08Z</time>
      </trkpt>
      <trkpt lat="47.63808" lon="6.232">
        <ele>305.7</ele>
        <time>2021-09-04T12:56:09Z</time>
      </trkpt>
      <trkpt lat="47.63804" lon="6.23206">
        <ele>306.5</ele>
        <time>2021-09-04T12:56:14Z</time>
      </trkpt>
      <trkpt lat="47.638" lon="6.23211">
        <ele>307</ele>
        <time>2021-09-04T12:56:17Z</time>
      </trkpt>
      <trkpt lat="47.63796" lon="6.23216">
        <ele>307.6</ele>
        <time>2021-09-04T12:56:19Z</time>
      </trkpt>
      <trkpt lat="47.63793" lon="6.23221">
        <ele>308.2</ele>
        <time>2021-09-04T12:56:22Z</time>
      </trkpt>
      <trkpt lat="47.63789" lon="6.23227">
        <ele>308.8</ele>
        <time>2021-09-04T12:56:25Z</time>
      </trkpt>
      <trkpt lat="47.63785" lon="6.23233">
        <ele>309.5</ele>
        <time>2021-09-04T12:56:28Z</time>
      </trkpt>
      <trkpt lat="47.63781" lon="6.23241">
        <ele>310.2</ele>
        <time>2021-09-04T12:56:29Z</time>
      </trkpt>
      <trkpt lat="47.63778" lon="6.23248">
        <ele>310.9</ele>
        <time>2021-09-04T12:56:32Z</time>
      </trkpt>
      <trkpt lat="47.63776" lon="6.23255">
        <ele>311.4</ele>
        <time>2021-09-04T12:56:37Z</time>
      </trkpt>
      <trkpt lat="47.63775" lon="6.23262">
        <ele>311.9</ele>
        <time>2021-09-04T12:56:41Z</time>
      </trkpt>
      <trkpt lat="47.63774" lon="6.23269">
        <ele>312.5</ele>
        <time>2021-09-04T12:56:45Z</time>
      </trkpt>
      <trkpt lat="47.63774" lon="6.23277">
        <ele>313</ele>
        <time>2021-09-04T12:56:51Z</time>
      </trkpt>
      <trkpt lat="47.63774" lon="6.23284">
        <ele>313.5</ele>
        <time>2021-09-04T12:56:56Z</time>
      </trkpt>
      <trkpt lat="47.63773" lon="6.23291">
        <ele>314</ele>
        <time>2021-09-04T12:56:59Z</time>
      </trkpt>
      <trkpt lat="47.63772" lon="6.23298">
        <ele>314.4</ele>
        <time>2021-09-04T12:57:02Z</time>
      </trkpt>
      <trkpt lat="47.63772" lon="6.23305">
        <ele>314.9</ele>
        <time>2021-09-04T12:57:05Z</time>
      </trkpt>
      <trkpt lat="47.63772" lon="6.23314">
        <ele>315.5</ele>
        <time>2021-09-04T12:57:08Z</time>
      </trkpt>
      <trkpt lat="47.63771" lon="6.23322">
        <ele>316</ele>
        <time>2021-09-04T12:57:12Z</time>
      </trkpt>
      <trkpt lat="47.63769" lon="6.2333">
        <ele>316.5</ele>
        <time>2021-09-04T12:57:15Z</time>
      </trkpt>
      <trkpt lat="47.63768" lon="6.23339">
        <ele>317.1</ele>
        <time>2021-09-04T12:57:17Z</time>
      </trkpt>
      <trkpt lat="47.63767" lon="6.23347">
        <ele>317.6</ele>
        <time>2021-09-04T12:57:22Z</time>
      </trkpt>
      <trkpt lat="47.63765" lon="6.23356">
        <ele>318.1</ele>
        <time>2021-09-04T12:57:26Z</time>
      </trkpt>
      <trkpt lat="47.63762" lon="6.23362">
        <ele>318.4</ele>
        <time>2021-09-04T12:57:30Z</time>
      </trkpt>
      <trkpt lat="47.6376" lon="6.23368">
        <ele>318.8</ele>
        <time>2021-09-04T12:57:34Z</time>
      </trkpt>
      <trkpt lat="47.63758" lon="6.23374">
        <ele>319.2</ele>
        <time>2021-09-04T12:57:37Z</time>
      </trkpt>
      <trkpt lat="47.63756" lon="6.23381">
        <ele>319.6</ele>
        <time>2021-09-04T12:57:55Z</time>
      </trkpt>
      <trkpt lat="47.63752" lon="6.23388">
        <ele>320</ele>
        <time>2021-09-04T12:57:58Z</time>
      </trkpt>
      <trkpt lat="47.63749" lon="6.23393">
        <ele>320.4</ele>
        <time>2021-09-04T12:58:04Z</time>
      </trkpt>
      <trkpt lat="47.63745" lon="6.23398">
        <ele>321</ele>
        <time>2021-09-04T12:58:09Z</time>
      </trkpt>
      <trkpt lat="47.63741" lon="6.23402">
        <ele>321.7</ele>
        <time>2021-09-04T12:58:13Z</time>
      </trkpt>
      <trkpt lat="47.63738" lon="6.23409">
        <ele>322.3</ele>
        <time>2021-09-04T12:58:20Z</time>
      </trkpt>
      <trkpt lat="47.63736" lon="6.23416">
        <ele>323</ele>
        <time>2021-09-04T12:58:25Z</time>
      </trkpt>
      <trkpt lat="47.63733" lon="6.23422">
        <ele>323.4</ele>
        <time>2021-09-04T12:58:28Z</time>
      </trkpt>
      <trkpt lat="47.63731" lon="6.23429">
        <ele>323.7</ele>
        <time>2021-09-04T12:58:32Z</time>
      </trkpt>
      <trkpt lat="47.63731" lon="6.23438">
        <ele>323.9</ele>
        <time>2021-09-04T12:58:44Z</time>
      </trkpt>
      <trkpt lat="47.6373" lon="6.23444">
        <ele>324.1</ele>
        <time>2021-09-04T12:58:47Z</time>
      </trkpt>
      <trkpt lat="47.63727" lon="6.23451">
        <ele>324.4</ele>
        <time>2021-09-04T12:58:50Z</time>
      </trkpt>
      <trkpt lat="47.63725" lon="6.23461">
        <ele>324.7</ele>
        <time>2021-09-04T12:58:54Z</time>
      </trkpt>
      <trkpt lat="47.63724" lon="6.23467">
        <ele>324.9</ele>
        <time>2021-09-04T12:58:56Z</time>
      </trkpt>
      <trkpt lat="47.63723" lon="6.23475">
        <ele>325.1</ele>
        <time>2021-09-04T12:59:03Z</time>
      </trkpt>
      <trkpt lat="47.63721" lon="6.23482">
        <ele>325.3</ele>
        <time>2021-09-04T12:59:08Z</time>
      </trkpt>
      <trkpt lat="47.63719" lon="6.23488">
        <ele>325.5</ele>
        <time>2021-09-04T12:59:12Z</time>
      </trkpt>
      <trkpt lat="47.63716" lon="6.23495">
        <ele>325.7</ele>
        <time>2021-09-04T12:59:17Z</time>
      </trkpt>
      <trkpt lat="47.63714" lon="6.23504">
        <ele>325.7</ele>
        <time>2021-09-04T12:59:20Z</time>
      </trkpt>
      <trkpt lat="47.63712" lon="6.23511">
        <ele>325.6</ele>
        <time>2021-09-04T12:59:22Z</time>
      </trkpt>
      <trkpt lat="47.6371" lon="6.23519">
        <ele>325.3</ele>
        <time>2021-09-04T12:59:24Z</time>
      </trkpt>
      <trkpt lat="47.63707" lon="6.23527">
        <ele>325</ele>
        <time>2021-09-04T12:59:26Z</time>
      </trkpt>
      <trkpt lat="47.63704" lon="6.23539">
        <ele>324.6</ele>
        <time>2021-09-04T12:59:28Z</time>
      </trkpt>
      <trkpt lat="47.63701" lon="6.23549">
        <ele>324.1</ele>
        <time>2021-09-04T12:59:29Z</time>
      </trkpt>
      <trkpt lat="47.63699" lon="6.23557">
        <ele>323.7</ele>
        <time>2021-09-04T12:59:30Z</time>
      </trkpt>
      <trkpt lat="47.63696" lon="6.23566">
        <ele>323.2</ele>
        <time>2021-09-04T12:59:32Z</time>
      </trkpt>
      <trkpt lat="47.63695" lon="6.23572">
        <ele>322.9</ele>
        <time>2021-09-04T12:59:33Z</time>
      </trkpt>
      <trkpt lat="47.63693" lon="6.23579">
        <ele>322.5</ele>
        <time>2021-09-04T12:59:34Z</time>
      </trkpt>
      <trkpt lat="47.63691" lon="6.23585">
        <ele>322.1</ele>
        <time>2021-09-04T12:59:35Z</time>
      </trkpt>
      <trkpt lat="47.63689" lon="6.23595">
        <ele>321.5</ele>
        <time>2021-09-04T12:59:36Z</time>
      </trkpt>
      <trkpt lat="47.63686" lon="6.23603">
        <ele>321</ele>
        <time>2021-09-04T12:59:37Z</time>
      </trkpt>
      <trkpt lat="47.63684" lon="6.23612">
        <ele>320.4</ele>
        <time>2021-09-04T12:59:38Z</time>
      </trkpt>
      <trkpt lat="47.63682" lon="6.2362">
        <ele>319.9</ele>
        <time>2021-09-04T12:59:39Z</time>
      </trkpt>
      <trkpt lat="47.6368" lon="6.23628">
        <ele>319.3</ele>
        <time>2021-09-04T12:59:40Z</time>
      </trkpt>
      <trkpt lat="47.63677" lon="6.23635">
        <ele>318.7</ele>
        <time>2021-09-04T12:59:41Z</time>
      </trkpt>
      <trkpt lat="47.63672" lon="6.23648">
        <ele>317.6</ele>
        <time>2021-09-04T12:59:43Z</time>
      </trkpt>
      <trkpt lat="47.63671" lon="6.23655">
        <ele>317.1</ele>
        <time>2021-09-04T12:59:44Z</time>
      </trkpt>
      <trkpt lat="47.6367" lon="6.23667">
        <ele>316.2</ele>
        <time>2021-09-04T12:59:46Z</time>
      </trkpt>
      <trkpt lat="47.6367" lon="6.23685">
        <ele>315</ele>
        <time>2021-09-04T12:59:49Z</time>
      </trkpt>
      <trkpt lat="47.63669" lon="6.23693">
        <ele>314.4</ele>
        <time>2021-09-04T12:59:50Z</time>
      </trkpt>
      <trkpt lat="47.63668" lon="6.23703">
        <ele>313.5</ele>
        <time>2021-09-04T12:59:52Z</time>
      </trkpt>
      <trkpt lat="47.63667" lon="6.23713">
        <ele>312.7</ele>
        <time>2021-09-04T12:59:52Z</time>
      </trkpt>
      <trkpt lat="47.63666" lon="6.23721">
        <ele>312.1</ele>
        <time>2021-09-04T12:59:56Z</time>
      </trkpt>
      <trkpt lat="47.63665" lon="6.23729">
        <ele>311.5</ele>
        <time>2021-09-04T12:59:58Z</time>
      </trkpt>
      <trkpt lat="47.63663" lon="6.23736">
        <ele>311</ele>
        <time>2021-09-04T12:59:59Z</time>
      </trkpt>
      <trkpt lat="47.6366" lon="6.23743">
        <ele>310.6</ele>
        <time>2021-09-04T13:00:02Z</time>
      </trkpt>
      <trkpt lat="47.63655" lon="6.2375">
        <ele>310</ele>
        <time>2021-09-04T13:00:03Z</time>
      </trkpt>
      <trkpt lat="47.63651" lon="6.23755">
        <ele>309.8</ele>
        <time>2021-09-04T13:00:08Z</time>
      </trkpt>
      <trkpt lat="47.63647" lon="6.23759">
        <ele>309.7</ele>
        <time>2021-09-04T13:00:10Z</time>
      </trkpt>
      <trkpt lat="47.63642" lon="6.23765">
        <ele>309.5</ele>
        <time>2021-09-04T13:00:13Z</time>
      </trkpt>
      <trkpt lat="47.63638" lon="6.23771">
        <ele>309.3</ele>
        <time>2021-09-04T13:00:15Z</time>
      </trkpt>
      <trkpt lat="47.63635" lon="6.23776">
        <ele>309.2</ele>
        <time>2021-09-04T13:00:15Z</time>
      </trkpt>
      <trkpt lat="47.63631" lon="6.2378">
        <ele>309.1</ele>
        <time>2021-09-04T13:00:19Z</time>
      </trkpt>
      <trkpt lat="47.63626" lon="6.23787">
        <ele>308.9</ele>
        <time>2021-09-04T13:00:20Z</time>
      </trkpt>
      <trkpt lat="47.63622" lon="6.23793">
        <ele>308.7</ele>
        <time>2021-09-04T13:00:24Z</time>
      </trkpt>
      <trkpt lat="47.63618" lon="6.23799">
        <ele>308.6</ele>
        <time>2021-09-04T13:00:24Z</time>
      </trkpt>
      <trkpt lat="47.63614" lon="6.23805">
        <ele>308.4</ele>
        <time>2021-09-04T13:00:29Z</time>
      </trkpt>
      <trkpt lat="47.63609" lon="6.23812">
        <ele>308.3</ele>
        <time>2021-09-04T13:00:30Z</time>
      </trkpt>
      <trkpt lat="47.63603" lon="6.23816">
        <ele>308.2</ele>
        <time>2021-09-04T13:00:35Z</time>
      </trkpt>
      <trkpt lat="47.63599" lon="6.2382">
        <ele>308.2</ele>
        <time>2021-09-04T13:00:37Z</time>
      </trkpt>
      <trkpt lat="47.63593" lon="6.23828">
        <ele>308</ele>
        <time>2021-09-04T13:00:40Z</time>
      </trkpt>
      <trkpt lat="47.63588" lon="6.23838">
        <ele>307.8</ele>
        <time>2021-09-04T13:00:40Z</time>
      </trkpt>
      <trkpt lat="47.63583" lon="6.23849">
        <ele>307.7</ele>
        <time>2021-09-04T13:00:44Z</time>
      </trkpt>
      <trkpt lat="47.63578" lon="6.23863">
        <ele>308.5</ele>
        <time>2021-09-04T13:00:47Z</time>
      </trkpt>
      <trkpt lat="47.63576" lon="6.2387">
        <ele>308.8</ele>
        <time>2021-09-04T13:00:48Z</time>
      </trkpt>
      <trkpt lat="47.63574" lon="6.23881">
        <ele>309.1</ele>
        <time>2021-09-04T13:00:50Z</time>
      </trkpt>
      <trkpt lat="47.63569" lon="6.23899">
        <ele>309.7</ele>
        <time>2021-09-04T13:00:53Z</time>
      </trkpt>
      <trkpt lat="47.63566" lon="6.23906">
        <ele>310.1</ele>
        <time>2021-09-04T13:00:55Z</time>
      </trkpt>
      <trkpt lat="47.63563" lon="6.23913">
        <ele>310.5</ele>
        <time>2021-09-04T13:00:55Z</time>
      </trkpt>
      <trkpt lat="47.63561" lon="6.23919">
        <ele>310.9</ele>
        <time>2021-09-04T13:00:59Z</time>
      </trkpt>
      <trkpt lat="47.63557" lon="6.23924">
        <ele>311.3</ele>
        <time>2021-09-04T13:01:02Z</time>
      </trkpt>
      <trkpt lat="47.63554" lon="6.23929">
        <ele>311.8</ele>
        <time>2021-09-04T13:01:04Z</time>
      </trkpt>
      <trkpt lat="47.6355" lon="6.23934">
        <ele>312.4</ele>
        <time>2021-09-04T13:01:04Z</time>
      </trkpt>
      <trkpt lat="47.63546" lon="6.23939">
        <ele>313</ele>
        <time>2021-09-04T13:01:08Z</time>
      </trkpt>
      <trkpt lat="47.63541" lon="6.23945">
        <ele>313.5</ele>
        <time>2021-09-04T13:01:11Z</time>
      </trkpt>
      <trkpt lat="47.63538" lon="6.23951">
        <ele>313.8</ele>
        <time>2021-09-04T13:01:14Z</time>
      </trkpt>
      <trkpt lat="47.63535" lon="6.23957">
        <ele>314</ele>
        <time>2021-09-04T13:01:16Z</time>
      </trkpt>
      <trkpt lat="47.63533" lon="6.23964">
        <ele>313.9</ele>
        <time>2021-09-04T13:01:17Z</time>
      </trkpt>
      <trkpt lat="47.63531" lon="6.2397">
        <ele>313.9</ele>
        <time>2021-09-04T13:01:19Z</time>
      </trkpt>
      <trkpt lat="47.63528" lon="6.23978">
        <ele>313.8</ele>
        <time>2021-09-04T13:01:20Z</time>
      </trkpt>
      <trkpt lat="47.63526" lon="6.23986">
        <ele>313.6</ele>
        <time>2021-09-04T13:01:21Z</time>
      </trkpt>
      <trkpt lat="47.63524" lon="6.23993">
        <ele>313.3</ele>
        <time>2021-09-04T13:01:22Z</time>
      </trkpt>
      <trkpt lat="47.63521" lon="6.24001">
        <ele>313.1</ele>
        <time>2021-09-04T13:01:24Z</time>
      </trkpt>
      <trkpt lat="47.63518" lon="6.24009">
        <ele>313.3</ele>
        <time>2021-09-04T13:01:25Z</time>
      </trkpt>
      <trkpt lat="47.63515" lon="6.24019">
        <ele>313.4</ele>
        <time>2021-09-04T13:01:27Z</time>
      </trkpt>
      <trkpt lat="47.63513" lon="6.24025">
        <ele>313.4</ele>
        <time>2021-09-04T13:01:28Z</time>
      </trkpt>
      <trkpt lat="47.6351" lon="6.24032">
        <ele>313.5</ele>
        <time>2021-09-04T13:01:29Z</time>
      </trkpt>
      <trkpt lat="47.63506" lon="6.24043">
        <ele>313.6</ele>
        <time>2021-09-04T13:01:29Z</time>
      </trkpt>
      <trkpt lat="47.63503" lon="6.24049">
        <ele>313.8</ele>
        <time>2021-09-04T13:01:33Z</time>
      </trkpt>
      <trkpt lat="47.63499" lon="6.24057">
        <ele>314.1</ele>
        <time>2021-09-04T13:01:33Z</time>
      </trkpt>
      <trkpt lat="47.63495" lon="6.24061">
        <ele>314.3</ele>
        <time>2021-09-04T13:01:37Z</time>
      </trkpt>
      <trkpt lat="47.63491" lon="6.24067">
        <ele>314.4</ele>
        <time>2021-09-04T13:01:39Z</time>
      </trkpt>
      <trkpt lat="47.63488" lon="6.24072">
        <ele>314.5</ele>
        <time>2021-09-04T13:01:41Z</time>
      </trkpt>
      <trkpt lat="47.63484" lon="6.24078">
        <ele>314.5</ele>
        <time>2021-09-04T13:01:43Z</time>
      </trkpt>
      <trkpt lat="47.63479" lon="6.24084">
        <ele>314.7</ele>
        <time>2021-09-04T13:01:46Z</time>
      </trkpt>
      <trkpt lat="47.63474" lon="6.24084">
        <ele>315.1</ele>
        <time>2021-09-04T13:01:49Z</time>
      </trkpt>
      <trkpt lat="47.63469" lon="6.24086">
        <ele>315.3</ele>
        <time>2021-09-04T13:01:52Z</time>
      </trkpt>
      <trkpt lat="47.63465" lon="6.24089">
        <ele>315.4</ele>
        <time>2021-09-04T13:01:55Z</time>
      </trkpt>
      <trkpt lat="47.6346" lon="6.24094">
        <ele>315.5</ele>
        <time>2021-09-04T13:01:58Z</time>
      </trkpt>
      <trkpt lat="47.63455" lon="6.24099">
        <ele>315.4</ele>
        <time>2021-09-04T13:02:01Z</time>
      </trkpt>
      <trkpt lat="47.6345" lon="6.24103">
        <ele>315.4</ele>
        <time>2021-09-04T13:02:02Z</time>
      </trkpt>
      <trkpt lat="47.63444" lon="6.24107">
        <ele>315.5</ele>
        <time>2021-09-04T13:02:07Z</time>
      </trkpt>
      <trkpt lat="47.63439" lon="6.2411">
        <ele>315.6</ele>
        <time>2021-09-04T13:02:10Z</time>
      </trkpt>
      <trkpt lat="47.63434" lon="6.24113">
        <ele>315.8</ele>
        <time>2021-09-04T13:02:12Z</time>
      </trkpt>
      <trkpt lat="47.63428" lon="6.24116">
        <ele>316</ele>
        <time>2021-09-04T13:02:13Z</time>
      </trkpt>
      <trkpt lat="47.63422" lon="6.24117">
        <ele>316.3</ele>
        <time>2021-09-04T13:02:18Z</time>
      </trkpt>
      <trkpt lat="47.63417" lon="6.24118">
        <ele>316.7</ele>
        <time>2021-09-04T13:02:18Z</time>
      </trkpt>
      <trkpt lat="47.63412" lon="6.2412">
        <ele>316.1</ele>
        <time>2021-09-04T13:02:23Z</time>
      </trkpt>
      <trkpt lat="47.63407" lon="6.24121">
        <ele>315.5</ele>
        <time>2021-09-04T13:02:26Z</time>
      </trkpt>
      <trkpt lat="47.63402" lon="6.24122">
        <ele>315</ele>
        <time>2021-09-04T13:02:28Z</time>
      </trkpt>
      <trkpt lat="47.63396" lon="6.24123">
        <ele>314.3</ele>
        <time>2021-09-04T13:02:31Z</time>
      </trkpt>
      <trkpt lat="47.6339" lon="6.24125">
        <ele>313.6</ele>
        <time>2021-09-04T13:02:33Z</time>
      </trkpt>
      <trkpt lat="47.63386" lon="6.24129">
        <ele>312.9</ele>
        <time>2021-09-04T13:02:35Z</time>
      </trkpt>
      <trkpt lat="47.63386" lon="6.24138">
        <ele>312.3</ele>
        <time>2021-09-04T13:02:38Z</time>
      </trkpt>
      <trkpt lat="47.63385" lon="6.24145">
        <ele>311.7</ele>
        <time>2021-09-04T13:02:40Z</time>
      </trkpt>
      <trkpt lat="47.63385" lon="6.24152">
        <ele>311.2</ele>
        <time>2021-09-04T13:02:42Z</time>
      </trkpt>
      <trkpt lat="47.63383" lon="6.2416">
        <ele>310.5</ele>
        <time>2021-09-04T13:02:44Z</time>
      </trkpt>
      <trkpt lat="47.63377" lon="6.24161">
        <ele>310</ele>
        <time>2021-09-04T13:02:45Z</time>
      </trkpt>
      <trkpt lat="47.63373" lon="6.24158">
        <ele>309.9</ele>
        <time>2021-09-04T13:02:50Z</time>
      </trkpt>
      <trkpt lat="47.63367" lon="6.24153">
        <ele>309.8</ele>
        <time>2021-09-04T13:02:51Z</time>
      </trkpt>
      <trkpt lat="47.63362" lon="6.24151">
        <ele>309.6</ele>
        <time>2021-09-04T13:02:55Z</time>
      </trkpt>
      <trkpt lat="47.63358" lon="6.24147">
        <ele>309.5</ele>
        <time>2021-09-04T13:02:57Z</time>
      </trkpt>
      <trkpt lat="47.63352" lon="6.24143">
        <ele>309.3</ele>
        <time>2021-09-04T13:02:59Z</time>
      </trkpt>
      <trkpt lat="47.63345" lon="6.24139">
        <ele>309</ele>
        <time>2021-09-04T13:03:00Z</time>
      </trkpt>
      <trkpt lat="47.63338" lon="6.24135">
        <ele>308.5</ele>
        <time>2021-09-04T13:03:00Z</time>
      </trkpt>
      <trkpt lat="47.6333" lon="6.24132">
        <ele>308</ele>
        <time>2021-09-04T13:03:02Z</time>
      </trkpt>
      <trkpt lat="47.63323" lon="6.2413">
        <ele>307.7</ele>
        <time>2021-09-04T13:03:06Z</time>
      </trkpt>
      <trkpt lat="47.63316" lon="6.24129">
        <ele>307.3</ele>
        <time>2021-09-04T13:03:07Z</time>
      </trkpt>
      <trkpt lat="47.63307" lon="6.24129">
        <ele>306.7</ele>
        <time>2021-09-04T13:03:09Z</time>
      </trkpt>
      <trkpt lat="47.63302" lon="6.2413">
        <ele>306.4</ele>
        <time>2021-09-04T13:03:10Z</time>
      </trkpt>
      <trkpt lat="47.63296" lon="6.24132">
        <ele>305.9</ele>
        <time>2021-09-04T13:03:11Z</time>
      </trkpt>
      <trkpt lat="47.63289" lon="6.24135">
        <ele>305.4</ele>
        <time>2021-09-04T13:03:12Z</time>
      </trkpt>
      <trkpt lat="47.63272" lon="6.24145">
        <ele>303.8</ele>
        <time>2021-09-04T13:03:12Z</time>
      </trkpt>
      <trkpt lat="47.63266" lon="6.2415">
        <ele>303.1</ele>
        <time>2021-09-04T13:03:13Z</time>
      </trkpt>
      <trkpt lat="47.63259" lon="6.24155">
        <ele>302.3</ele>
        <time>2021-09-04T13:03:14Z</time>
      </trkpt>
      <trkpt lat="47.63251" lon="6.24162">
        <ele>301.4</ele>
        <time>2021-09-04T13:03:15Z</time>
      </trkpt>
      <trkpt lat="47.63243" lon="6.24169">
        <ele>300.7</ele>
        <time>2021-09-04T13:03:16Z</time>
      </trkpt>
      <trkpt lat="47.63235" lon="6.24177">
        <ele>300.1</ele>
        <time>2021-09-04T13:03:17Z</time>
      </trkpt>
      <trkpt lat="47.63227" lon="6.24184">
        <ele>299.5</ele>
        <time>2021-09-04T13:03:18Z</time>
      </trkpt>
      <trkpt lat="47.63219" lon="6.24191">
        <ele>298.9</ele>
        <time>2021-09-04T13:03:19Z</time>
      </trkpt>
      <trkpt lat="47.6321" lon="6.24199">
        <ele>298.2</ele>
        <time>2021-09-04T13:03:20Z</time>
      </trkpt>
      <trkpt lat="47.63202" lon="6.24207">
        <ele>297.5</ele>
        <time>2021-09-04T13:03:21Z</time>
      </trkpt>
      <trkpt lat="47.63194" lon="6.24214">
        <ele>296.9</ele>
        <time>2021-09-04T13:03:22Z</time>
      </trkpt>
      <trkpt lat="47.63186" lon="6.2422">
        <ele>296.3</ele>
        <time>2021-09-04T13:03:23Z</time>
      </trkpt>
      <trkpt lat="47.6318" lon="6.24226">
        <ele>295.7</ele>
        <time>2021-09-04T13:03:24Z</time>
      </trkpt>
      <trkpt lat="47.63174" lon="6.24231">
        <ele>295.2</ele>
        <time>2021-09-04T13:03:25Z</time>
      </trkpt>
      <trkpt lat="47.6317" lon="6.24236">
        <ele>294.8</ele>
        <time>2021-09-04T13:03:26Z</time>
      </trkpt>
      <trkpt lat="47.63167" lon="6.24241">
        <ele>294.4</ele>
        <time>2021-09-04T13:03:27Z</time>
      </trkpt>
      <trkpt lat="47.63169" lon="6.24253">
        <ele>294</ele>
        <time>2021-09-04T13:03:29Z</time>
      </trkpt>
      <trkpt lat="47.63174" lon="6.24261">
        <ele>293.8</ele>
        <time>2021-09-04T13:03:31Z</time>
      </trkpt>
      <trkpt lat="47.63178" lon="6.24267">
        <ele>293.8</ele>
        <time>2021-09-04T13:03:33Z</time>
      </trkpt>
      <trkpt lat="47.63183" lon="6.24271">
        <ele>293.9</ele>
        <time>2021-09-04T13:03:35Z</time>
      </trkpt>
      <trkpt lat="47.63179" lon="6.24265">
        <ele>293.9</ele>
        <time>2021-09-04T13:03:49Z</time>
      </trkpt>
      <trkpt lat="47.63175" lon="6.24268">
        <ele>293.6</ele>
        <time>2021-09-04T13:03:49Z</time>
      </trkpt>
      <trkpt lat="47.63173" lon="6.24274">
        <ele>293.2</ele>
        <time>2021-09-04T13:03:52Z</time>
      </trkpt>
      <trkpt lat="47.63176" lon="6.2428">
        <ele>293.1</ele>
        <time>2021-09-04T13:03:57Z</time>
      </trkpt>
      <trkpt lat="47.63179" lon="6.24285">
        <ele>293</ele>
        <time>2021-09-04T13:03:59Z</time>
      </trkpt>
      <trkpt lat="47.63183" lon="6.24291">
        <ele>293</ele>
        <time>2021-09-04T13:04:01Z</time>
      </trkpt>
      <trkpt lat="47.63188" lon="6.24298">
        <ele>293.1</ele>
        <time>2021-09-04T13:04:04Z</time>
      </trkpt>
      <trkpt lat="47.63193" lon="6.24303">
        <ele>293.1</ele>
        <time>2021-09-04T13:04:07Z</time>
      </trkpt>
      <trkpt lat="47.63198" lon="6.24308">
        <ele>293.2</ele>
        <time>2021-09-04T13:04:10Z</time>
      </trkpt>
      <trkpt lat="47.63202" lon="6.24314">
        <ele>293.3</ele>
        <time>2021-09-04T13:04:10Z</time>
      </trkpt>
      <trkpt lat="47.63205" lon="6.24319">
        <ele>293.3</ele>
        <time>2021-09-04T13:04:14Z</time>
      </trkpt>
      <trkpt lat="47.63209" lon="6.24324">
        <ele>293.4</ele>
        <time>2021-09-04T13:04:14Z</time>
      </trkpt>
      <trkpt lat="47.63214" lon="6.2433">
        <ele>293.5</ele>
        <time>2021-09-04T13:04:19Z</time>
      </trkpt>
      <trkpt lat="47.63218" lon="6.24335">
        <ele>293.6</ele>
        <time>2021-09-04T13:04:21Z</time>
      </trkpt>
      <trkpt lat="47.63222" lon="6.24341">
        <ele>293.8</ele>
        <time>2021-09-04T13:04:23Z</time>
      </trkpt>
      <trkpt lat="47.63226" lon="6.24347">
        <ele>294</ele>
        <time>2021-09-04T13:04:23Z</time>
      </trkpt>
      <trkpt lat="47.6323" lon="6.24352">
        <ele>294.1</ele>
        <time>2021-09-04T13:04:25Z</time>
      </trkpt>
      <trkpt lat="47.63234" lon="6.24357">
        <ele>294.3</ele>
        <time>2021-09-04T13:04:29Z</time>
      </trkpt>
      <trkpt lat="47.63238" lon="6.24362">
        <ele>294.4</ele>
        <time>2021-09-04T13:04:31Z</time>
      </trkpt>
      <trkpt lat="47.63241" lon="6.24366">
        <ele>294.6</ele>
        <time>2021-09-04T13:04:33Z</time>
      </trkpt>
      <trkpt lat="47.63246" lon="6.24372">
        <ele>294.8</ele>
        <time>2021-09-04T13:04:34Z</time>
      </trkpt>
      <trkpt lat="47.63251" lon="6.24378">
        <ele>295</ele>
        <time>2021-09-04T13:04:38Z</time>
      </trkpt>
      <trkpt lat="47.63254" lon="6.24384">
        <ele>295</ele>
        <time>2021-09-04T13:04:40Z</time>
      </trkpt>
      <trkpt lat="47.63258" lon="6.24392">
        <ele>295.1</ele>
        <time>2021-09-04T13:04:41Z</time>
      </trkpt>
      <trkpt lat="47.63261" lon="6.24397">
        <ele>295.2</ele>
        <time>2021-09-04T13:04:44Z</time>
      </trkpt>
      <trkpt lat="47.63265" lon="6.24403">
        <ele>295.3</ele>
        <time>2021-09-04T13:04:45Z</time>
      </trkpt>
      <trkpt lat="47.63268" lon="6.24409">
        <ele>295.4</ele>
        <time>2021-09-04T13:04:47Z</time>
      </trkpt>
      <trkpt lat="47.63273" lon="6.24416">
        <ele>295.6</ele>
        <time>2021-09-04T13:04:50Z</time>
      </trkpt>
      <trkpt lat="47.63277" lon="6.24423">
        <ele>296</ele>
        <time>2021-09-04T13:04:54Z</time>
      </trkpt>
      <trkpt lat="47.63281" lon="6.24432">
        <ele>296.6</ele>
        <time>2021-09-04T13:04:56Z</time>
      </trkpt>
      <trkpt lat="47.63285" lon="6.24437">
        <ele>296.9</ele>
        <time>2021-09-04T13:04:59Z</time>
      </trkpt>
      <trkpt lat="47.63288" lon="6.24443">
        <ele>297.3</ele>
        <time>2021-09-04T13:05:01Z</time>
      </trkpt>
      <trkpt lat="47.63291" lon="6.24448">
        <ele>297.7</ele>
        <time>2021-09-04T13:05:03Z</time>
      </trkpt>
      <trkpt lat="47.63295" lon="6.24455">
        <ele>298.2</ele>
        <time>2021-09-04T13:05:05Z</time>
      </trkpt>
      <trkpt lat="47.63298" lon="6.2446">
        <ele>298.6</ele>
        <time>2021-09-04T13:05:07Z</time>
      </trkpt>
      <trkpt lat="47.63302" lon="6.24466">
        <ele>299.1</ele>
        <time>2021-09-04T13:05:09Z</time>
      </trkpt>
      <trkpt lat="47.63307" lon="6.24475">
        <ele>299.8</ele>
        <time>2021-09-04T13:05:11Z</time>
      </trkpt>
      <trkpt lat="47.6331" lon="6.2448">
        <ele>300.2</ele>
        <time>2021-09-04T13:05:14Z</time>
      </trkpt>
      <trkpt lat="47.63315" lon="6.24488">
        <ele>300.9</ele>
        <time>2021-09-04T13:05:16Z</time>
      </trkpt>
      <trkpt lat="47.63318" lon="6.24493">
        <ele>301.3</ele>
        <time>2021-09-04T13:05:18Z</time>
      </trkpt>
      <trkpt lat="47.63322" lon="6.245">
        <ele>302</ele>
        <time>2021-09-04T13:05:21Z</time>
      </trkpt>
      <trkpt lat="47.63326" lon="6.24508">
        <ele>302.4</ele>
        <time>2021-09-04T13:05:24Z</time>
      </trkpt>
      <trkpt lat="47.63329" lon="6.24514">
        <ele>302.8</ele>
        <time>2021-09-04T13:05:28Z</time>
      </trkpt>
      <trkpt lat="47.63333" lon="6.24521">
        <ele>303.2</ele>
        <time>2021-09-04T13:05:31Z</time>
      </trkpt>
      <trkpt lat="47.63337" lon="6.24528">
        <ele>303.5</ele>
        <time>2021-09-04T13:05:34Z</time>
      </trkpt>
      <trkpt lat="47.63342" lon="6.24535">
        <ele>303.8</ele>
        <time>2021-09-04T13:05:37Z</time>
      </trkpt>
      <trkpt lat="47.63345" lon="6.24542">
        <ele>304</ele>
        <time>2021-09-04T13:05:40Z</time>
      </trkpt>
      <trkpt lat="47.63349" lon="6.24548">
        <ele>304.3</ele>
        <time>2021-09-04T13:05:42Z</time>
      </trkpt>
      <trkpt lat="47.63353" lon="6.24555">
        <ele>304.6</ele>
        <time>2021-09-04T13:05:44Z</time>
      </trkpt>
      <trkpt lat="47.63357" lon="6.24561">
        <ele>304.9</ele>
        <time>2021-09-04T13:05:48Z</time>
      </trkpt>
      <trkpt lat="47.63361" lon="6.24568">
        <ele>305.3</ele>
        <time>2021-09-04T13:05:51Z</time>
      </trkpt>
      <trkpt lat="47.63365" lon="6.24575">
        <ele>305.7</ele>
        <time>2021-09-04T13:05:54Z</time>
      </trkpt>
      <trkpt lat="47.63369" lon="6.2458">
        <ele>306.1</ele>
        <time>2021-09-04T13:05:57Z</time>
      </trkpt>
      <trkpt lat="47.63373" lon="6.24585">
        <ele>306.4</ele>
        <time>2021-09-04T13:05:58Z</time>
      </trkpt>
      <trkpt lat="47.63376" lon="6.24591">
        <ele>306.6</ele>
        <time>2021-09-04T13:06:02Z</time>
      </trkpt>
      <trkpt lat="47.63381" lon="6.24598">
        <ele>307</ele>
        <time>2021-09-04T13:06:03Z</time>
      </trkpt>
      <trkpt lat="47.63384" lon="6.24605">
        <ele>307.3</ele>
        <time>2021-09-04T13:06:06Z</time>
      </trkpt>
      <trkpt lat="47.63388" lon="6.24612">
        <ele>307.6</ele>
        <time>2021-09-04T13:06:09Z</time>
      </trkpt>
      <trkpt lat="47.63391" lon="6.24617">
        <ele>307.9</ele>
        <time>2021-09-04T13:06:13Z</time>
      </trkpt>
      <trkpt lat="47.63396" lon="6.24624">
        <ele>308.4</ele>
        <time>2021-09-04T13:06:16Z</time>
      </trkpt>
      <trkpt lat="47.63399" lon="6.24629">
        <ele>308.7</ele>
        <time>2021-09-04T13:06:18Z</time>
      </trkpt>
      <trkpt lat="47.63404" lon="6.24636">
        <ele>309.2</ele>
        <time>2021-09-04T13:06:19Z</time>
      </trkpt>
      <trkpt lat="47.63407" lon="6.24642">
        <ele>309.6</ele>
        <time>2021-09-04T13:06:23Z</time>
      </trkpt>
      <trkpt lat="47.63411" lon="6.24648">
        <ele>310</ele>
        <time>2021-09-04T13:06:26Z</time>
      </trkpt>
      <trkpt lat="47.63414" lon="6.24654">
        <ele>310.4</ele>
        <time>2021-09-04T13:06:29Z</time>
      </trkpt>
      <trkpt lat="47.63418" lon="6.24662">
        <ele>311</ele>
        <time>2021-09-04T13:06:32Z</time>
      </trkpt>
      <trkpt lat="47.63421" lon="6.24668">
        <ele>311.2</ele>
        <time>2021-09-04T13:06:34Z</time>
      </trkpt>
      <trkpt lat="47.63424" lon="6.24673">
        <ele>311.4</ele>
        <time>2021-09-04T13:06:37Z</time>
      </trkpt>
      <trkpt lat="47.63426" lon="6.2468">
        <ele>311.6</ele>
        <time>2021-09-04T13:06:38Z</time>
      </trkpt>
      <trkpt lat="47.63429" lon="6.24686">
        <ele>311.9</ele>
        <time>2021-09-04T13:06:41Z</time>
      </trkpt>
      <trkpt lat="47.63427" lon="6.24696">
        <ele>311.9</ele>
        <time>2021-09-04T13:08:08Z</time>
      </trkpt>
      <trkpt lat="47.63424" lon="6.24705">
        <ele>311.8</ele>
        <time>2021-09-04T13:08:09Z</time>
      </trkpt>
      <trkpt lat="47.63421" lon="6.24711">
        <ele>311.8</ele>
        <time>2021-09-04T13:08:12Z</time>
      </trkpt>
      <trkpt lat="47.63419" lon="6.24717">
        <ele>311.7</ele>
        <time>2021-09-04T13:08:14Z</time>
      </trkpt>
      <trkpt lat="47.63417" lon="6.24723">
        <ele>311.7</ele>
        <time>2021-09-04T13:08:16Z</time>
      </trkpt>
      <trkpt lat="47.63412" lon="6.24732">
        <ele>311.3</ele>
        <time>2021-09-04T13:08:18Z</time>
      </trkpt>
      <trkpt lat="47.63408" lon="6.24739">
        <ele>310.9</ele>
        <time>2021-09-04T13:08:19Z</time>
      </trkpt>
      <trkpt lat="47.63403" lon="6.24747">
        <ele>310.5</ele>
        <time>2021-09-04T13:08:21Z</time>
      </trkpt>
      <trkpt lat="47.634" lon="6.24753">
        <ele>310.2</ele>
        <time>2021-09-04T13:08:22Z</time>
      </trkpt>
      <trkpt lat="47.63397" lon="6.24758">
        <ele>309.7</ele>
        <time>2021-09-04T13:08:23Z</time>
      </trkpt>
      <trkpt lat="47.63392" lon="6.24765">
        <ele>309</ele>
        <time>2021-09-04T13:08:24Z</time>
      </trkpt>
      <trkpt lat="47.63388" lon="6.2477">
        <ele>308.3</ele>
        <time>2021-09-04T13:08:27Z</time>
      </trkpt>
      <trkpt lat="47.63383" lon="6.24774">
        <ele>307.7</ele>
        <time>2021-09-04T13:08:28Z</time>
      </trkpt>
      <trkpt lat="47.63378" lon="6.24778">
        <ele>307</ele>
        <time>2021-09-04T13:08:30Z</time>
      </trkpt>
      <trkpt lat="47.63372" lon="6.24781">
        <ele>306.2</ele>
        <time>2021-09-04T13:08:32Z</time>
      </trkpt>
      <trkpt lat="47.63365" lon="6.24782">
        <ele>305.4</ele>
        <time>2021-09-04T13:08:34Z</time>
      </trkpt>
      <trkpt lat="47.6336" lon="6.24782">
        <ele>304.7</ele>
        <time>2021-09-04T13:08:36Z</time>
      </trkpt>
      <trkpt lat="47.63356" lon="6.24782">
        <ele>304.2</ele>
        <time>2021-09-04T13:08:37Z</time>
      </trkpt>
      <trkpt lat="47.63349" lon="6.24781">
        <ele>303.4</ele>
        <time>2021-09-04T13:08:39Z</time>
      </trkpt>
      <trkpt lat="47.63343" lon="6.24781">
        <ele>302.7</ele>
        <time>2021-09-04T13:08:40Z</time>
      </trkpt>
      <trkpt lat="47.63337" lon="6.2478">
        <ele>301.9</ele>
        <time>2021-09-04T13:08:41Z</time>
      </trkpt>
      <trkpt lat="47.6333" lon="6.24781">
        <ele>300.9</ele>
        <time>2021-09-04T13:08:43Z</time>
      </trkpt>
      <trkpt lat="47.63323" lon="6.24781">
        <ele>299.8</ele>
        <time>2021-09-04T13:08:46Z</time>
      </trkpt>
      <trkpt lat="47.63319" lon="6.24781">
        <ele>299</ele>
        <time>2021-09-04T13:08:47Z</time>
      </trkpt>
      <trkpt lat="47.63313" lon="6.24781">
        <ele>298</ele>
        <time>2021-09-04T13:08:49Z</time>
      </trkpt>
      <trkpt lat="47.63306" lon="6.24781">
        <ele>296.7</ele>
        <time>2021-09-04T13:08:51Z</time>
      </trkpt>
      <trkpt lat="47.63299" lon="6.24781">
        <ele>295.7</ele>
        <time>2021-09-04T13:08:53Z</time>
      </trkpt>
      <trkpt lat="47.63294" lon="6.24781">
        <ele>294.7</ele>
        <time>2021-09-04T13:08:55Z</time>
      </trkpt>
      <trkpt lat="47.63283" lon="6.24777">
        <ele>293.3</ele>
        <time>2021-09-04T13:08:58Z</time>
      </trkpt>
      <trkpt lat="47.63277" lon="6.24774">
        <ele>292.5</ele>
        <time>2021-09-04T13:09:00Z</time>
      </trkpt>
      <trkpt lat="47.6327" lon="6.2477">
        <ele>291.9</ele>
        <time>2021-09-04T13:09:02Z</time>
      </trkpt>
      <trkpt lat="47.63266" lon="6.24766">
        <ele>291.7</ele>
        <time>2021-09-04T13:09:04Z</time>
      </trkpt>
      <trkpt lat="47.6326" lon="6.24761">
        <ele>291.2</ele>
        <time>2021-09-04T13:09:06Z</time>
      </trkpt>
      <trkpt lat="47.63254" lon="6.24758">
        <ele>290.7</ele>
        <time>2021-09-04T13:09:08Z</time>
      </trkpt>
      <trkpt lat="47.63249" lon="6.24755">
        <ele>290.3</ele>
        <time>2021-09-04T13:09:10Z</time>
      </trkpt>
      <trkpt lat="47.63245" lon="6.24752">
        <ele>290.1</ele>
        <time>2021-09-04T13:09:11Z</time>
      </trkpt>
      <trkpt lat="47.63239" lon="6.24746">
        <ele>289.8</ele>
        <time>2021-09-04T13:09:12Z</time>
      </trkpt>
      <trkpt lat="47.63235" lon="6.2474">
        <ele>289.5</ele>
        <time>2021-09-04T13:09:15Z</time>
      </trkpt>
      <trkpt lat="47.63229" lon="6.24733">
        <ele>289</ele>
        <time>2021-09-04T13:09:16Z</time>
      </trkpt>
      <trkpt lat="47.63223" lon="6.24729">
        <ele>288.4</ele>
        <time>2021-09-04T13:09:20Z</time>
      </trkpt>
      <trkpt lat="47.63217" lon="6.2473">
        <ele>287.7</ele>
        <time>2021-09-04T13:09:23Z</time>
      </trkpt>
      <trkpt lat="47.63212" lon="6.24731">
        <ele>287.1</ele>
        <time>2021-09-04T13:09:25Z</time>
      </trkpt>
      <trkpt lat="47.63208" lon="6.24733">
        <ele>286.6</ele>
        <time>2021-09-04T13:09:28Z</time>
      </trkpt>
      <trkpt lat="47.63203" lon="6.24734">
        <ele>286.1</ele>
        <time>2021-09-04T13:09:29Z</time>
      </trkpt>
      <trkpt lat="47.63197" lon="6.24735">
        <ele>285.4</ele>
        <time>2021-09-04T13:09:33Z</time>
      </trkpt>
      <trkpt lat="47.63191" lon="6.24735">
        <ele>284.8</ele>
        <time>2021-09-04T13:09:34Z</time>
      </trkpt>
      <trkpt lat="47.63184" lon="6.24737">
        <ele>284</ele>
        <time>2021-09-04T13:09:37Z</time>
      </trkpt>
      <trkpt lat="47.63179" lon="6.24739">
        <ele>283.4</ele>
        <time>2021-09-04T13:09:39Z</time>
      </trkpt>
      <trkpt lat="47.63174" lon="6.24741">
        <ele>282.9</ele>
        <time>2021-09-04T13:09:42Z</time>
      </trkpt>
      <trkpt lat="47.63168" lon="6.24743">
        <ele>282.3</ele>
        <time>2021-09-04T13:09:43Z</time>
      </trkpt>
      <trkpt lat="47.63162" lon="6.24743">
        <ele>280.9</ele>
        <time>2021-09-04T13:09:47Z</time>
      </trkpt>
      <trkpt lat="47.63152" lon="6.24744">
        <ele>278.6</ele>
        <time>2021-09-04T13:09:50Z</time>
      </trkpt>
      <trkpt lat="47.63146" lon="6.24744">
        <ele>277.3</ele>
        <time>2021-09-04T13:09:52Z</time>
      </trkpt>
      <trkpt lat="47.6314" lon="6.24744">
        <ele>275.9</ele>
        <time>2021-09-04T13:09:54Z</time>
      </trkpt>
      <trkpt lat="47.63135" lon="6.24744">
        <ele>274.8</ele>
        <time>2021-09-04T13:09:56Z</time>
      </trkpt>
      <trkpt lat="47.63129" lon="6.24747">
        <ele>273.5</ele>
        <time>2021-09-04T13:09:58Z</time>
      </trkpt>
      <trkpt lat="47.63124" lon="6.24749">
        <ele>272.3</ele>
        <time>2021-09-04T13:10:00Z</time>
      </trkpt>
      <trkpt lat="47.63118" lon="6.24756">
        <ele>270.7</ele>
        <time>2021-09-04T13:10:03Z</time>
      </trkpt>
      <trkpt lat="47.63114" lon="6.24761">
        <ele>269.5</ele>
        <time>2021-09-04T13:10:05Z</time>
      </trkpt>
      <trkpt lat="47.6311" lon="6.24767">
        <ele>268.4</ele>
        <time>2021-09-04T13:10:07Z</time>
      </trkpt>
      <trkpt lat="47.63107" lon="6.24773">
        <ele>267.5</ele>
        <time>2021-09-04T13:10:09Z</time>
      </trkpt>
      <trkpt lat="47.63102" lon="6.2478">
        <ele>266.5</ele>
        <time>2021-09-04T13:10:11Z</time>
      </trkpt>
      <trkpt lat="47.63097" lon="6.24786">
        <ele>265.4</ele>
        <time>2021-09-04T13:10:12Z</time>
      </trkpt>
      <trkpt lat="47.63092" lon="6.2479">
        <ele>264.5</ele>
        <time>2021-09-04T13:10:14Z</time>
      </trkpt>
      <trkpt lat="47.63087" lon="6.24793">
        <ele>263.5</ele>
        <time>2021-09-04T13:10:17Z</time>
      </trkpt>
      <trkpt lat="47.63082" lon="6.24795">
        <ele>262.8</ele>
        <time>2021-09-04T13:10:19Z</time>
      </trkpt>
      <trkpt lat="47.63076" lon="6.24798">
        <ele>262.1</ele>
        <time>2021-09-04T13:10:21Z</time>
      </trkpt>
      <trkpt lat="47.63072" lon="6.24801">
        <ele>261.5</ele>
        <time>2021-09-04T13:10:23Z</time>
      </trkpt>
      <trkpt lat="47.63066" lon="6.24805">
        <ele>260.8</ele>
        <time>2021-09-04T13:10:25Z</time>
      </trkpt>
      <trkpt lat="47.63062" lon="6.24809">
        <ele>260.3</ele>
        <time>2021-09-04T13:10:27Z</time>
      </trkpt>
      <trkpt lat="47.63057" lon="6.24814">
        <ele>259.7</ele>
        <time>2021-09-04T13:10:29Z</time>
      </trkpt>
      <trkpt lat="47.63053" lon="6.24821">
        <ele>259.3</ele>
        <time>2021-09-04T13:10:31Z</time>
      </trkpt>
      <trkpt lat="47.63049" lon="6.24828">
        <ele>258.8</ele>
        <time>2021-09-04T13:10:33Z</time>
      </trkpt>
      <trkpt lat="47.63044" lon="6.24835">
        <ele>258.2</ele>
        <time>2021-09-04T13:10:35Z</time>
      </trkpt>
      <trkpt lat="47.63039" lon="6.24843">
        <ele>257.1</ele>
        <time>2021-09-04T13:10:36Z</time>
      </trkpt>
      <trkpt lat="47.63036" lon="6.24848">
        <ele>256.5</ele>
        <time>2021-09-04T13:10:39Z</time>
      </trkpt>
      <trkpt lat="47.63028" lon="6.24862">
        <ele>255.1</ele>
        <time>2021-09-04T13:10:42Z</time>
      </trkpt>
      <trkpt lat="47.63023" lon="6.24868">
        <ele>254.4</ele>
        <time>2021-09-04T13:10:45Z</time>
      </trkpt>
      <trkpt lat="47.63019" lon="6.24872">
        <ele>254</ele>
        <time>2021-09-04T13:10:47Z</time>
      </trkpt>
      <trkpt lat="47.63013" lon="6.24876">
        <ele>253.4</ele>
        <time>2021-09-04T13:10:48Z</time>
      </trkpt>
      <trkpt lat="47.63008" lon="6.24877">
        <ele>253</ele>
        <time>2021-09-04T13:10:51Z</time>
      </trkpt>
      <trkpt lat="47.63003" lon="6.24878">
        <ele>252.6</ele>
        <time>2021-09-04T13:10:53Z</time>
      </trkpt>
      <trkpt lat="47.62997" lon="6.24878">
        <ele>252.5</ele>
        <time>2021-09-04T13:10:54Z</time>
      </trkpt>
      <trkpt lat="47.62993" lon="6.2488">
        <ele>252.6</ele>
        <time>2021-09-04T13:10:57Z</time>
      </trkpt>
      <trkpt lat="47.62987" lon="6.24886">
        <ele>252.6</ele>
        <time>2021-09-04T13:10:59Z</time>
      </trkpt>
      <trkpt lat="47.62986" lon="6.24894">
        <ele>252.5</ele>
        <time>2021-09-04T13:11:03Z</time>
      </trkpt>
      <trkpt lat="47.62983" lon="6.24901">
        <ele>252.4</ele>
        <time>2021-09-04T13:11:06Z</time>
      </trkpt>
      <trkpt lat="47.62982" lon="6.24909">
        <ele>252.3</ele>
        <time>2021-09-04T13:11:09Z</time>
      </trkpt>
      <trkpt lat="47.6298" lon="6.24916">
        <ele>252.2</ele>
        <time>2021-09-04T13:11:11Z</time>
      </trkpt>
      <trkpt lat="47.62981" lon="6.24923">
        <ele>252.2</ele>
        <time>2021-09-04T13:11:21Z</time>
      </trkpt>
      <trkpt lat="47.6298" lon="6.24931">
        <ele>252.2</ele>
        <time>2021-09-04T13:11:23Z</time>
      </trkpt>
      <trkpt lat="47.62976" lon="6.24939">
        <ele>252.3</ele>
        <time>2021-09-04T13:11:28Z</time>
      </trkpt>
      <trkpt lat="47.62973" lon="6.24944">
        <ele>252.3</ele>
        <time>2021-09-04T13:11:29Z</time>
      </trkpt>
      <trkpt lat="47.62967" lon="6.24949">
        <ele>252.4</ele>
        <time>2021-09-04T13:11:33Z</time>
      </trkpt>
      <trkpt lat="47.62963" lon="6.2495">
        <ele>252.4</ele>
        <time>2021-09-04T13:11:34Z</time>
      </trkpt>
      <trkpt lat="47.62958" lon="6.24948">
        <ele>252.5</ele>
        <time>2021-09-04T13:11:37Z</time>
      </trkpt>
      <trkpt lat="47.62953" lon="6.24946">
        <ele>252.6</ele>
        <time>2021-09-04T13:11:40Z</time>
      </trkpt>
      <trkpt lat="47.62948" lon="6.24947">
        <ele>252.6</ele>
        <time>2021-09-04T13:11:45Z</time>
      </trkpt>
      <trkpt lat="47.62944" lon="6.24941">
        <ele>252.7</ele>
        <time>2021-09-04T13:12:03Z</time>
      </trkpt>
      <trkpt lat="47.62937" lon="6.24937">
        <ele>252.8</ele>
        <time>2021-09-04T13:12:06Z</time>
      </trkpt>
      <trkpt lat="47.62932" lon="6.24934">
        <ele>252.8</ele>
        <time>2021-09-04T13:12:07Z</time>
      </trkpt>
      <trkpt lat="47.62927" lon="6.2493">
        <ele>252.9</ele>
        <time>2021-09-04T13:12:09Z</time>
      </trkpt>
      <trkpt lat="47.62923" lon="6.24923">
        <ele>252.9</ele>
        <time>2021-09-04T13:12:11Z</time>
      </trkpt>
      <trkpt lat="47.62919" lon="6.24917">
        <ele>253</ele>
        <time>2021-09-04T13:12:14Z</time>
      </trkpt>
      <trkpt lat="47.62916" lon="6.24911">
        <ele>253.2</ele>
        <time>2021-09-04T13:12:16Z</time>
      </trkpt>
      <trkpt lat="47.62912" lon="6.24902">
        <ele>254</ele>
        <time>2021-09-04T13:12:17Z</time>
      </trkpt>
      <trkpt lat="47.62909" lon="6.24895">
        <ele>254.8</ele>
        <time>2021-09-04T13:12:20Z</time>
      </trkpt>
      <trkpt lat="47.62905" lon="6.24888">
        <ele>255.4</ele>
        <time>2021-09-04T13:12:22Z</time>
      </trkpt>
      <trkpt lat="47.62903" lon="6.24882">
        <ele>255.9</ele>
        <time>2021-09-04T13:12:24Z</time>
      </trkpt>
      <trkpt lat="47.62899" lon="6.24873">
        <ele>256.7</ele>
        <time>2021-09-04T13:12:26Z</time>
      </trkpt>
      <trkpt lat="47.62898" lon="6.24865">
        <ele>257</ele>
        <time>2021-09-04T13:12:29Z</time>
      </trkpt>
      <trkpt lat="47.62896" lon="6.24859">
        <ele>257.5</ele>
        <time>2021-09-04T13:12:32Z</time>
      </trkpt>
      <trkpt lat="47.62895" lon="6.24851">
        <ele>257.7</ele>
        <time>2021-09-04T13:12:36Z</time>
      </trkpt>
      <trkpt lat="47.62893" lon="6.24844">
        <ele>258.1</ele>
        <time>2021-09-04T13:12:40Z</time>
      </trkpt>
      <trkpt lat="47.62893" lon="6.24835">
        <ele>258.4</ele>
        <time>2021-09-04T13:12:45Z</time>
      </trkpt>
      <trkpt lat="47.62891" lon="6.24828">
        <ele>258.8</ele>
        <time>2021-09-04T13:12:50Z</time>
      </trkpt>
      <trkpt lat="47.6289" lon="6.2482">
        <ele>259.3</ele>
        <time>2021-09-04T13:12:56Z</time>
      </trkpt>
      <trkpt lat="47.62887" lon="6.24813">
        <ele>259.9</ele>
        <time>2021-09-04T13:13:00Z</time>
      </trkpt>
      <trkpt lat="47.62887" lon="6.24805">
        <ele>260.1</ele>
        <time>2021-09-04T13:13:03Z</time>
      </trkpt>
      <trkpt lat="47.62887" lon="6.24798">
        <ele>260.3</ele>
        <time>2021-09-04T13:13:07Z</time>
      </trkpt>
      <trkpt lat="47.62886" lon="6.24792">
        <ele>260.7</ele>
        <time>2021-09-04T13:13:12Z</time>
      </trkpt>
      <trkpt lat="47.62883" lon="6.24785">
        <ele>261.1</ele>
        <time>2021-09-04T13:13:14Z</time>
      </trkpt>
      <trkpt lat="47.62882" lon="6.24779">
        <ele>261.3</ele>
        <time>2021-09-04T13:13:18Z</time>
      </trkpt>
      <trkpt lat="47.6288" lon="6.24773">
        <ele>261.7</ele>
        <time>2021-09-04T13:13:22Z</time>
      </trkpt>
      <trkpt lat="47.6288" lon="6.24766">
        <ele>261.8</ele>
        <time>2021-09-04T13:13:24Z</time>
      </trkpt>
      <trkpt lat="47.62878" lon="6.24759">
        <ele>262.1</ele>
        <time>2021-09-04T13:13:29Z</time>
      </trkpt>
      <trkpt lat="47.62877" lon="6.24751">
        <ele>262.3</ele>
        <time>2021-09-04T13:13:30Z</time>
      </trkpt>
      <trkpt lat="47.62877" lon="6.24742">
        <ele>262.5</ele>
        <time>2021-09-04T13:13:33Z</time>
      </trkpt>
      <trkpt lat="47.62875" lon="6.24734">
        <ele>262.7</ele>
        <time>2021-09-04T13:13:36Z</time>
      </trkpt>
      <trkpt lat="47.62874" lon="6.24728">
        <ele>262.8</ele>
        <time>2021-09-04T13:13:39Z</time>
      </trkpt>
      <trkpt lat="47.62872" lon="6.24721">
        <ele>263</ele>
        <time>2021-09-04T13:13:43Z</time>
      </trkpt>
      <trkpt lat="47.62872" lon="6.24714">
        <ele>263.1</ele>
        <time>2021-09-04T13:13:49Z</time>
      </trkpt>
      <trkpt lat="47.6287" lon="6.24705">
        <ele>263.3</ele>
        <time>2021-09-04T13:13:50Z</time>
      </trkpt>
      <trkpt lat="47.62868" lon="6.24697">
        <ele>263.6</ele>
        <time>2021-09-04T13:13:53Z</time>
      </trkpt>
      <trkpt lat="47.62866" lon="6.2469">
        <ele>263.7</ele>
        <time>2021-09-04T13:13:55Z</time>
      </trkpt>
      <trkpt lat="47.62864" lon="6.2468">
        <ele>264</ele>
        <time>2021-09-04T13:14:00Z</time>
      </trkpt>
      <trkpt lat="47.62863" lon="6.24673">
        <ele>264.1</ele>
        <time>2021-09-04T13:14:02Z</time>
      </trkpt>
      <trkpt lat="47.62861" lon="6.24664">
        <ele>264.3</ele>
        <time>2021-09-04T13:14:04Z</time>
      </trkpt>
      <trkpt lat="47.62858" lon="6.24656">
        <ele>264.3</ele>
        <time>2021-09-04T13:14:04Z</time>
      </trkpt>
      <trkpt lat="47.62856" lon="6.24646">
        <ele>264.3</ele>
        <time>2021-09-04T13:14:06Z</time>
      </trkpt>
      <trkpt lat="47.62854" lon="6.24639">
        <ele>264.2</ele>
        <time>2021-09-04T13:14:08Z</time>
      </trkpt>
      <trkpt lat="47.62851" lon="6.24631">
        <ele>264.2</ele>
        <time>2021-09-04T13:14:10Z</time>
      </trkpt>
      <trkpt lat="47.6285" lon="6.24622">
        <ele>264.1</ele>
        <time>2021-09-04T13:14:12Z</time>
      </trkpt>
      <trkpt lat="47.62849" lon="6.24616">
        <ele>264.1</ele>
        <time>2021-09-04T13:14:16Z</time>
      </trkpt>
      <trkpt lat="47.62848" lon="6.24608">
        <ele>264</ele>
        <time>2021-09-04T13:14:18Z</time>
      </trkpt>
      <trkpt lat="47.62847" lon="6.24599">
        <ele>263.8</ele>
        <time>2021-09-04T13:14:20Z</time>
      </trkpt>
      <trkpt lat="47.62847" lon="6.24589">
        <ele>263.6</ele>
        <time>2021-09-04T13:14:22Z</time>
      </trkpt>
      <trkpt lat="47.62847" lon="6.24581">
        <ele>263.4</ele>
        <time>2021-09-04T13:14:23Z</time>
      </trkpt>
      <trkpt lat="47.62847" lon="6.24558">
        <ele>262.5</ele>
        <time>2021-09-04T13:14:23Z</time>
      </trkpt>
      <trkpt lat="47.62847" lon="6.24548">
        <ele>262.1</ele>
        <time>2021-09-04T13:14:24Z</time>
      </trkpt>
      <trkpt lat="47.62849" lon="6.24538">
        <ele>261.6</ele>
        <time>2021-09-04T13:14:25Z</time>
      </trkpt>
      <trkpt lat="47.62851" lon="6.24528">
        <ele>261.1</ele>
        <time>2021-09-04T13:14:26Z</time>
      </trkpt>
      <trkpt lat="47.62855" lon="6.2452">
        <ele>260.5</ele>
        <time>2021-09-04T13:14:27Z</time>
      </trkpt>
      <trkpt lat="47.62858" lon="6.24511">
        <ele>259.9</ele>
        <time>2021-09-04T13:14:28Z</time>
      </trkpt>
      <trkpt lat="47.6286" lon="6.245">
        <ele>259.4</ele>
        <time>2021-09-04T13:14:29Z</time>
      </trkpt>
      <trkpt lat="47.6286" lon="6.24488">
        <ele>258.7</ele>
        <time>2021-09-04T13:14:30Z</time>
      </trkpt>
      <trkpt lat="47.62859" lon="6.24476">
        <ele>258</ele>
        <time>2021-09-04T13:14:31Z</time>
      </trkpt>
      <trkpt lat="47.62857" lon="6.24464">
        <ele>257.3</ele>
        <time>2021-09-04T13:14:32Z</time>
      </trkpt>
      <trkpt lat="47.62854" lon="6.24451">
        <ele>256.6</ele>
        <time>2021-09-04T13:14:33Z</time>
      </trkpt>
      <trkpt lat="47.62851" lon="6.24437">
        <ele>255.9</ele>
        <time>2021-09-04T13:14:34Z</time>
      </trkpt>
      <trkpt lat="47.62847" lon="6.24424">
        <ele>255.1</ele>
        <time>2021-09-04T13:14:35Z</time>
      </trkpt>
      <trkpt lat="47.62843" lon="6.24411">
        <ele>254.3</ele>
        <time>2021-09-04T13:14:36Z</time>
      </trkpt>
      <trkpt lat="47.62838" lon="6.244">
        <ele>253.7</ele>
        <time>2021-09-04T13:14:37Z</time>
      </trkpt>
      <trkpt lat="47.62832" lon="6.24391">
        <ele>253.2</ele>
        <time>2021-09-04T13:14:38Z</time>
      </trkpt>
      <trkpt lat="47.62825" lon="6.24384">
        <ele>252.8</ele>
        <time>2021-09-04T13:14:39Z</time>
      </trkpt>
      <trkpt lat="47.62818" lon="6.24378">
        <ele>252.5</ele>
        <time>2021-09-04T13:14:40Z</time>
      </trkpt>
      <trkpt lat="47.62811" lon="6.24373">
        <ele>252.3</ele>
        <time>2021-09-04T13:14:41Z</time>
      </trkpt>
      <trkpt lat="47.62805" lon="6.24368">
        <ele>251.9</ele>
        <time>2021-09-04T13:14:42Z</time>
      </trkpt>
      <trkpt lat="47.62799" lon="6.24361">
        <ele>251.4</ele>
        <time>2021-09-04T13:14:43Z</time>
      </trkpt>
      <trkpt lat="47.62795" lon="6.24351">
        <ele>250.6</ele>
        <time>2021-09-04T13:14:44Z</time>
      </trkpt>
      <trkpt lat="47.62792" lon="6.24342">
        <ele>249.7</ele>
        <time>2021-09-04T13:14:45Z</time>
      </trkpt>
      <trkpt lat="47.62788" lon="6.24331">
        <ele>249</ele>
        <time>2021-09-04T13:14:46Z</time>
      </trkpt>
      <trkpt lat="47.62783" lon="6.24322">
        <ele>248.9</ele>
        <time>2021-09-04T13:14:47Z</time>
      </trkpt>
      <trkpt lat="47.62779" lon="6.24314">
        <ele>248.8</ele>
        <time>2021-09-04T13:14:48Z</time>
      </trkpt>
      <trkpt lat="47.62775" lon="6.24307">
        <ele>248.6</ele>
        <time>2021-09-04T13:14:49Z</time>
      </trkpt>
      <trkpt lat="47.62771" lon="6.243">
        <ele>248.5</ele>
        <time>2021-09-04T13:14:50Z</time>
      </trkpt>
      <trkpt lat="47.62769" lon="6.24292">
        <ele>248.3</ele>
        <time>2021-09-04T13:14:51Z</time>
      </trkpt>
      <trkpt lat="47.62765" lon="6.24285">
        <ele>248.2</ele>
        <time>2021-09-04T13:14:52Z</time>
      </trkpt>
      <trkpt lat="47.62762" lon="6.24279">
        <ele>248</ele>
        <time>2021-09-04T13:14:53Z</time>
      </trkpt>
      <trkpt lat="47.62759" lon="6.24271">
        <ele>247.7</ele>
        <time>2021-09-04T13:14:54Z</time>
      </trkpt>
      <trkpt lat="47.62756" lon="6.24263">
        <ele>247.5</ele>
        <time>2021-09-04T13:14:55Z</time>
      </trkpt>
      <trkpt lat="47.62755" lon="6.24255">
        <ele>247.3</ele>
        <time>2021-09-04T13:14:56Z</time>
      </trkpt>
      <trkpt lat="47.62755" lon="6.24248">
        <ele>247.2</ele>
        <time>2021-09-04T13:14:57Z</time>
      </trkpt>
      <trkpt lat="47.6276" lon="6.24238">
        <ele>247.2</ele>
        <time>2021-09-04T13:14:59Z</time>
      </trkpt>
      <trkpt lat="47.62763" lon="6.24232">
        <ele>247.4</ele>
        <time>2021-09-04T13:15:01Z</time>
      </trkpt>
      <trkpt lat="47.62767" lon="6.24228">
        <ele>247.6</ele>
        <time>2021-09-04T13:15:03Z</time>
      </trkpt>
      <trkpt lat="47.62769" lon="6.24221">
        <ele>247.7</ele>
        <time>2021-09-04T13:15:06Z</time>
      </trkpt>
      <trkpt lat="47.62773" lon="6.24216">
        <ele>248</ele>
        <time>2021-09-04T13:15:13Z</time>
      </trkpt>
      <trkpt lat="47.62777" lon="6.24211">
        <ele>248.4</ele>
        <time>2021-09-04T13:15:15Z</time>
      </trkpt>
      <trkpt lat="47.62783" lon="6.24206">
        <ele>249</ele>
        <time>2021-09-04T13:15:17Z</time>
      </trkpt>
      <trkpt lat="47.62787" lon="6.24199">
        <ele>249.6</ele>
        <time>2021-09-04T13:15:19Z</time>
      </trkpt>
      <trkpt lat="47.6279" lon="6.24194">
        <ele>250</ele>
        <time>2021-09-04T13:15:20Z</time>
      </trkpt>
      <trkpt lat="47.62799" lon="6.24178">
        <ele>251.6</ele>
        <time>2021-09-04T13:15:23Z</time>
      </trkpt>
      <trkpt lat="47.62802" lon="6.2417">
        <ele>252.3</ele>
        <time>2021-09-04T13:15:24Z</time>
      </trkpt>
      <trkpt lat="47.62806" lon="6.2416">
        <ele>252.9</ele>
        <time>2021-09-04T13:15:26Z</time>
      </trkpt>
      <trkpt lat="47.62809" lon="6.24154">
        <ele>253.3</ele>
        <time>2021-09-04T13:15:27Z</time>
      </trkpt>
      <trkpt lat="47.62813" lon="6.24146">
        <ele>253.7</ele>
        <time>2021-09-04T13:15:29Z</time>
      </trkpt>
      <trkpt lat="47.62817" lon="6.2414">
        <ele>254</ele>
        <time>2021-09-04T13:15:30Z</time>
      </trkpt>
      <trkpt lat="47.62822" lon="6.2413">
        <ele>254.4</ele>
        <time>2021-09-04T13:15:32Z</time>
      </trkpt>
      <trkpt lat="47.62825" lon="6.24123">
        <ele>254.5</ele>
        <time>2021-09-04T13:15:34Z</time>
      </trkpt>
      <trkpt lat="47.62828" lon="6.24114">
        <ele>254.6</ele>
        <time>2021-09-04T13:15:36Z</time>
      </trkpt>
      <trkpt lat="47.62832" lon="6.24104">
        <ele>254.6</ele>
        <time>2021-09-04T13:15:38Z</time>
      </trkpt>
      <trkpt lat="47.62835" lon="6.24096">
        <ele>254.8</ele>
        <time>2021-09-04T13:15:40Z</time>
      </trkpt>
      <trkpt lat="47.62838" lon="6.24087">
        <ele>255.2</ele>
        <time>2021-09-04T13:15:41Z</time>
      </trkpt>
      <trkpt lat="47.62842" lon="6.24071">
        <ele>256</ele>
        <time>2021-09-04T13:15:41Z</time>
      </trkpt>
      <trkpt lat="47.62844" lon="6.24063">
        <ele>256.5</ele>
        <time>2021-09-04T13:15:42Z</time>
      </trkpt>
      <trkpt lat="47.62846" lon="6.24056">
        <ele>257</ele>
        <time>2021-09-04T13:15:43Z</time>
      </trkpt>
      <trkpt lat="47.62848" lon="6.24049">
        <ele>257.5</ele>
        <time>2021-09-04T13:15:44Z</time>
      </trkpt>
      <trkpt lat="47.6285" lon="6.24042">
        <ele>258</ele>
        <time>2021-09-04T13:15:45Z</time>
      </trkpt>
      <trkpt lat="47.62852" lon="6.24035">
        <ele>258.6</ele>
        <time>2021-09-04T13:15:46Z</time>
      </trkpt>
      <trkpt lat="47.62854" lon="6.24028">
        <ele>259.3</ele>
        <time>2021-09-04T13:15:47Z</time>
      </trkpt>
      <trkpt lat="47.62856" lon="6.24021">
        <ele>259.9</ele>
        <time>2021-09-04T13:15:48Z</time>
      </trkpt>
      <trkpt lat="47.62857" lon="6.24013">
        <ele>260.4</ele>
        <time>2021-09-04T13:15:49Z</time>
      </trkpt>
      <trkpt lat="47.62858" lon="6.24006">
        <ele>260.7</ele>
        <time>2021-09-04T13:15:50Z</time>
      </trkpt>
      <trkpt lat="47.62854" lon="6.23998">
        <ele>259.5</ele>
        <time>2021-09-04T13:15:51Z</time>
      </trkpt>
      <trkpt lat="47.62855" lon="6.23991">
        <ele>259.8</ele>
        <time>2021-09-04T13:15:52Z</time>
      </trkpt>
      <trkpt lat="47.62854" lon="6.23983">
        <ele>259.3</ele>
        <time>2021-09-04T13:15:53Z</time>
      </trkpt>
      <trkpt lat="47.62854" lon="6.23972">
        <ele>259.2</ele>
        <time>2021-09-04T13:15:55Z</time>
      </trkpt>
      <trkpt lat="47.62854" lon="6.23965">
        <ele>259.2</ele>
        <time>2021-09-04T13:15:56Z</time>
      </trkpt>
      <trkpt lat="47.62854" lon="6.23954">
        <ele>259.3</ele>
        <time>2021-09-04T13:15:57Z</time>
      </trkpt>
      <trkpt lat="47.62855" lon="6.23944">
        <ele>259.4</ele>
        <time>2021-09-04T13:15:58Z</time>
      </trkpt>
      <trkpt lat="47.62854" lon="6.23926">
        <ele>259.2</ele>
        <time>2021-09-04T13:16:00Z</time>
      </trkpt>
      <trkpt lat="47.62858" lon="6.23913">
        <ele>260.2</ele>
        <time>2021-09-04T13:16:01Z</time>
      </trkpt>
      <trkpt lat="47.62857" lon="6.239">
        <ele>259.4</ele>
        <time>2021-09-04T13:16:02Z</time>
      </trkpt>
      <trkpt lat="47.6286" lon="6.23889">
        <ele>259.9</ele>
        <time>2021-09-04T13:16:03Z</time>
      </trkpt>
      <trkpt lat="47.62863" lon="6.23883">
        <ele>260.6</ele>
        <time>2021-09-04T13:16:04Z</time>
      </trkpt>
      <trkpt lat="47.62863" lon="6.23875">
        <ele>260.3</ele>
        <time>2021-09-04T13:16:07Z</time>
      </trkpt>
      <trkpt lat="47.62866" lon="6.23869">
        <ele>260.9</ele>
        <time>2021-09-04T13:16:09Z</time>
      </trkpt>
      <trkpt lat="47.6287" lon="6.23861">
        <ele>261.9</ele>
        <time>2021-09-04T13:16:10Z</time>
      </trkpt>
      <trkpt lat="47.62873" lon="6.2385">
        <ele>262.5</ele>
        <time>2021-09-04T13:16:12Z</time>
      </trkpt>
      <trkpt lat="47.62873" lon="6.2384">
        <ele>262.2</ele>
        <time>2021-09-04T13:16:13Z</time>
      </trkpt>
      <trkpt lat="47.62873" lon="6.23824">
        <ele>262.3</ele>
        <time>2021-09-04T13:16:13Z</time>
      </trkpt>
      <trkpt lat="47.62874" lon="6.2381">
        <ele>262.8</ele>
        <time>2021-09-04T13:16:15Z</time>
      </trkpt>
      <trkpt lat="47.62873" lon="6.238">
        <ele>262.8</ele>
        <time>2021-09-04T13:16:19Z</time>
      </trkpt>
      <trkpt lat="47.62872" lon="6.23793">
        <ele>262.9</ele>
        <time>2021-09-04T13:16:20Z</time>
      </trkpt>
      <trkpt lat="47.62872" lon="6.23786">
        <ele>262.9</ele>
        <time>2021-09-04T13:16:21Z</time>
      </trkpt>
      <trkpt lat="47.62871" lon="6.23776">
        <ele>262.9</ele>
        <time>2021-09-04T13:16:23Z</time>
      </trkpt>
      <trkpt lat="47.62869" lon="6.23766">
        <ele>262.5</ele>
        <time>2021-09-04T13:16:24Z</time>
      </trkpt>
      <trkpt lat="47.62865" lon="6.23747">
        <ele>262</ele>
        <time>2021-09-04T13:16:25Z</time>
      </trkpt>
      <trkpt lat="47.62864" lon="6.23739">
        <ele>262.2</ele>
        <time>2021-09-04T13:16:29Z</time>
      </trkpt>
      <trkpt lat="47.62863" lon="6.23731">
        <ele>262.5</ele>
        <time>2021-09-04T13:16:31Z</time>
      </trkpt>
      <trkpt lat="47.62862" lon="6.23719">
        <ele>263.3</ele>
        <time>2021-09-04T13:16:31Z</time>
      </trkpt>
      <trkpt lat="47.62862" lon="6.2371">
        <ele>263.8</ele>
        <time>2021-09-04T13:16:35Z</time>
      </trkpt>
      <trkpt lat="47.62861" lon="6.23701">
        <ele>264.1</ele>
        <time>2021-09-04T13:16:37Z</time>
      </trkpt>
      <trkpt lat="47.6286" lon="6.23693">
        <ele>264.4</ele>
        <time>2021-09-04T13:16:39Z</time>
      </trkpt>
      <trkpt lat="47.62859" lon="6.23684">
        <ele>264.8</ele>
        <time>2021-09-04T13:16:41Z</time>
      </trkpt>
      <trkpt lat="47.62857" lon="6.23678">
        <ele>264.8</ele>
        <time>2021-09-04T13:16:43Z</time>
      </trkpt>
      <trkpt lat="47.62855" lon="6.2367">
        <ele>264.7</ele>
        <time>2021-09-04T13:16:45Z</time>
      </trkpt>
      <trkpt lat="47.62852" lon="6.23664">
        <ele>264.7</ele>
        <time>2021-09-04T13:16:47Z</time>
      </trkpt>
      <trkpt lat="47.62849" lon="6.23659">
        <ele>264.7</ele>
        <time>2021-09-04T13:16:48Z</time>
      </trkpt>
      <trkpt lat="47.62846" lon="6.23652">
        <ele>264.7</ele>
        <time>2021-09-04T13:16:49Z</time>
      </trkpt>
      <trkpt lat="47.62842" lon="6.23647">
        <ele>264.8</ele>
        <time>2021-09-04T13:16:50Z</time>
      </trkpt>
      <trkpt lat="47.62838" lon="6.23639">
        <ele>264.9</ele>
        <time>2021-09-04T13:16:52Z</time>
      </trkpt>
      <trkpt lat="47.62833" lon="6.23633">
        <ele>264.8</ele>
        <time>2021-09-04T13:16:54Z</time>
      </trkpt>
      <trkpt lat="47.62827" lon="6.23625">
        <ele>265.5</ele>
        <time>2021-09-04T13:16:56Z</time>
      </trkpt>
      <trkpt lat="47.6282" lon="6.23616">
        <ele>266.1</ele>
        <time>2021-09-04T13:16:58Z</time>
      </trkpt>
      <trkpt lat="47.62814" lon="6.2361">
        <ele>266.3</ele>
        <time>2021-09-04T13:16:59Z</time>
      </trkpt>
      <trkpt lat="47.6281" lon="6.23605">
        <ele>266.5</ele>
        <time>2021-09-04T13:17:00Z</time>
      </trkpt>
      <trkpt lat="47.62806" lon="6.23601">
        <ele>266.7</ele>
        <time>2021-09-04T13:17:00Z</time>
      </trkpt>
      <trkpt lat="47.62799" lon="6.23594">
        <ele>266.8</ele>
        <time>2021-09-04T13:17:02Z</time>
      </trkpt>
      <trkpt lat="47.62784" lon="6.23584">
        <ele>266</ele>
        <time>2021-09-04T13:17:04Z</time>
      </trkpt>
      <trkpt lat="47.62779" lon="6.23581">
        <ele>265.6</ele>
        <time>2021-09-04T13:17:04Z</time>
      </trkpt>
      <trkpt lat="47.62772" lon="6.23574">
        <ele>265.3</ele>
        <time>2021-09-04T13:17:06Z</time>
      </trkpt>
      <trkpt lat="47.62759" lon="6.23558">
        <ele>265.2</ele>
        <time>2021-09-04T13:17:07Z</time>
      </trkpt>
      <trkpt lat="47.62752" lon="6.23552">
        <ele>265</ele>
        <time>2021-09-04T13:17:11Z</time>
      </trkpt>
      <trkpt lat="47.62747" lon="6.23546">
        <ele>265</ele>
        <time>2021-09-04T13:17:12Z</time>
      </trkpt>
      <trkpt lat="47.62737" lon="6.23538">
        <ele>265</ele>
        <time>2021-09-04T13:17:14Z</time>
      </trkpt>
      <trkpt lat="47.62728" lon="6.2353">
        <ele>264.9</ele>
        <time>2021-09-04T13:17:16Z</time>
      </trkpt>
      <trkpt lat="47.6272" lon="6.23525">
        <ele>264.5</ele>
        <time>2021-09-04T13:17:18Z</time>
      </trkpt>
      <trkpt lat="47.62708" lon="6.23517">
        <ele>263.9</ele>
        <time>2021-09-04T13:17:20Z</time>
      </trkpt>
      <trkpt lat="47.62699" lon="6.23514">
        <ele>263</ele>
        <time>2021-09-04T13:17:22Z</time>
      </trkpt>
      <trkpt lat="47.62693" lon="6.23512">
        <ele>262.4</ele>
        <time>2021-09-04T13:17:23Z</time>
      </trkpt>
      <trkpt lat="47.62687" lon="6.23512">
        <ele>261.6</ele>
        <time>2021-09-04T13:17:24Z</time>
      </trkpt>
      <trkpt lat="47.62677" lon="6.23512">
        <ele>260.3</ele>
        <time>2021-09-04T13:17:26Z</time>
      </trkpt>
      <trkpt lat="47.62672" lon="6.23513">
        <ele>259.5</ele>
        <time>2021-09-04T13:17:27Z</time>
      </trkpt>
      <trkpt lat="47.62665" lon="6.23515">
        <ele>258.4</ele>
        <time>2021-09-04T13:17:29Z</time>
      </trkpt>
      <trkpt lat="47.62659" lon="6.23518">
        <ele>257.3</ele>
        <time>2021-09-04T13:17:31Z</time>
      </trkpt>
      <trkpt lat="47.62653" lon="6.2352">
        <ele>256.4</ele>
        <time>2021-09-04T13:17:31Z</time>
      </trkpt>
      <trkpt lat="47.62648" lon="6.23519">
        <ele>255.9</ele>
        <time>2021-09-04T13:17:34Z</time>
      </trkpt>
      <trkpt lat="47.62643" lon="6.23519">
        <ele>255.3</ele>
        <time>2021-09-04T13:17:37Z</time>
      </trkpt>
      <trkpt lat="47.62639" lon="6.23521">
        <ele>254.6</ele>
        <time>2021-09-04T13:17:40Z</time>
      </trkpt>
      <trkpt lat="47.62638" lon="6.2353">
        <ele>253.8</ele>
        <time>2021-09-04T13:17:45Z</time>
      </trkpt>
      <trkpt lat="47.62638" lon="6.23537">
        <ele>253.2</ele>
        <time>2021-09-04T13:17:45Z</time>
      </trkpt>
      <trkpt lat="47.62638" lon="6.23545">
        <ele>252.6</ele>
        <time>2021-09-04T13:17:49Z</time>
      </trkpt>
      <trkpt lat="47.62637" lon="6.23564">
        <ele>251.1</ele>
        <time>2021-09-04T13:17:53Z</time>
      </trkpt>
      <trkpt lat="47.62636" lon="6.23571">
        <ele>250.5</ele>
        <time>2021-09-04T13:17:54Z</time>
      </trkpt>
      <trkpt lat="47.62635" lon="6.23579">
        <ele>249.7</ele>
        <time>2021-09-04T13:17:57Z</time>
      </trkpt>
      <trkpt lat="47.62633" lon="6.23586">
        <ele>249.1</ele>
        <time>2021-09-04T13:18:03Z</time>
      </trkpt>
      <trkpt lat="47.62629" lon="6.23589">
        <ele>248.6</ele>
        <time>2021-09-04T13:18:14Z</time>
      </trkpt>
      <trkpt lat="47.62625" lon="6.23591">
        <ele>248.2</ele>
        <time>2021-09-04T13:18:28Z</time>
      </trkpt>
      <trkpt lat="47.6262" lon="6.23592">
        <ele>247.8</ele>
        <time>2021-09-04T13:18:31Z</time>
      </trkpt>
      <trkpt lat="47.62616" lon="6.23597">
        <ele>247.3</ele>
        <time>2021-09-04T13:18:43Z</time>
      </trkpt>
      <trkpt lat="47.62614" lon="6.23604">
        <ele>247</ele>
        <time>2021-09-04T13:18:46Z</time>
      </trkpt>
      <trkpt lat="47.62611" lon="6.23609">
        <ele>246.6</ele>
        <time>2021-09-04T13:19:08Z</time>
      </trkpt>
      <trkpt lat="47.62611" lon="6.23615">
        <ele>246.4</ele>
        <time>2021-09-04T13:19:17Z</time>
      </trkpt>
      <trkpt lat="47.62611" lon="6.23622">
        <ele>246.2</ele>
        <time>2021-09-04T13:19:21Z</time>
      </trkpt>
      <trkpt lat="47.62612" lon="6.23629">
        <ele>246.1</ele>
        <time>2021-09-04T13:20:05Z</time>
      </trkpt>
      <trkpt lat="47.62611" lon="6.23637">
        <ele>245.8</ele>
        <time>2021-09-04T13:20:12Z</time>
      </trkpt>
      <trkpt lat="47.6261" lon="6.23645">
        <ele>245.6</ele>
        <time>2021-09-04T13:20:15Z</time>
      </trkpt>
      <trkpt lat="47.6261" lon="6.23654">
        <ele>245.3</ele>
        <time>2021-09-04T13:20:15Z</time>
      </trkpt>
      <trkpt lat="47.6261" lon="6.23662">
        <ele>245.1</ele>
        <time>2021-09-04T13:20:19Z</time>
      </trkpt>
      <trkpt lat="47.6261" lon="6.2367">
        <ele>245.6</ele>
        <time>2021-09-04T13:20:21Z</time>
      </trkpt>
      <trkpt lat="47.62609" lon="6.23679">
        <ele>246.9</ele>
        <time>2021-09-04T13:20:23Z</time>
      </trkpt>
      <trkpt lat="47.62608" lon="6.23687">
        <ele>248.3</ele>
        <time>2021-09-04T13:20:25Z</time>
      </trkpt>
      <trkpt lat="47.62605" lon="6.23695">
        <ele>249.6</ele>
        <time>2021-09-04T13:20:27Z</time>
      </trkpt>
      <trkpt lat="47.62601" lon="6.237">
        <ele>250.6</ele>
        <time>2021-09-04T13:20:29Z</time>
      </trkpt>
      <trkpt lat="47.62596" lon="6.23703">
        <ele>251.3</ele>
        <time>2021-09-04T13:20:31Z</time>
      </trkpt>
      <trkpt lat="47.6259" lon="6.23704">
        <ele>251.8</ele>
        <time>2021-09-04T13:20:33Z</time>
      </trkpt>
      <trkpt lat="47.62584" lon="6.23703">
        <ele>251.9</ele>
        <time>2021-09-04T13:20:35Z</time>
      </trkpt>
      <trkpt lat="47.62577" lon="6.23701">
        <ele>252.9</ele>
        <time>2021-09-04T13:20:38Z</time>
      </trkpt>
      <trkpt lat="47.62571" lon="6.23699">
        <ele>253.7</ele>
        <time>2021-09-04T13:20:38Z</time>
      </trkpt>
      <trkpt lat="47.62566" lon="6.23698">
        <ele>254.4</ele>
        <time>2021-09-04T13:20:42Z</time>
      </trkpt>
      <trkpt lat="47.62561" lon="6.23696">
        <ele>254.8</ele>
        <time>2021-09-04T13:20:44Z</time>
      </trkpt>
      <trkpt lat="47.62555" lon="6.23694">
        <ele>255.6</ele>
        <time>2021-09-04T13:20:44Z</time>
      </trkpt>
      <trkpt lat="47.6255" lon="6.23691">
        <ele>255.8</ele>
        <time>2021-09-04T13:20:46Z</time>
      </trkpt>
      <trkpt lat="47.62546" lon="6.23686">
        <ele>255.6</ele>
        <time>2021-09-04T13:20:50Z</time>
      </trkpt>
      <trkpt lat="47.62542" lon="6.23681">
        <ele>255.1</ele>
        <time>2021-09-04T13:20:52Z</time>
      </trkpt>
      <trkpt lat="47.62537" lon="6.23675">
        <ele>254.7</ele>
        <time>2021-09-04T13:20:52Z</time>
      </trkpt>
      <trkpt lat="47.62532" lon="6.23668">
        <ele>254</ele>
        <time>2021-09-04T13:20:54Z</time>
      </trkpt>
      <trkpt lat="47.62527" lon="6.23659">
        <ele>253.8</ele>
        <time>2021-09-04T13:20:58Z</time>
      </trkpt>
      <trkpt lat="47.62521" lon="6.2365">
        <ele>253.8</ele>
        <time>2021-09-04T13:20:58Z</time>
      </trkpt>
      <trkpt lat="47.62515" lon="6.23642">
        <ele>253.8</ele>
        <time>2021-09-04T13:21:02Z</time>
      </trkpt>
      <trkpt lat="47.62506" lon="6.23629">
        <ele>253.4</ele>
        <time>2021-09-04T13:21:03Z</time>
      </trkpt>
      <trkpt lat="47.62502" lon="6.23622">
        <ele>252.9</ele>
        <time>2021-09-04T13:21:07Z</time>
      </trkpt>
      <trkpt lat="47.62497" lon="6.23613">
        <ele>252.9</ele>
        <time>2021-09-04T13:21:08Z</time>
      </trkpt>
      <trkpt lat="47.62495" lon="6.23606">
        <ele>253</ele>
        <time>2021-09-04T13:21:10Z</time>
      </trkpt>
      <trkpt lat="47.62492" lon="6.23599">
        <ele>253</ele>
        <time>2021-09-04T13:21:11Z</time>
      </trkpt>
      <trkpt lat="47.62489" lon="6.23592">
        <ele>253.2</ele>
        <time>2021-09-04T13:21:13Z</time>
      </trkpt>
      <trkpt lat="47.62487" lon="6.23585">
        <ele>253</ele>
        <time>2021-09-04T13:21:14Z</time>
      </trkpt>
      <trkpt lat="47.62484" lon="6.23579">
        <ele>253.6</ele>
        <time>2021-09-04T13:21:15Z</time>
      </trkpt>
      <trkpt lat="47.62481" lon="6.23573">
        <ele>254.5</ele>
        <time>2021-09-04T13:21:17Z</time>
      </trkpt>
      <trkpt lat="47.62475" lon="6.23564">
        <ele>255.9</ele>
        <time>2021-09-04T13:21:19Z</time>
      </trkpt>
      <trkpt lat="47.62471" lon="6.23557">
        <ele>256.8</ele>
        <time>2021-09-04T13:21:21Z</time>
      </trkpt>
      <trkpt lat="47.62467" lon="6.23547">
        <ele>257.9</ele>
        <time>2021-09-04T13:21:21Z</time>
      </trkpt>
      <trkpt lat="47.62464" lon="6.2354">
        <ele>258.3</ele>
        <time>2021-09-04T13:21:25Z</time>
      </trkpt>
      <trkpt lat="47.62462" lon="6.23529">
        <ele>258.3</ele>
        <time>2021-09-04T13:21:27Z</time>
      </trkpt>
      <trkpt lat="47.62463" lon="6.2352">
        <ele>257.4</ele>
        <time>2021-09-04T13:21:29Z</time>
      </trkpt>
      <trkpt lat="47.62463" lon="6.23512">
        <ele>256.5</ele>
        <time>2021-09-04T13:21:31Z</time>
      </trkpt>
      <trkpt lat="47.62465" lon="6.23502">
        <ele>255.3</ele>
        <time>2021-09-04T13:21:33Z</time>
      </trkpt>
      <trkpt lat="47.62467" lon="6.23487">
        <ele>254.2</ele>
        <time>2021-09-04T13:21:36Z</time>
      </trkpt>
      <trkpt lat="47.62469" lon="6.23473">
        <ele>253.2</ele>
        <time>2021-09-04T13:21:38Z</time>
      </trkpt>
      <trkpt lat="47.6247" lon="6.23466">
        <ele>252.7</ele>
        <time>2021-09-04T13:21:39Z</time>
      </trkpt>
      <trkpt lat="47.62471" lon="6.23457">
        <ele>252.2</ele>
        <time>2021-09-04T13:21:41Z</time>
      </trkpt>
      <trkpt lat="47.62472" lon="6.23449">
        <ele>251.5</ele>
        <time>2021-09-04T13:21:42Z</time>
      </trkpt>
      <trkpt lat="47.62473" lon="6.23439">
        <ele>250.8</ele>
        <time>2021-09-04T13:21:44Z</time>
      </trkpt>
      <trkpt lat="47.62474" lon="6.23431">
        <ele>250.5</ele>
        <time>2021-09-04T13:21:45Z</time>
      </trkpt>
      <trkpt lat="47.62474" lon="6.23418">
        <ele>250</ele>
        <time>2021-09-04T13:21:45Z</time>
      </trkpt>
      <trkpt lat="47.62475" lon="6.2341">
        <ele>249.9</ele>
        <time>2021-09-04T13:21:49Z</time>
      </trkpt>
      <trkpt lat="47.62473" lon="6.23403">
        <ele>250.3</ele>
        <time>2021-09-04T13:21:51Z</time>
      </trkpt>
      <trkpt lat="47.6247" lon="6.23395">
        <ele>251.1</ele>
        <time>2021-09-04T13:21:54Z</time>
      </trkpt>
      <trkpt lat="47.62469" lon="6.23388">
        <ele>251.4</ele>
        <time>2021-09-04T13:21:57Z</time>
      </trkpt>
      <trkpt lat="47.62468" lon="6.23381">
        <ele>251.6</ele>
        <time>2021-09-04T13:22:00Z</time>
      </trkpt>
      <trkpt lat="47.62467" lon="6.23375">
        <ele>251.9</ele>
        <time>2021-09-04T13:22:02Z</time>
      </trkpt>
      <trkpt lat="47.62465" lon="6.23367">
        <ele>252.3</ele>
        <time>2021-09-04T13:22:03Z</time>
      </trkpt>
      <trkpt lat="47.62463" lon="6.23359">
        <ele>252.7</ele>
        <time>2021-09-04T13:22:08Z</time>
      </trkpt>
      <trkpt lat="47.62461" lon="6.2335">
        <ele>253.1</ele>
        <time>2021-09-04T13:22:12Z</time>
      </trkpt>
      <trkpt lat="47.62461" lon="6.23343">
        <ele>253.2</ele>
        <time>2021-09-04T13:22:15Z</time>
      </trkpt>
      <trkpt lat="47.6246" lon="6.23336">
        <ele>253.1</ele>
        <time>2021-09-04T13:22:18Z</time>
      </trkpt>
      <trkpt lat="47.62459" lon="6.23329">
        <ele>253.5</ele>
        <time>2021-09-04T13:22:22Z</time>
      </trkpt>
      <trkpt lat="47.62457" lon="6.23321">
        <ele>253.8</ele>
        <time>2021-09-04T13:22:27Z</time>
      </trkpt>
      <trkpt lat="47.62455" lon="6.23314">
        <ele>254.3</ele>
        <time>2021-09-04T13:22:31Z</time>
      </trkpt>
      <trkpt lat="47.62454" lon="6.23306">
        <ele>254.5</ele>
        <time>2021-09-04T13:22:34Z</time>
      </trkpt>
      <trkpt lat="47.62453" lon="6.23299">
        <ele>254.7</ele>
        <time>2021-09-04T13:22:39Z</time>
      </trkpt>
      <trkpt lat="47.62453" lon="6.23291">
        <ele>254.8</ele>
        <time>2021-09-04T13:22:41Z</time>
      </trkpt>
      <trkpt lat="47.62451" lon="6.23284">
        <ele>255.2</ele>
        <time>2021-09-04T13:22:47Z</time>
      </trkpt>
      <trkpt lat="47.62449" lon="6.23277">
        <ele>255.6</ele>
        <time>2021-09-04T13:22:51Z</time>
      </trkpt>
      <trkpt lat="47.62445" lon="6.23273">
        <ele>256.3</ele>
        <time>2021-09-04T13:22:54Z</time>
      </trkpt>
      <trkpt lat="47.6244" lon="6.23271">
        <ele>257.2</ele>
        <time>2021-09-04T13:22:58Z</time>
      </trkpt>
      <trkpt lat="47.62436" lon="6.23265">
        <ele>257.9</ele>
        <time>2021-09-04T13:23:01Z</time>
      </trkpt>
      <trkpt lat="47.62434" lon="6.23259">
        <ele>258.2</ele>
        <time>2021-09-04T13:23:02Z</time>
      </trkpt>
      <trkpt lat="47.62433" lon="6.23252">
        <ele>258.3</ele>
        <time>2021-09-04T13:23:07Z</time>
      </trkpt>
      <trkpt lat="47.62433" lon="6.23244">
        <ele>258.2</ele>
        <time>2021-09-04T13:23:09Z</time>
      </trkpt>
      <trkpt lat="47.62433" lon="6.23237">
        <ele>258</ele>
        <time>2021-09-04T13:23:13Z</time>
      </trkpt>
      <trkpt lat="47.62432" lon="6.23228">
        <ele>257.9</ele>
        <time>2021-09-04T13:23:16Z</time>
      </trkpt>
      <trkpt lat="47.62432" lon="6.23221">
        <ele>257.7</ele>
        <time>2021-09-04T13:23:18Z</time>
      </trkpt>
      <trkpt lat="47.62433" lon="6.2321">
        <ele>257.3</ele>
        <time>2021-09-04T13:23:21Z</time>
      </trkpt>
      <trkpt lat="47.62434" lon="6.23199">
        <ele>256.9</ele>
        <time>2021-09-04T13:23:23Z</time>
      </trkpt>
      <trkpt lat="47.62435" lon="6.23188">
        <ele>256.5</ele>
        <time>2021-09-04T13:23:25Z</time>
      </trkpt>
      <trkpt lat="47.62435" lon="6.23181">
        <ele>256.3</ele>
        <time>2021-09-04T13:23:26Z</time>
      </trkpt>
      <trkpt lat="47.62435" lon="6.2317">
        <ele>256.1</ele>
        <time>2021-09-04T13:23:28Z</time>
      </trkpt>
      <trkpt lat="47.62436" lon="6.23161">
        <ele>256</ele>
        <time>2021-09-04T13:23:29Z</time>
      </trkpt>
      <trkpt lat="47.62435" lon="6.23154">
        <ele>256.1</ele>
        <time>2021-09-04T13:23:32Z</time>
      </trkpt>
      <trkpt lat="47.62435" lon="6.23146">
        <ele>256.1</ele>
        <time>2021-09-04T13:23:34Z</time>
      </trkpt>
      <trkpt lat="47.62435" lon="6.23135">
        <ele>256.1</ele>
        <time>2021-09-04T13:23:36Z</time>
      </trkpt>
      <trkpt lat="47.62436" lon="6.23124">
        <ele>256.1</ele>
        <time>2021-09-04T13:23:37Z</time>
      </trkpt>
      <trkpt lat="47.62437" lon="6.23117">
        <ele>256.1</ele>
        <time>2021-09-04T13:23:40Z</time>
      </trkpt>
      <trkpt lat="47.62438" lon="6.23107">
        <ele>256.1</ele>
        <time>2021-09-04T13:23:42Z</time>
      </trkpt>
      <trkpt lat="47.62438" lon="6.231">
        <ele>256.1</ele>
        <time>2021-09-04T13:23:44Z</time>
      </trkpt>
      <trkpt lat="47.62439" lon="6.23092">
        <ele>256.1</ele>
        <time>2021-09-04T13:23:46Z</time>
      </trkpt>
      <trkpt lat="47.62439" lon="6.23085">
        <ele>256.1</ele>
        <time>2021-09-04T13:23:48Z</time>
      </trkpt>
      <trkpt lat="47.62439" lon="6.23076">
        <ele>256</ele>
        <time>2021-09-04T13:23:50Z</time>
      </trkpt>
      <trkpt lat="47.62439" lon="6.23066">
        <ele>255.9</ele>
        <time>2021-09-04T13:23:53Z</time>
      </trkpt>
      <trkpt lat="47.62439" lon="6.23059">
        <ele>255.8</ele>
        <time>2021-09-04T13:23:55Z</time>
      </trkpt>
      <trkpt lat="47.62439" lon="6.23052">
        <ele>255.7</ele>
        <time>2021-09-04T13:23:57Z</time>
      </trkpt>
      <trkpt lat="47.62438" lon="6.23042">
        <ele>255.6</ele>
        <time>2021-09-04T13:24:00Z</time>
      </trkpt>
      <trkpt lat="47.62437" lon="6.23035">
        <ele>255.6</ele>
        <time>2021-09-04T13:24:01Z</time>
      </trkpt>
      <trkpt lat="47.62436" lon="6.23027">
        <ele>255.5</ele>
        <time>2021-09-04T13:24:04Z</time>
      </trkpt>
      <trkpt lat="47.62435" lon="6.23019">
        <ele>255.5</ele>
        <time>2021-09-04T13:24:06Z</time>
      </trkpt>
      <trkpt lat="47.62435" lon="6.23012">
        <ele>255.4</ele>
        <time>2021-09-04T13:24:08Z</time>
      </trkpt>
      <trkpt lat="47.62433" lon="6.23005">
        <ele>255.5</ele>
        <time>2021-09-04T13:24:10Z</time>
      </trkpt>
      <trkpt lat="47.62431" lon="6.22996">
        <ele>255.6</ele>
        <time>2021-09-04T13:24:12Z</time>
      </trkpt>
      <trkpt lat="47.62431" lon="6.22987">
        <ele>255.5</ele>
        <time>2021-09-04T13:24:16Z</time>
      </trkpt>
      <trkpt lat="47.6243" lon="6.22979">
        <ele>255.5</ele>
        <time>2021-09-04T13:24:18Z</time>
      </trkpt>
      <trkpt lat="47.6243" lon="6.22971">
        <ele>255.4</ele>
        <time>2021-09-04T13:24:20Z</time>
      </trkpt>
      <trkpt lat="47.62428" lon="6.22963">
        <ele>255.5</ele>
        <time>2021-09-04T13:24:23Z</time>
      </trkpt>
      <trkpt lat="47.62427" lon="6.22955">
        <ele>255.6</ele>
        <time>2021-09-04T13:24:26Z</time>
      </trkpt>
      <trkpt lat="47.62424" lon="6.22946">
        <ele>255.7</ele>
        <time>2021-09-04T13:24:29Z</time>
      </trkpt>
      <trkpt lat="47.62423" lon="6.22939">
        <ele>255.7</ele>
        <time>2021-09-04T13:24:31Z</time>
      </trkpt>
      <trkpt lat="47.62422" lon="6.2293">
        <ele>255.7</ele>
        <time>2021-09-04T13:24:33Z</time>
      </trkpt>
      <trkpt lat="47.6242" lon="6.22923">
        <ele>255.8</ele>
        <time>2021-09-04T13:24:37Z</time>
      </trkpt>
      <trkpt lat="47.6242" lon="6.22915">
        <ele>255.7</ele>
        <time>2021-09-04T13:24:41Z</time>
      </trkpt>
      <trkpt lat="47.62418" lon="6.22908">
        <ele>255.3</ele>
        <time>2021-09-04T13:24:44Z</time>
      </trkpt>
      <trkpt lat="47.62418" lon="6.22901">
        <ele>255</ele>
        <time>2021-09-04T13:24:48Z</time>
      </trkpt>
      <trkpt lat="47.62415" lon="6.22891">
        <ele>254.6</ele>
        <time>2021-09-04T13:24:49Z</time>
      </trkpt>
      <trkpt lat="47.62413" lon="6.22882">
        <ele>254</ele>
        <time>2021-09-04T13:24:51Z</time>
      </trkpt>
      <trkpt lat="47.62412" lon="6.22872">
        <ele>253.4</ele>
        <time>2021-09-04T13:24:54Z</time>
      </trkpt>
      <trkpt lat="47.62409" lon="6.22865">
        <ele>253</ele>
        <time>2021-09-04T13:24:55Z</time>
      </trkpt>
      <trkpt lat="47.62405" lon="6.22861">
        <ele>252.8</ele>
        <time>2021-09-04T13:24:58Z</time>
      </trkpt>
      <trkpt lat="47.62398" lon="6.22858">
        <ele>252.5</ele>
        <time>2021-09-04T13:25:00Z</time>
      </trkpt>
      <trkpt lat="47.62389" lon="6.22855">
        <ele>252.2</ele>
        <time>2021-09-04T13:25:02Z</time>
      </trkpt>
      <trkpt lat="47.62379" lon="6.22849">
        <ele>251.5</ele>
        <time>2021-09-04T13:25:04Z</time>
      </trkpt>
      <trkpt lat="47.62366" lon="6.22845">
        <ele>250.8</ele>
        <time>2021-09-04T13:25:05Z</time>
      </trkpt>
      <trkpt lat="47.62361" lon="6.22844">
        <ele>250.6</ele>
        <time>2021-09-04T13:25:06Z</time>
      </trkpt>
      <trkpt lat="47.62353" lon="6.22844">
        <ele>250.4</ele>
        <time>2021-09-04T13:25:09Z</time>
      </trkpt>
      <trkpt lat="47.6233" lon="6.22847">
        <ele>250.8</ele>
        <time>2021-09-04T13:25:12Z</time>
      </trkpt>
      <trkpt lat="47.62325" lon="6.22848">
        <ele>251.3</ele>
        <time>2021-09-04T13:25:13Z</time>
      </trkpt>
      <trkpt lat="47.62316" lon="6.22849">
        <ele>252.2</ele>
        <time>2021-09-04T13:25:14Z</time>
      </trkpt>
      <trkpt lat="47.62311" lon="6.22849">
        <ele>252.5</ele>
        <time>2021-09-04T13:25:15Z</time>
      </trkpt>
      <trkpt lat="47.62295" lon="6.2285">
        <ele>253.8</ele>
        <time>2021-09-04T13:25:16Z</time>
      </trkpt>
      <trkpt lat="47.62288" lon="6.2285">
        <ele>254.3</ele>
        <time>2021-09-04T13:25:18Z</time>
      </trkpt>
      <trkpt lat="47.62283" lon="6.22851">
        <ele>254.9</ele>
        <time>2021-09-04T13:25:19Z</time>
      </trkpt>
      <trkpt lat="47.62276" lon="6.22852">
        <ele>255.5</ele>
        <time>2021-09-04T13:25:20Z</time>
      </trkpt>
      <trkpt lat="47.62271" lon="6.22851">
        <ele>255.7</ele>
        <time>2021-09-04T13:25:21Z</time>
      </trkpt>
      <trkpt lat="47.62263" lon="6.22845">
        <ele>255</ele>
        <time>2021-09-04T13:25:23Z</time>
      </trkpt>
      <trkpt lat="47.62256" lon="6.22842">
        <ele>254.7</ele>
        <time>2021-09-04T13:25:25Z</time>
      </trkpt>
      <trkpt lat="47.62251" lon="6.2284">
        <ele>254.6</ele>
        <time>2021-09-04T13:25:26Z</time>
      </trkpt>
      <trkpt lat="47.62244" lon="6.22836">
        <ele>255</ele>
        <time>2021-09-04T13:25:28Z</time>
      </trkpt>
      <trkpt lat="47.62241" lon="6.22826">
        <ele>254</ele>
        <time>2021-09-04T13:25:29Z</time>
      </trkpt>
      <trkpt lat="47.62237" lon="6.22816">
        <ele>253.6</ele>
        <time>2021-09-04T13:25:32Z</time>
      </trkpt>
      <trkpt lat="47.62232" lon="6.22806">
        <ele>253.2</ele>
        <time>2021-09-04T13:25:34Z</time>
      </trkpt>
      <trkpt lat="47.62228" lon="6.22798">
        <ele>252.9</ele>
        <time>2021-09-04T13:25:35Z</time>
      </trkpt>
      <trkpt lat="47.62224" lon="6.22791">
        <ele>252.7</ele>
        <time>2021-09-04T13:25:36Z</time>
      </trkpt>
      <trkpt lat="47.62219" lon="6.2278">
        <ele>252.3</ele>
        <time>2021-09-04T13:25:38Z</time>
      </trkpt>
      <trkpt lat="47.62216" lon="6.22772">
        <ele>251.9</ele>
        <time>2021-09-04T13:25:39Z</time>
      </trkpt>
      <trkpt lat="47.62212" lon="6.22761">
        <ele>251.3</ele>
        <time>2021-09-04T13:25:41Z</time>
      </trkpt>
      <trkpt lat="47.62208" lon="6.22754">
        <ele>251</ele>
        <time>2021-09-04T13:25:42Z</time>
      </trkpt>
      <trkpt lat="47.62206" lon="6.22746">
        <ele>250.9</ele>
        <time>2021-09-04T13:25:43Z</time>
      </trkpt>
      <trkpt lat="47.62203" lon="6.22739">
        <ele>251.1</ele>
        <time>2021-09-04T13:25:45Z</time>
      </trkpt>
      <trkpt lat="47.622" lon="6.22732">
        <ele>251.5</ele>
        <time>2021-09-04T13:25:47Z</time>
      </trkpt>
      <trkpt lat="47.62197" lon="6.22725">
        <ele>251.5</ele>
        <time>2021-09-04T13:25:49Z</time>
      </trkpt>
      <trkpt lat="47.62195" lon="6.22717">
        <ele>251.6</ele>
        <time>2021-09-04T13:25:50Z</time>
      </trkpt>
      <trkpt lat="47.62194" lon="6.22708">
        <ele>251.2</ele>
        <time>2021-09-04T13:25:52Z</time>
      </trkpt>
      <trkpt lat="47.62192" lon="6.22699">
        <ele>250.9</ele>
        <time>2021-09-04T13:25:55Z</time>
      </trkpt>
      <trkpt lat="47.62191" lon="6.22691">
        <ele>250.6</ele>
        <time>2021-09-04T13:25:57Z</time>
      </trkpt>
      <trkpt lat="47.62188" lon="6.22675">
        <ele>250.1</ele>
        <time>2021-09-04T13:26:00Z</time>
      </trkpt>
      <trkpt lat="47.62186" lon="6.22665">
        <ele>249.9</ele>
        <time>2021-09-04T13:26:02Z</time>
      </trkpt>
      <trkpt lat="47.62184" lon="6.22657">
        <ele>250.4</ele>
        <time>2021-09-04T13:26:04Z</time>
      </trkpt>
      <trkpt lat="47.62182" lon="6.22651">
        <ele>250.9</ele>
        <time>2021-09-04T13:26:06Z</time>
      </trkpt>
      <trkpt lat="47.62179" lon="6.22645">
        <ele>251.5</ele>
        <time>2021-09-04T13:26:09Z</time>
      </trkpt>
      <trkpt lat="47.62175" lon="6.22642">
        <ele>252.6</ele>
        <time>2021-09-04T13:26:13Z</time>
      </trkpt>
      <trkpt lat="47.6217" lon="6.22637">
        <ele>253.6</ele>
        <time>2021-09-04T13:26:16Z</time>
      </trkpt>
      <trkpt lat="47.62166" lon="6.22634">
        <ele>254.6</ele>
        <time>2021-09-04T13:26:18Z</time>
      </trkpt>
      <trkpt lat="47.62161" lon="6.2263">
        <ele>255.6</ele>
        <time>2021-09-04T13:26:23Z</time>
      </trkpt>
      <trkpt lat="47.62158" lon="6.22624">
        <ele>256.4</ele>
        <time>2021-09-04T13:26:26Z</time>
      </trkpt>
      <trkpt lat="47.62156" lon="6.22616">
        <ele>256.9</ele>
        <time>2021-09-04T13:26:29Z</time>
      </trkpt>
      <trkpt lat="47.62155" lon="6.22607">
        <ele>257.5</ele>
        <time>2021-09-04T13:26:42Z</time>
      </trkpt>
      <trkpt lat="47.62155" lon="6.226">
        <ele>257.5</ele>
        <time>2021-09-04T13:26:47Z</time>
      </trkpt>
      <trkpt lat="47.62155" lon="6.22591">
        <ele>257.6</ele>
        <time>2021-09-04T13:26:53Z</time>
      </trkpt>
      <trkpt lat="47.62156" lon="6.22584">
        <ele>257.7</ele>
        <time>2021-09-04T13:27:12Z</time>
      </trkpt>
      <trkpt lat="47.62158" lon="6.22577">
        <ele>257.3</ele>
        <time>2021-09-04T13:27:18Z</time>
      </trkpt>
      <trkpt lat="47.62159" lon="6.22571">
        <ele>257.1</ele>
        <time>2021-09-04T13:27:23Z</time>
      </trkpt>
      <trkpt lat="47.62157" lon="6.22564">
        <ele>257.7</ele>
        <time>2021-09-04T13:27:29Z</time>
      </trkpt>
      <trkpt lat="47.62156" lon="6.22558">
        <ele>258.1</ele>
        <time>2021-09-04T13:28:12Z</time>
      </trkpt>
      <trkpt lat="47.62157" lon="6.2255">
        <ele>258.1</ele>
        <time>2021-09-04T13:28:18Z</time>
      </trkpt>
      <trkpt lat="47.62158" lon="6.22542">
        <ele>257.9</ele>
        <time>2021-09-04T13:28:22Z</time>
      </trkpt>
      <trkpt lat="47.62159" lon="6.22535">
        <ele>257.9</ele>
        <time>2021-09-04T13:28:27Z</time>
      </trkpt>
      <trkpt lat="47.62159" lon="6.22528">
        <ele>258.1</ele>
        <time>2021-09-04T13:28:31Z</time>
      </trkpt>
      <trkpt lat="47.62158" lon="6.22521">
        <ele>258.4</ele>
        <time>2021-09-04T13:28:34Z</time>
      </trkpt>
      <trkpt lat="47.62157" lon="6.22514">
        <ele>258.6</ele>
        <time>2021-09-04T13:28:39Z</time>
      </trkpt>
      <trkpt lat="47.62157" lon="6.22507">
        <ele>258.9</ele>
        <time>2021-09-04T13:28:44Z</time>
      </trkpt>
      <trkpt lat="47.62156" lon="6.225">
        <ele>259.2</ele>
        <time>2021-09-04T13:28:49Z</time>
      </trkpt>
      <trkpt lat="47.62156" lon="6.22493">
        <ele>258.9</ele>
        <time>2021-09-04T13:28:54Z</time>
      </trkpt>
      <trkpt lat="47.62156" lon="6.22486">
        <ele>258.7</ele>
        <time>2021-09-04T13:28:59Z</time>
      </trkpt>
      <trkpt lat="47.62158" lon="6.22479">
        <ele>258.2</ele>
        <time>2021-09-04T13:29:02Z</time>
      </trkpt>
      <trkpt lat="47.62158" lon="6.22472">
        <ele>258</ele>
        <time>2021-09-04T13:29:08Z</time>
      </trkpt>
      <trkpt lat="47.62157" lon="6.22465">
        <ele>258</ele>
        <time>2021-09-04T13:29:14Z</time>
      </trkpt>
      <trkpt lat="47.62157" lon="6.22457">
        <ele>257.9</ele>
        <time>2021-09-04T13:29:21Z</time>
      </trkpt>
      <trkpt lat="47.62156" lon="6.2245">
        <ele>257.8</ele>
        <time>2021-09-04T13:29:29Z</time>
      </trkpt>
      <trkpt lat="47.62153" lon="6.22445">
        <ele>258.1</ele>
        <time>2021-09-04T13:29:36Z</time>
      </trkpt>
      <trkpt lat="47.62149" lon="6.22439">
        <ele>258.6</ele>
        <time>2021-09-04T13:29:43Z</time>
      </trkpt>
      <trkpt lat="47.62145" lon="6.22435">
        <ele>259.3</ele>
        <time>2021-09-04T13:29:50Z</time>
      </trkpt>
      <trkpt lat="47.62142" lon="6.2243">
        <ele>259.5</ele>
        <time>2021-09-04T13:29:58Z</time>
      </trkpt>
      <trkpt lat="47.62139" lon="6.22426">
        <ele>260.1</ele>
        <time>2021-09-04T13:30:24Z</time>
      </trkpt>
      <trkpt lat="47.62135" lon="6.22419">
        <ele>260.4</ele>
        <time>2021-09-04T13:30:26Z</time>
      </trkpt>
      <trkpt lat="47.62131" lon="6.22413">
        <ele>261.2</ele>
        <time>2021-09-04T13:30:31Z</time>
      </trkpt>
      <trkpt lat="47.62126" lon="6.22409">
        <ele>262.1</ele>
        <time>2021-09-04T13:30:34Z</time>
      </trkpt>
      <trkpt lat="47.62121" lon="6.22405">
        <ele>262.9</ele>
        <time>2021-09-04T13:30:39Z</time>
      </trkpt>
      <trkpt lat="47.62118" lon="6.22401">
        <ele>263.7</ele>
        <time>2021-09-04T13:30:42Z</time>
      </trkpt>
      <trkpt lat="47.62114" lon="6.22395">
        <ele>264.4</ele>
        <time>2021-09-04T13:31:27Z</time>
      </trkpt>
      <trkpt lat="47.6211" lon="6.22389">
        <ele>265.2</ele>
        <time>2021-09-04T13:31:33Z</time>
      </trkpt>
      <trkpt lat="47.62109" lon="6.22379">
        <ele>265.6</ele>
        <time>2021-09-04T13:31:36Z</time>
      </trkpt>
      <trkpt lat="47.62107" lon="6.22372">
        <ele>266</ele>
        <time>2021-09-04T13:31:38Z</time>
      </trkpt>
      <trkpt lat="47.62103" lon="6.22366">
        <ele>266.8</ele>
        <time>2021-09-04T13:31:41Z</time>
      </trkpt>
      <trkpt lat="47.62098" lon="6.22361">
        <ele>267.6</ele>
        <time>2021-09-04T13:31:43Z</time>
      </trkpt>
      <trkpt lat="47.62094" lon="6.22358">
        <ele>268.2</ele>
        <time>2021-09-04T13:31:46Z</time>
      </trkpt>
      <trkpt lat="47.6209" lon="6.22354">
        <ele>268.9</ele>
        <time>2021-09-04T13:31:46Z</time>
      </trkpt>
      <trkpt lat="47.62085" lon="6.22347">
        <ele>269.6</ele>
        <time>2021-09-04T13:31:49Z</time>
      </trkpt>
      <trkpt lat="47.62082" lon="6.22341">
        <ele>270</ele>
        <time>2021-09-04T13:31:51Z</time>
      </trkpt>
      <trkpt lat="47.62079" lon="6.22334">
        <ele>270.1</ele>
        <time>2021-09-04T13:31:55Z</time>
      </trkpt>
      <trkpt lat="47.62075" lon="6.22327">
        <ele>270.3</ele>
        <time>2021-09-04T13:31:57Z</time>
      </trkpt>
      <trkpt lat="47.62071" lon="6.2232">
        <ele>270.5</ele>
        <time>2021-09-04T13:31:57Z</time>
      </trkpt>
      <trkpt lat="47.62065" lon="6.22313">
        <ele>270.7</ele>
        <time>2021-09-04T13:32:00Z</time>
      </trkpt>
      <trkpt lat="47.62062" lon="6.22309">
        <ele>270.8</ele>
        <time>2021-09-04T13:32:02Z</time>
      </trkpt>
      <trkpt lat="47.62057" lon="6.22303">
        <ele>270.9</ele>
        <time>2021-09-04T13:32:04Z</time>
      </trkpt>
      <trkpt lat="47.62054" lon="6.22297">
        <ele>271</ele>
        <time>2021-09-04T13:32:06Z</time>
      </trkpt>
      <trkpt lat="47.62049" lon="6.2229">
        <ele>271</ele>
        <time>2021-09-04T13:32:11Z</time>
      </trkpt>
      <trkpt lat="47.62046" lon="6.22284">
        <ele>271</ele>
        <time>2021-09-04T13:32:13Z</time>
      </trkpt>
      <trkpt lat="47.62042" lon="6.22276">
        <ele>271</ele>
        <time>2021-09-04T13:32:15Z</time>
      </trkpt>
      <trkpt lat="47.62038" lon="6.2227">
        <ele>271</ele>
        <time>2021-09-04T13:32:17Z</time>
      </trkpt>
      <trkpt lat="47.62035" lon="6.22265">
        <ele>270.9</ele>
        <time>2021-09-04T13:32:19Z</time>
      </trkpt>
      <trkpt lat="47.62032" lon="6.22259">
        <ele>270.8</ele>
        <time>2021-09-04T13:32:21Z</time>
      </trkpt>
      <trkpt lat="47.62029" lon="6.22253">
        <ele>270.7</ele>
        <time>2021-09-04T13:32:24Z</time>
      </trkpt>
      <trkpt lat="47.62025" lon="6.22248">
        <ele>270.6</ele>
        <time>2021-09-04T13:32:24Z</time>
      </trkpt>
      <trkpt lat="47.62022" lon="6.22243">
        <ele>270.4</ele>
        <time>2021-09-04T13:32:29Z</time>
      </trkpt>
      <trkpt lat="47.62017" lon="6.22237">
        <ele>270.2</ele>
        <time>2021-09-04T13:32:30Z</time>
      </trkpt>
      <trkpt lat="47.62012" lon="6.2223">
        <ele>270</ele>
        <time>2021-09-04T13:32:35Z</time>
      </trkpt>
      <trkpt lat="47.62009" lon="6.22225">
        <ele>269.9</ele>
        <time>2021-09-04T13:32:38Z</time>
      </trkpt>
      <trkpt lat="47.62005" lon="6.22218">
        <ele>269.7</ele>
        <time>2021-09-04T13:32:40Z</time>
      </trkpt>
      <trkpt lat="47.62003" lon="6.22213">
        <ele>269.6</ele>
        <time>2021-09-04T13:32:42Z</time>
      </trkpt>
      <trkpt lat="47.62" lon="6.22206">
        <ele>269.5</ele>
        <time>2021-09-04T13:32:44Z</time>
      </trkpt>
      <trkpt lat="47.61997" lon="6.22198">
        <ele>269.5</ele>
        <time>2021-09-04T13:32:46Z</time>
      </trkpt>
      <trkpt lat="47.61996" lon="6.22191">
        <ele>269.5</ele>
        <time>2021-09-04T13:32:48Z</time>
      </trkpt>
      <trkpt lat="47.61993" lon="6.22183">
        <ele>269.4</ele>
        <time>2021-09-04T13:32:51Z</time>
      </trkpt>
      <trkpt lat="47.6199" lon="6.22178">
        <ele>269.4</ele>
        <time>2021-09-04T13:32:53Z</time>
      </trkpt>
      <trkpt lat="47.61987" lon="6.22172">
        <ele>269.3</ele>
        <time>2021-09-04T13:32:56Z</time>
      </trkpt>
      <trkpt lat="47.61984" lon="6.22166">
        <ele>269.2</ele>
        <time>2021-09-04T13:32:59Z</time>
      </trkpt>
      <trkpt lat="47.61981" lon="6.22159">
        <ele>268.9</ele>
        <time>2021-09-04T13:33:01Z</time>
      </trkpt>
      <trkpt lat="47.61978" lon="6.22153">
        <ele>268.6</ele>
        <time>2021-09-04T13:33:03Z</time>
      </trkpt>
      <trkpt lat="47.61973" lon="6.22144">
        <ele>268.3</ele>
        <time>2021-09-04T13:33:05Z</time>
      </trkpt>
      <trkpt lat="47.61967" lon="6.22132">
        <ele>267.7</ele>
        <time>2021-09-04T13:33:05Z</time>
      </trkpt>
      <trkpt lat="47.61964" lon="6.22123">
        <ele>267.3</ele>
        <time>2021-09-04T13:33:09Z</time>
      </trkpt>
      <trkpt lat="47.61961" lon="6.22116">
        <ele>267.1</ele>
        <time>2021-09-04T13:33:10Z</time>
      </trkpt>
      <trkpt lat="47.6196" lon="6.2211">
        <ele>266.8</ele>
        <time>2021-09-04T13:33:11Z</time>
      </trkpt>
      <trkpt lat="47.61956" lon="6.221">
        <ele>266.3</ele>
        <time>2021-09-04T13:33:13Z</time>
      </trkpt>
      <trkpt lat="47.61953" lon="6.22092">
        <ele>266</ele>
        <time>2021-09-04T13:33:13Z</time>
      </trkpt>
      <trkpt lat="47.61951" lon="6.22083">
        <ele>265.6</ele>
        <time>2021-09-04T13:33:15Z</time>
      </trkpt>
      <trkpt lat="47.61947" lon="6.22075">
        <ele>265.4</ele>
        <time>2021-09-04T13:33:17Z</time>
      </trkpt>
      <trkpt lat="47.61942" lon="6.22067">
        <ele>265.2</ele>
        <time>2021-09-04T13:33:21Z</time>
      </trkpt>
      <trkpt lat="47.61939" lon="6.22061">
        <ele>265</ele>
        <time>2021-09-04T13:33:23Z</time>
      </trkpt>
      <trkpt lat="47.61935" lon="6.22052">
        <ele>264.7</ele>
        <time>2021-09-04T13:33:25Z</time>
      </trkpt>
      <trkpt lat="47.61931" lon="6.22044">
        <ele>264.5</ele>
        <time>2021-09-04T13:33:27Z</time>
      </trkpt>
      <trkpt lat="47.61927" lon="6.22035">
        <ele>264.2</ele>
        <time>2021-09-04T13:33:29Z</time>
      </trkpt>
      <trkpt lat="47.61918" lon="6.22019">
        <ele>263.7</ele>
        <time>2021-09-04T13:33:30Z</time>
      </trkpt>
      <trkpt lat="47.61914" lon="6.22013">
        <ele>263.6</ele>
        <time>2021-09-04T13:33:34Z</time>
      </trkpt>
      <trkpt lat="47.61906" lon="6.21997">
        <ele>263.5</ele>
        <time>2021-09-04T13:33:35Z</time>
      </trkpt>
      <trkpt lat="47.61902" lon="6.2199">
        <ele>263.5</ele>
        <time>2021-09-04T13:33:37Z</time>
      </trkpt>
      <trkpt lat="47.61899" lon="6.21983">
        <ele>263.4</ele>
        <time>2021-09-04T13:33:39Z</time>
      </trkpt>
      <trkpt lat="47.61896" lon="6.21978">
        <ele>263.3</ele>
        <time>2021-09-04T13:33:43Z</time>
      </trkpt>
      <trkpt lat="47.61891" lon="6.21969">
        <ele>263.1</ele>
        <time>2021-09-04T13:33:43Z</time>
      </trkpt>
      <trkpt lat="47.61887" lon="6.21965">
        <ele>263</ele>
        <time>2021-09-04T13:33:47Z</time>
      </trkpt>
      <trkpt lat="47.61882" lon="6.21957">
        <ele>262.9</ele>
        <time>2021-09-04T13:33:49Z</time>
      </trkpt>
      <trkpt lat="47.61879" lon="6.21952">
        <ele>262.7</ele>
        <time>2021-09-04T13:33:51Z</time>
      </trkpt>
      <trkpt lat="47.61875" lon="6.21943">
        <ele>262.4</ele>
        <time>2021-09-04T13:33:53Z</time>
      </trkpt>
      <trkpt lat="47.61871" lon="6.21936">
        <ele>262.2</ele>
        <time>2021-09-04T13:33:55Z</time>
      </trkpt>
      <trkpt lat="47.61868" lon="6.21931">
        <ele>262</ele>
        <time>2021-09-04T13:33:57Z</time>
      </trkpt>
      <trkpt lat="47.61865" lon="6.21922">
        <ele>261.6</ele>
        <time>2021-09-04T13:33:59Z</time>
      </trkpt>
      <trkpt lat="47.61862" lon="6.21915">
        <ele>261.3</ele>
        <time>2021-09-04T13:34:01Z</time>
      </trkpt>
      <trkpt lat="47.61859" lon="6.21905">
        <ele>261</ele>
        <time>2021-09-04T13:34:03Z</time>
      </trkpt>
      <trkpt lat="47.61856" lon="6.21895">
        <ele>260.8</ele>
        <time>2021-09-04T13:34:05Z</time>
      </trkpt>
      <trkpt lat="47.61852" lon="6.21882">
        <ele>260.4</ele>
        <time>2021-09-04T13:34:07Z</time>
      </trkpt>
      <trkpt lat="47.61849" lon="6.21872">
        <ele>260.1</ele>
        <time>2021-09-04T13:34:09Z</time>
      </trkpt>
      <trkpt lat="47.61845" lon="6.21865">
        <ele>259.9</ele>
        <time>2021-09-04T13:34:10Z</time>
      </trkpt>
      <trkpt lat="47.61838" lon="6.21853">
        <ele>259.6</ele>
        <time>2021-09-04T13:34:12Z</time>
      </trkpt>
      <trkpt lat="47.61834" lon="6.21846">
        <ele>259.4</ele>
        <time>2021-09-04T13:34:13Z</time>
      </trkpt>
      <trkpt lat="47.6183" lon="6.2184">
        <ele>259.4</ele>
        <time>2021-09-04T13:34:14Z</time>
      </trkpt>
      <trkpt lat="47.61827" lon="6.21834">
        <ele>259.3</ele>
        <time>2021-09-04T13:34:15Z</time>
      </trkpt>
      <trkpt lat="47.61817" lon="6.21818">
        <ele>258.9</ele>
        <time>2021-09-04T13:34:15Z</time>
      </trkpt>
      <trkpt lat="47.61813" lon="6.21812">
        <ele>258.7</ele>
        <time>2021-09-04T13:34:16Z</time>
      </trkpt>
      <trkpt lat="47.61809" lon="6.21806">
        <ele>258.6</ele>
        <time>2021-09-04T13:34:17Z</time>
      </trkpt>
      <trkpt lat="47.61806" lon="6.21801">
        <ele>258.4</ele>
        <time>2021-09-04T13:34:18Z</time>
      </trkpt>
      <trkpt lat="47.61802" lon="6.21796">
        <ele>258.3</ele>
        <time>2021-09-04T13:34:19Z</time>
      </trkpt>
      <trkpt lat="47.61798" lon="6.21791">
        <ele>258.2</ele>
        <time>2021-09-04T13:34:20Z</time>
      </trkpt>
      <trkpt lat="47.61795" lon="6.21787">
        <ele>258.2</ele>
        <time>2021-09-04T13:34:21Z</time>
      </trkpt>
      <trkpt lat="47.61791" lon="6.21782">
        <ele>258.1</ele>
        <time>2021-09-04T13:34:22Z</time>
      </trkpt>
      <trkpt lat="47.61787" lon="6.21777">
        <ele>257.9</ele>
        <time>2021-09-04T13:34:23Z</time>
      </trkpt>
      <trkpt lat="47.61784" lon="6.21772">
        <ele>257.8</ele>
        <time>2021-09-04T13:34:24Z</time>
      </trkpt>
      <trkpt lat="47.61781" lon="6.21766">
        <ele>257.7</ele>
        <time>2021-09-04T13:34:25Z</time>
      </trkpt>
      <trkpt lat="47.61777" lon="6.21761">
        <ele>257.6</ele>
        <time>2021-09-04T13:34:26Z</time>
      </trkpt>
      <trkpt lat="47.61774" lon="6.21756">
        <ele>257.4</ele>
        <time>2021-09-04T13:34:27Z</time>
      </trkpt>
      <trkpt lat="47.6177" lon="6.21751">
        <ele>257.3</ele>
        <time>2021-09-04T13:34:28Z</time>
      </trkpt>
      <trkpt lat="47.61767" lon="6.21746">
        <ele>257.3</ele>
        <time>2021-09-04T13:34:29Z</time>
      </trkpt>
      <trkpt lat="47.61763" lon="6.21742">
        <ele>257.3</ele>
        <time>2021-09-04T13:34:30Z</time>
      </trkpt>
      <trkpt lat="47.6176" lon="6.21737">
        <ele>257.3</ele>
        <time>2021-09-04T13:34:31Z</time>
      </trkpt>
      <trkpt lat="47.61757" lon="6.21732">
        <ele>257.4</ele>
        <time>2021-09-04T13:34:32Z</time>
      </trkpt>
      <trkpt lat="47.61751" lon="6.21724">
        <ele>257.6</ele>
        <time>2021-09-04T13:34:34Z</time>
      </trkpt>
      <trkpt lat="47.61745" lon="6.21715">
        <ele>257.7</ele>
        <time>2021-09-04T13:34:36Z</time>
      </trkpt>
      <trkpt lat="47.6174" lon="6.21709">
        <ele>257.8</ele>
        <time>2021-09-04T13:34:38Z</time>
      </trkpt>
      <trkpt lat="47.61735" lon="6.21701">
        <ele>257.8</ele>
        <time>2021-09-04T13:34:40Z</time>
      </trkpt>
      <trkpt lat="47.6173" lon="6.21693">
        <ele>257.9</ele>
        <time>2021-09-04T13:34:42Z</time>
      </trkpt>
      <trkpt lat="47.61725" lon="6.21685">
        <ele>257.9</ele>
        <time>2021-09-04T13:34:48Z</time>
      </trkpt>
      <trkpt lat="47.61721" lon="6.21678">
        <ele>257.9</ele>
        <time>2021-09-04T13:34:49Z</time>
      </trkpt>
      <trkpt lat="47.61718" lon="6.2167">
        <ele>257.8</ele>
        <time>2021-09-04T13:34:50Z</time>
      </trkpt>
      <trkpt lat="47.61714" lon="6.2166">
        <ele>257.8</ele>
        <time>2021-09-04T13:34:52Z</time>
      </trkpt>
      <trkpt lat="47.61709" lon="6.21649">
        <ele>257.8</ele>
        <time>2021-09-04T13:34:54Z</time>
      </trkpt>
      <trkpt lat="47.61704" lon="6.21639">
        <ele>257.8</ele>
        <time>2021-09-04T13:34:56Z</time>
      </trkpt>
      <trkpt lat="47.61697" lon="6.21623">
        <ele>257.8</ele>
        <time>2021-09-04T13:34:59Z</time>
      </trkpt>
      <trkpt lat="47.61693" lon="6.21614">
        <ele>257.7</ele>
        <time>2021-09-04T13:35:01Z</time>
      </trkpt>
      <trkpt lat="47.61687" lon="6.216">
        <ele>257.7</ele>
        <time>2021-09-04T13:35:04Z</time>
      </trkpt>
      <trkpt lat="47.61685" lon="6.21593">
        <ele>257.7</ele>
        <time>2021-09-04T13:35:05Z</time>
      </trkpt>
      <trkpt lat="47.61682" lon="6.21587">
        <ele>257.7</ele>
        <time>2021-09-04T13:35:06Z</time>
      </trkpt>
      <trkpt lat="47.61679" lon="6.21579">
        <ele>257.7</ele>
        <time>2021-09-04T13:35:07Z</time>
      </trkpt>
      <trkpt lat="47.61675" lon="6.2157">
        <ele>257.8</ele>
        <time>2021-09-04T13:35:09Z</time>
      </trkpt>
      <trkpt lat="47.61672" lon="6.21562">
        <ele>257.9</ele>
        <time>2021-09-04T13:35:10Z</time>
      </trkpt>
      <trkpt lat="47.61665" lon="6.21545">
        <ele>258</ele>
        <time>2021-09-04T13:35:10Z</time>
      </trkpt>
      <trkpt lat="47.61663" lon="6.21538">
        <ele>258.1</ele>
        <time>2021-09-04T13:35:11Z</time>
      </trkpt>
      <trkpt lat="47.6166" lon="6.21532">
        <ele>258.1</ele>
        <time>2021-09-04T13:35:12Z</time>
      </trkpt>
      <trkpt lat="47.61658" lon="6.21525">
        <ele>258.1</ele>
        <time>2021-09-04T13:35:13Z</time>
      </trkpt>
      <trkpt lat="47.61655" lon="6.21519">
        <ele>258.1</ele>
        <time>2021-09-04T13:35:14Z</time>
      </trkpt>
      <trkpt lat="47.61651" lon="6.21507">
        <ele>258.1</ele>
        <time>2021-09-04T13:35:16Z</time>
      </trkpt>
      <trkpt lat="47.61647" lon="6.21496">
        <ele>257.9</ele>
        <time>2021-09-04T13:35:18Z</time>
      </trkpt>
      <trkpt lat="47.61643" lon="6.21486">
        <ele>257.5</ele>
        <time>2021-09-04T13:35:20Z</time>
      </trkpt>
      <trkpt lat="47.61639" lon="6.21476">
        <ele>257.1</ele>
        <time>2021-09-04T13:35:22Z</time>
      </trkpt>
      <trkpt lat="47.61634" lon="6.21467">
        <ele>256.8</ele>
        <time>2021-09-04T13:35:24Z</time>
      </trkpt>
      <trkpt lat="47.6163" lon="6.21458">
        <ele>256.5</ele>
        <time>2021-09-04T13:35:26Z</time>
      </trkpt>
      <trkpt lat="47.61626" lon="6.2145">
        <ele>256.2</ele>
        <time>2021-09-04T13:35:30Z</time>
      </trkpt>
      <trkpt lat="47.61614" lon="6.21435">
        <ele>255.7</ele>
        <time>2021-09-04T13:35:30Z</time>
      </trkpt>
      <trkpt lat="47.6161" lon="6.2143">
        <ele>255.5</ele>
        <time>2021-09-04T13:35:31Z</time>
      </trkpt>
      <trkpt lat="47.61605" lon="6.21424">
        <ele>255.3</ele>
        <time>2021-09-04T13:35:32Z</time>
      </trkpt>
      <trkpt lat="47.61601" lon="6.2142">
        <ele>255.1</ele>
        <time>2021-09-04T13:35:33Z</time>
      </trkpt>
      <trkpt lat="47.61595" lon="6.21415">
        <ele>254.9</ele>
        <time>2021-09-04T13:35:34Z</time>
      </trkpt>
      <trkpt lat="47.6159" lon="6.2141">
        <ele>254.8</ele>
        <time>2021-09-04T13:35:35Z</time>
      </trkpt>
      <trkpt lat="47.61585" lon="6.21405">
        <ele>254.6</ele>
        <time>2021-09-04T13:35:36Z</time>
      </trkpt>
      <trkpt lat="47.6158" lon="6.214">
        <ele>254.5</ele>
        <time>2021-09-04T13:35:37Z</time>
      </trkpt>
      <trkpt lat="47.61575" lon="6.21396">
        <ele>254.5</ele>
        <time>2021-09-04T13:35:38Z</time>
      </trkpt>
      <trkpt lat="47.6157" lon="6.21391">
        <ele>254.5</ele>
        <time>2021-09-04T13:35:39Z</time>
      </trkpt>
      <trkpt lat="47.61565" lon="6.21386">
        <ele>254.5</ele>
        <time>2021-09-04T13:35:40Z</time>
      </trkpt>
      <trkpt lat="47.6156" lon="6.21381">
        <ele>254.5</ele>
        <time>2021-09-04T13:35:41Z</time>
      </trkpt>
      <trkpt lat="47.61556" lon="6.21376">
        <ele>254.6</ele>
        <time>2021-09-04T13:35:42Z</time>
      </trkpt>
      <trkpt lat="47.61551" lon="6.21372">
        <ele>254.6</ele>
        <time>2021-09-04T13:35:43Z</time>
      </trkpt>
      <trkpt lat="47.61546" lon="6.21367">
        <ele>254.5</ele>
        <time>2021-09-04T13:35:44Z</time>
      </trkpt>
      <trkpt lat="47.61541" lon="6.21362">
        <ele>254.5</ele>
        <time>2021-09-04T13:35:45Z</time>
      </trkpt>
      <trkpt lat="47.61537" lon="6.21357">
        <ele>254.5</ele>
        <time>2021-09-04T13:35:46Z</time>
      </trkpt>
      <trkpt lat="47.61532" lon="6.21352">
        <ele>254.5</ele>
        <time>2021-09-04T13:35:47Z</time>
      </trkpt>
      <trkpt lat="47.61528" lon="6.21348">
        <ele>254.5</ele>
        <time>2021-09-04T13:35:48Z</time>
      </trkpt>
      <trkpt lat="47.61523" lon="6.21343">
        <ele>254.5</ele>
        <time>2021-09-04T13:35:49Z</time>
      </trkpt>
      <trkpt lat="47.61519" lon="6.21338">
        <ele>254.5</ele>
        <time>2021-09-04T13:35:50Z</time>
      </trkpt>
      <trkpt lat="47.61514" lon="6.21332">
        <ele>254.4</ele>
        <time>2021-09-04T13:35:51Z</time>
      </trkpt>
      <trkpt lat="47.6151" lon="6.21327">
        <ele>254.3</ele>
        <time>2021-09-04T13:35:52Z</time>
      </trkpt>
      <trkpt lat="47.61506" lon="6.21321">
        <ele>254.2</ele>
        <time>2021-09-04T13:35:53Z</time>
      </trkpt>
      <trkpt lat="47.61501" lon="6.21316">
        <ele>254.1</ele>
        <time>2021-09-04T13:35:54Z</time>
      </trkpt>
      <trkpt lat="47.61497" lon="6.21311">
        <ele>254.1</ele>
        <time>2021-09-04T13:35:55Z</time>
      </trkpt>
      <trkpt lat="47.61493" lon="6.21307">
        <ele>254.1</ele>
        <time>2021-09-04T13:35:56Z</time>
      </trkpt>
      <trkpt lat="47.6149" lon="6.21303">
        <ele>254.2</ele>
        <time>2021-09-04T13:35:57Z</time>
      </trkpt>
      <trkpt lat="47.61483" lon="6.21294">
        <ele>254.2</ele>
        <time>2021-09-04T13:35:59Z</time>
      </trkpt>
      <trkpt lat="47.61477" lon="6.21287">
        <ele>254.3</ele>
        <time>2021-09-04T13:36:01Z</time>
      </trkpt>
      <trkpt lat="47.61471" lon="6.2128">
        <ele>254.4</ele>
        <time>2021-09-04T13:36:03Z</time>
      </trkpt>
      <trkpt lat="47.61465" lon="6.21273">
        <ele>254.5</ele>
        <time>2021-09-04T13:36:05Z</time>
      </trkpt>
      <trkpt lat="47.61458" lon="6.21267">
        <ele>254.7</ele>
        <time>2021-09-04T13:36:07Z</time>
      </trkpt>
      <trkpt lat="47.61453" lon="6.21261">
        <ele>254.8</ele>
        <time>2021-09-04T13:36:09Z</time>
      </trkpt>
      <trkpt lat="47.61447" lon="6.21254">
        <ele>255</ele>
        <time>2021-09-04T13:36:11Z</time>
      </trkpt>
      <trkpt lat="47.61441" lon="6.21248">
        <ele>255.1</ele>
        <time>2021-09-04T13:36:13Z</time>
      </trkpt>
      <trkpt lat="47.61437" lon="6.2124">
        <ele>254.9</ele>
        <time>2021-09-04T13:36:17Z</time>
      </trkpt>
      <trkpt lat="47.61433" lon="6.21234">
        <ele>254.8</ele>
        <time>2021-09-04T13:36:18Z</time>
      </trkpt>
      <trkpt lat="47.61427" lon="6.2123">
        <ele>255</ele>
        <time>2021-09-04T13:36:20Z</time>
      </trkpt>
      <trkpt lat="47.61422" lon="6.21226">
        <ele>255.1</ele>
        <time>2021-09-04T13:36:21Z</time>
      </trkpt>
      <trkpt lat="47.61414" lon="6.21218">
        <ele>255.2</ele>
        <time>2021-09-04T13:36:21Z</time>
      </trkpt>
      <trkpt lat="47.61408" lon="6.21212">
        <ele>255</ele>
        <time>2021-09-04T13:36:25Z</time>
      </trkpt>
      <trkpt lat="47.61404" lon="6.21206">
        <ele>254.9</ele>
        <time>2021-09-04T13:36:27Z</time>
      </trkpt>
      <trkpt lat="47.61397" lon="6.21198">
        <ele>254.8</ele>
        <time>2021-09-04T13:36:27Z</time>
      </trkpt>
      <trkpt lat="47.61391" lon="6.21191">
        <ele>254.8</ele>
        <time>2021-09-04T13:36:31Z</time>
      </trkpt>
      <trkpt lat="47.61386" lon="6.21186">
        <ele>254.8</ele>
        <time>2021-09-04T13:36:33Z</time>
      </trkpt>
      <trkpt lat="47.61374" lon="6.21176">
        <ele>255</ele>
        <time>2021-09-04T13:36:34Z</time>
      </trkpt>
      <trkpt lat="47.61368" lon="6.21172">
        <ele>255.1</ele>
        <time>2021-09-04T13:36:38Z</time>
      </trkpt>
      <trkpt lat="47.61358" lon="6.21156">
        <ele>254.8</ele>
        <time>2021-09-04T13:36:39Z</time>
      </trkpt>
      <trkpt lat="47.61353" lon="6.21148">
        <ele>254.6</ele>
        <time>2021-09-04T13:36:41Z</time>
      </trkpt>
      <trkpt lat="47.61348" lon="6.21141">
        <ele>254.6</ele>
        <time>2021-09-04T13:36:45Z</time>
      </trkpt>
      <trkpt lat="47.61343" lon="6.21136">
        <ele>254.7</ele>
        <time>2021-09-04T13:36:47Z</time>
      </trkpt>
      <trkpt lat="47.61337" lon="6.21129">
        <ele>254.9</ele>
        <time>2021-09-04T13:36:49Z</time>
      </trkpt>
      <trkpt lat="47.61332" lon="6.21125">
        <ele>255</ele>
        <time>2021-09-04T13:36:51Z</time>
      </trkpt>
      <trkpt lat="47.61326" lon="6.21118">
        <ele>254.9</ele>
        <time>2021-09-04T13:36:51Z</time>
      </trkpt>
      <trkpt lat="47.6132" lon="6.21112">
        <ele>254.8</ele>
        <time>2021-09-04T13:36:56Z</time>
      </trkpt>
      <trkpt lat="47.61314" lon="6.21107">
        <ele>254.7</ele>
        <time>2021-09-04T13:36:58Z</time>
      </trkpt>
      <trkpt lat="47.61305" lon="6.21098">
        <ele>254.6</ele>
        <time>2021-09-04T13:37:01Z</time>
      </trkpt>
      <trkpt lat="47.61296" lon="6.21095">
        <ele>254.8</ele>
        <time>2021-09-04T13:37:03Z</time>
      </trkpt>
      <trkpt lat="47.61291" lon="6.21097">
        <ele>255</ele>
        <time>2021-09-04T13:37:04Z</time>
      </trkpt>
      <trkpt lat="47.61286" lon="6.21103">
        <ele>255.4</ele>
        <time>2021-09-04T13:37:06Z</time>
      </trkpt>
      <trkpt lat="47.61282" lon="6.2111">
        <ele>255.7</ele>
        <time>2021-09-04T13:37:08Z</time>
      </trkpt>
      <trkpt lat="47.61277" lon="6.21118">
        <ele>256.1</ele>
        <time>2021-09-04T13:37:08Z</time>
      </trkpt>
      <trkpt lat="47.61272" lon="6.21117">
        <ele>256.2</ele>
        <time>2021-09-04T13:37:10Z</time>
      </trkpt>
      <trkpt lat="47.6127" lon="6.2111">
        <ele>256.1</ele>
        <time>2021-09-04T13:37:12Z</time>
      </trkpt>
      <trkpt lat="47.6127" lon="6.21102">
        <ele>255.8</ele>
        <time>2021-09-04T13:37:14Z</time>
      </trkpt>
      <trkpt lat="47.61268" lon="6.21094">
        <ele>255.7</ele>
        <time>2021-09-04T13:37:16Z</time>
      </trkpt>
      <trkpt lat="47.61266" lon="6.21085">
        <ele>255.5</ele>
        <time>2021-09-04T13:37:18Z</time>
      </trkpt>
      <trkpt lat="47.61263" lon="6.21076">
        <ele>255.7</ele>
        <time>2021-09-04T13:37:20Z</time>
      </trkpt>
      <trkpt lat="47.6126" lon="6.21066">
        <ele>256</ele>
        <time>2021-09-04T13:37:22Z</time>
      </trkpt>
      <trkpt lat="47.61258" lon="6.21056">
        <ele>256.4</ele>
        <time>2021-09-04T13:37:24Z</time>
      </trkpt>
      <trkpt lat="47.61255" lon="6.21044">
        <ele>256.9</ele>
        <time>2021-09-04T13:37:26Z</time>
      </trkpt>
      <trkpt lat="47.61254" lon="6.21033">
        <ele>257.4</ele>
        <time>2021-09-04T13:37:28Z</time>
      </trkpt>
      <trkpt lat="47.61254" lon="6.21021">
        <ele>257.8</ele>
        <time>2021-09-04T13:37:30Z</time>
      </trkpt>
      <trkpt lat="47.61254" lon="6.21015">
        <ele>257.9</ele>
        <time>2021-09-04T13:37:31Z</time>
      </trkpt>
      <trkpt lat="47.61255" lon="6.21005">
        <ele>258</ele>
        <time>2021-09-04T13:37:33Z</time>
      </trkpt>
      <trkpt lat="47.61258" lon="6.20997">
        <ele>258</ele>
        <time>2021-09-04T13:37:35Z</time>
      </trkpt>
      <trkpt lat="47.61261" lon="6.2099">
        <ele>258.1</ele>
        <time>2021-09-04T13:37:37Z</time>
      </trkpt>
      <trkpt lat="47.61264" lon="6.20984">
        <ele>257.9</ele>
        <time>2021-09-04T13:37:39Z</time>
      </trkpt>
      <trkpt lat="47.61268" lon="6.20978">
        <ele>257.6</ele>
        <time>2021-09-04T13:37:41Z</time>
      </trkpt>
      <trkpt lat="47.61272" lon="6.20973">
        <ele>257.1</ele>
        <time>2021-09-04T13:37:43Z</time>
      </trkpt>
      <trkpt lat="47.61275" lon="6.20968">
        <ele>256.7</ele>
        <time>2021-09-04T13:37:45Z</time>
      </trkpt>
      <trkpt lat="47.6127" lon="6.20972">
        <ele>257.6</ele>
        <time>2021-09-04T13:37:53Z</time>
      </trkpt>
      <trkpt lat="47.61266" lon="6.20978">
        <ele>258</ele>
        <time>2021-09-04T13:37:55Z</time>
      </trkpt>
      <trkpt lat="47.61262" lon="6.20986">
        <ele>258.2</ele>
        <time>2021-09-04T13:37:57Z</time>
      </trkpt>
      <trkpt lat="47.61259" lon="6.20993">
        <ele>258.2</ele>
        <time>2021-09-04T13:37:59Z</time>
      </trkpt>
      <trkpt lat="47.61256" lon="6.21001">
        <ele>258.1</ele>
        <time>2021-09-04T13:38:01Z</time>
      </trkpt>
      <trkpt lat="47.61254" lon="6.2101">
        <ele>258</ele>
        <time>2021-09-04T13:38:03Z</time>
      </trkpt>
      <trkpt lat="47.61253" lon="6.21021">
        <ele>257.9</ele>
        <time>2021-09-04T13:38:05Z</time>
      </trkpt>
      <trkpt lat="47.61253" lon="6.21032">
        <ele>257.5</ele>
        <time>2021-09-04T13:38:07Z</time>
      </trkpt>
      <trkpt lat="47.61254" lon="6.21044">
        <ele>257.1</ele>
        <time>2021-09-04T13:38:09Z</time>
      </trkpt>
      <trkpt lat="47.61256" lon="6.21055">
        <ele>256.6</ele>
        <time>2021-09-04T13:38:11Z</time>
      </trkpt>
      <trkpt lat="47.61258" lon="6.21065">
        <ele>256.2</ele>
        <time>2021-09-04T13:38:13Z</time>
      </trkpt>
      <trkpt lat="47.6126" lon="6.21074">
        <ele>255.8</ele>
        <time>2021-09-04T13:38:15Z</time>
      </trkpt>
      <trkpt lat="47.61263" lon="6.21083">
        <ele>255.5</ele>
        <time>2021-09-04T13:38:17Z</time>
      </trkpt>
      <trkpt lat="47.61266" lon="6.2109">
        <ele>255.6</ele>
        <time>2021-09-04T13:38:19Z</time>
      </trkpt>
      <trkpt lat="47.61269" lon="6.21098">
        <ele>255.8</ele>
        <time>2021-09-04T13:38:21Z</time>
      </trkpt>
      <trkpt lat="47.61271" lon="6.21106">
        <ele>255.9</ele>
        <time>2021-09-04T13:38:23Z</time>
      </trkpt>
      <trkpt lat="47.61274" lon="6.21114">
        <ele>256.1</ele>
        <time>2021-09-04T13:38:25Z</time>
      </trkpt>
      <trkpt lat="47.61277" lon="6.21121">
        <ele>256.2</ele>
        <time>2021-09-04T13:38:27Z</time>
      </trkpt>
      <trkpt lat="47.61276" lon="6.21128">
        <ele>256.5</ele>
        <time>2021-09-04T13:38:29Z</time>
      </trkpt>
      <trkpt lat="47.61271" lon="6.21132">
        <ele>256.7</ele>
        <time>2021-09-04T13:38:31Z</time>
      </trkpt>
      <trkpt lat="47.61266" lon="6.21139">
        <ele>257</ele>
        <time>2021-09-04T13:38:33Z</time>
      </trkpt>
      <trkpt lat="47.61261" lon="6.21145">
        <ele>257.3</ele>
        <time>2021-09-04T13:38:35Z</time>
      </trkpt>
      <trkpt lat="47.61255" lon="6.2115">
        <ele>257.5</ele>
        <time>2021-09-04T13:38:37Z</time>
      </trkpt>
      <trkpt lat="47.61251" lon="6.21154">
        <ele>257.7</ele>
        <time>2021-09-04T13:38:39Z</time>
      </trkpt>
      <trkpt lat="47.61246" lon="6.21156">
        <ele>257.9</ele>
        <time>2021-09-04T13:38:41Z</time>
      </trkpt>
      <trkpt lat="47.61242" lon="6.21154">
        <ele>258.2</ele>
        <time>2021-09-04T13:38:43Z</time>
      </trkpt>
      <trkpt lat="47.61237" lon="6.21151">
        <ele>258.4</ele>
        <time>2021-09-04T13:38:45Z</time>
      </trkpt>
      <trkpt lat="47.61231" lon="6.21146">
        <ele>258.6</ele>
        <time>2021-09-04T13:38:48Z</time>
      </trkpt>
      <trkpt lat="47.61227" lon="6.21143">
        <ele>258.8</ele>
        <time>2021-09-04T13:38:50Z</time>
      </trkpt>
      <trkpt lat="47.6122" lon="6.21138">
        <ele>259</ele>
        <time>2021-09-04T13:38:53Z</time>
      </trkpt>
      <trkpt lat="47.61215" lon="6.21134">
        <ele>259.2</ele>
        <time>2021-09-04T13:38:57Z</time>
      </trkpt>
      <trkpt lat="47.61209" lon="6.2113">
        <ele>259.3</ele>
        <time>2021-09-04T13:39:00Z</time>
      </trkpt>
      <trkpt lat="47.61204" lon="6.21125">
        <ele>259.5</ele>
        <time>2021-09-04T13:39:02Z</time>
      </trkpt>
      <trkpt lat="47.61199" lon="6.21121">
        <ele>259.6</ele>
        <time>2021-09-04T13:39:04Z</time>
      </trkpt>
      <trkpt lat="47.61193" lon="6.21116">
        <ele>259.8</ele>
        <time>2021-09-04T13:39:06Z</time>
      </trkpt>
      <trkpt lat="47.61187" lon="6.21111">
        <ele>259.9</ele>
        <time>2021-09-04T13:39:08Z</time>
      </trkpt>
      <trkpt lat="47.61183" lon="6.21107">
        <ele>260</ele>
        <time>2021-09-04T13:39:09Z</time>
      </trkpt>
      <trkpt lat="47.61178" lon="6.21104">
        <ele>260.2</ele>
        <time>2021-09-04T13:39:10Z</time>
      </trkpt>
      <trkpt lat="47.61172" lon="6.21099">
        <ele>260.3</ele>
        <time>2021-09-04T13:39:12Z</time>
      </trkpt>
      <trkpt lat="47.61163" lon="6.21091">
        <ele>260.5</ele>
        <time>2021-09-04T13:39:14Z</time>
      </trkpt>
      <trkpt lat="47.61155" lon="6.21084">
        <ele>260.7</ele>
        <time>2021-09-04T13:39:14Z</time>
      </trkpt>
      <trkpt lat="47.61148" lon="6.21078">
        <ele>261.3</ele>
        <time>2021-09-04T13:39:18Z</time>
      </trkpt>
      <trkpt lat="47.6114" lon="6.21072">
        <ele>261.9</ele>
        <time>2021-09-04T13:39:20Z</time>
      </trkpt>
      <trkpt lat="47.61129" lon="6.21066">
        <ele>262.7</ele>
        <time>2021-09-04T13:39:23Z</time>
      </trkpt>
      <trkpt lat="47.61117" lon="6.2106">
        <ele>263.5</ele>
        <time>2021-09-04T13:39:26Z</time>
      </trkpt>
      <trkpt lat="47.61104" lon="6.21057">
        <ele>264.3</ele>
        <time>2021-09-04T13:39:27Z</time>
      </trkpt>
      <trkpt lat="47.61097" lon="6.21056">
        <ele>264.6</ele>
        <time>2021-09-04T13:39:31Z</time>
      </trkpt>
      <trkpt lat="47.61092" lon="6.21055">
        <ele>264.9</ele>
        <time>2021-09-04T13:39:32Z</time>
      </trkpt>
      <trkpt lat="47.61086" lon="6.21053">
        <ele>265.2</ele>
        <time>2021-09-04T13:39:34Z</time>
      </trkpt>
      <trkpt lat="47.6108" lon="6.21053">
        <ele>265.4</ele>
        <time>2021-09-04T13:39:35Z</time>
      </trkpt>
      <trkpt lat="47.61073" lon="6.21052">
        <ele>265.6</ele>
        <time>2021-09-04T13:39:37Z</time>
      </trkpt>
      <trkpt lat="47.61068" lon="6.21051">
        <ele>265.7</ele>
        <time>2021-09-04T13:39:39Z</time>
      </trkpt>
      <trkpt lat="47.6106" lon="6.21049">
        <ele>265.8</ele>
        <time>2021-09-04T13:39:41Z</time>
      </trkpt>
      <trkpt lat="47.61053" lon="6.21046">
        <ele>265.9</ele>
        <time>2021-09-04T13:39:41Z</time>
      </trkpt>
      <trkpt lat="47.61048" lon="6.21042">
        <ele>265.9</ele>
        <time>2021-09-04T13:39:45Z</time>
      </trkpt>
      <trkpt lat="47.61043" lon="6.2104">
        <ele>266</ele>
        <time>2021-09-04T13:39:47Z</time>
      </trkpt>
      <trkpt lat="47.61037" lon="6.21037">
        <ele>266</ele>
        <time>2021-09-04T13:39:49Z</time>
      </trkpt>
      <trkpt lat="47.61032" lon="6.21035">
        <ele>266</ele>
        <time>2021-09-04T13:39:51Z</time>
      </trkpt>
      <trkpt lat="47.61026" lon="6.21032">
        <ele>266</ele>
        <time>2021-09-04T13:39:51Z</time>
      </trkpt>
      <trkpt lat="47.61019" lon="6.21029">
        <ele>266</ele>
        <time>2021-09-04T13:39:56Z</time>
      </trkpt>
      <trkpt lat="47.61013" lon="6.21029">
        <ele>266</ele>
        <time>2021-09-04T13:39:57Z</time>
      </trkpt>
      <trkpt lat="47.61007" lon="6.21029">
        <ele>266</ele>
        <time>2021-09-04T13:40:00Z</time>
      </trkpt>
      <trkpt lat="47.61003" lon="6.2103">
        <ele>266.1</ele>
        <time>2021-09-04T13:40:03Z</time>
      </trkpt>
      <trkpt lat="47.60997" lon="6.21031">
        <ele>266.2</ele>
        <time>2021-09-04T13:40:08Z</time>
      </trkpt>
      <trkpt lat="47.60992" lon="6.21033">
        <ele>266.3</ele>
        <time>2021-09-04T13:40:11Z</time>
      </trkpt>
      <trkpt lat="47.60987" lon="6.21035">
        <ele>266.5</ele>
        <time>2021-09-04T13:40:11Z</time>
      </trkpt>
      <trkpt lat="47.60982" lon="6.21036">
        <ele>266.6</ele>
        <time>2021-09-04T13:40:13Z</time>
      </trkpt>
      <trkpt lat="47.60978" lon="6.21037">
        <ele>266.7</ele>
        <time>2021-09-04T13:40:15Z</time>
      </trkpt>
      <trkpt lat="47.60972" lon="6.21039">
        <ele>266.9</ele>
        <time>2021-09-04T13:40:17Z</time>
      </trkpt>
      <trkpt lat="47.60967" lon="6.21041">
        <ele>267.1</ele>
        <time>2021-09-04T13:40:19Z</time>
      </trkpt>
      <trkpt lat="47.60959" lon="6.21044">
        <ele>267.3</ele>
        <time>2021-09-04T13:40:24Z</time>
      </trkpt>
      <trkpt lat="47.60954" lon="6.21045">
        <ele>267.5</ele>
        <time>2021-09-04T13:40:26Z</time>
      </trkpt>
      <trkpt lat="47.60943" lon="6.21048">
        <ele>267.8</ele>
        <time>2021-09-04T13:40:27Z</time>
      </trkpt>
      <trkpt lat="47.60938" lon="6.21049">
        <ele>267.9</ele>
        <time>2021-09-04T13:40:31Z</time>
      </trkpt>
      <trkpt lat="47.60932" lon="6.21049">
        <ele>268.1</ele>
        <time>2021-09-04T13:40:33Z</time>
      </trkpt>
      <trkpt lat="47.60926" lon="6.2105">
        <ele>268.2</ele>
        <time>2021-09-04T13:40:35Z</time>
      </trkpt>
      <trkpt lat="47.6092" lon="6.2105">
        <ele>268.3</ele>
        <time>2021-09-04T13:40:37Z</time>
      </trkpt>
      <trkpt lat="47.60914" lon="6.2105">
        <ele>268.5</ele>
        <time>2021-09-04T13:40:38Z</time>
      </trkpt>
      <trkpt lat="47.60909" lon="6.21049">
        <ele>268.7</ele>
        <time>2021-09-04T13:40:40Z</time>
      </trkpt>
      <trkpt lat="47.60903" lon="6.2105">
        <ele>268.9</ele>
        <time>2021-09-04T13:40:43Z</time>
      </trkpt>
      <trkpt lat="47.60897" lon="6.21048">
        <ele>269.1</ele>
        <time>2021-09-04T13:40:46Z</time>
      </trkpt>
      <trkpt lat="47.60893" lon="6.21047">
        <ele>269.3</ele>
        <time>2021-09-04T13:40:49Z</time>
      </trkpt>
      <trkpt lat="47.60887" lon="6.21047">
        <ele>269.4</ele>
        <time>2021-09-04T13:40:52Z</time>
      </trkpt>
      <trkpt lat="47.6088" lon="6.21047">
        <ele>269.8</ele>
        <time>2021-09-04T13:40:55Z</time>
      </trkpt>
      <trkpt lat="47.60875" lon="6.21047">
        <ele>270</ele>
        <time>2021-09-04T13:40:57Z</time>
      </trkpt>
      <trkpt lat="47.6087" lon="6.21047">
        <ele>270.2</ele>
        <time>2021-09-04T13:40:58Z</time>
      </trkpt>
      <trkpt lat="47.60865" lon="6.21047">
        <ele>270.4</ele>
        <time>2021-09-04T13:41:00Z</time>
      </trkpt>
      <trkpt lat="47.6086" lon="6.21046">
        <ele>270.5</ele>
        <time>2021-09-04T13:41:03Z</time>
      </trkpt>
      <trkpt lat="47.60854" lon="6.21045">
        <ele>270.7</ele>
        <time>2021-09-04T13:41:04Z</time>
      </trkpt>
      <trkpt lat="47.6085" lon="6.21044">
        <ele>270.9</ele>
        <time>2021-09-04T13:41:06Z</time>
      </trkpt>
      <trkpt lat="47.60845" lon="6.21044">
        <ele>271.1</ele>
        <time>2021-09-04T13:41:08Z</time>
      </trkpt>
      <trkpt lat="47.60839" lon="6.21042">
        <ele>271.3</ele>
        <time>2021-09-04T13:41:12Z</time>
      </trkpt>
      <trkpt lat="47.60833" lon="6.21041">
        <ele>271.4</ele>
        <time>2021-09-04T13:41:15Z</time>
      </trkpt>
      <trkpt lat="47.60828" lon="6.21039">
        <ele>271.2</ele>
        <time>2021-09-04T13:41:17Z</time>
      </trkpt>
      <trkpt lat="47.60823" lon="6.21036">
        <ele>270.8</ele>
        <time>2021-09-04T13:41:18Z</time>
      </trkpt>
      <trkpt lat="47.60819" lon="6.2103">
        <ele>270.4</ele>
        <time>2021-09-04T13:41:20Z</time>
      </trkpt>
      <trkpt lat="47.60814" lon="6.21023">
        <ele>269.9</ele>
        <time>2021-09-04T13:41:22Z</time>
      </trkpt>
      <trkpt lat="47.60808" lon="6.21013">
        <ele>269.2</ele>
        <time>2021-09-04T13:41:24Z</time>
      </trkpt>
      <trkpt lat="47.60805" lon="6.21007">
        <ele>268.9</ele>
        <time>2021-09-04T13:41:25Z</time>
      </trkpt>
      <trkpt lat="47.60798" lon="6.20996">
        <ele>268.2</ele>
        <time>2021-09-04T13:41:27Z</time>
      </trkpt>
      <trkpt lat="47.60791" lon="6.20984">
        <ele>267.6</ele>
        <time>2021-09-04T13:41:30Z</time>
      </trkpt>
      <trkpt lat="47.60784" lon="6.20971">
        <ele>266.9</ele>
        <time>2021-09-04T13:41:31Z</time>
      </trkpt>
      <trkpt lat="47.6078" lon="6.20966">
        <ele>266.6</ele>
        <time>2021-09-04T13:41:33Z</time>
      </trkpt>
      <trkpt lat="47.60773" lon="6.20954">
        <ele>266</ele>
        <time>2021-09-04T13:41:35Z</time>
      </trkpt>
      <trkpt lat="47.60762" lon="6.20936">
        <ele>265.1</ele>
        <time>2021-09-04T13:41:36Z</time>
      </trkpt>
      <trkpt lat="47.60758" lon="6.20929">
        <ele>264.7</ele>
        <time>2021-09-04T13:41:37Z</time>
      </trkpt>
      <trkpt lat="47.60754" lon="6.20922">
        <ele>264.3</ele>
        <time>2021-09-04T13:41:38Z</time>
      </trkpt>
      <trkpt lat="47.60751" lon="6.20915">
        <ele>264</ele>
        <time>2021-09-04T13:41:39Z</time>
      </trkpt>
      <trkpt lat="47.60748" lon="6.20907">
        <ele>264</ele>
        <time>2021-09-04T13:41:40Z</time>
      </trkpt>
      <trkpt lat="47.60747" lon="6.20898">
        <ele>263.9</ele>
        <time>2021-09-04T13:41:41Z</time>
      </trkpt>
      <trkpt lat="47.60746" lon="6.2089">
        <ele>263.9</ele>
        <time>2021-09-04T13:41:42Z</time>
      </trkpt>
      <trkpt lat="47.60745" lon="6.20882">
        <ele>263.9</ele>
        <time>2021-09-04T13:41:43Z</time>
      </trkpt>
      <trkpt lat="47.60744" lon="6.20873">
        <ele>263.8</ele>
        <time>2021-09-04T13:41:44Z</time>
      </trkpt>
      <trkpt lat="47.60743" lon="6.20865">
        <ele>263.8</ele>
        <time>2021-09-04T13:41:45Z</time>
      </trkpt>
      <trkpt lat="47.60742" lon="6.20857">
        <ele>263.7</ele>
        <time>2021-09-04T13:41:46Z</time>
      </trkpt>
      <trkpt lat="47.60741" lon="6.20849">
        <ele>263.6</ele>
        <time>2021-09-04T13:41:47Z</time>
      </trkpt>
      <trkpt lat="47.6074" lon="6.20841">
        <ele>263.6</ele>
        <time>2021-09-04T13:41:48Z</time>
      </trkpt>
      <trkpt lat="47.60739" lon="6.20832">
        <ele>263.5</ele>
        <time>2021-09-04T13:41:49Z</time>
      </trkpt>
      <trkpt lat="47.60739" lon="6.20824">
        <ele>263.2</ele>
        <time>2021-09-04T13:41:50Z</time>
      </trkpt>
      <trkpt lat="47.60738" lon="6.20816">
        <ele>263</ele>
        <time>2021-09-04T13:41:51Z</time>
      </trkpt>
      <trkpt lat="47.60737" lon="6.20808">
        <ele>262.8</ele>
        <time>2021-09-04T13:41:52Z</time>
      </trkpt>
      <trkpt lat="47.60736" lon="6.20801">
        <ele>262.6</ele>
        <time>2021-09-04T13:41:53Z</time>
      </trkpt>
      <trkpt lat="47.60736" lon="6.20793">
        <ele>262.4</ele>
        <time>2021-09-04T13:41:54Z</time>
      </trkpt>
      <trkpt lat="47.60735" lon="6.20786">
        <ele>262.1</ele>
        <time>2021-09-04T13:41:55Z</time>
      </trkpt>
      <trkpt lat="47.60734" lon="6.20779">
        <ele>261.9</ele>
        <time>2021-09-04T13:41:56Z</time>
      </trkpt>
      <trkpt lat="47.60733" lon="6.20773">
        <ele>261.7</ele>
        <time>2021-09-04T13:41:57Z</time>
      </trkpt>
      <trkpt lat="47.60732" lon="6.20766">
        <ele>261.5</ele>
        <time>2021-09-04T13:41:58Z</time>
      </trkpt>
      <trkpt lat="47.60731" lon="6.20759">
        <ele>261.3</ele>
        <time>2021-09-04T13:41:59Z</time>
      </trkpt>
      <trkpt lat="47.60731" lon="6.20752">
        <ele>261.1</ele>
        <time>2021-09-04T13:42:00Z</time>
      </trkpt>
      <trkpt lat="47.6073" lon="6.20745">
        <ele>260.9</ele>
        <time>2021-09-04T13:42:01Z</time>
      </trkpt>
      <trkpt lat="47.60729" lon="6.20738">
        <ele>260.6</ele>
        <time>2021-09-04T13:42:02Z</time>
      </trkpt>
      <trkpt lat="47.60728" lon="6.20731">
        <ele>260.4</ele>
        <time>2021-09-04T13:42:03Z</time>
      </trkpt>
      <trkpt lat="47.60727" lon="6.20723">
        <ele>260.1</ele>
        <time>2021-09-04T13:42:04Z</time>
      </trkpt>
      <trkpt lat="47.60726" lon="6.20716">
        <ele>259.9</ele>
        <time>2021-09-04T13:42:05Z</time>
      </trkpt>
      <trkpt lat="47.60726" lon="6.20708">
        <ele>259.6</ele>
        <time>2021-09-04T13:42:06Z</time>
      </trkpt>
      <trkpt lat="47.60725" lon="6.20701">
        <ele>259.4</ele>
        <time>2021-09-04T13:42:07Z</time>
      </trkpt>
      <trkpt lat="47.60724" lon="6.20694">
        <ele>259.1</ele>
        <time>2021-09-04T13:42:08Z</time>
      </trkpt>
      <trkpt lat="47.60723" lon="6.20686">
        <ele>258.9</ele>
        <time>2021-09-04T13:42:09Z</time>
      </trkpt>
      <trkpt lat="47.60722" lon="6.20679">
        <ele>258.7</ele>
        <time>2021-09-04T13:42:10Z</time>
      </trkpt>
      <trkpt lat="47.60722" lon="6.20672">
        <ele>258.5</ele>
        <time>2021-09-04T13:42:11Z</time>
      </trkpt>
      <trkpt lat="47.60721" lon="6.20665">
        <ele>258.3</ele>
        <time>2021-09-04T13:42:12Z</time>
      </trkpt>
      <trkpt lat="47.6072" lon="6.20658">
        <ele>258.4</ele>
        <time>2021-09-04T13:42:13Z</time>
      </trkpt>
      <trkpt lat="47.60716" lon="6.20647">
        <ele>258.5</ele>
        <time>2021-09-04T13:42:15Z</time>
      </trkpt>
      <trkpt lat="47.60713" lon="6.20643">
        <ele>258.5</ele>
        <time>2021-09-04T13:42:16Z</time>
      </trkpt>
      <trkpt lat="47.60708" lon="6.2064">
        <ele>258.5</ele>
        <time>2021-09-04T13:42:17Z</time>
      </trkpt>
      <trkpt lat="47.60703" lon="6.20638">
        <ele>258.4</ele>
        <time>2021-09-04T13:42:18Z</time>
      </trkpt>
      <trkpt lat="47.60698" lon="6.20637">
        <ele>258.3</ele>
        <time>2021-09-04T13:42:19Z</time>
      </trkpt>
      <trkpt lat="47.60693" lon="6.20637">
        <ele>258.2</ele>
        <time>2021-09-04T13:42:20Z</time>
      </trkpt>
      <trkpt lat="47.60687" lon="6.20636">
        <ele>258.1</ele>
        <time>2021-09-04T13:42:21Z</time>
      </trkpt>
      <trkpt lat="47.6068" lon="6.20635">
        <ele>258</ele>
        <time>2021-09-04T13:42:22Z</time>
      </trkpt>
      <trkpt lat="47.60674" lon="6.20634">
        <ele>257.9</ele>
        <time>2021-09-04T13:42:23Z</time>
      </trkpt>
      <trkpt lat="47.60668" lon="6.20633">
        <ele>257.8</ele>
        <time>2021-09-04T13:42:24Z</time>
      </trkpt>
      <trkpt lat="47.60662" lon="6.20632">
        <ele>258</ele>
        <time>2021-09-04T13:42:25Z</time>
      </trkpt>
      <trkpt lat="47.60655" lon="6.20631">
        <ele>258.1</ele>
        <time>2021-09-04T13:42:26Z</time>
      </trkpt>
      <trkpt lat="47.60649" lon="6.2063">
        <ele>258.3</ele>
        <time>2021-09-04T13:42:27Z</time>
      </trkpt>
      <trkpt lat="47.60643" lon="6.20629">
        <ele>258.5</ele>
        <time>2021-09-04T13:42:28Z</time>
      </trkpt>
      <trkpt lat="47.60637" lon="6.20628">
        <ele>258.7</ele>
        <time>2021-09-04T13:42:29Z</time>
      </trkpt>
      <trkpt lat="47.60632" lon="6.20627">
        <ele>258.8</ele>
        <time>2021-09-04T13:42:30Z</time>
      </trkpt>
      <trkpt lat="47.60627" lon="6.20626">
        <ele>258.9</ele>
        <time>2021-09-04T13:42:31Z</time>
      </trkpt>
      <trkpt lat="47.60623" lon="6.20625">
        <ele>259.1</ele>
        <time>2021-09-04T13:42:32Z</time>
      </trkpt>
      <trkpt lat="47.60618" lon="6.20624">
        <ele>259.2</ele>
        <time>2021-09-04T13:42:33Z</time>
      </trkpt>
      <trkpt lat="47.60611" lon="6.20624">
        <ele>259.3</ele>
        <time>2021-09-04T13:42:35Z</time>
      </trkpt>
      <trkpt lat="47.60606" lon="6.20622">
        <ele>259.5</ele>
        <time>2021-09-04T13:42:37Z</time>
      </trkpt>
      <trkpt lat="47.60601" lon="6.20621">
        <ele>259.6</ele>
        <time>2021-09-04T13:42:39Z</time>
      </trkpt>
      <trkpt lat="47.60592" lon="6.20617">
        <ele>259.8</ele>
        <time>2021-09-04T13:42:43Z</time>
      </trkpt>
      <trkpt lat="47.60586" lon="6.20615">
        <ele>259.9</ele>
        <time>2021-09-04T13:42:46Z</time>
      </trkpt>
      <trkpt lat="47.6058" lon="6.20613">
        <ele>260.1</ele>
        <time>2021-09-04T13:42:49Z</time>
      </trkpt>
      <trkpt lat="47.60575" lon="6.20611">
        <ele>260.1</ele>
        <time>2021-09-04T13:42:51Z</time>
      </trkpt>
      <trkpt lat="47.60568" lon="6.2061">
        <ele>260.2</ele>
        <time>2021-09-04T13:42:53Z</time>
      </trkpt>
      <trkpt lat="47.60562" lon="6.20609">
        <ele>260.3</ele>
        <time>2021-09-04T13:42:55Z</time>
      </trkpt>
      <trkpt lat="47.60557" lon="6.20608">
        <ele>260.4</ele>
        <time>2021-09-04T13:42:56Z</time>
      </trkpt>
      <trkpt lat="47.6055" lon="6.20607">
        <ele>260.5</ele>
        <time>2021-09-04T13:42:58Z</time>
      </trkpt>
      <trkpt lat="47.60542" lon="6.20606">
        <ele>260.6</ele>
        <time>2021-09-04T13:42:59Z</time>
      </trkpt>
      <trkpt lat="47.60537" lon="6.20606">
        <ele>260.7</ele>
        <time>2021-09-04T13:43:01Z</time>
      </trkpt>
      <trkpt lat="47.60532" lon="6.20605">
        <ele>260.8</ele>
        <time>2021-09-04T13:43:03Z</time>
      </trkpt>
      <trkpt lat="47.60521" lon="6.20607">
        <ele>261</ele>
        <time>2021-09-04T13:43:06Z</time>
      </trkpt>
      <trkpt lat="47.60516" lon="6.20609">
        <ele>261.1</ele>
        <time>2021-09-04T13:43:07Z</time>
      </trkpt>
      <trkpt lat="47.60512" lon="6.20613">
        <ele>261.2</ele>
        <time>2021-09-04T13:43:08Z</time>
      </trkpt>
      <trkpt lat="47.60506" lon="6.20619">
        <ele>261.3</ele>
        <time>2021-09-04T13:43:10Z</time>
      </trkpt>
      <trkpt lat="47.60499" lon="6.2063">
        <ele>261.5</ele>
        <time>2021-09-04T13:43:12Z</time>
      </trkpt>
      <trkpt lat="47.60495" lon="6.20637">
        <ele>261.4</ele>
        <time>2021-09-04T13:43:14Z</time>
      </trkpt>
      <trkpt lat="47.60491" lon="6.20642">
        <ele>261.3</ele>
        <time>2021-09-04T13:43:15Z</time>
      </trkpt>
      <trkpt lat="47.60485" lon="6.20648">
        <ele>261.1</ele>
        <time>2021-09-04T13:43:16Z</time>
      </trkpt>
      <trkpt lat="47.60478" lon="6.20649">
        <ele>260.8</ele>
        <time>2021-09-04T13:43:18Z</time>
      </trkpt>
      <trkpt lat="47.60468" lon="6.20647">
        <ele>260.3</ele>
        <time>2021-09-04T13:43:19Z</time>
      </trkpt>
      <trkpt lat="47.60461" lon="6.20647">
        <ele>260</ele>
        <time>2021-09-04T13:43:22Z</time>
      </trkpt>
      <trkpt lat="47.60455" lon="6.20644">
        <ele>259.7</ele>
        <time>2021-09-04T13:43:24Z</time>
      </trkpt>
      <trkpt lat="47.60449" lon="6.20639">
        <ele>259.4</ele>
        <time>2021-09-04T13:43:26Z</time>
      </trkpt>
      <trkpt lat="47.60443" lon="6.20636">
        <ele>259.2</ele>
        <time>2021-09-04T13:43:27Z</time>
      </trkpt>
      <trkpt lat="47.60439" lon="6.20632">
        <ele>258.9</ele>
        <time>2021-09-04T13:43:28Z</time>
      </trkpt>
      <trkpt lat="47.60434" lon="6.20629">
        <ele>258.7</ele>
        <time>2021-09-04T13:43:30Z</time>
      </trkpt>
      <trkpt lat="47.60429" lon="6.20626">
        <ele>258.5</ele>
        <time>2021-09-04T13:43:31Z</time>
      </trkpt>
      <trkpt lat="47.60416" lon="6.20616">
        <ele>258</ele>
        <time>2021-09-04T13:43:34Z</time>
      </trkpt>
      <trkpt lat="47.6041" lon="6.20613">
        <ele>258</ele>
        <time>2021-09-04T13:43:35Z</time>
      </trkpt>
      <trkpt lat="47.60395" lon="6.20605">
        <ele>258</ele>
        <time>2021-09-04T13:43:38Z</time>
      </trkpt>
      <trkpt lat="47.60389" lon="6.20601">
        <ele>258</ele>
        <time>2021-09-04T13:43:39Z</time>
      </trkpt>
      <trkpt lat="47.60373" lon="6.2059">
        <ele>258</ele>
        <time>2021-09-04T13:43:40Z</time>
      </trkpt>
      <trkpt lat="47.60366" lon="6.20586">
        <ele>258</ele>
        <time>2021-09-04T13:43:41Z</time>
      </trkpt>
      <trkpt lat="47.6036" lon="6.20582">
        <ele>258</ele>
        <time>2021-09-04T13:43:42Z</time>
      </trkpt>
      <trkpt lat="47.60354" lon="6.20579">
        <ele>258.1</ele>
        <time>2021-09-04T13:43:43Z</time>
      </trkpt>
      <trkpt lat="47.60349" lon="6.20576">
        <ele>258.2</ele>
        <time>2021-09-04T13:43:44Z</time>
      </trkpt>
      <trkpt lat="47.60343" lon="6.20572">
        <ele>258.3</ele>
        <time>2021-09-04T13:43:45Z</time>
      </trkpt>
      <trkpt lat="47.60338" lon="6.20569">
        <ele>258.3</ele>
        <time>2021-09-04T13:43:46Z</time>
      </trkpt>
      <trkpt lat="47.60332" lon="6.20567">
        <ele>258.4</ele>
        <time>2021-09-04T13:43:47Z</time>
      </trkpt>
      <trkpt lat="47.60327" lon="6.20565">
        <ele>258.6</ele>
        <time>2021-09-04T13:43:48Z</time>
      </trkpt>
      <trkpt lat="47.6032" lon="6.20562">
        <ele>258.9</ele>
        <time>2021-09-04T13:43:50Z</time>
      </trkpt>
      <trkpt lat="47.60315" lon="6.20559">
        <ele>259.1</ele>
        <time>2021-09-04T13:43:52Z</time>
      </trkpt>
      <trkpt lat="47.60311" lon="6.20555">
        <ele>259.3</ele>
        <time>2021-09-04T13:43:54Z</time>
      </trkpt>
      <trkpt lat="47.60307" lon="6.2055">
        <ele>259.5</ele>
        <time>2021-09-04T13:43:58Z</time>
      </trkpt>
      <trkpt lat="47.60304" lon="6.20542">
        <ele>259.7</ele>
        <time>2021-09-04T13:44:01Z</time>
      </trkpt>
      <trkpt lat="47.60298" lon="6.20531">
        <ele>260</ele>
        <time>2021-09-04T13:44:03Z</time>
      </trkpt>
      <trkpt lat="47.60294" lon="6.20524">
        <ele>260.2</ele>
        <time>2021-09-04T13:44:05Z</time>
      </trkpt>
      <trkpt lat="47.6029" lon="6.20517">
        <ele>260.3</ele>
        <time>2021-09-04T13:44:07Z</time>
      </trkpt>
      <trkpt lat="47.60286" lon="6.20511">
        <ele>260.5</ele>
        <time>2021-09-04T13:44:08Z</time>
      </trkpt>
      <trkpt lat="47.60282" lon="6.20505">
        <ele>260.6</ele>
        <time>2021-09-04T13:44:10Z</time>
      </trkpt>
      <trkpt lat="47.60278" lon="6.20501">
        <ele>260.7</ele>
        <time>2021-09-04T13:44:11Z</time>
      </trkpt>
      <trkpt lat="47.60274" lon="6.20496">
        <ele>260.8</ele>
        <time>2021-09-04T13:44:13Z</time>
      </trkpt>
      <trkpt lat="47.60264" lon="6.20489">
        <ele>261.2</ele>
        <time>2021-09-04T13:44:15Z</time>
      </trkpt>
      <trkpt lat="47.6026" lon="6.20485">
        <ele>261.4</ele>
        <time>2021-09-04T13:44:18Z</time>
      </trkpt>
      <trkpt lat="47.60256" lon="6.20481">
        <ele>261.6</ele>
        <time>2021-09-04T13:44:19Z</time>
      </trkpt>
      <trkpt lat="47.60251" lon="6.20477">
        <ele>261.8</ele>
        <time>2021-09-04T13:44:21Z</time>
      </trkpt>
      <trkpt lat="47.60246" lon="6.20472">
        <ele>262.1</ele>
        <time>2021-09-04T13:44:26Z</time>
      </trkpt>
      <trkpt lat="47.60244" lon="6.20465">
        <ele>262.4</ele>
        <time>2021-09-04T13:44:29Z</time>
      </trkpt>
      <trkpt lat="47.60242" lon="6.20459">
        <ele>262.6</ele>
        <time>2021-09-04T13:44:32Z</time>
      </trkpt>
      <trkpt lat="47.60245" lon="6.2045">
        <ele>262.8</ele>
        <time>2021-09-04T13:44:37Z</time>
      </trkpt>
      <trkpt lat="47.60245" lon="6.20443">
        <ele>263</ele>
        <time>2021-09-04T13:44:41Z</time>
      </trkpt>
      <trkpt lat="47.60245" lon="6.20436">
        <ele>263.3</ele>
        <time>2021-09-04T13:44:43Z</time>
      </trkpt>
      <trkpt lat="47.60242" lon="6.20428">
        <ele>263.5</ele>
        <time>2021-09-04T13:44:45Z</time>
      </trkpt>
      <trkpt lat="47.6024" lon="6.20421">
        <ele>263.6</ele>
        <time>2021-09-04T13:44:46Z</time>
      </trkpt>
      <trkpt lat="47.60236" lon="6.20412">
        <ele>263.4</ele>
        <time>2021-09-04T13:44:47Z</time>
      </trkpt>
      <trkpt lat="47.60233" lon="6.20402">
        <ele>262.5</ele>
        <time>2021-09-04T13:44:50Z</time>
      </trkpt>
      <trkpt lat="47.60229" lon="6.20388">
        <ele>261.4</ele>
        <time>2021-09-04T13:44:53Z</time>
      </trkpt>
      <trkpt lat="47.60227" lon="6.20381">
        <ele>260.7</ele>
        <time>2021-09-04T13:44:55Z</time>
      </trkpt>
      <trkpt lat="47.60226" lon="6.20374">
        <ele>260.2</ele>
        <time>2021-09-04T13:45:00Z</time>
      </trkpt>
      <trkpt lat="47.60224" lon="6.20364">
        <ele>259.4</ele>
        <time>2021-09-04T13:45:02Z</time>
      </trkpt>
      <trkpt lat="47.60222" lon="6.20355">
        <ele>258.7</ele>
        <time>2021-09-04T13:45:06Z</time>
      </trkpt>
      <trkpt lat="47.60219" lon="6.20347">
        <ele>257.9</ele>
        <time>2021-09-04T13:45:07Z</time>
      </trkpt>
      <trkpt lat="47.6022" lon="6.2034">
        <ele>257.4</ele>
        <time>2021-09-04T13:45:11Z</time>
      </trkpt>
      <trkpt lat="47.60222" lon="6.20334">
        <ele>257</ele>
        <time>2021-09-04T13:45:30Z</time>
      </trkpt>
      <trkpt lat="47.60225" lon="6.20329">
        <ele>256.5</ele>
        <time>2021-09-04T13:46:21Z</time>
      </trkpt>
      <trkpt lat="47.6023" lon="6.20328">
        <ele>256.6</ele>
        <time>2021-09-04T13:46:26Z</time>
      </trkpt>
      <trkpt lat="47.60234" lon="6.20326">
        <ele>256.5</ele>
        <time>2021-09-04T13:46:28Z</time>
      </trkpt>
      <trkpt lat="47.60239" lon="6.20326">
        <ele>256.6</ele>
        <time>2021-09-04T13:46:30Z</time>
      </trkpt>
      <trkpt lat="47.60245" lon="6.20324">
        <ele>256.6</ele>
        <time>2021-09-04T13:46:34Z</time>
      </trkpt>
      <trkpt lat="47.6025" lon="6.20321">
        <ele>256.4</ele>
        <time>2021-09-04T13:46:37Z</time>
      </trkpt>
      <trkpt lat="47.60255" lon="6.20319">
        <ele>256.1</ele>
        <time>2021-09-04T13:46:40Z</time>
      </trkpt>
      <trkpt lat="47.60262" lon="6.20317">
        <ele>255.9</ele>
        <time>2021-09-04T13:46:44Z</time>
      </trkpt>
      <trkpt lat="47.60268" lon="6.20315">
        <ele>255.7</ele>
        <time>2021-09-04T13:46:47Z</time>
      </trkpt>
      <trkpt lat="47.60273" lon="6.20313">
        <ele>255.5</ele>
        <time>2021-09-04T13:46:50Z</time>
      </trkpt>
      <trkpt lat="47.60278" lon="6.2031">
        <ele>255.2</ele>
        <time>2021-09-04T13:46:52Z</time>
      </trkpt>
      <trkpt lat="47.60284" lon="6.20307">
        <ele>254.9</ele>
        <time>2021-09-04T13:46:53Z</time>
      </trkpt>
      <trkpt lat="47.60288" lon="6.20305">
        <ele>254.7</ele>
        <time>2021-09-04T13:46:56Z</time>
      </trkpt>
      <trkpt lat="47.60294" lon="6.20301">
        <ele>254.3</ele>
        <time>2021-09-04T13:46:58Z</time>
      </trkpt>
      <trkpt lat="47.60299" lon="6.20298">
        <ele>254.1</ele>
        <time>2021-09-04T13:47:00Z</time>
      </trkpt>
      <trkpt lat="47.60304" lon="6.20296">
        <ele>254</ele>
        <time>2021-09-04T13:47:01Z</time>
      </trkpt>
      <trkpt lat="47.60309" lon="6.20295">
        <ele>253.9</ele>
        <time>2021-09-04T13:47:03Z</time>
      </trkpt>
      <trkpt lat="47.60315" lon="6.20295">
        <ele>254.1</ele>
        <time>2021-09-04T13:47:04Z</time>
      </trkpt>
      <trkpt lat="47.6032" lon="6.20295">
        <ele>254.1</ele>
        <time>2021-09-04T13:47:06Z</time>
      </trkpt>
      <trkpt lat="47.60328" lon="6.20295">
        <ele>254.2</ele>
        <time>2021-09-04T13:47:08Z</time>
      </trkpt>
      <trkpt lat="47.60333" lon="6.20295">
        <ele>254.3</ele>
        <time>2021-09-04T13:47:09Z</time>
      </trkpt>
      <trkpt lat="47.60338" lon="6.20296">
        <ele>254.5</ele>
        <time>2021-09-04T13:47:10Z</time>
      </trkpt>
      <trkpt lat="47.60343" lon="6.20297">
        <ele>254.6</ele>
        <time>2021-09-04T13:47:13Z</time>
      </trkpt>
      <trkpt lat="47.60351" lon="6.20299">
        <ele>254.9</ele>
        <time>2021-09-04T13:47:16Z</time>
      </trkpt>
      <trkpt lat="47.60355" lon="6.20302">
        <ele>255.3</ele>
        <time>2021-09-04T13:47:18Z</time>
      </trkpt>
      <trkpt lat="47.6036" lon="6.20304">
        <ele>255.5</ele>
        <time>2021-09-04T13:47:19Z</time>
      </trkpt>
      <trkpt lat="47.60365" lon="6.20305">
        <ele>255.6</ele>
        <time>2021-09-04T13:47:22Z</time>
      </trkpt>
      <trkpt lat="47.60368" lon="6.20298">
        <ele>255</ele>
        <time>2021-09-04T13:47:25Z</time>
      </trkpt>
      <trkpt lat="47.6037" lon="6.20291">
        <ele>254.4</ele>
        <time>2021-09-04T13:47:29Z</time>
      </trkpt>
      <trkpt lat="47.60375" lon="6.20286">
        <ele>254</ele>
        <time>2021-09-04T13:47:32Z</time>
      </trkpt>
      <trkpt lat="47.60379" lon="6.20283">
        <ele>253.7</ele>
        <time>2021-09-04T13:47:35Z</time>
      </trkpt>
      <trkpt lat="47.60384" lon="6.2028">
        <ele>253.5</ele>
        <time>2021-09-04T13:47:38Z</time>
      </trkpt>
      <trkpt lat="47.6039" lon="6.20281">
        <ele>253.6</ele>
        <time>2021-09-04T13:47:40Z</time>
      </trkpt>
      <trkpt lat="47.60397" lon="6.20281">
        <ele>253.8</ele>
        <time>2021-09-04T13:47:43Z</time>
      </trkpt>
      <trkpt lat="47.60404" lon="6.20283">
        <ele>254</ele>
        <time>2021-09-04T13:47:46Z</time>
      </trkpt>
      <trkpt lat="47.60409" lon="6.20283">
        <ele>254.1</ele>
        <time>2021-09-04T13:47:48Z</time>
      </trkpt>
      <trkpt lat="47.60413" lon="6.20279">
        <ele>253.7</ele>
        <time>2021-09-04T13:48:20Z</time>
      </trkpt>
      <trkpt lat="47.60416" lon="6.20275">
        <ele>253.4</ele>
        <time>2021-09-04T13:49:31Z</time>
      </trkpt>
      <trkpt lat="47.60418" lon="6.20269">
        <ele>252.9</ele>
        <time>2021-09-04T13:50:50Z</time>
      </trkpt>
      <trkpt lat="47.60417" lon="6.20263">
        <ele>252.2</ele>
        <time>2021-09-04T13:51:22Z</time>
      </trkpt>
      <trkpt lat="47.60416" lon="6.20256">
        <ele>251.6</ele>
        <time>2021-09-04T13:51:38Z</time>
      </trkpt>
      <trkpt lat="47.60418" lon="6.20249">
        <ele>251</ele>
        <time>2021-09-04T13:51:46Z</time>
      </trkpt>
      <trkpt lat="47.60422" lon="6.20246">
        <ele>250.8</ele>
        <time>2021-09-04T13:51:56Z</time>
      </trkpt>
      <trkpt lat="47.60427" lon="6.20243">
        <ele>250.7</ele>
        <time>2021-09-04T13:51:58Z</time>
      </trkpt>
      <trkpt lat="47.60434" lon="6.20241">
        <ele>250.8</ele>
        <time>2021-09-04T13:52:00Z</time>
      </trkpt>
      <trkpt lat="47.6044" lon="6.2024">
        <ele>250.9</ele>
        <time>2021-09-04T13:52:02Z</time>
      </trkpt>
      <trkpt lat="47.60447" lon="6.20237">
        <ele>250.8</ele>
        <time>2021-09-04T13:52:04Z</time>
      </trkpt>
      <trkpt lat="47.60454" lon="6.20232">
        <ele>250.6</ele>
        <time>2021-09-04T13:52:06Z</time>
      </trkpt>
      <trkpt lat="47.60461" lon="6.20228">
        <ele>250.4</ele>
        <time>2021-09-04T13:52:08Z</time>
      </trkpt>
      <trkpt lat="47.60467" lon="6.20224">
        <ele>250.3</ele>
        <time>2021-09-04T13:52:10Z</time>
      </trkpt>
      <trkpt lat="47.60472" lon="6.2022">
        <ele>250.1</ele>
        <time>2021-09-04T13:52:12Z</time>
      </trkpt>
      <trkpt lat="47.60477" lon="6.20217">
        <ele>250</ele>
        <time>2021-09-04T13:52:14Z</time>
      </trkpt>
      <trkpt lat="47.60483" lon="6.20213">
        <ele>249.9</ele>
        <time>2021-09-04T13:52:16Z</time>
      </trkpt>
      <trkpt lat="47.60488" lon="6.20211">
        <ele>249.8</ele>
        <time>2021-09-04T13:52:18Z</time>
      </trkpt>
      <trkpt lat="47.60493" lon="6.20207">
        <ele>249.6</ele>
        <time>2021-09-04T13:52:20Z</time>
      </trkpt>
      <trkpt lat="47.60499" lon="6.20203">
        <ele>249.4</ele>
        <time>2021-09-04T13:52:22Z</time>
      </trkpt>
      <trkpt lat="47.60504" lon="6.202">
        <ele>249.3</ele>
        <time>2021-09-04T13:52:24Z</time>
      </trkpt>
      <trkpt lat="47.60508" lon="6.20197">
        <ele>249.2</ele>
        <time>2021-09-04T13:52:26Z</time>
      </trkpt>
      <trkpt lat="47.60514" lon="6.20194">
        <ele>249.1</ele>
        <time>2021-09-04T13:52:28Z</time>
      </trkpt>
      <trkpt lat="47.60521" lon="6.2019">
        <ele>248.8</ele>
        <time>2021-09-04T13:52:30Z</time>
      </trkpt>
      <trkpt lat="47.60528" lon="6.20184">
        <ele>248.5</ele>
        <time>2021-09-04T13:52:32Z</time>
      </trkpt>
      <trkpt lat="47.60533" lon="6.2018">
        <ele>248.2</ele>
        <time>2021-09-04T13:52:33Z</time>
      </trkpt>
      <trkpt lat="47.60537" lon="6.20176">
        <ele>247.9</ele>
        <time>2021-09-04T13:52:35Z</time>
      </trkpt>
      <trkpt lat="47.60542" lon="6.20172">
        <ele>247.6</ele>
        <time>2021-09-04T13:52:37Z</time>
      </trkpt>
      <trkpt lat="47.60548" lon="6.20168">
        <ele>247.3</ele>
        <time>2021-09-04T13:52:39Z</time>
      </trkpt>
      <trkpt lat="47.60554" lon="6.20163">
        <ele>247.1</ele>
        <time>2021-09-04T13:52:41Z</time>
      </trkpt>
      <trkpt lat="47.6056" lon="6.20158">
        <ele>247</ele>
        <time>2021-09-04T13:52:43Z</time>
      </trkpt>
      <trkpt lat="47.60565" lon="6.20154">
        <ele>246.9</ele>
        <time>2021-09-04T13:52:45Z</time>
      </trkpt>
      <trkpt lat="47.60571" lon="6.20149">
        <ele>246.8</ele>
        <time>2021-09-04T13:52:47Z</time>
      </trkpt>
      <trkpt lat="47.60576" lon="6.20146">
        <ele>246.7</ele>
        <time>2021-09-04T13:52:48Z</time>
      </trkpt>
      <trkpt lat="47.60576" lon="6.20154">
        <ele>247.1</ele>
        <time>2021-09-04T13:53:44Z</time>
      </trkpt>
      <trkpt lat="47.60571" lon="6.20159">
        <ele>247.3</ele>
        <time>2021-09-04T13:53:49Z</time>
      </trkpt>
      <trkpt lat="47.60568" lon="6.20165">
        <ele>247.5</ele>
        <time>2021-09-04T13:53:51Z</time>
      </trkpt>
      <trkpt lat="47.60574" lon="6.20162">
        <ele>247.5</ele>
        <time>2021-09-04T13:53:56Z</time>
      </trkpt>
      <trkpt lat="47.60578" lon="6.20156">
        <ele>247.2</ele>
        <time>2021-09-04T13:54:01Z</time>
      </trkpt>
      <trkpt lat="47.60583" lon="6.20152">
        <ele>247.1</ele>
        <time>2021-09-04T13:54:01Z</time>
      </trkpt>
      <trkpt lat="47.60586" lon="6.20147">
        <ele>246.7</ele>
        <time>2021-09-04T13:55:05Z</time>
      </trkpt>
      <trkpt lat="47.60591" lon="6.20143">
        <ele>246.3</ele>
        <time>2021-09-04T13:55:08Z</time>
      </trkpt>
      <trkpt lat="47.60597" lon="6.20138">
        <ele>245.8</ele>
        <time>2021-09-04T13:55:10Z</time>
      </trkpt>
      <trkpt lat="47.60603" lon="6.20132">
        <ele>245.2</ele>
        <time>2021-09-04T13:55:13Z</time>
      </trkpt>
      <trkpt lat="47.60607" lon="6.20129">
        <ele>244.9</ele>
        <time>2021-09-04T13:55:15Z</time>
      </trkpt>
      <trkpt lat="47.60611" lon="6.20125">
        <ele>244.5</ele>
        <time>2021-09-04T13:55:17Z</time>
      </trkpt>
      <trkpt lat="47.60614" lon="6.20121">
        <ele>244.1</ele>
        <time>2021-09-04T13:55:19Z</time>
      </trkpt>
      <trkpt lat="47.60619" lon="6.20114">
        <ele>243.5</ele>
        <time>2021-09-04T13:55:22Z</time>
      </trkpt>
      <trkpt lat="47.60625" lon="6.20107">
        <ele>242.9</ele>
        <time>2021-09-04T13:55:25Z</time>
      </trkpt>
      <trkpt lat="47.60629" lon="6.20102">
        <ele>242.5</ele>
        <time>2021-09-04T13:55:27Z</time>
      </trkpt>
      <trkpt lat="47.60633" lon="6.20097">
        <ele>242</ele>
        <time>2021-09-04T13:55:29Z</time>
      </trkpt>
      <trkpt lat="47.60637" lon="6.2009">
        <ele>241.5</ele>
        <time>2021-09-04T13:55:31Z</time>
      </trkpt>
      <trkpt lat="47.60641" lon="6.20084">
        <ele>241</ele>
        <time>2021-09-04T13:55:33Z</time>
      </trkpt>
      <trkpt lat="47.60645" lon="6.20079">
        <ele>241.1</ele>
        <time>2021-09-04T13:55:35Z</time>
      </trkpt>
      <trkpt lat="47.60648" lon="6.20073">
        <ele>241.3</ele>
        <time>2021-09-04T13:55:36Z</time>
      </trkpt>
      <trkpt lat="47.60652" lon="6.20066">
        <ele>241.6</ele>
        <time>2021-09-04T13:55:39Z</time>
      </trkpt>
      <trkpt lat="47.60656" lon="6.20061">
        <ele>241.9</ele>
        <time>2021-09-04T13:55:41Z</time>
      </trkpt>
      <trkpt lat="47.6066" lon="6.20054">
        <ele>242.2</ele>
        <time>2021-09-04T13:55:44Z</time>
      </trkpt>
      <trkpt lat="47.60664" lon="6.20048">
        <ele>242.6</ele>
        <time>2021-09-04T13:55:46Z</time>
      </trkpt>
      <trkpt lat="47.60668" lon="6.20042">
        <ele>242.9</ele>
        <time>2021-09-04T13:55:50Z</time>
      </trkpt>
      <trkpt lat="47.60671" lon="6.20036">
        <ele>243.2</ele>
        <time>2021-09-04T13:55:53Z</time>
      </trkpt>
      <trkpt lat="47.60676" lon="6.2003">
        <ele>243.3</ele>
        <time>2021-09-04T13:55:56Z</time>
      </trkpt>
      <trkpt lat="47.6068" lon="6.20024">
        <ele>243.4</ele>
        <time>2021-09-04T13:56:00Z</time>
      </trkpt>
      <trkpt lat="47.60683" lon="6.20019">
        <ele>243.5</ele>
        <time>2021-09-04T13:56:03Z</time>
      </trkpt>
      <trkpt lat="47.60688" lon="6.20011">
        <ele>243.6</ele>
        <time>2021-09-04T13:56:06Z</time>
      </trkpt>
      <trkpt lat="47.60692" lon="6.20004">
        <ele>243.7</ele>
        <time>2021-09-04T13:56:10Z</time>
      </trkpt>
      <trkpt lat="47.60695" lon="6.19997">
        <ele>243.8</ele>
        <time>2021-09-04T13:56:13Z</time>
      </trkpt>
      <trkpt lat="47.60698" lon="6.19989">
        <ele>243.9</ele>
        <time>2021-09-04T13:56:16Z</time>
      </trkpt>
      <trkpt lat="47.60703" lon="6.19987">
        <ele>243.6</ele>
        <time>2021-09-04T13:57:31Z</time>
      </trkpt>
      <trkpt lat="47.60705" lon="6.19995">
        <ele>243.1</ele>
        <time>2021-09-04T13:57:59Z</time>
      </trkpt>
      <trkpt lat="47.60703" lon="6.20002">
        <ele>242.9</ele>
        <time>2021-09-04T13:58:01Z</time>
      </trkpt>
      <trkpt lat="47.60699" lon="6.20007">
        <ele>242.9</ele>
        <time>2021-09-04T13:58:03Z</time>
      </trkpt>
      <trkpt lat="47.60694" lon="6.20012">
        <ele>243.1</ele>
        <time>2021-09-04T13:58:05Z</time>
      </trkpt>
      <trkpt lat="47.60689" lon="6.20019">
        <ele>243.1</ele>
        <time>2021-09-04T13:58:07Z</time>
      </trkpt>
      <trkpt lat="47.60684" lon="6.20028">
        <ele>243</ele>
        <time>2021-09-04T13:58:09Z</time>
      </trkpt>
      <trkpt lat="47.6068" lon="6.20034">
        <ele>242.8</ele>
        <time>2021-09-04T13:58:11Z</time>
      </trkpt>
      <trkpt lat="47.60675" lon="6.20042">
        <ele>242.6</ele>
        <time>2021-09-04T13:58:13Z</time>
      </trkpt>
      <trkpt lat="47.60669" lon="6.2005">
        <ele>242.3</ele>
        <time>2021-09-04T13:58:15Z</time>
      </trkpt>
      <trkpt lat="47.60664" lon="6.20058">
        <ele>241.9</ele>
        <time>2021-09-04T13:58:17Z</time>
      </trkpt>
      <trkpt lat="47.6066" lon="6.20065">
        <ele>241.5</ele>
        <time>2021-09-04T13:58:19Z</time>
      </trkpt>
      <trkpt lat="47.60656" lon="6.20071">
        <ele>241.3</ele>
        <time>2021-09-04T13:58:21Z</time>
      </trkpt>
      <trkpt lat="47.60652" lon="6.20075">
        <ele>241.1</ele>
        <time>2021-09-04T13:58:23Z</time>
      </trkpt>
      <trkpt lat="47.60647" lon="6.20082">
        <ele>240.8</ele>
        <time>2021-09-04T13:58:25Z</time>
      </trkpt>
      <trkpt lat="47.60643" lon="6.20085">
        <ele>240.9</ele>
        <time>2021-09-04T13:58:46Z</time>
      </trkpt>
      <trkpt lat="47.60638" lon="6.20086">
        <ele>241.1</ele>
        <time>2021-09-04T14:00:07Z</time>
      </trkpt>
      <trkpt lat="47.60634" lon="6.20092">
        <ele>241.7</ele>
        <time>2021-09-04T14:00:10Z</time>
      </trkpt>
      <trkpt lat="47.60631" lon="6.20098">
        <ele>242.2</ele>
        <time>2021-09-04T14:00:11Z</time>
      </trkpt>
      <trkpt lat="47.60627" lon="6.20105">
        <ele>242.7</ele>
        <time>2021-09-04T14:00:13Z</time>
      </trkpt>
      <trkpt lat="47.60622" lon="6.20111">
        <ele>243.3</ele>
        <time>2021-09-04T14:00:16Z</time>
      </trkpt>
      <trkpt lat="47.60617" lon="6.20114">
        <ele>243.7</ele>
        <time>2021-09-04T14:00:17Z</time>
      </trkpt>
      <trkpt lat="47.60612" lon="6.20121">
        <ele>244.2</ele>
        <time>2021-09-04T14:01:02Z</time>
      </trkpt>
      <trkpt lat="47.60607" lon="6.20128">
        <ele>244.8</ele>
        <time>2021-09-04T14:01:05Z</time>
      </trkpt>
      <trkpt lat="47.60602" lon="6.20134">
        <ele>245.4</ele>
        <time>2021-09-04T14:01:08Z</time>
      </trkpt>
      <trkpt lat="47.60598" lon="6.20139">
        <ele>245.8</ele>
        <time>2021-09-04T14:01:11Z</time>
      </trkpt>
      <trkpt lat="47.60594" lon="6.20144">
        <ele>246.3</ele>
        <time>2021-09-04T14:01:14Z</time>
      </trkpt>
      <trkpt lat="47.60589" lon="6.20149">
        <ele>246.7</ele>
        <time>2021-09-04T14:01:17Z</time>
      </trkpt>
      <trkpt lat="47.60584" lon="6.2015">
        <ele>247</ele>
        <time>2021-09-04T14:01:23Z</time>
      </trkpt>
      <trkpt lat="47.60587" lon="6.20143">
        <ele>246.5</ele>
        <time>2021-09-04T14:04:11Z</time>
      </trkpt>
      <trkpt lat="47.60597" lon="6.20132">
        <ele>245.4</ele>
        <time>2021-09-04T14:04:13Z</time>
      </trkpt>
      <trkpt lat="47.60603" lon="6.20126">
        <ele>244.9</ele>
        <time>2021-09-04T14:04:15Z</time>
      </trkpt>
      <trkpt lat="47.60609" lon="6.20119">
        <ele>244.2</ele>
        <time>2021-09-04T14:04:17Z</time>
      </trkpt>
      <trkpt lat="47.60613" lon="6.20116">
        <ele>243.9</ele>
        <time>2021-09-04T14:04:18Z</time>
      </trkpt>
      <trkpt lat="47.60617" lon="6.20111">
        <ele>243.5</ele>
        <time>2021-09-04T14:04:19Z</time>
      </trkpt>
      <trkpt lat="47.60621" lon="6.20107">
        <ele>243.1</ele>
        <time>2021-09-04T14:04:20Z</time>
      </trkpt>
      <trkpt lat="47.60624" lon="6.20102">
        <ele>242.7</ele>
        <time>2021-09-04T14:04:21Z</time>
      </trkpt>
      <trkpt lat="47.60631" lon="6.20094">
        <ele>241.9</ele>
        <time>2021-09-04T14:04:23Z</time>
      </trkpt>
      <trkpt lat="47.60637" lon="6.20086">
        <ele>241.2</ele>
        <time>2021-09-04T14:04:25Z</time>
      </trkpt>
      <trkpt lat="47.60644" lon="6.20078">
        <ele>241.2</ele>
        <time>2021-09-04T14:04:27Z</time>
      </trkpt>
      <trkpt lat="47.6065" lon="6.20069">
        <ele>241.5</ele>
        <time>2021-09-04T14:04:29Z</time>
      </trkpt>
      <trkpt lat="47.60656" lon="6.20061">
        <ele>241.9</ele>
        <time>2021-09-04T14:04:31Z</time>
      </trkpt>
      <trkpt lat="47.60662" lon="6.20053">
        <ele>242.3</ele>
        <time>2021-09-04T14:04:33Z</time>
      </trkpt>
      <trkpt lat="47.60667" lon="6.20046">
        <ele>242.7</ele>
        <time>2021-09-04T14:04:35Z</time>
      </trkpt>
      <trkpt lat="47.60671" lon="6.20039">
        <ele>243</ele>
        <time>2021-09-04T14:04:37Z</time>
      </trkpt>
      <trkpt lat="47.60676" lon="6.20032">
        <ele>243.2</ele>
        <time>2021-09-04T14:04:39Z</time>
      </trkpt>
      <trkpt lat="47.6068" lon="6.20026">
        <ele>243.3</ele>
        <time>2021-09-04T14:04:40Z</time>
      </trkpt>
      <trkpt lat="47.60685" lon="6.20018">
        <ele>243.4</ele>
        <time>2021-09-04T14:04:43Z</time>
      </trkpt>
      <trkpt lat="47.60689" lon="6.20012">
        <ele>243.5</ele>
        <time>2021-09-04T14:04:45Z</time>
      </trkpt>
      <trkpt lat="47.60692" lon="6.20005">
        <ele>243.6</ele>
        <time>2021-09-04T14:04:47Z</time>
      </trkpt>
      <trkpt lat="47.60697" lon="6.19996">
        <ele>243.7</ele>
        <time>2021-09-04T14:04:49Z</time>
      </trkpt>
      <trkpt lat="47.60701" lon="6.19988">
        <ele>243.7</ele>
        <time>2021-09-04T14:04:50Z</time>
      </trkpt>
      <trkpt lat="47.60704" lon="6.19982">
        <ele>243.7</ele>
        <time>2021-09-04T14:04:52Z</time>
      </trkpt>
      <trkpt lat="47.60708" lon="6.19974">
        <ele>243.7</ele>
        <time>2021-09-04T14:04:54Z</time>
      </trkpt>
      <trkpt lat="47.60713" lon="6.19967">
        <ele>243.7</ele>
        <time>2021-09-04T14:04:56Z</time>
      </trkpt>
      <trkpt lat="47.60717" lon="6.19959">
        <ele>243.6</ele>
        <time>2021-09-04T14:04:58Z</time>
      </trkpt>
      <trkpt lat="47.60722" lon="6.19951">
        <ele>243.5</ele>
        <time>2021-09-04T14:05:00Z</time>
      </trkpt>
      <trkpt lat="47.60726" lon="6.19943">
        <ele>243.4</ele>
        <time>2021-09-04T14:05:02Z</time>
      </trkpt>
      <trkpt lat="47.6073" lon="6.19934">
        <ele>243.4</ele>
        <time>2021-09-04T14:05:04Z</time>
      </trkpt>
      <trkpt lat="47.60734" lon="6.19926">
        <ele>243.4</ele>
        <time>2021-09-04T14:05:06Z</time>
      </trkpt>
      <trkpt lat="47.60736" lon="6.19918">
        <ele>243.4</ele>
        <time>2021-09-04T14:05:08Z</time>
      </trkpt>
      <trkpt lat="47.60738" lon="6.19909">
        <ele>243.6</ele>
        <time>2021-09-04T14:05:10Z</time>
      </trkpt>
      <trkpt lat="47.6074" lon="6.19901">
        <ele>243.8</ele>
        <time>2021-09-04T14:05:12Z</time>
      </trkpt>
      <trkpt lat="47.60742" lon="6.19892">
        <ele>244</ele>
        <time>2021-09-04T14:05:14Z</time>
      </trkpt>
      <trkpt lat="47.60745" lon="6.19882">
        <ele>244.2</ele>
        <time>2021-09-04T14:05:16Z</time>
      </trkpt>
      <trkpt lat="47.60748" lon="6.19872">
        <ele>244.3</ele>
        <time>2021-09-04T14:05:18Z</time>
      </trkpt>
      <trkpt lat="47.60751" lon="6.19863">
        <ele>244.4</ele>
        <time>2021-09-04T14:05:20Z</time>
      </trkpt>
      <trkpt lat="47.60754" lon="6.19855">
        <ele>244.5</ele>
        <time>2021-09-04T14:05:22Z</time>
      </trkpt>
      <trkpt lat="47.60757" lon="6.19848">
        <ele>244.4</ele>
        <time>2021-09-04T14:05:24Z</time>
      </trkpt>
      <trkpt lat="47.6076" lon="6.1984">
        <ele>244.4</ele>
        <time>2021-09-04T14:05:26Z</time>
      </trkpt>
      <trkpt lat="47.60762" lon="6.19831">
        <ele>244.5</ele>
        <time>2021-09-04T14:05:28Z</time>
      </trkpt>
      <trkpt lat="47.60764" lon="6.19823">
        <ele>244.6</ele>
        <time>2021-09-04T14:05:30Z</time>
      </trkpt>
      <trkpt lat="47.60767" lon="6.19813">
        <ele>244.6</ele>
        <time>2021-09-04T14:05:32Z</time>
      </trkpt>
      <trkpt lat="47.6077" lon="6.19806">
        <ele>244.6</ele>
        <time>2021-09-04T14:05:34Z</time>
      </trkpt>
      <trkpt lat="47.60773" lon="6.19798">
        <ele>244.6</ele>
        <time>2021-09-04T14:05:36Z</time>
      </trkpt>
      <trkpt lat="47.60775" lon="6.19791">
        <ele>244.6</ele>
        <time>2021-09-04T14:05:38Z</time>
      </trkpt>
      <trkpt lat="47.60779" lon="6.19783">
        <ele>244.6</ele>
        <time>2021-09-04T14:05:40Z</time>
      </trkpt>
      <trkpt lat="47.60782" lon="6.19775">
        <ele>244.7</ele>
        <time>2021-09-04T14:05:42Z</time>
      </trkpt>
      <trkpt lat="47.60785" lon="6.19766">
        <ele>244.8</ele>
        <time>2021-09-04T14:05:44Z</time>
      </trkpt>
      <trkpt lat="47.60787" lon="6.19756">
        <ele>245.1</ele>
        <time>2021-09-04T14:05:46Z</time>
      </trkpt>
      <trkpt lat="47.60791" lon="6.19746">
        <ele>245.4</ele>
        <time>2021-09-04T14:05:48Z</time>
      </trkpt>
      <trkpt lat="47.60794" lon="6.19737">
        <ele>245.6</ele>
        <time>2021-09-04T14:05:50Z</time>
      </trkpt>
      <trkpt lat="47.60797" lon="6.19728">
        <ele>246</ele>
        <time>2021-09-04T14:05:52Z</time>
      </trkpt>
      <trkpt lat="47.60799" lon="6.19718">
        <ele>246.4</ele>
        <time>2021-09-04T14:05:54Z</time>
      </trkpt>
      <trkpt lat="47.60802" lon="6.1971">
        <ele>246.8</ele>
        <time>2021-09-04T14:05:56Z</time>
      </trkpt>
      <trkpt lat="47.60804" lon="6.19702">
        <ele>247.2</ele>
        <time>2021-09-04T14:05:58Z</time>
      </trkpt>
      <trkpt lat="47.60806" lon="6.19694">
        <ele>247.6</ele>
        <time>2021-09-04T14:06:00Z</time>
      </trkpt>
      <trkpt lat="47.60809" lon="6.19688">
        <ele>248</ele>
        <time>2021-09-04T14:06:02Z</time>
      </trkpt>
      <trkpt lat="47.60811" lon="6.1968">
        <ele>248.5</ele>
        <time>2021-09-04T14:06:04Z</time>
      </trkpt>
      <trkpt lat="47.60814" lon="6.19672">
        <ele>249</ele>
        <time>2021-09-04T14:06:06Z</time>
      </trkpt>
      <trkpt lat="47.60817" lon="6.19664">
        <ele>249.5</ele>
        <time>2021-09-04T14:06:08Z</time>
      </trkpt>
      <trkpt lat="47.6082" lon="6.19656">
        <ele>249.8</ele>
        <time>2021-09-04T14:06:10Z</time>
      </trkpt>
      <trkpt lat="47.60823" lon="6.19648">
        <ele>250.1</ele>
        <time>2021-09-04T14:06:12Z</time>
      </trkpt>
      <trkpt lat="47.60827" lon="6.19641">
        <ele>250.3</ele>
        <time>2021-09-04T14:06:14Z</time>
      </trkpt>
      <trkpt lat="47.60831" lon="6.19635">
        <ele>250.6</ele>
        <time>2021-09-04T14:06:16Z</time>
      </trkpt>
      <trkpt lat="47.60835" lon="6.19624">
        <ele>250.9</ele>
        <time>2021-09-04T14:06:18Z</time>
      </trkpt>
      <trkpt lat="47.60837" lon="6.19616">
        <ele>251.1</ele>
        <time>2021-09-04T14:06:20Z</time>
      </trkpt>
      <trkpt lat="47.6084" lon="6.19609">
        <ele>251.1</ele>
        <time>2021-09-04T14:06:22Z</time>
      </trkpt>
      <trkpt lat="47.60842" lon="6.196">
        <ele>251.2</ele>
        <time>2021-09-04T14:06:24Z</time>
      </trkpt>
      <trkpt lat="47.60843" lon="6.19591">
        <ele>251.5</ele>
        <time>2021-09-04T14:06:27Z</time>
      </trkpt>
      <trkpt lat="47.60847" lon="6.19572">
        <ele>251.3</ele>
        <time>2021-09-04T14:06:29Z</time>
      </trkpt>
      <trkpt lat="47.6085" lon="6.19563">
        <ele>250.9</ele>
        <time>2021-09-04T14:06:31Z</time>
      </trkpt>
      <trkpt lat="47.60854" lon="6.19553">
        <ele>250.1</ele>
        <time>2021-09-04T14:06:33Z</time>
      </trkpt>
      <trkpt lat="47.60856" lon="6.19545">
        <ele>249.8</ele>
        <time>2021-09-04T14:06:35Z</time>
      </trkpt>
      <trkpt lat="47.60859" lon="6.19534">
        <ele>249.1</ele>
        <time>2021-09-04T14:06:37Z</time>
      </trkpt>
      <trkpt lat="47.60863" lon="6.19524">
        <ele>248.5</ele>
        <time>2021-09-04T14:06:39Z</time>
      </trkpt>
      <trkpt lat="47.60865" lon="6.19514">
        <ele>247.9</ele>
        <time>2021-09-04T14:06:41Z</time>
      </trkpt>
      <trkpt lat="47.60869" lon="6.19504">
        <ele>247.1</ele>
        <time>2021-09-04T14:06:43Z</time>
      </trkpt>
      <trkpt lat="47.60871" lon="6.19497">
        <ele>246.7</ele>
        <time>2021-09-04T14:06:47Z</time>
      </trkpt>
      <trkpt lat="47.60875" lon="6.19487">
        <ele>246.3</ele>
        <time>2021-09-04T14:06:48Z</time>
      </trkpt>
      <trkpt lat="47.60878" lon="6.19479">
        <ele>246</ele>
        <time>2021-09-04T14:06:50Z</time>
      </trkpt>
      <trkpt lat="47.60882" lon="6.1947">
        <ele>245.6</ele>
        <time>2021-09-04T14:06:52Z</time>
      </trkpt>
      <trkpt lat="47.60885" lon="6.19462">
        <ele>245.4</ele>
        <time>2021-09-04T14:06:53Z</time>
      </trkpt>
      <trkpt lat="47.60888" lon="6.19455">
        <ele>245.1</ele>
        <time>2021-09-04T14:06:55Z</time>
      </trkpt>
      <trkpt lat="47.60891" lon="6.19447">
        <ele>244.8</ele>
        <time>2021-09-04T14:06:57Z</time>
      </trkpt>
      <trkpt lat="47.60895" lon="6.19436">
        <ele>244.6</ele>
        <time>2021-09-04T14:06:59Z</time>
      </trkpt>
      <trkpt lat="47.60897" lon="6.19429">
        <ele>244.5</ele>
        <time>2021-09-04T14:07:02Z</time>
      </trkpt>
      <trkpt lat="47.60903" lon="6.19411">
        <ele>244.4</ele>
        <time>2021-09-04T14:07:04Z</time>
      </trkpt>
      <trkpt lat="47.60906" lon="6.19402">
        <ele>244.7</ele>
        <time>2021-09-04T14:07:06Z</time>
      </trkpt>
      <trkpt lat="47.60909" lon="6.19391">
        <ele>245.4</ele>
        <time>2021-09-04T14:07:08Z</time>
      </trkpt>
      <trkpt lat="47.60911" lon="6.19384">
        <ele>245.7</ele>
        <time>2021-09-04T14:07:10Z</time>
      </trkpt>
      <trkpt lat="47.60914" lon="6.19376">
        <ele>246.1</ele>
        <time>2021-09-04T14:07:12Z</time>
      </trkpt>
      <trkpt lat="47.60918" lon="6.19368">
        <ele>246.5</ele>
        <time>2021-09-04T14:07:14Z</time>
      </trkpt>
      <trkpt lat="47.60921" lon="6.1936">
        <ele>246.7</ele>
        <time>2021-09-04T14:07:16Z</time>
      </trkpt>
      <trkpt lat="47.60924" lon="6.19353">
        <ele>246.8</ele>
        <time>2021-09-04T14:07:18Z</time>
      </trkpt>
      <trkpt lat="47.60927" lon="6.19346">
        <ele>246.9</ele>
        <time>2021-09-04T14:07:20Z</time>
      </trkpt>
      <trkpt lat="47.6093" lon="6.19339">
        <ele>246.9</ele>
        <time>2021-09-04T14:07:22Z</time>
      </trkpt>
      <trkpt lat="47.60933" lon="6.19331">
        <ele>246.8</ele>
        <time>2021-09-04T14:07:24Z</time>
      </trkpt>
      <trkpt lat="47.60936" lon="6.19323">
        <ele>246.6</ele>
        <time>2021-09-04T14:07:26Z</time>
      </trkpt>
      <trkpt lat="47.6094" lon="6.19316">
        <ele>246.3</ele>
        <time>2021-09-04T14:07:28Z</time>
      </trkpt>
      <trkpt lat="47.60944" lon="6.1931">
        <ele>245.9</ele>
        <time>2021-09-04T14:07:30Z</time>
      </trkpt>
      <trkpt lat="47.60948" lon="6.19303">
        <ele>245.7</ele>
        <time>2021-09-04T14:07:32Z</time>
      </trkpt>
      <trkpt lat="47.60952" lon="6.19296">
        <ele>245.6</ele>
        <time>2021-09-04T14:07:34Z</time>
      </trkpt>
      <trkpt lat="47.60956" lon="6.19289">
        <ele>245.4</ele>
        <time>2021-09-04T14:07:36Z</time>
      </trkpt>
      <trkpt lat="47.6096" lon="6.19281">
        <ele>245.3</ele>
        <time>2021-09-04T14:07:38Z</time>
      </trkpt>
      <trkpt lat="47.60964" lon="6.19274">
        <ele>245.2</ele>
        <time>2021-09-04T14:07:40Z</time>
      </trkpt>
      <trkpt lat="47.6097" lon="6.19263">
        <ele>245.2</ele>
        <time>2021-09-04T14:07:42Z</time>
      </trkpt>
      <trkpt lat="47.60973" lon="6.19258">
        <ele>245.2</ele>
        <time>2021-09-04T14:07:44Z</time>
      </trkpt>
      <trkpt lat="47.60977" lon="6.1925">
        <ele>245.3</ele>
        <time>2021-09-04T14:07:46Z</time>
      </trkpt>
      <trkpt lat="47.60981" lon="6.19243">
        <ele>245.4</ele>
        <time>2021-09-04T14:07:48Z</time>
      </trkpt>
      <trkpt lat="47.60986" lon="6.19236">
        <ele>245.5</ele>
        <time>2021-09-04T14:07:50Z</time>
      </trkpt>
      <trkpt lat="47.6099" lon="6.19229">
        <ele>245.7</ele>
        <time>2021-09-04T14:07:51Z</time>
      </trkpt>
      <trkpt lat="47.60995" lon="6.19223">
        <ele>245.8</ele>
        <time>2021-09-04T14:07:53Z</time>
      </trkpt>
      <trkpt lat="47.60999" lon="6.19217">
        <ele>246.1</ele>
        <time>2021-09-04T14:07:55Z</time>
      </trkpt>
      <trkpt lat="47.61004" lon="6.1921">
        <ele>246.4</ele>
        <time>2021-09-04T14:07:57Z</time>
      </trkpt>
      <trkpt lat="47.61008" lon="6.19206">
        <ele>246.6</ele>
        <time>2021-09-04T14:08:01Z</time>
      </trkpt>
      <trkpt lat="47.61016" lon="6.19194">
        <ele>247.5</ele>
        <time>2021-09-04T14:08:02Z</time>
      </trkpt>
      <trkpt lat="47.61021" lon="6.19187">
        <ele>248.2</ele>
        <time>2021-09-04T14:08:04Z</time>
      </trkpt>
      <trkpt lat="47.61025" lon="6.1918">
        <ele>248.9</ele>
        <time>2021-09-04T14:08:06Z</time>
      </trkpt>
      <trkpt lat="47.61029" lon="6.19174">
        <ele>249.4</ele>
        <time>2021-09-04T14:08:08Z</time>
      </trkpt>
      <trkpt lat="47.61033" lon="6.19169">
        <ele>250.1</ele>
        <time>2021-09-04T14:08:10Z</time>
      </trkpt>
      <trkpt lat="47.61038" lon="6.19163">
        <ele>250.4</ele>
        <time>2021-09-04T14:08:12Z</time>
      </trkpt>
      <trkpt lat="47.61042" lon="6.19157">
        <ele>250.5</ele>
        <time>2021-09-04T14:08:14Z</time>
      </trkpt>
      <trkpt lat="47.61047" lon="6.1915">
        <ele>250.7</ele>
        <time>2021-09-04T14:08:16Z</time>
      </trkpt>
      <trkpt lat="47.61053" lon="6.19142">
        <ele>250.9</ele>
        <time>2021-09-04T14:08:18Z</time>
      </trkpt>
      <trkpt lat="47.61058" lon="6.19136">
        <ele>251.1</ele>
        <time>2021-09-04T14:08:22Z</time>
      </trkpt>
      <trkpt lat="47.61063" lon="6.19129">
        <ele>251.4</ele>
        <time>2021-09-04T14:08:22Z</time>
      </trkpt>
      <trkpt lat="47.61069" lon="6.19122">
        <ele>251.7</ele>
        <time>2021-09-04T14:08:24Z</time>
      </trkpt>
      <trkpt lat="47.61074" lon="6.19114">
        <ele>252</ele>
        <time>2021-09-04T14:08:26Z</time>
      </trkpt>
      <trkpt lat="47.61079" lon="6.19107">
        <ele>252.4</ele>
        <time>2021-09-04T14:08:28Z</time>
      </trkpt>
      <trkpt lat="47.61085" lon="6.191">
        <ele>252.7</ele>
        <time>2021-09-04T14:08:30Z</time>
      </trkpt>
      <trkpt lat="47.61091" lon="6.19092">
        <ele>253</ele>
        <time>2021-09-04T14:08:32Z</time>
      </trkpt>
      <trkpt lat="47.61097" lon="6.19086">
        <ele>253.3</ele>
        <time>2021-09-04T14:08:34Z</time>
      </trkpt>
      <trkpt lat="47.61102" lon="6.19078">
        <ele>253.4</ele>
        <time>2021-09-04T14:08:36Z</time>
      </trkpt>
      <trkpt lat="47.61108" lon="6.19071">
        <ele>253.4</ele>
        <time>2021-09-04T14:08:38Z</time>
      </trkpt>
      <trkpt lat="47.61113" lon="6.19064">
        <ele>253.4</ele>
        <time>2021-09-04T14:08:40Z</time>
      </trkpt>
      <trkpt lat="47.61118" lon="6.19056">
        <ele>253.5</ele>
        <time>2021-09-04T14:08:42Z</time>
      </trkpt>
      <trkpt lat="47.61124" lon="6.19049">
        <ele>253.6</ele>
        <time>2021-09-04T14:08:44Z</time>
      </trkpt>
      <trkpt lat="47.61129" lon="6.19041">
        <ele>253.7</ele>
        <time>2021-09-04T14:08:46Z</time>
      </trkpt>
      <trkpt lat="47.61136" lon="6.19031">
        <ele>253.9</ele>
        <time>2021-09-04T14:08:48Z</time>
      </trkpt>
      <trkpt lat="47.61141" lon="6.19023">
        <ele>254.1</ele>
        <time>2021-09-04T14:08:50Z</time>
      </trkpt>
      <trkpt lat="47.61147" lon="6.19016">
        <ele>254.4</ele>
        <time>2021-09-04T14:08:52Z</time>
      </trkpt>
      <trkpt lat="47.61153" lon="6.19008">
        <ele>254.7</ele>
        <time>2021-09-04T14:08:54Z</time>
      </trkpt>
      <trkpt lat="47.61157" lon="6.19">
        <ele>255</ele>
        <time>2021-09-04T14:08:56Z</time>
      </trkpt>
      <trkpt lat="47.61162" lon="6.18993">
        <ele>255.3</ele>
        <time>2021-09-04T14:08:58Z</time>
      </trkpt>
      <trkpt lat="47.61166" lon="6.18987">
        <ele>255.6</ele>
        <time>2021-09-04T14:09:00Z</time>
      </trkpt>
      <trkpt lat="47.61172" lon="6.18979">
        <ele>254.9</ele>
        <time>2021-09-04T14:09:02Z</time>
      </trkpt>
      <trkpt lat="47.61175" lon="6.18973">
        <ele>254.5</ele>
        <time>2021-09-04T14:09:07Z</time>
      </trkpt>
      <trkpt lat="47.6118" lon="6.18966">
        <ele>253.9</ele>
        <time>2021-09-04T14:09:07Z</time>
      </trkpt>
      <trkpt lat="47.61184" lon="6.18961">
        <ele>253.3</ele>
        <time>2021-09-04T14:09:09Z</time>
      </trkpt>
      <trkpt lat="47.61188" lon="6.18955">
        <ele>252.7</ele>
        <time>2021-09-04T14:09:11Z</time>
      </trkpt>
      <trkpt lat="47.61192" lon="6.18948">
        <ele>252.2</ele>
        <time>2021-09-04T14:09:13Z</time>
      </trkpt>
      <trkpt lat="47.61197" lon="6.18938">
        <ele>251.9</ele>
        <time>2021-09-04T14:09:15Z</time>
      </trkpt>
      <trkpt lat="47.612" lon="6.18932">
        <ele>251.7</ele>
        <time>2021-09-04T14:09:16Z</time>
      </trkpt>
      <trkpt lat="47.61203" lon="6.18922">
        <ele>251.6</ele>
        <time>2021-09-04T14:09:17Z</time>
      </trkpt>
      <trkpt lat="47.61206" lon="6.18912">
        <ele>251.4</ele>
        <time>2021-09-04T14:09:19Z</time>
      </trkpt>
      <trkpt lat="47.6121" lon="6.18903">
        <ele>250.6</ele>
        <time>2021-09-04T14:09:21Z</time>
      </trkpt>
      <trkpt lat="47.61213" lon="6.18893">
        <ele>249.9</ele>
        <time>2021-09-04T14:09:23Z</time>
      </trkpt>
      <trkpt lat="47.61216" lon="6.18887">
        <ele>249.4</ele>
        <time>2021-09-04T14:09:25Z</time>
      </trkpt>
      <trkpt lat="47.61218" lon="6.18881">
        <ele>249</ele>
        <time>2021-09-04T14:09:29Z</time>
      </trkpt>
      <trkpt lat="47.61224" lon="6.18868">
        <ele>248</ele>
        <time>2021-09-04T14:09:30Z</time>
      </trkpt>
      <trkpt lat="47.61228" lon="6.18861">
        <ele>247.6</ele>
        <time>2021-09-04T14:09:32Z</time>
      </trkpt>
      <trkpt lat="47.61232" lon="6.18853">
        <ele>247</ele>
        <time>2021-09-04T14:09:34Z</time>
      </trkpt>
      <trkpt lat="47.61237" lon="6.18846">
        <ele>246.4</ele>
        <time>2021-09-04T14:09:36Z</time>
      </trkpt>
      <trkpt lat="47.61241" lon="6.1884">
        <ele>246</ele>
        <time>2021-09-04T14:09:37Z</time>
      </trkpt>
      <trkpt lat="47.61245" lon="6.18834">
        <ele>245.6</ele>
        <time>2021-09-04T14:09:39Z</time>
      </trkpt>
      <trkpt lat="47.6125" lon="6.18825">
        <ele>245.7</ele>
        <time>2021-09-04T14:09:41Z</time>
      </trkpt>
      <trkpt lat="47.61255" lon="6.18817">
        <ele>245.1</ele>
        <time>2021-09-04T14:09:43Z</time>
      </trkpt>
      <trkpt lat="47.6126" lon="6.18808">
        <ele>244.8</ele>
        <time>2021-09-04T14:09:45Z</time>
      </trkpt>
      <trkpt lat="47.61264" lon="6.18801">
        <ele>244.8</ele>
        <time>2021-09-04T14:09:49Z</time>
      </trkpt>
      <trkpt lat="47.61273" lon="6.18785">
        <ele>244.9</ele>
        <time>2021-09-04T14:09:50Z</time>
      </trkpt>
      <trkpt lat="47.61278" lon="6.18775">
        <ele>245.2</ele>
        <time>2021-09-04T14:09:52Z</time>
      </trkpt>
      <trkpt lat="47.61283" lon="6.18766">
        <ele>245.8</ele>
        <time>2021-09-04T14:09:54Z</time>
      </trkpt>
      <trkpt lat="47.61288" lon="6.18756">
        <ele>246.5</ele>
        <time>2021-09-04T14:09:56Z</time>
      </trkpt>
      <trkpt lat="47.61292" lon="6.18749">
        <ele>247</ele>
        <time>2021-09-04T14:09:57Z</time>
      </trkpt>
      <trkpt lat="47.61295" lon="6.18744">
        <ele>247.1</ele>
        <time>2021-09-04T14:09:59Z</time>
      </trkpt>
      <trkpt lat="47.61301" lon="6.18735">
        <ele>247.2</ele>
        <time>2021-09-04T14:10:01Z</time>
      </trkpt>
      <trkpt lat="47.61304" lon="6.1873">
        <ele>247.4</ele>
        <time>2021-09-04T14:10:03Z</time>
      </trkpt>
      <trkpt lat="47.61311" lon="6.18721">
        <ele>247.5</ele>
        <time>2021-09-04T14:10:08Z</time>
      </trkpt>
      <trkpt lat="47.61317" lon="6.18709">
        <ele>248.2</ele>
        <time>2021-09-04T14:10:08Z</time>
      </trkpt>
      <trkpt lat="47.6132" lon="6.18704">
        <ele>248.5</ele>
        <time>2021-09-04T14:10:09Z</time>
      </trkpt>
      <trkpt lat="47.61326" lon="6.18694">
        <ele>249.2</ele>
        <time>2021-09-04T14:10:11Z</time>
      </trkpt>
      <trkpt lat="47.61329" lon="6.18689">
        <ele>249.6</ele>
        <time>2021-09-04T14:10:12Z</time>
      </trkpt>
      <trkpt lat="47.61334" lon="6.18678">
        <ele>250.7</ele>
        <time>2021-09-04T14:10:14Z</time>
      </trkpt>
      <trkpt lat="47.61339" lon="6.18669">
        <ele>251.7</ele>
        <time>2021-09-04T14:10:16Z</time>
      </trkpt>
      <trkpt lat="47.61345" lon="6.1866">
        <ele>252.2</ele>
        <time>2021-09-04T14:10:18Z</time>
      </trkpt>
      <trkpt lat="47.61352" lon="6.18649">
        <ele>252.2</ele>
        <time>2021-09-04T14:10:20Z</time>
      </trkpt>
      <trkpt lat="47.61355" lon="6.18642">
        <ele>252.2</ele>
        <time>2021-09-04T14:10:23Z</time>
      </trkpt>
      <trkpt lat="47.61361" lon="6.18634">
        <ele>252.2</ele>
        <time>2021-09-04T14:10:23Z</time>
      </trkpt>
      <trkpt lat="47.61367" lon="6.18625">
        <ele>252.1</ele>
        <time>2021-09-04T14:10:25Z</time>
      </trkpt>
      <trkpt lat="47.61371" lon="6.18615">
        <ele>251.9</ele>
        <time>2021-09-04T14:10:27Z</time>
      </trkpt>
      <trkpt lat="47.61377" lon="6.18607">
        <ele>251.7</ele>
        <time>2021-09-04T14:10:29Z</time>
      </trkpt>
      <trkpt lat="47.61382" lon="6.18597">
        <ele>251.5</ele>
        <time>2021-09-04T14:10:31Z</time>
      </trkpt>
      <trkpt lat="47.61387" lon="6.18586">
        <ele>251.1</ele>
        <time>2021-09-04T14:10:33Z</time>
      </trkpt>
      <trkpt lat="47.61389" lon="6.1858">
        <ele>250.8</ele>
        <time>2021-09-04T14:10:34Z</time>
      </trkpt>
      <trkpt lat="47.61391" lon="6.18574">
        <ele>250.3</ele>
        <time>2021-09-04T14:10:35Z</time>
      </trkpt>
      <trkpt lat="47.61395" lon="6.18563">
        <ele>249.4</ele>
        <time>2021-09-04T14:10:37Z</time>
      </trkpt>
      <trkpt lat="47.61399" lon="6.18552">
        <ele>248.5</ele>
        <time>2021-09-04T14:10:39Z</time>
      </trkpt>
      <trkpt lat="47.61402" lon="6.18546">
        <ele>248</ele>
        <time>2021-09-04T14:10:40Z</time>
      </trkpt>
      <trkpt lat="47.61406" lon="6.18535">
        <ele>247.1</ele>
        <time>2021-09-04T14:10:42Z</time>
      </trkpt>
      <trkpt lat="47.6141" lon="6.18523">
        <ele>246</ele>
        <time>2021-09-04T14:10:44Z</time>
      </trkpt>
      <trkpt lat="47.61413" lon="6.18514">
        <ele>245.2</ele>
        <time>2021-09-04T14:10:46Z</time>
      </trkpt>
      <trkpt lat="47.61415" lon="6.18509">
        <ele>244.7</ele>
        <time>2021-09-04T14:10:47Z</time>
      </trkpt>
      <trkpt lat="47.61419" lon="6.18498">
        <ele>243.8</ele>
        <time>2021-09-04T14:10:49Z</time>
      </trkpt>
      <trkpt lat="47.61421" lon="6.18492">
        <ele>243.5</ele>
        <time>2021-09-04T14:10:53Z</time>
      </trkpt>
      <trkpt lat="47.61424" lon="6.18486">
        <ele>243.2</ele>
        <time>2021-09-04T14:10:54Z</time>
      </trkpt>
      <trkpt lat="47.61428" lon="6.1847">
        <ele>242.4</ele>
        <time>2021-09-04T14:10:55Z</time>
      </trkpt>
      <trkpt lat="47.6143" lon="6.1846">
        <ele>241.9</ele>
        <time>2021-09-04T14:10:57Z</time>
      </trkpt>
      <trkpt lat="47.61433" lon="6.1845">
        <ele>241.4</ele>
        <time>2021-09-04T14:10:59Z</time>
      </trkpt>
      <trkpt lat="47.61435" lon="6.18439">
        <ele>240.8</ele>
        <time>2021-09-04T14:11:01Z</time>
      </trkpt>
      <trkpt lat="47.61438" lon="6.18428">
        <ele>240.2</ele>
        <time>2021-09-04T14:11:03Z</time>
      </trkpt>
      <trkpt lat="47.6144" lon="6.18416">
        <ele>239.6</ele>
        <time>2021-09-04T14:11:05Z</time>
      </trkpt>
      <trkpt lat="47.61442" lon="6.18404">
        <ele>239.5</ele>
        <time>2021-09-04T14:11:07Z</time>
      </trkpt>
      <trkpt lat="47.61445" lon="6.18393">
        <ele>239.3</ele>
        <time>2021-09-04T14:11:09Z</time>
      </trkpt>
      <trkpt lat="47.61447" lon="6.18381">
        <ele>239.2</ele>
        <time>2021-09-04T14:11:11Z</time>
      </trkpt>
      <trkpt lat="47.61448" lon="6.18374">
        <ele>239.1</ele>
        <time>2021-09-04T14:11:12Z</time>
      </trkpt>
      <trkpt lat="47.6145" lon="6.18362">
        <ele>238.9</ele>
        <time>2021-09-04T14:11:14Z</time>
      </trkpt>
      <trkpt lat="47.61452" lon="6.1835">
        <ele>238.6</ele>
        <time>2021-09-04T14:11:16Z</time>
      </trkpt>
      <trkpt lat="47.61454" lon="6.18338">
        <ele>238.4</ele>
        <time>2021-09-04T14:11:18Z</time>
      </trkpt>
      <trkpt lat="47.61456" lon="6.18328">
        <ele>238.5</ele>
        <time>2021-09-04T14:11:20Z</time>
      </trkpt>
      <trkpt lat="47.61458" lon="6.18319">
        <ele>238.7</ele>
        <time>2021-09-04T14:11:22Z</time>
      </trkpt>
      <trkpt lat="47.61459" lon="6.18311">
        <ele>238.9</ele>
        <time>2021-09-04T14:11:25Z</time>
      </trkpt>
      <trkpt lat="47.6146" lon="6.1832">
        <ele>238.4</ele>
        <time>2021-09-04T14:11:58Z</time>
      </trkpt>
      <trkpt lat="47.61458" lon="6.1833">
        <ele>238.2</ele>
        <time>2021-09-04T14:12:01Z</time>
      </trkpt>
      <trkpt lat="47.61457" lon="6.18337">
        <ele>238.2</ele>
        <time>2021-09-04T14:12:03Z</time>
      </trkpt>
      <trkpt lat="47.61455" lon="6.18346">
        <ele>238.4</ele>
        <time>2021-09-04T14:12:05Z</time>
      </trkpt>
      <trkpt lat="47.61453" lon="6.18355">
        <ele>238.6</ele>
        <time>2021-09-04T14:12:07Z</time>
      </trkpt>
      <trkpt lat="47.61452" lon="6.18365">
        <ele>238.7</ele>
        <time>2021-09-04T14:12:09Z</time>
      </trkpt>
      <trkpt lat="47.6145" lon="6.18374">
        <ele>238.9</ele>
        <time>2021-09-04T14:12:11Z</time>
      </trkpt>
      <trkpt lat="47.61448" lon="6.18383">
        <ele>239.1</ele>
        <time>2021-09-04T14:12:13Z</time>
      </trkpt>
      <trkpt lat="47.61447" lon="6.18391">
        <ele>239.2</ele>
        <time>2021-09-04T14:12:15Z</time>
      </trkpt>
      <trkpt lat="47.61445" lon="6.18399">
        <ele>239.3</ele>
        <time>2021-09-04T14:12:17Z</time>
      </trkpt>
      <trkpt lat="47.61442" lon="6.18408">
        <ele>239.5</ele>
        <time>2021-09-04T14:12:19Z</time>
      </trkpt>
      <trkpt lat="47.6144" lon="6.18416">
        <ele>239.6</ele>
        <time>2021-09-04T14:12:21Z</time>
      </trkpt>
      <trkpt lat="47.61438" lon="6.18424">
        <ele>240</ele>
        <time>2021-09-04T14:12:23Z</time>
      </trkpt>
      <trkpt lat="47.61436" lon="6.18433">
        <ele>240.5</ele>
        <time>2021-09-04T14:12:25Z</time>
      </trkpt>
      <trkpt lat="47.61434" lon="6.18443">
        <ele>241</ele>
        <time>2021-09-04T14:12:27Z</time>
      </trkpt>
      <trkpt lat="47.61431" lon="6.18452">
        <ele>241.5</ele>
        <time>2021-09-04T14:12:29Z</time>
      </trkpt>
      <trkpt lat="47.61428" lon="6.18461">
        <ele>242.1</ele>
        <time>2021-09-04T14:12:31Z</time>
      </trkpt>
      <trkpt lat="47.61426" lon="6.18469">
        <ele>242.5</ele>
        <time>2021-09-04T14:12:33Z</time>
      </trkpt>
      <trkpt lat="47.61424" lon="6.18478">
        <ele>242.9</ele>
        <time>2021-09-04T14:12:35Z</time>
      </trkpt>
      <trkpt lat="47.61422" lon="6.18486">
        <ele>243.3</ele>
        <time>2021-09-04T14:12:37Z</time>
      </trkpt>
      <trkpt lat="47.6142" lon="6.18493">
        <ele>243.6</ele>
        <time>2021-09-04T14:12:39Z</time>
      </trkpt>
      <trkpt lat="47.61419" lon="6.18499">
        <ele>243.9</ele>
        <time>2021-09-04T14:12:41Z</time>
      </trkpt>
      <trkpt lat="47.61415" lon="6.18507">
        <ele>244.6</ele>
        <time>2021-09-04T14:12:44Z</time>
      </trkpt>
      <trkpt lat="47.61412" lon="6.18513">
        <ele>245.2</ele>
        <time>2021-09-04T14:12:46Z</time>
      </trkpt>
      <trkpt lat="47.61409" lon="6.18521">
        <ele>245.9</ele>
        <time>2021-09-04T14:12:48Z</time>
      </trkpt>
      <trkpt lat="47.61405" lon="6.1853">
        <ele>246.8</ele>
        <time>2021-09-04T14:12:50Z</time>
      </trkpt>
      <trkpt lat="47.61402" lon="6.1854">
        <ele>247.6</ele>
        <time>2021-09-04T14:12:52Z</time>
      </trkpt>
      <trkpt lat="47.61398" lon="6.18547">
        <ele>248.3</ele>
        <time>2021-09-04T14:12:54Z</time>
      </trkpt>
      <trkpt lat="47.61393" lon="6.18556">
        <ele>249</ele>
        <time>2021-09-04T14:12:56Z</time>
      </trkpt>
      <trkpt lat="47.61388" lon="6.18565">
        <ele>249.8</ele>
        <time>2021-09-04T14:12:58Z</time>
      </trkpt>
      <trkpt lat="47.61383" lon="6.18573">
        <ele>250.6</ele>
        <time>2021-09-04T14:13:00Z</time>
      </trkpt>
      <trkpt lat="47.61379" lon="6.18582">
        <ele>251.3</ele>
        <time>2021-09-04T14:13:02Z</time>
      </trkpt>
      <trkpt lat="47.61375" lon="6.1859">
        <ele>251.6</ele>
        <time>2021-09-04T14:13:04Z</time>
      </trkpt>
      <trkpt lat="47.61371" lon="6.18597">
        <ele>251.8</ele>
        <time>2021-09-04T14:13:06Z</time>
      </trkpt>
      <trkpt lat="47.61367" lon="6.18602">
        <ele>251.9</ele>
        <time>2021-09-04T14:13:08Z</time>
      </trkpt>
      <trkpt lat="47.61364" lon="6.1861">
        <ele>252.1</ele>
        <time>2021-09-04T14:13:11Z</time>
      </trkpt>
      <trkpt lat="47.6136" lon="6.18616">
        <ele>252.2</ele>
        <time>2021-09-04T14:13:13Z</time>
      </trkpt>
      <trkpt lat="47.61355" lon="6.18624">
        <ele>252.2</ele>
        <time>2021-09-04T14:13:15Z</time>
      </trkpt>
      <trkpt lat="47.6135" lon="6.18631">
        <ele>252.3</ele>
        <time>2021-09-04T14:13:17Z</time>
      </trkpt>
      <trkpt lat="47.61345" lon="6.18639">
        <ele>252.3</ele>
        <time>2021-09-04T14:13:19Z</time>
      </trkpt>
      <trkpt lat="47.6134" lon="6.18647">
        <ele>252.2</ele>
        <time>2021-09-04T14:13:21Z</time>
      </trkpt>
      <trkpt lat="47.61334" lon="6.18655">
        <ele>252.1</ele>
        <time>2021-09-04T14:13:23Z</time>
      </trkpt>
      <trkpt lat="47.61328" lon="6.18663">
        <ele>252.2</ele>
        <time>2021-09-04T14:13:25Z</time>
      </trkpt>
      <trkpt lat="47.61323" lon="6.1867">
        <ele>252</ele>
        <time>2021-09-04T14:13:27Z</time>
      </trkpt>
      <trkpt lat="47.61316" lon="6.18677">
        <ele>251.5</ele>
        <time>2021-09-04T14:13:29Z</time>
      </trkpt>
      <trkpt lat="47.61311" lon="6.18685">
        <ele>251.1</ele>
        <time>2021-09-04T14:13:31Z</time>
      </trkpt>
      <trkpt lat="47.61303" lon="6.18695">
        <ele>250.6</ele>
        <time>2021-09-04T14:13:33Z</time>
      </trkpt>
      <trkpt lat="47.61299" lon="6.187">
        <ele>250.4</ele>
        <time>2021-09-04T14:13:35Z</time>
      </trkpt>
      <trkpt lat="47.61294" lon="6.18706">
        <ele>250.2</ele>
        <time>2021-09-04T14:13:37Z</time>
      </trkpt>
      <trkpt lat="47.61289" lon="6.18713">
        <ele>250.1</ele>
        <time>2021-09-04T14:13:39Z</time>
      </trkpt>
      <trkpt lat="47.6129" lon="6.18721">
        <ele>249.3</ele>
        <time>2021-09-04T14:13:50Z</time>
      </trkpt>
      <trkpt lat="47.61294" lon="6.18715">
        <ele>249.5</ele>
        <time>2021-09-04T14:13:59Z</time>
      </trkpt>
      <trkpt lat="47.61299" lon="6.18707">
        <ele>249.8</ele>
        <time>2021-09-04T14:14:01Z</time>
      </trkpt>
      <trkpt lat="47.61304" lon="6.18699">
        <ele>250.1</ele>
        <time>2021-09-04T14:14:03Z</time>
      </trkpt>
      <trkpt lat="47.61308" lon="6.1869">
        <ele>250.7</ele>
        <time>2021-09-04T14:14:05Z</time>
      </trkpt>
      <trkpt lat="47.61309" lon="6.18684">
        <ele>251.3</ele>
        <time>2021-09-04T14:14:07Z</time>
      </trkpt>
      <trkpt lat="47.61308" lon="6.18676">
        <ele>252.1</ele>
        <time>2021-09-04T14:14:10Z</time>
      </trkpt>
      <trkpt lat="47.61307" lon="6.18668">
        <ele>252.8</ele>
        <time>2021-09-04T14:14:13Z</time>
      </trkpt>
      <trkpt lat="47.6131" lon="6.1866">
        <ele>253</ele>
        <time>2021-09-04T14:14:16Z</time>
      </trkpt>
      <trkpt lat="47.61313" lon="6.18653">
        <ele>252.9</ele>
        <time>2021-09-04T14:14:18Z</time>
      </trkpt>
      <trkpt lat="47.61316" lon="6.18645">
        <ele>252.9</ele>
        <time>2021-09-04T14:14:20Z</time>
      </trkpt>
      <trkpt lat="47.61322" lon="6.18638">
        <ele>252.8</ele>
        <time>2021-09-04T14:14:23Z</time>
      </trkpt>
      <trkpt lat="47.61324" lon="6.18633">
        <ele>252.8</ele>
        <time>2021-09-04T14:14:25Z</time>
      </trkpt>
      <trkpt lat="47.61328" lon="6.18627">
        <ele>252.7</ele>
        <time>2021-09-04T14:14:29Z</time>
      </trkpt>
      <trkpt lat="47.61331" lon="6.18618">
        <ele>252.7</ele>
        <time>2021-09-04T14:14:30Z</time>
      </trkpt>
      <trkpt lat="47.61332" lon="6.1861">
        <ele>252.7</ele>
        <time>2021-09-04T14:14:33Z</time>
      </trkpt>
      <trkpt lat="47.61334" lon="6.186">
        <ele>252.8</ele>
        <time>2021-09-04T14:14:36Z</time>
      </trkpt>
      <trkpt lat="47.61336" lon="6.18591">
        <ele>252.8</ele>
        <time>2021-09-04T14:14:41Z</time>
      </trkpt>
      <trkpt lat="47.6134" lon="6.18587">
        <ele>252.7</ele>
        <time>2021-09-04T14:14:41Z</time>
      </trkpt>
      <trkpt lat="47.61345" lon="6.18589">
        <ele>252.6</ele>
        <time>2021-09-04T14:14:46Z</time>
      </trkpt>
      <trkpt lat="47.6135" lon="6.18593">
        <ele>252.4</ele>
        <time>2021-09-04T14:14:48Z</time>
      </trkpt>
      <trkpt lat="47.61354" lon="6.18596">
        <ele>252.2</ele>
        <time>2021-09-04T14:14:50Z</time>
      </trkpt>
      <trkpt lat="47.6136" lon="6.186">
        <ele>252.1</ele>
        <time>2021-09-04T14:14:52Z</time>
      </trkpt>
      <trkpt lat="47.61365" lon="6.18605">
        <ele>252</ele>
        <time>2021-09-04T14:14:52Z</time>
      </trkpt>
      <trkpt lat="47.6137" lon="6.1861">
        <ele>251.9</ele>
        <time>2021-09-04T14:14:54Z</time>
      </trkpt>
      <trkpt lat="47.61374" lon="6.18614">
        <ele>251.9</ele>
        <time>2021-09-04T14:14:58Z</time>
      </trkpt>
      <trkpt lat="47.61379" lon="6.18618">
        <ele>251.8</ele>
        <time>2021-09-04T14:14:58Z</time>
      </trkpt>
      <trkpt lat="47.61385" lon="6.18621">
        <ele>251.8</ele>
        <time>2021-09-04T14:15:00Z</time>
      </trkpt>
      <trkpt lat="47.6139" lon="6.18624">
        <ele>251.8</ele>
        <time>2021-09-04T14:15:04Z</time>
      </trkpt>
      <trkpt lat="47.61398" lon="6.18625">
        <ele>251.7</ele>
        <time>2021-09-04T14:15:04Z</time>
      </trkpt>
      <trkpt lat="47.61405" lon="6.18627">
        <ele>251.7</ele>
        <time>2021-09-04T14:15:06Z</time>
      </trkpt>
      <trkpt lat="47.61412" lon="6.18629">
        <ele>251.7</ele>
        <time>2021-09-04T14:15:08Z</time>
      </trkpt>
      <trkpt lat="47.61418" lon="6.18632">
        <ele>251.8</ele>
        <time>2021-09-04T14:15:12Z</time>
      </trkpt>
      <trkpt lat="47.61425" lon="6.18633">
        <ele>251.8</ele>
        <time>2021-09-04T14:15:14Z</time>
      </trkpt>
      <trkpt lat="47.61437" lon="6.18633">
        <ele>251.8</ele>
        <time>2021-09-04T14:15:15Z</time>
      </trkpt>
      <trkpt lat="47.61443" lon="6.18635">
        <ele>251.9</ele>
        <time>2021-09-04T14:15:19Z</time>
      </trkpt>
      <trkpt lat="47.61449" lon="6.18635">
        <ele>251.9</ele>
        <time>2021-09-04T14:15:20Z</time>
      </trkpt>
      <trkpt lat="47.61455" lon="6.18632">
        <ele>251.8</ele>
        <time>2021-09-04T14:15:20Z</time>
      </trkpt>
      <trkpt lat="47.61462" lon="6.18627">
        <ele>251.6</ele>
        <time>2021-09-04T14:15:24Z</time>
      </trkpt>
      <trkpt lat="47.61474" lon="6.1862">
        <ele>251.3</ele>
        <time>2021-09-04T14:15:25Z</time>
      </trkpt>
      <trkpt lat="47.61482" lon="6.18617">
        <ele>251.2</ele>
        <time>2021-09-04T14:15:27Z</time>
      </trkpt>
      <trkpt lat="47.61489" lon="6.18615">
        <ele>251.1</ele>
        <time>2021-09-04T14:15:31Z</time>
      </trkpt>
      <trkpt lat="47.61494" lon="6.18613">
        <ele>251.1</ele>
        <time>2021-09-04T14:15:32Z</time>
      </trkpt>
      <trkpt lat="47.615" lon="6.18613">
        <ele>251.1</ele>
        <time>2021-09-04T14:15:34Z</time>
      </trkpt>
      <trkpt lat="47.61505" lon="6.18614">
        <ele>250.9</ele>
        <time>2021-09-04T14:15:35Z</time>
      </trkpt>
      <trkpt lat="47.61515" lon="6.1862">
        <ele>250.6</ele>
        <time>2021-09-04T14:15:38Z</time>
      </trkpt>
      <trkpt lat="47.61519" lon="6.18622">
        <ele>250.5</ele>
        <time>2021-09-04T14:15:39Z</time>
      </trkpt>
      <trkpt lat="47.61532" lon="6.18628">
        <ele>250.1</ele>
        <time>2021-09-04T14:15:42Z</time>
      </trkpt>
      <trkpt lat="47.61537" lon="6.1863">
        <ele>249.9</ele>
        <time>2021-09-04T14:15:43Z</time>
      </trkpt>
      <trkpt lat="47.61543" lon="6.18633">
        <ele>249.6</ele>
        <time>2021-09-04T14:15:45Z</time>
      </trkpt>
      <trkpt lat="47.61548" lon="6.18636">
        <ele>249.4</ele>
        <time>2021-09-04T14:15:46Z</time>
      </trkpt>
      <trkpt lat="47.61555" lon="6.18638">
        <ele>249.1</ele>
        <time>2021-09-04T14:15:48Z</time>
      </trkpt>
      <trkpt lat="47.61566" lon="6.18644">
        <ele>248.7</ele>
        <time>2021-09-04T14:15:51Z</time>
      </trkpt>
      <trkpt lat="47.61573" lon="6.18647">
        <ele>248.3</ele>
        <time>2021-09-04T14:15:53Z</time>
      </trkpt>
      <trkpt lat="47.6158" lon="6.1865">
        <ele>248</ele>
        <time>2021-09-04T14:15:55Z</time>
      </trkpt>
      <trkpt lat="47.61584" lon="6.18652">
        <ele>247.7</ele>
        <time>2021-09-04T14:15:56Z</time>
      </trkpt>
      <trkpt lat="47.61591" lon="6.18655">
        <ele>247.2</ele>
        <time>2021-09-04T14:15:59Z</time>
      </trkpt>
      <trkpt lat="47.61596" lon="6.18657">
        <ele>246.7</ele>
        <time>2021-09-04T14:16:01Z</time>
      </trkpt>
      <trkpt lat="47.61601" lon="6.1866">
        <ele>246.3</ele>
        <time>2021-09-04T14:16:02Z</time>
      </trkpt>
      <trkpt lat="47.61608" lon="6.18662">
        <ele>245.6</ele>
        <time>2021-09-04T14:16:05Z</time>
      </trkpt>
      <trkpt lat="47.61616" lon="6.18663">
        <ele>244.9</ele>
        <time>2021-09-04T14:16:05Z</time>
      </trkpt>
      <trkpt lat="47.61622" lon="6.18663">
        <ele>244.4</ele>
        <time>2021-09-04T14:16:09Z</time>
      </trkpt>
      <trkpt lat="47.61627" lon="6.18662">
        <ele>243.9</ele>
        <time>2021-09-04T14:16:11Z</time>
      </trkpt>
      <trkpt lat="47.61633" lon="6.1866">
        <ele>243.4</ele>
        <time>2021-09-04T14:16:13Z</time>
      </trkpt>
      <trkpt lat="47.61638" lon="6.18658">
        <ele>243</ele>
        <time>2021-09-04T14:16:15Z</time>
      </trkpt>
      <trkpt lat="47.61643" lon="6.18657">
        <ele>242.6</ele>
        <time>2021-09-04T14:16:16Z</time>
      </trkpt>
      <trkpt lat="47.61647" lon="6.18655">
        <ele>242.3</ele>
        <time>2021-09-04T14:16:17Z</time>
      </trkpt>
      <trkpt lat="47.61655" lon="6.18652">
        <ele>241.7</ele>
        <time>2021-09-04T14:16:19Z</time>
      </trkpt>
      <trkpt lat="47.61659" lon="6.1865">
        <ele>241.4</ele>
        <time>2021-09-04T14:16:20Z</time>
      </trkpt>
      <trkpt lat="47.61668" lon="6.18648">
        <ele>240.7</ele>
        <time>2021-09-04T14:16:22Z</time>
      </trkpt>
      <trkpt lat="47.61674" lon="6.18649">
        <ele>240.1</ele>
        <time>2021-09-04T14:16:23Z</time>
      </trkpt>
      <trkpt lat="47.6168" lon="6.1865">
        <ele>239.4</ele>
        <time>2021-09-04T14:16:25Z</time>
      </trkpt>
      <trkpt lat="47.61687" lon="6.18651">
        <ele>238.8</ele>
        <time>2021-09-04T14:16:26Z</time>
      </trkpt>
      <trkpt lat="47.61693" lon="6.18652">
        <ele>238.1</ele>
        <time>2021-09-04T14:16:27Z</time>
      </trkpt>
      <trkpt lat="47.61699" lon="6.18653">
        <ele>237.5</ele>
        <time>2021-09-04T14:16:28Z</time>
      </trkpt>
      <trkpt lat="47.61705" lon="6.18652">
        <ele>237</ele>
        <time>2021-09-04T14:16:29Z</time>
      </trkpt>
      <trkpt lat="47.6171" lon="6.18651">
        <ele>236.5</ele>
        <time>2021-09-04T14:16:30Z</time>
      </trkpt>
      <trkpt lat="47.6172" lon="6.18649">
        <ele>235.6</ele>
        <time>2021-09-04T14:16:31Z</time>
      </trkpt>
      <trkpt lat="47.61725" lon="6.18649">
        <ele>235.1</ele>
        <time>2021-09-04T14:16:31Z</time>
      </trkpt>
      <trkpt lat="47.61735" lon="6.18646">
        <ele>234.3</ele>
        <time>2021-09-04T14:16:31Z</time>
      </trkpt>
      <trkpt lat="47.61739" lon="6.18644">
        <ele>233.9</ele>
        <time>2021-09-04T14:16:34Z</time>
      </trkpt>
      <trkpt lat="47.61745" lon="6.18641">
        <ele>233.4</ele>
        <time>2021-09-04T14:16:35Z</time>
      </trkpt>
      <trkpt lat="47.6175" lon="6.18639">
        <ele>233</ele>
        <time>2021-09-04T14:16:35Z</time>
      </trkpt>
      <trkpt lat="47.61759" lon="6.18634">
        <ele>232.2</ele>
        <time>2021-09-04T14:16:37Z</time>
      </trkpt>
      <trkpt lat="47.61765" lon="6.18629">
        <ele>231.5</ele>
        <time>2021-09-04T14:16:38Z</time>
      </trkpt>
      <trkpt lat="47.61771" lon="6.18626">
        <ele>230.9</ele>
        <time>2021-09-04T14:16:39Z</time>
      </trkpt>
      <trkpt lat="47.61777" lon="6.18621">
        <ele>230.3</ele>
        <time>2021-09-04T14:16:40Z</time>
      </trkpt>
      <trkpt lat="47.61785" lon="6.18614">
        <ele>229.5</ele>
        <time>2021-09-04T14:16:42Z</time>
      </trkpt>
      <trkpt lat="47.61793" lon="6.18603">
        <ele>228.5</ele>
        <time>2021-09-04T14:16:45Z</time>
      </trkpt>
      <trkpt lat="47.61797" lon="6.18596">
        <ele>228.1</ele>
        <time>2021-09-04T14:16:47Z</time>
      </trkpt>
      <trkpt lat="47.61802" lon="6.1859">
        <ele>227.5</ele>
        <time>2021-09-04T14:16:49Z</time>
      </trkpt>
      <trkpt lat="47.61807" lon="6.18584">
        <ele>226.7</ele>
        <time>2021-09-04T14:16:51Z</time>
      </trkpt>
      <trkpt lat="47.61811" lon="6.18578">
        <ele>226.2</ele>
        <time>2021-09-04T14:16:53Z</time>
      </trkpt>
      <trkpt lat="47.61814" lon="6.18566">
        <ele>225.6</ele>
        <time>2021-09-04T14:16:53Z</time>
      </trkpt>
      <trkpt lat="47.61815" lon="6.18557">
        <ele>225.4</ele>
        <time>2021-09-04T14:16:57Z</time>
      </trkpt>
      <trkpt lat="47.61819" lon="6.18545">
        <ele>224.9</ele>
        <time>2021-09-04T14:16:58Z</time>
      </trkpt>
      <trkpt lat="47.61821" lon="6.18536">
        <ele>224.5</ele>
        <time>2021-09-04T14:17:00Z</time>
      </trkpt>
      <trkpt lat="47.61823" lon="6.18525">
        <ele>224.2</ele>
        <time>2021-09-04T14:17:02Z</time>
      </trkpt>
      <trkpt lat="47.6183" lon="6.18505">
        <ele>223.3</ele>
        <time>2021-09-04T14:17:04Z</time>
      </trkpt>
      <trkpt lat="47.61835" lon="6.18501">
        <ele>222.9</ele>
        <time>2021-09-04T14:17:07Z</time>
      </trkpt>
      <trkpt lat="47.61839" lon="6.18496">
        <ele>222.6</ele>
        <time>2021-09-04T14:17:08Z</time>
      </trkpt>
      <trkpt lat="47.61833" lon="6.18499">
        <ele>223</ele>
        <time>2021-09-04T14:17:10Z</time>
      </trkpt>
      <trkpt lat="47.61838" lon="6.18496">
        <ele>222.7</ele>
        <time>2021-09-04T14:17:14Z</time>
      </trkpt>
      <trkpt lat="47.61841" lon="6.18502">
        <ele>222.6</ele>
        <time>2021-09-04T14:17:18Z</time>
      </trkpt>
      <trkpt lat="47.61847" lon="6.18504">
        <ele>222.3</ele>
        <time>2021-09-04T14:17:20Z</time>
      </trkpt>
      <trkpt lat="47.61853" lon="6.18505">
        <ele>222.1</ele>
        <time>2021-09-04T14:17:23Z</time>
      </trkpt>
      <trkpt lat="47.61859" lon="6.18507">
        <ele>221.8</ele>
        <time>2021-09-04T14:17:25Z</time>
      </trkpt>
      <trkpt lat="47.61865" lon="6.18509">
        <ele>221.5</ele>
        <time>2021-09-04T14:17:27Z</time>
      </trkpt>
      <trkpt lat="47.61872" lon="6.18509">
        <ele>221.2</ele>
        <time>2021-09-04T14:17:29Z</time>
      </trkpt>
      <trkpt lat="47.61876" lon="6.18509">
        <ele>221</ele>
        <time>2021-09-04T14:17:30Z</time>
      </trkpt>
      <trkpt lat="47.61886" lon="6.18507">
        <ele>220.5</ele>
        <time>2021-09-04T14:17:32Z</time>
      </trkpt>
      <trkpt lat="47.61892" lon="6.18506">
        <ele>220.3</ele>
        <time>2021-09-04T14:17:34Z</time>
      </trkpt>
      <trkpt lat="47.61902" lon="6.18503">
        <ele>219.7</ele>
        <time>2021-09-04T14:17:35Z</time>
      </trkpt>
      <trkpt lat="47.61907" lon="6.18502">
        <ele>219.5</ele>
        <time>2021-09-04T14:17:36Z</time>
      </trkpt>
      <trkpt lat="47.61912" lon="6.18501">
        <ele>219.2</ele>
        <time>2021-09-04T14:17:38Z</time>
      </trkpt>
      <trkpt lat="47.61926" lon="6.18499">
        <ele>219.4</ele>
        <time>2021-09-04T14:17:41Z</time>
      </trkpt>
      <trkpt lat="47.61938" lon="6.18498">
        <ele>220</ele>
        <time>2021-09-04T14:17:42Z</time>
      </trkpt>
      <trkpt lat="47.61943" lon="6.18497">
        <ele>220.3</ele>
        <time>2021-09-04T14:17:43Z</time>
      </trkpt>
      <trkpt lat="47.61948" lon="6.18496">
        <ele>220.5</ele>
        <time>2021-09-04T14:17:44Z</time>
      </trkpt>
      <trkpt lat="47.61952" lon="6.18495">
        <ele>220.8</ele>
        <time>2021-09-04T14:17:46Z</time>
      </trkpt>
      <trkpt lat="47.61969" lon="6.18492">
        <ele>221.6</ele>
        <time>2021-09-04T14:17:47Z</time>
      </trkpt>
      <trkpt lat="47.61976" lon="6.18491">
        <ele>222</ele>
        <time>2021-09-04T14:17:48Z</time>
      </trkpt>
      <trkpt lat="47.61983" lon="6.18489">
        <ele>222.4</ele>
        <time>2021-09-04T14:17:49Z</time>
      </trkpt>
      <trkpt lat="47.6199" lon="6.18486">
        <ele>222.8</ele>
        <time>2021-09-04T14:17:50Z</time>
      </trkpt>
      <trkpt lat="47.61997" lon="6.18483">
        <ele>223.3</ele>
        <time>2021-09-04T14:17:51Z</time>
      </trkpt>
      <trkpt lat="47.62004" lon="6.1848">
        <ele>223.6</ele>
        <time>2021-09-04T14:17:52Z</time>
      </trkpt>
      <trkpt lat="47.62011" lon="6.18478">
        <ele>223.9</ele>
        <time>2021-09-04T14:17:53Z</time>
      </trkpt>
      <trkpt lat="47.62016" lon="6.18476">
        <ele>224.1</ele>
        <time>2021-09-04T14:17:54Z</time>
      </trkpt>
      <trkpt lat="47.62022" lon="6.18475">
        <ele>224.3</ele>
        <time>2021-09-04T14:17:55Z</time>
      </trkpt>
      <trkpt lat="47.62027" lon="6.18472">
        <ele>224.4</ele>
        <time>2021-09-04T14:17:56Z</time>
      </trkpt>
      <trkpt lat="47.62032" lon="6.1847">
        <ele>224.6</ele>
        <time>2021-09-04T14:17:57Z</time>
      </trkpt>
      <trkpt lat="47.62038" lon="6.18467">
        <ele>224.7</ele>
        <time>2021-09-04T14:17:58Z</time>
      </trkpt>
      <trkpt lat="47.62043" lon="6.18463">
        <ele>224.8</ele>
        <time>2021-09-04T14:17:59Z</time>
      </trkpt>
      <trkpt lat="47.62048" lon="6.1846">
        <ele>224.9</ele>
        <time>2021-09-04T14:18:00Z</time>
      </trkpt>
      <trkpt lat="47.62053" lon="6.18457">
        <ele>224.9</ele>
        <time>2021-09-04T14:18:01Z</time>
      </trkpt>
      <trkpt lat="47.62058" lon="6.18453">
        <ele>225</ele>
        <time>2021-09-04T14:18:02Z</time>
      </trkpt>
      <trkpt lat="47.62063" lon="6.1845">
        <ele>225</ele>
        <time>2021-09-04T14:18:03Z</time>
      </trkpt>
      <trkpt lat="47.62067" lon="6.18447">
        <ele>224.9</ele>
        <time>2021-09-04T14:18:04Z</time>
      </trkpt>
      <trkpt lat="47.62072" lon="6.18443">
        <ele>224.9</ele>
        <time>2021-09-04T14:18:05Z</time>
      </trkpt>
      <trkpt lat="47.62079" lon="6.18437">
        <ele>224.7</ele>
        <time>2021-09-04T14:18:07Z</time>
      </trkpt>
      <trkpt lat="47.62086" lon="6.18432">
        <ele>224.6</ele>
        <time>2021-09-04T14:18:09Z</time>
      </trkpt>
      <trkpt lat="47.6209" lon="6.18428">
        <ele>224.4</ele>
        <time>2021-09-04T14:18:11Z</time>
      </trkpt>
      <trkpt lat="47.62096" lon="6.18425">
        <ele>224.3</ele>
        <time>2021-09-04T14:18:22Z</time>
      </trkpt>
      <trkpt lat="47.62101" lon="6.18419">
        <ele>224.1</ele>
        <time>2021-09-04T14:18:24Z</time>
      </trkpt>
      <trkpt lat="47.62102" lon="6.18406">
        <ele>223.8</ele>
        <time>2021-09-04T14:18:25Z</time>
      </trkpt>
      <trkpt lat="47.62102" lon="6.18392">
        <ele>223.6</ele>
        <time>2021-09-04T14:18:26Z</time>
      </trkpt>
      <trkpt lat="47.621" lon="6.18383">
        <ele>223.5</ele>
        <time>2021-09-04T14:18:27Z</time>
      </trkpt>
      <trkpt lat="47.62099" lon="6.18375">
        <ele>223.4</ele>
        <time>2021-09-04T14:18:28Z</time>
      </trkpt>
      <trkpt lat="47.62097" lon="6.18367">
        <ele>223.3</ele>
        <time>2021-09-04T14:18:29Z</time>
      </trkpt>
      <trkpt lat="47.62096" lon="6.18359">
        <ele>223.2</ele>
        <time>2021-09-04T14:18:30Z</time>
      </trkpt>
      <trkpt lat="47.62094" lon="6.18351">
        <ele>223.1</ele>
        <time>2021-09-04T14:18:31Z</time>
      </trkpt>
      <trkpt lat="47.62093" lon="6.18343">
        <ele>223</ele>
        <time>2021-09-04T14:18:32Z</time>
      </trkpt>
      <trkpt lat="47.62092" lon="6.18335">
        <ele>222.9</ele>
        <time>2021-09-04T14:18:33Z</time>
      </trkpt>
      <trkpt lat="47.6209" lon="6.18327">
        <ele>222.8</ele>
        <time>2021-09-04T14:18:34Z</time>
      </trkpt>
      <trkpt lat="47.62089" lon="6.18319">
        <ele>222.7</ele>
        <time>2021-09-04T14:18:35Z</time>
      </trkpt>
      <trkpt lat="47.62088" lon="6.18311">
        <ele>222.7</ele>
        <time>2021-09-04T14:18:36Z</time>
      </trkpt>
      <trkpt lat="47.62086" lon="6.18304">
        <ele>222.6</ele>
        <time>2021-09-04T14:18:37Z</time>
      </trkpt>
      <trkpt lat="47.62084" lon="6.18295">
        <ele>222.5</ele>
        <time>2021-09-04T14:18:38Z</time>
      </trkpt>
      <trkpt lat="47.62083" lon="6.18287">
        <ele>222.4</ele>
        <time>2021-09-04T14:18:39Z</time>
      </trkpt>
      <trkpt lat="47.62081" lon="6.18278">
        <ele>222.4</ele>
        <time>2021-09-04T14:18:40Z</time>
      </trkpt>
      <trkpt lat="47.62079" lon="6.18269">
        <ele>222.3</ele>
        <time>2021-09-04T14:18:41Z</time>
      </trkpt>
      <trkpt lat="47.62077" lon="6.18259">
        <ele>222.2</ele>
        <time>2021-09-04T14:18:42Z</time>
      </trkpt>
      <trkpt lat="47.62076" lon="6.1825">
        <ele>222.1</ele>
        <time>2021-09-04T14:18:43Z</time>
      </trkpt>
      <trkpt lat="47.62074" lon="6.18242">
        <ele>221.9</ele>
        <time>2021-09-04T14:18:44Z</time>
      </trkpt>
      <trkpt lat="47.62073" lon="6.18233">
        <ele>221.8</ele>
        <time>2021-09-04T14:18:45Z</time>
      </trkpt>
      <trkpt lat="47.62071" lon="6.18226">
        <ele>221.6</ele>
        <time>2021-09-04T14:18:46Z</time>
      </trkpt>
      <trkpt lat="47.62069" lon="6.18218">
        <ele>221.5</ele>
        <time>2021-09-04T14:18:47Z</time>
      </trkpt>
      <trkpt lat="47.62068" lon="6.1821">
        <ele>221.3</ele>
        <time>2021-09-04T14:18:48Z</time>
      </trkpt>
      <trkpt lat="47.62066" lon="6.18203">
        <ele>221.2</ele>
        <time>2021-09-04T14:18:49Z</time>
      </trkpt>
      <trkpt lat="47.62065" lon="6.18196">
        <ele>221.1</ele>
        <time>2021-09-04T14:18:50Z</time>
      </trkpt>
      <trkpt lat="47.62063" lon="6.18188">
        <ele>220.9</ele>
        <time>2021-09-04T14:18:51Z</time>
      </trkpt>
      <trkpt lat="47.62061" lon="6.18181">
        <ele>220.8</ele>
        <time>2021-09-04T14:18:52Z</time>
      </trkpt>
      <trkpt lat="47.6206" lon="6.18174">
        <ele>220.7</ele>
        <time>2021-09-04T14:18:53Z</time>
      </trkpt>
      <trkpt lat="47.62058" lon="6.18167">
        <ele>220.6</ele>
        <time>2021-09-04T14:18:54Z</time>
      </trkpt>
      <trkpt lat="47.62057" lon="6.18161">
        <ele>220.4</ele>
        <time>2021-09-04T14:18:55Z</time>
      </trkpt>
      <trkpt lat="47.62054" lon="6.18148">
        <ele>220</ele>
        <time>2021-09-04T14:18:57Z</time>
      </trkpt>
      <trkpt lat="47.62052" lon="6.18136">
        <ele>219.7</ele>
        <time>2021-09-04T14:18:59Z</time>
      </trkpt>
      <trkpt lat="47.62049" lon="6.18124">
        <ele>219.3</ele>
        <time>2021-09-04T14:19:01Z</time>
      </trkpt>
      <trkpt lat="47.62048" lon="6.18118">
        <ele>219.1</ele>
        <time>2021-09-04T14:19:02Z</time>
      </trkpt>
      <trkpt lat="47.62047" lon="6.18105">
        <ele>218.7</ele>
        <time>2021-09-04T14:19:04Z</time>
      </trkpt>
      <trkpt lat="47.62046" lon="6.18093">
        <ele>218.2</ele>
        <time>2021-09-04T14:19:06Z</time>
      </trkpt>
      <trkpt lat="47.62047" lon="6.18079">
        <ele>217.9</ele>
        <time>2021-09-04T14:19:08Z</time>
      </trkpt>
      <trkpt lat="47.62047" lon="6.18072">
        <ele>217.8</ele>
        <time>2021-09-04T14:19:09Z</time>
      </trkpt>
      <trkpt lat="47.62048" lon="6.18065">
        <ele>217.8</ele>
        <time>2021-09-04T14:19:10Z</time>
      </trkpt>
      <trkpt lat="47.62049" lon="6.18059">
        <ele>217.8</ele>
        <time>2021-09-04T14:19:11Z</time>
      </trkpt>
      <trkpt lat="47.6205" lon="6.18045">
        <ele>217.7</ele>
        <time>2021-09-04T14:19:13Z</time>
      </trkpt>
      <trkpt lat="47.62052" lon="6.18032">
        <ele>217.6</ele>
        <time>2021-09-04T14:19:15Z</time>
      </trkpt>
      <trkpt lat="47.62053" lon="6.18025">
        <ele>217.5</ele>
        <time>2021-09-04T14:19:16Z</time>
      </trkpt>
      <trkpt lat="47.62054" lon="6.18017">
        <ele>217.5</ele>
        <time>2021-09-04T14:19:17Z</time>
      </trkpt>
      <trkpt lat="47.62056" lon="6.1801">
        <ele>217.4</ele>
        <time>2021-09-04T14:19:18Z</time>
      </trkpt>
      <trkpt lat="47.62057" lon="6.18003">
        <ele>217.3</ele>
        <time>2021-09-04T14:19:19Z</time>
      </trkpt>
      <trkpt lat="47.62058" lon="6.17996">
        <ele>217.2</ele>
        <time>2021-09-04T14:19:20Z</time>
      </trkpt>
      <trkpt lat="47.62058" lon="6.17989">
        <ele>217.1</ele>
        <time>2021-09-04T14:19:21Z</time>
      </trkpt>
      <trkpt lat="47.62058" lon="6.17982">
        <ele>217.1</ele>
        <time>2021-09-04T14:19:22Z</time>
      </trkpt>
      <trkpt lat="47.62059" lon="6.17975">
        <ele>217</ele>
        <time>2021-09-04T14:19:23Z</time>
      </trkpt>
      <trkpt lat="47.62059" lon="6.17968">
        <ele>216.9</ele>
        <time>2021-09-04T14:19:24Z</time>
      </trkpt>
      <trkpt lat="47.62059" lon="6.17961">
        <ele>216.9</ele>
        <time>2021-09-04T14:19:25Z</time>
      </trkpt>
      <trkpt lat="47.6206" lon="6.17954">
        <ele>216.8</ele>
        <time>2021-09-04T14:19:26Z</time>
      </trkpt>
      <trkpt lat="47.62061" lon="6.17947">
        <ele>216.7</ele>
        <time>2021-09-04T14:19:27Z</time>
      </trkpt>
      <trkpt lat="47.62062" lon="6.1794">
        <ele>216.7</ele>
        <time>2021-09-04T14:19:28Z</time>
      </trkpt>
      <trkpt lat="47.62062" lon="6.17933">
        <ele>216.6</ele>
        <time>2021-09-04T14:19:29Z</time>
      </trkpt>
      <trkpt lat="47.62063" lon="6.17926">
        <ele>216.5</ele>
        <time>2021-09-04T14:19:30Z</time>
      </trkpt>
      <trkpt lat="47.62064" lon="6.17919">
        <ele>216.5</ele>
        <time>2021-09-04T14:19:31Z</time>
      </trkpt>
      <trkpt lat="47.62064" lon="6.17912">
        <ele>216.4</ele>
        <time>2021-09-04T14:19:32Z</time>
      </trkpt>
      <trkpt lat="47.62065" lon="6.17906">
        <ele>216.4</ele>
        <time>2021-09-04T14:19:33Z</time>
      </trkpt>
      <trkpt lat="47.62065" lon="6.17899">
        <ele>216.3</ele>
        <time>2021-09-04T14:19:34Z</time>
      </trkpt>
      <trkpt lat="47.62066" lon="6.17892">
        <ele>216.3</ele>
        <time>2021-09-04T14:19:35Z</time>
      </trkpt>
      <trkpt lat="47.62067" lon="6.17879">
        <ele>216.2</ele>
        <time>2021-09-04T14:19:37Z</time>
      </trkpt>
      <trkpt lat="47.62068" lon="6.17866">
        <ele>216.1</ele>
        <time>2021-09-04T14:19:39Z</time>
      </trkpt>
      <trkpt lat="47.62071" lon="6.17853">
        <ele>216.1</ele>
        <time>2021-09-04T14:19:41Z</time>
      </trkpt>
      <trkpt lat="47.62074" lon="6.1784">
        <ele>216</ele>
        <time>2021-09-04T14:19:43Z</time>
      </trkpt>
      <trkpt lat="47.62075" lon="6.17834">
        <ele>216</ele>
        <time>2021-09-04T14:19:44Z</time>
      </trkpt>
      <trkpt lat="47.62075" lon="6.17827">
        <ele>216</ele>
        <time>2021-09-04T14:19:45Z</time>
      </trkpt>
      <trkpt lat="47.62076" lon="6.17813">
        <ele>216</ele>
        <time>2021-09-04T14:19:47Z</time>
      </trkpt>
      <trkpt lat="47.62077" lon="6.178">
        <ele>216</ele>
        <time>2021-09-04T14:19:49Z</time>
      </trkpt>
      <trkpt lat="47.62078" lon="6.17793">
        <ele>216</ele>
        <time>2021-09-04T14:19:50Z</time>
      </trkpt>
      <trkpt lat="47.62079" lon="6.1778">
        <ele>216</ele>
        <time>2021-09-04T14:19:52Z</time>
      </trkpt>
      <trkpt lat="47.62079" lon="6.17773">
        <ele>216</ele>
        <time>2021-09-04T14:19:53Z</time>
      </trkpt>
      <trkpt lat="47.6208" lon="6.17766">
        <ele>216</ele>
        <time>2021-09-04T14:19:54Z</time>
      </trkpt>
      <trkpt lat="47.6208" lon="6.1776">
        <ele>216</ele>
        <time>2021-09-04T14:19:55Z</time>
      </trkpt>
      <trkpt lat="47.62081" lon="6.17753">
        <ele>216</ele>
        <time>2021-09-04T14:19:56Z</time>
      </trkpt>
      <trkpt lat="47.62081" lon="6.17746">
        <ele>215.9</ele>
        <time>2021-09-04T14:19:57Z</time>
      </trkpt>
      <trkpt lat="47.62081" lon="6.1774">
        <ele>215.8</ele>
        <time>2021-09-04T14:19:58Z</time>
      </trkpt>
      <trkpt lat="47.62082" lon="6.17733">
        <ele>215.6</ele>
        <time>2021-09-04T14:19:59Z</time>
      </trkpt>
      <trkpt lat="47.62084" lon="6.1772">
        <ele>215.3</ele>
        <time>2021-09-04T14:20:01Z</time>
      </trkpt>
      <trkpt lat="47.62085" lon="6.17708">
        <ele>215</ele>
        <time>2021-09-04T14:20:03Z</time>
      </trkpt>
      <trkpt lat="47.62086" lon="6.17696">
        <ele>214.7</ele>
        <time>2021-09-04T14:20:05Z</time>
      </trkpt>
      <trkpt lat="47.62087" lon="6.17689">
        <ele>214.5</ele>
        <time>2021-09-04T14:20:06Z</time>
      </trkpt>
      <trkpt lat="47.62088" lon="6.17678">
        <ele>214.3</ele>
        <time>2021-09-04T14:20:08Z</time>
      </trkpt>
      <trkpt lat="47.6209" lon="6.17671">
        <ele>214.2</ele>
        <time>2021-09-04T14:20:10Z</time>
      </trkpt>
      <trkpt lat="47.62091" lon="6.17662">
        <ele>214.2</ele>
        <time>2021-09-04T14:20:12Z</time>
      </trkpt>
      <trkpt lat="47.62091" lon="6.17643">
        <ele>214.6</ele>
        <time>2021-09-04T14:20:15Z</time>
      </trkpt>
      <trkpt lat="47.62092" lon="6.17634">
        <ele>214.8</ele>
        <time>2021-09-04T14:20:16Z</time>
      </trkpt>
      <trkpt lat="47.62093" lon="6.17616">
        <ele>215.2</ele>
        <time>2021-09-04T14:20:17Z</time>
      </trkpt>
      <trkpt lat="47.62094" lon="6.17609">
        <ele>215.3</ele>
        <time>2021-09-04T14:20:18Z</time>
      </trkpt>
      <trkpt lat="47.62094" lon="6.17601">
        <ele>215.5</ele>
        <time>2021-09-04T14:20:19Z</time>
      </trkpt>
      <trkpt lat="47.62095" lon="6.17594">
        <ele>215.6</ele>
        <time>2021-09-04T14:20:20Z</time>
      </trkpt>
      <trkpt lat="47.62096" lon="6.17586">
        <ele>215.8</ele>
        <time>2021-09-04T14:20:21Z</time>
      </trkpt>
      <trkpt lat="47.62096" lon="6.17579">
        <ele>216</ele>
        <time>2021-09-04T14:20:22Z</time>
      </trkpt>
      <trkpt lat="47.62097" lon="6.17571">
        <ele>216.1</ele>
        <time>2021-09-04T14:20:23Z</time>
      </trkpt>
      <trkpt lat="47.62098" lon="6.17563">
        <ele>216.3</ele>
        <time>2021-09-04T14:20:24Z</time>
      </trkpt>
      <trkpt lat="47.62098" lon="6.17556">
        <ele>216.5</ele>
        <time>2021-09-04T14:20:25Z</time>
      </trkpt>
      <trkpt lat="47.62099" lon="6.17548">
        <ele>216.7</ele>
        <time>2021-09-04T14:20:26Z</time>
      </trkpt>
      <trkpt lat="47.62099" lon="6.1754">
        <ele>216.9</ele>
        <time>2021-09-04T14:20:27Z</time>
      </trkpt>
      <trkpt lat="47.621" lon="6.17532">
        <ele>217</ele>
        <time>2021-09-04T14:20:28Z</time>
      </trkpt>
      <trkpt lat="47.621" lon="6.17524">
        <ele>217.2</ele>
        <time>2021-09-04T14:20:29Z</time>
      </trkpt>
      <trkpt lat="47.621" lon="6.17516">
        <ele>217.4</ele>
        <time>2021-09-04T14:20:30Z</time>
      </trkpt>
      <trkpt lat="47.62101" lon="6.17508">
        <ele>217.6</ele>
        <time>2021-09-04T14:20:31Z</time>
      </trkpt>
      <trkpt lat="47.62101" lon="6.175">
        <ele>217.8</ele>
        <time>2021-09-04T14:20:32Z</time>
      </trkpt>
      <trkpt lat="47.62101" lon="6.17492">
        <ele>217.7</ele>
        <time>2021-09-04T14:20:33Z</time>
      </trkpt>
      <trkpt lat="47.62102" lon="6.17485">
        <ele>217.5</ele>
        <time>2021-09-04T14:20:34Z</time>
      </trkpt>
      <trkpt lat="47.62102" lon="6.17477">
        <ele>217.4</ele>
        <time>2021-09-04T14:20:35Z</time>
      </trkpt>
      <trkpt lat="47.62102" lon="6.17469">
        <ele>217.3</ele>
        <time>2021-09-04T14:20:36Z</time>
      </trkpt>
      <trkpt lat="47.62103" lon="6.17462">
        <ele>217.2</ele>
        <time>2021-09-04T14:20:37Z</time>
      </trkpt>
      <trkpt lat="47.62103" lon="6.17454">
        <ele>217</ele>
        <time>2021-09-04T14:20:38Z</time>
      </trkpt>
      <trkpt lat="47.62103" lon="6.17446">
        <ele>216.9</ele>
        <time>2021-09-04T14:20:39Z</time>
      </trkpt>
      <trkpt lat="47.62104" lon="6.17439">
        <ele>216.8</ele>
        <time>2021-09-04T14:20:40Z</time>
      </trkpt>
      <trkpt lat="47.62104" lon="6.17431">
        <ele>216.7</ele>
        <time>2021-09-04T14:20:41Z</time>
      </trkpt>
      <trkpt lat="47.62104" lon="6.17424">
        <ele>216.6</ele>
        <time>2021-09-04T14:20:42Z</time>
      </trkpt>
      <trkpt lat="47.62104" lon="6.17416">
        <ele>216.5</ele>
        <time>2021-09-04T14:20:43Z</time>
      </trkpt>
      <trkpt lat="47.62104" lon="6.17409">
        <ele>216.5</ele>
        <time>2021-09-04T14:20:44Z</time>
      </trkpt>
      <trkpt lat="47.62104" lon="6.17402">
        <ele>216.5</ele>
        <time>2021-09-04T14:20:45Z</time>
      </trkpt>
      <trkpt lat="47.62105" lon="6.17395">
        <ele>216.5</ele>
        <time>2021-09-04T14:20:46Z</time>
      </trkpt>
      <trkpt lat="47.62105" lon="6.17388">
        <ele>216.5</ele>
        <time>2021-09-04T14:20:47Z</time>
      </trkpt>
      <trkpt lat="47.62105" lon="6.1738">
        <ele>216.5</ele>
        <time>2021-09-04T14:20:48Z</time>
      </trkpt>
      <trkpt lat="47.62105" lon="6.17373">
        <ele>216.5</ele>
        <time>2021-09-04T14:20:49Z</time>
      </trkpt>
      <trkpt lat="47.62106" lon="6.17366">
        <ele>216.5</ele>
        <time>2021-09-04T14:20:50Z</time>
      </trkpt>
      <trkpt lat="47.62106" lon="6.17358">
        <ele>216.5</ele>
        <time>2021-09-04T14:20:51Z</time>
      </trkpt>
      <trkpt lat="47.62107" lon="6.17351">
        <ele>216.6</ele>
        <time>2021-09-04T14:20:52Z</time>
      </trkpt>
      <trkpt lat="47.62107" lon="6.17343">
        <ele>216.6</ele>
        <time>2021-09-04T14:20:53Z</time>
      </trkpt>
      <trkpt lat="47.62107" lon="6.17336">
        <ele>216.6</ele>
        <time>2021-09-04T14:20:54Z</time>
      </trkpt>
      <trkpt lat="47.62108" lon="6.17329">
        <ele>216.6</ele>
        <time>2021-09-04T14:20:55Z</time>
      </trkpt>
      <trkpt lat="47.62109" lon="6.17322">
        <ele>216.6</ele>
        <time>2021-09-04T14:20:56Z</time>
      </trkpt>
      <trkpt lat="47.62109" lon="6.17315">
        <ele>216.6</ele>
        <time>2021-09-04T14:20:57Z</time>
      </trkpt>
      <trkpt lat="47.6211" lon="6.17308">
        <ele>216.5</ele>
        <time>2021-09-04T14:20:58Z</time>
      </trkpt>
      <trkpt lat="47.62111" lon="6.17302">
        <ele>216.5</ele>
        <time>2021-09-04T14:20:59Z</time>
      </trkpt>
      <trkpt lat="47.62113" lon="6.17289">
        <ele>216.5</ele>
        <time>2021-09-04T14:21:01Z</time>
      </trkpt>
      <trkpt lat="47.62116" lon="6.17276">
        <ele>216.5</ele>
        <time>2021-09-04T14:21:03Z</time>
      </trkpt>
      <trkpt lat="47.62118" lon="6.17264">
        <ele>216.5</ele>
        <time>2021-09-04T14:21:05Z</time>
      </trkpt>
      <trkpt lat="47.62121" lon="6.17252">
        <ele>216.5</ele>
        <time>2021-09-04T14:21:07Z</time>
      </trkpt>
      <trkpt lat="47.62124" lon="6.17239">
        <ele>216.4</ele>
        <time>2021-09-04T14:21:09Z</time>
      </trkpt>
      <trkpt lat="47.62126" lon="6.17227">
        <ele>216.2</ele>
        <time>2021-09-04T14:21:11Z</time>
      </trkpt>
      <trkpt lat="47.62129" lon="6.17216">
        <ele>216.1</ele>
        <time>2021-09-04T14:21:13Z</time>
      </trkpt>
      <trkpt lat="47.62131" lon="6.17206">
        <ele>216</ele>
        <time>2021-09-04T14:21:15Z</time>
      </trkpt>
      <trkpt lat="47.62132" lon="6.17199">
        <ele>216</ele>
        <time>2021-09-04T14:21:16Z</time>
      </trkpt>
      <trkpt lat="47.62135" lon="6.17188">
        <ele>215.9</ele>
        <time>2021-09-04T14:21:18Z</time>
      </trkpt>
      <trkpt lat="47.62135" lon="6.17177">
        <ele>215.8</ele>
        <time>2021-09-04T14:21:21Z</time>
      </trkpt>
      <trkpt lat="47.62138" lon="6.17167">
        <ele>215.7</ele>
        <time>2021-09-04T14:21:23Z</time>
      </trkpt>
      <trkpt lat="47.6214" lon="6.17159">
        <ele>215.8</ele>
        <time>2021-09-04T14:21:24Z</time>
      </trkpt>
      <trkpt lat="47.62144" lon="6.17141">
        <ele>216.1</ele>
        <time>2021-09-04T14:21:27Z</time>
      </trkpt>
      <trkpt lat="47.62146" lon="6.17129">
        <ele>216.3</ele>
        <time>2021-09-04T14:21:28Z</time>
      </trkpt>
      <trkpt lat="47.62148" lon="6.17117">
        <ele>216.5</ele>
        <time>2021-09-04T14:21:30Z</time>
      </trkpt>
      <trkpt lat="47.6215" lon="6.17108">
        <ele>216.6</ele>
        <time>2021-09-04T14:21:33Z</time>
      </trkpt>
      <trkpt lat="47.62152" lon="6.17098">
        <ele>216.8</ele>
        <time>2021-09-04T14:21:35Z</time>
      </trkpt>
      <trkpt lat="47.62154" lon="6.17081">
        <ele>217</ele>
        <time>2021-09-04T14:21:37Z</time>
      </trkpt>
      <trkpt lat="47.62156" lon="6.17072">
        <ele>217.2</ele>
        <time>2021-09-04T14:21:39Z</time>
      </trkpt>
      <trkpt lat="47.62158" lon="6.17064">
        <ele>217.3</ele>
        <time>2021-09-04T14:21:41Z</time>
      </trkpt>
      <trkpt lat="47.62159" lon="6.17057">
        <ele>217.4</ele>
        <time>2021-09-04T14:21:43Z</time>
      </trkpt>
      <trkpt lat="47.62161" lon="6.1705">
        <ele>217.5</ele>
        <time>2021-09-04T14:21:47Z</time>
      </trkpt>
      <trkpt lat="47.62162" lon="6.1704">
        <ele>217.6</ele>
        <time>2021-09-04T14:21:49Z</time>
      </trkpt>
      <trkpt lat="47.62162" lon="6.17032">
        <ele>217.7</ele>
        <time>2021-09-04T14:21:52Z</time>
      </trkpt>
      <trkpt lat="47.62164" lon="6.17023">
        <ele>217.8</ele>
        <time>2021-09-04T14:21:55Z</time>
      </trkpt>
      <trkpt lat="47.62167" lon="6.17016">
        <ele>217.8</ele>
        <time>2021-09-04T14:21:58Z</time>
      </trkpt>
      <trkpt lat="47.62169" lon="6.17008">
        <ele>217.9</ele>
        <time>2021-09-04T14:22:01Z</time>
      </trkpt>
      <trkpt lat="47.62172" lon="6.17">
        <ele>218</ele>
        <time>2021-09-04T14:22:03Z</time>
      </trkpt>
      <trkpt lat="47.62174" lon="6.16992">
        <ele>218.1</ele>
        <time>2021-09-04T14:22:06Z</time>
      </trkpt>
      <trkpt lat="47.62179" lon="6.1699">
        <ele>218.1</ele>
        <time>2021-09-04T14:22:08Z</time>
      </trkpt>
      <trkpt lat="47.62185" lon="6.16996">
        <ele>218</ele>
        <time>2021-09-04T14:22:09Z</time>
      </trkpt>
      <trkpt lat="47.6219" lon="6.17">
        <ele>218</ele>
        <time>2021-09-04T14:22:11Z</time>
      </trkpt>
      <trkpt lat="47.62195" lon="6.17004">
        <ele>218</ele>
        <time>2021-09-04T14:22:13Z</time>
      </trkpt>
      <trkpt lat="47.62199" lon="6.17006">
        <ele>217.9</ele>
        <time>2021-09-04T14:22:16Z</time>
      </trkpt>
      <trkpt lat="47.62205" lon="6.1701">
        <ele>217.9</ele>
        <time>2021-09-04T14:22:18Z</time>
      </trkpt>
      <trkpt lat="47.62209" lon="6.17015">
        <ele>217.8</ele>
        <time>2021-09-04T14:22:20Z</time>
      </trkpt>
      <trkpt lat="47.62215" lon="6.1702">
        <ele>217.8</ele>
        <time>2021-09-04T14:22:21Z</time>
      </trkpt>
      <trkpt lat="47.62221" lon="6.17026">
        <ele>217.7</ele>
        <time>2021-09-04T14:22:23Z</time>
      </trkpt>
      <trkpt lat="47.62228" lon="6.17032">
        <ele>217.6</ele>
        <time>2021-09-04T14:22:25Z</time>
      </trkpt>
      <trkpt lat="47.62234" lon="6.17037">
        <ele>217.6</ele>
        <time>2021-09-04T14:22:27Z</time>
      </trkpt>
      <trkpt lat="47.62241" lon="6.17042">
        <ele>217.5</ele>
        <time>2021-09-04T14:22:29Z</time>
      </trkpt>
      <trkpt lat="47.62246" lon="6.17046">
        <ele>217.4</ele>
        <time>2021-09-04T14:22:32Z</time>
      </trkpt>
      <trkpt lat="47.62258" lon="6.17054">
        <ele>217.6</ele>
        <time>2021-09-04T14:22:34Z</time>
      </trkpt>
      <trkpt lat="47.62265" lon="6.17058">
        <ele>217.7</ele>
        <time>2021-09-04T14:22:36Z</time>
      </trkpt>
      <trkpt lat="47.62273" lon="6.17062">
        <ele>217.9</ele>
        <time>2021-09-04T14:22:38Z</time>
      </trkpt>
      <trkpt lat="47.62278" lon="6.17064">
        <ele>218</ele>
        <time>2021-09-04T14:22:39Z</time>
      </trkpt>
      <trkpt lat="47.62285" lon="6.17068">
        <ele>218.1</ele>
        <time>2021-09-04T14:22:41Z</time>
      </trkpt>
      <trkpt lat="47.62291" lon="6.17071">
        <ele>218.2</ele>
        <time>2021-09-04T14:22:43Z</time>
      </trkpt>
      <trkpt lat="47.62298" lon="6.17074">
        <ele>218.3</ele>
        <time>2021-09-04T14:22:45Z</time>
      </trkpt>
      <trkpt lat="47.62305" lon="6.17077">
        <ele>218.4</ele>
        <time>2021-09-04T14:22:47Z</time>
      </trkpt>
      <trkpt lat="47.62312" lon="6.17081">
        <ele>218.5</ele>
        <time>2021-09-04T14:22:49Z</time>
      </trkpt>
      <trkpt lat="47.6232" lon="6.17084">
        <ele>218.7</ele>
        <time>2021-09-04T14:22:51Z</time>
      </trkpt>
      <trkpt lat="47.62327" lon="6.17088">
        <ele>218.8</ele>
        <time>2021-09-04T14:22:53Z</time>
      </trkpt>
      <trkpt lat="47.62334" lon="6.17091">
        <ele>218.8</ele>
        <time>2021-09-04T14:22:55Z</time>
      </trkpt>
      <trkpt lat="47.62341" lon="6.17094">
        <ele>218.9</ele>
        <time>2021-09-04T14:22:57Z</time>
      </trkpt>
      <trkpt lat="47.62347" lon="6.17097">
        <ele>218.9</ele>
        <time>2021-09-04T14:22:59Z</time>
      </trkpt>
      <trkpt lat="47.62355" lon="6.17099">
        <ele>218.9</ele>
        <time>2021-09-04T14:23:01Z</time>
      </trkpt>
      <trkpt lat="47.62364" lon="6.17102">
        <ele>219</ele>
        <time>2021-09-04T14:23:03Z</time>
      </trkpt>
      <trkpt lat="47.62369" lon="6.17103">
        <ele>219</ele>
        <time>2021-09-04T14:23:04Z</time>
      </trkpt>
      <trkpt lat="47.62376" lon="6.17106">
        <ele>219.1</ele>
        <time>2021-09-04T14:23:07Z</time>
      </trkpt>
      <trkpt lat="47.62385" lon="6.17108">
        <ele>219.2</ele>
        <time>2021-09-04T14:23:08Z</time>
      </trkpt>
      <trkpt lat="47.62389" lon="6.1711">
        <ele>219.2</ele>
        <time>2021-09-04T14:23:09Z</time>
      </trkpt>
      <trkpt lat="47.62393" lon="6.17111">
        <ele>219.3</ele>
        <time>2021-09-04T14:23:10Z</time>
      </trkpt>
      <trkpt lat="47.62398" lon="6.17113">
        <ele>219.3</ele>
        <time>2021-09-04T14:23:11Z</time>
      </trkpt>
      <trkpt lat="47.62407" lon="6.17116">
        <ele>219.4</ele>
        <time>2021-09-04T14:23:13Z</time>
      </trkpt>
      <trkpt lat="47.62411" lon="6.17117">
        <ele>219.5</ele>
        <time>2021-09-04T14:23:14Z</time>
      </trkpt>
      <trkpt lat="47.62416" lon="6.17118">
        <ele>219.6</ele>
        <time>2021-09-04T14:23:15Z</time>
      </trkpt>
      <trkpt lat="47.62424" lon="6.17121">
        <ele>219.7</ele>
        <time>2021-09-04T14:23:17Z</time>
      </trkpt>
      <trkpt lat="47.62428" lon="6.17122">
        <ele>219.8</ele>
        <time>2021-09-04T14:23:18Z</time>
      </trkpt>
      <trkpt lat="47.62436" lon="6.17124">
        <ele>220</ele>
        <time>2021-09-04T14:23:20Z</time>
      </trkpt>
      <trkpt lat="47.62444" lon="6.17128">
        <ele>220.1</ele>
        <time>2021-09-04T14:23:22Z</time>
      </trkpt>
      <trkpt lat="47.62452" lon="6.1713">
        <ele>220.3</ele>
        <time>2021-09-04T14:23:24Z</time>
      </trkpt>
      <trkpt lat="47.6246" lon="6.17133">
        <ele>220.4</ele>
        <time>2021-09-04T14:23:26Z</time>
      </trkpt>
      <trkpt lat="47.62467" lon="6.17136">
        <ele>220.6</ele>
        <time>2021-09-04T14:23:28Z</time>
      </trkpt>
      <trkpt lat="47.62475" lon="6.17138">
        <ele>220.7</ele>
        <time>2021-09-04T14:23:30Z</time>
      </trkpt>
      <trkpt lat="47.62482" lon="6.1714">
        <ele>220.9</ele>
        <time>2021-09-04T14:23:32Z</time>
      </trkpt>
      <trkpt lat="47.6249" lon="6.17142">
        <ele>221.1</ele>
        <time>2021-09-04T14:23:34Z</time>
      </trkpt>
      <trkpt lat="47.62497" lon="6.17144">
        <ele>221.2</ele>
        <time>2021-09-04T14:23:37Z</time>
      </trkpt>
      <trkpt lat="47.62509" lon="6.17148">
        <ele>221</ele>
        <time>2021-09-04T14:23:39Z</time>
      </trkpt>
      <trkpt lat="47.62516" lon="6.1715">
        <ele>220.8</ele>
        <time>2021-09-04T14:23:41Z</time>
      </trkpt>
      <trkpt lat="47.62523" lon="6.17152">
        <ele>220.6</ele>
        <time>2021-09-04T14:23:43Z</time>
      </trkpt>
      <trkpt lat="47.62529" lon="6.17154">
        <ele>220.4</ele>
        <time>2021-09-04T14:23:46Z</time>
      </trkpt>
      <trkpt lat="47.62536" lon="6.17157">
        <ele>220.2</ele>
        <time>2021-09-04T14:23:48Z</time>
      </trkpt>
      <trkpt lat="47.62544" lon="6.17159">
        <ele>220</ele>
        <time>2021-09-04T14:23:49Z</time>
      </trkpt>
      <trkpt lat="47.62551" lon="6.17162">
        <ele>219.8</ele>
        <time>2021-09-04T14:23:51Z</time>
      </trkpt>
      <trkpt lat="47.62558" lon="6.17164">
        <ele>219.6</ele>
        <time>2021-09-04T14:23:53Z</time>
      </trkpt>
      <trkpt lat="47.62565" lon="6.17166">
        <ele>219.4</ele>
        <time>2021-09-04T14:23:55Z</time>
      </trkpt>
      <trkpt lat="47.62573" lon="6.17168">
        <ele>219.2</ele>
        <time>2021-09-04T14:23:57Z</time>
      </trkpt>
      <trkpt lat="47.62578" lon="6.17169">
        <ele>219.1</ele>
        <time>2021-09-04T14:23:58Z</time>
      </trkpt>
      <trkpt lat="47.62586" lon="6.17171">
        <ele>218.9</ele>
        <time>2021-09-04T14:24:00Z</time>
      </trkpt>
      <trkpt lat="47.62594" lon="6.17174">
        <ele>218.9</ele>
        <time>2021-09-04T14:24:02Z</time>
      </trkpt>
      <trkpt lat="47.62601" lon="6.17176">
        <ele>218.9</ele>
        <time>2021-09-04T14:24:04Z</time>
      </trkpt>
      <trkpt lat="47.62609" lon="6.17179">
        <ele>218.9</ele>
        <time>2021-09-04T14:24:06Z</time>
      </trkpt>
      <trkpt lat="47.62616" lon="6.17181">
        <ele>218.8</ele>
        <time>2021-09-04T14:24:08Z</time>
      </trkpt>
      <trkpt lat="47.62623" lon="6.17183">
        <ele>218.8</ele>
        <time>2021-09-04T14:24:10Z</time>
      </trkpt>
      <trkpt lat="47.6263" lon="6.17184">
        <ele>218.8</ele>
        <time>2021-09-04T14:24:12Z</time>
      </trkpt>
      <trkpt lat="47.62637" lon="6.17186">
        <ele>218.8</ele>
        <time>2021-09-04T14:24:14Z</time>
      </trkpt>
      <trkpt lat="47.62644" lon="6.17189">
        <ele>218.7</ele>
        <time>2021-09-04T14:24:16Z</time>
      </trkpt>
      <trkpt lat="47.62649" lon="6.17191">
        <ele>218.7</ele>
        <time>2021-09-04T14:24:18Z</time>
      </trkpt>
      <trkpt lat="47.62656" lon="6.17193">
        <ele>218.7</ele>
        <time>2021-09-04T14:24:21Z</time>
      </trkpt>
      <trkpt lat="47.62662" lon="6.17195">
        <ele>218.7</ele>
        <time>2021-09-04T14:24:23Z</time>
      </trkpt>
      <trkpt lat="47.62668" lon="6.17198">
        <ele>218.6</ele>
        <time>2021-09-04T14:24:25Z</time>
      </trkpt>
      <trkpt lat="47.62675" lon="6.172">
        <ele>218.7</ele>
        <time>2021-09-04T14:24:27Z</time>
      </trkpt>
      <trkpt lat="47.62682" lon="6.17202">
        <ele>218.7</ele>
        <time>2021-09-04T14:24:29Z</time>
      </trkpt>
      <trkpt lat="47.62689" lon="6.17204">
        <ele>218.8</ele>
        <time>2021-09-04T14:24:31Z</time>
      </trkpt>
      <trkpt lat="47.62696" lon="6.17206">
        <ele>218.9</ele>
        <time>2021-09-04T14:24:33Z</time>
      </trkpt>
      <trkpt lat="47.62703" lon="6.17209">
        <ele>218.9</ele>
        <time>2021-09-04T14:24:35Z</time>
      </trkpt>
      <trkpt lat="47.62711" lon="6.17211">
        <ele>219</ele>
        <time>2021-09-04T14:24:37Z</time>
      </trkpt>
      <trkpt lat="47.62718" lon="6.17213">
        <ele>219.1</ele>
        <time>2021-09-04T14:24:39Z</time>
      </trkpt>
      <trkpt lat="47.62726" lon="6.17216">
        <ele>219.3</ele>
        <time>2021-09-04T14:24:41Z</time>
      </trkpt>
      <trkpt lat="47.62733" lon="6.17218">
        <ele>219.4</ele>
        <time>2021-09-04T14:24:43Z</time>
      </trkpt>
      <trkpt lat="47.62739" lon="6.17221">
        <ele>219.5</ele>
        <time>2021-09-04T14:24:45Z</time>
      </trkpt>
      <trkpt lat="47.62746" lon="6.17223">
        <ele>219.6</ele>
        <time>2021-09-04T14:24:47Z</time>
      </trkpt>
      <trkpt lat="47.62753" lon="6.17225">
        <ele>219.8</ele>
        <time>2021-09-04T14:24:49Z</time>
      </trkpt>
      <trkpt lat="47.62761" lon="6.17227">
        <ele>219.9</ele>
        <time>2021-09-04T14:24:51Z</time>
      </trkpt>
      <trkpt lat="47.62768" lon="6.1723">
        <ele>220.1</ele>
        <time>2021-09-04T14:24:53Z</time>
      </trkpt>
      <trkpt lat="47.62775" lon="6.17231">
        <ele>220.2</ele>
        <time>2021-09-04T14:24:55Z</time>
      </trkpt>
      <trkpt lat="47.62782" lon="6.17233">
        <ele>220.3</ele>
        <time>2021-09-04T14:24:57Z</time>
      </trkpt>
      <trkpt lat="47.62789" lon="6.17234">
        <ele>220.5</ele>
        <time>2021-09-04T14:24:59Z</time>
      </trkpt>
      <trkpt lat="47.62796" lon="6.17236">
        <ele>220.6</ele>
        <time>2021-09-04T14:25:01Z</time>
      </trkpt>
      <trkpt lat="47.62803" lon="6.17237">
        <ele>220.7</ele>
        <time>2021-09-04T14:25:02Z</time>
      </trkpt>
      <trkpt lat="47.62809" lon="6.1724">
        <ele>220.8</ele>
        <time>2021-09-04T14:25:04Z</time>
      </trkpt>
      <trkpt lat="47.62816" lon="6.17243">
        <ele>220.8</ele>
        <time>2021-09-04T14:25:06Z</time>
      </trkpt>
      <trkpt lat="47.62823" lon="6.17245">
        <ele>220.9</ele>
        <time>2021-09-04T14:25:08Z</time>
      </trkpt>
      <trkpt lat="47.62829" lon="6.17247">
        <ele>221</ele>
        <time>2021-09-04T14:25:10Z</time>
      </trkpt>
      <trkpt lat="47.62836" lon="6.17249">
        <ele>221</ele>
        <time>2021-09-04T14:25:12Z</time>
      </trkpt>
      <trkpt lat="47.62842" lon="6.17251">
        <ele>220.9</ele>
        <time>2021-09-04T14:25:14Z</time>
      </trkpt>
      <trkpt lat="47.6285" lon="6.17253">
        <ele>220.8</ele>
        <time>2021-09-04T14:25:16Z</time>
      </trkpt>
      <trkpt lat="47.62856" lon="6.17256">
        <ele>220.7</ele>
        <time>2021-09-04T14:25:18Z</time>
      </trkpt>
      <trkpt lat="47.62863" lon="6.17257">
        <ele>220.6</ele>
        <time>2021-09-04T14:25:20Z</time>
      </trkpt>
      <trkpt lat="47.62869" lon="6.17259">
        <ele>220.6</ele>
        <time>2021-09-04T14:25:22Z</time>
      </trkpt>
      <trkpt lat="47.62875" lon="6.1726">
        <ele>220.5</ele>
        <time>2021-09-04T14:25:24Z</time>
      </trkpt>
      <trkpt lat="47.62881" lon="6.17261">
        <ele>220.4</ele>
        <time>2021-09-04T14:25:26Z</time>
      </trkpt>
      <trkpt lat="47.62888" lon="6.17261">
        <ele>220.3</ele>
        <time>2021-09-04T14:25:28Z</time>
      </trkpt>
      <trkpt lat="47.62895" lon="6.17261">
        <ele>220.3</ele>
        <time>2021-09-04T14:25:30Z</time>
      </trkpt>
      <trkpt lat="47.62901" lon="6.17261">
        <ele>220.2</ele>
        <time>2021-09-04T14:25:33Z</time>
      </trkpt>
      <trkpt lat="47.62908" lon="6.1726">
        <ele>220.1</ele>
        <time>2021-09-04T14:25:34Z</time>
      </trkpt>
      <trkpt lat="47.62915" lon="6.17259">
        <ele>220</ele>
        <time>2021-09-04T14:25:36Z</time>
      </trkpt>
      <trkpt lat="47.62921" lon="6.17257">
        <ele>219.9</ele>
        <time>2021-09-04T14:25:38Z</time>
      </trkpt>
      <trkpt lat="47.62926" lon="6.1726">
        <ele>219.8</ele>
        <time>2021-09-04T14:25:41Z</time>
      </trkpt>
      <trkpt lat="47.62929" lon="6.17266">
        <ele>219.7</ele>
        <time>2021-09-04T14:25:43Z</time>
      </trkpt>
      <trkpt lat="47.62932" lon="6.17273">
        <ele>219.6</ele>
        <time>2021-09-04T14:25:45Z</time>
      </trkpt>
      <trkpt lat="47.62936" lon="6.17278">
        <ele>219.5</ele>
        <time>2021-09-04T14:25:47Z</time>
      </trkpt>
      <trkpt lat="47.62941" lon="6.17283">
        <ele>219.4</ele>
        <time>2021-09-04T14:25:48Z</time>
      </trkpt>
      <trkpt lat="47.62946" lon="6.17287">
        <ele>219.3</ele>
        <time>2021-09-04T14:25:50Z</time>
      </trkpt>
      <trkpt lat="47.62951" lon="6.17292">
        <ele>219.2</ele>
        <time>2021-09-04T14:25:52Z</time>
      </trkpt>
      <trkpt lat="47.62956" lon="6.17298">
        <ele>219.1</ele>
        <time>2021-09-04T14:25:54Z</time>
      </trkpt>
      <trkpt lat="47.6296" lon="6.17303">
        <ele>219</ele>
        <time>2021-09-04T14:25:57Z</time>
      </trkpt>
      <trkpt lat="47.62965" lon="6.17306">
        <ele>218.8</ele>
        <time>2021-09-04T14:25:58Z</time>
      </trkpt>
      <trkpt lat="47.6297" lon="6.1731">
        <ele>218.7</ele>
        <time>2021-09-04T14:25:59Z</time>
      </trkpt>
      <trkpt lat="47.62974" lon="6.17313">
        <ele>218.6</ele>
        <time>2021-09-04T14:26:00Z</time>
      </trkpt>
      <trkpt lat="47.6298" lon="6.17316">
        <ele>218.5</ele>
        <time>2021-09-04T14:26:01Z</time>
      </trkpt>
      <trkpt lat="47.62989" lon="6.17321">
        <ele>218.3</ele>
        <time>2021-09-04T14:26:01Z</time>
      </trkpt>
      <trkpt lat="47.62998" lon="6.17323">
        <ele>218</ele>
        <time>2021-09-04T14:26:05Z</time>
      </trkpt>
      <trkpt lat="47.63004" lon="6.17326">
        <ele>218</ele>
        <time>2021-09-04T14:26:07Z</time>
      </trkpt>
      <trkpt lat="47.63009" lon="6.17329">
        <ele>218</ele>
        <time>2021-09-04T14:26:09Z</time>
      </trkpt>
      <trkpt lat="47.63014" lon="6.17332">
        <ele>218</ele>
        <time>2021-09-04T14:26:09Z</time>
      </trkpt>
      <trkpt lat="47.6301" lon="6.1733">
        <ele>218</ele>
        <time>2021-09-04T14:26:13Z</time>
      </trkpt>
      <trkpt lat="47.63014" lon="6.17333">
        <ele>218</ele>
        <time>2021-09-04T14:27:19Z</time>
      </trkpt>
      <trkpt lat="47.63021" lon="6.17335">
        <ele>218</ele>
        <time>2021-09-04T14:27:23Z</time>
      </trkpt>
      <trkpt lat="47.63027" lon="6.17337">
        <ele>218</ele>
        <time>2021-09-04T14:27:27Z</time>
      </trkpt>
      <trkpt lat="47.63033" lon="6.1734">
        <ele>218</ele>
        <time>2021-09-04T14:27:29Z</time>
      </trkpt>
      <trkpt lat="47.63038" lon="6.17341">
        <ele>218</ele>
        <time>2021-09-04T14:27:30Z</time>
      </trkpt>
      <trkpt lat="47.63046" lon="6.17344">
        <ele>218.1</ele>
        <time>2021-09-04T14:27:30Z</time>
      </trkpt>
      <trkpt lat="47.63051" lon="6.17346">
        <ele>218.1</ele>
        <time>2021-09-04T14:27:33Z</time>
      </trkpt>
      <trkpt lat="47.63057" lon="6.17348">
        <ele>218.1</ele>
        <time>2021-09-04T14:27:35Z</time>
      </trkpt>
      <trkpt lat="47.63063" lon="6.1735">
        <ele>218.2</ele>
        <time>2021-09-04T14:27:37Z</time>
      </trkpt>
      <trkpt lat="47.63072" lon="6.17354">
        <ele>218.2</ele>
        <time>2021-09-04T14:27:37Z</time>
      </trkpt>
      <trkpt lat="47.63078" lon="6.17356">
        <ele>218.3</ele>
        <time>2021-09-04T14:27:41Z</time>
      </trkpt>
      <trkpt lat="47.63083" lon="6.17357">
        <ele>218.3</ele>
        <time>2021-09-04T14:27:43Z</time>
      </trkpt>
      <trkpt lat="47.63088" lon="6.17359">
        <ele>218.3</ele>
        <time>2021-09-04T14:27:44Z</time>
      </trkpt>
      <trkpt lat="47.63092" lon="6.1736">
        <ele>218.3</ele>
        <time>2021-09-04T14:27:46Z</time>
      </trkpt>
      <trkpt lat="47.63097" lon="6.17362">
        <ele>218.3</ele>
        <time>2021-09-04T14:27:49Z</time>
      </trkpt>
      <trkpt lat="47.63102" lon="6.17363">
        <ele>218.3</ele>
        <time>2021-09-04T14:27:51Z</time>
      </trkpt>
      <trkpt lat="47.63109" lon="6.17366">
        <ele>218.3</ele>
        <time>2021-09-04T14:27:51Z</time>
      </trkpt>
      <trkpt lat="47.63118" lon="6.1737">
        <ele>218.4</ele>
        <time>2021-09-04T14:27:55Z</time>
      </trkpt>
      <trkpt lat="47.63126" lon="6.17372">
        <ele>218.4</ele>
        <time>2021-09-04T14:27:57Z</time>
      </trkpt>
      <trkpt lat="47.63139" lon="6.17377">
        <ele>218.5</ele>
        <time>2021-09-04T14:28:00Z</time>
      </trkpt>
      <trkpt lat="47.63152" lon="6.17383">
        <ele>218.8</ele>
        <time>2021-09-04T14:28:03Z</time>
      </trkpt>
      <trkpt lat="47.63159" lon="6.17387">
        <ele>218.9</ele>
        <time>2021-09-04T14:28:05Z</time>
      </trkpt>
      <trkpt lat="47.63166" lon="6.17389">
        <ele>219</ele>
        <time>2021-09-04T14:28:07Z</time>
      </trkpt>
      <trkpt lat="47.63172" lon="6.17392">
        <ele>219</ele>
        <time>2021-09-04T14:28:09Z</time>
      </trkpt>
      <trkpt lat="47.63177" lon="6.17394">
        <ele>219</ele>
        <time>2021-09-04T14:28:11Z</time>
      </trkpt>
      <trkpt lat="47.63184" lon="6.17396">
        <ele>219</ele>
        <time>2021-09-04T14:28:13Z</time>
      </trkpt>
      <trkpt lat="47.63189" lon="6.17399">
        <ele>218.9</ele>
        <time>2021-09-04T14:28:15Z</time>
      </trkpt>
      <trkpt lat="47.63194" lon="6.17401">
        <ele>218.9</ele>
        <time>2021-09-04T14:28:17Z</time>
      </trkpt>
      <trkpt lat="47.632" lon="6.17405">
        <ele>218.9</ele>
        <time>2021-09-04T14:28:19Z</time>
      </trkpt>
      <trkpt lat="47.63206" lon="6.17407">
        <ele>218.8</ele>
        <time>2021-09-04T14:28:22Z</time>
      </trkpt>
      <trkpt lat="47.6321" lon="6.1741">
        <ele>218.8</ele>
        <time>2021-09-04T14:28:24Z</time>
      </trkpt>
      <trkpt lat="47.63215" lon="6.17412">
        <ele>218.8</ele>
        <time>2021-09-04T14:28:26Z</time>
      </trkpt>
      <trkpt lat="47.63219" lon="6.17415">
        <ele>218.7</ele>
        <time>2021-09-04T14:28:28Z</time>
      </trkpt>
      <trkpt lat="47.63225" lon="6.1742">
        <ele>218.9</ele>
        <time>2021-09-04T14:28:31Z</time>
      </trkpt>
      <trkpt lat="47.63229" lon="6.17424">
        <ele>219.2</ele>
        <time>2021-09-04T14:28:34Z</time>
      </trkpt>
      <trkpt lat="47.63234" lon="6.17427">
        <ele>219.3</ele>
        <time>2021-09-04T14:28:37Z</time>
      </trkpt>
      <trkpt lat="47.63238" lon="6.17428">
        <ele>219.4</ele>
        <time>2021-09-04T14:28:39Z</time>
      </trkpt>
      <trkpt lat="47.63243" lon="6.17432">
        <ele>219.8</ele>
        <time>2021-09-04T14:28:42Z</time>
      </trkpt>
      <trkpt lat="47.63248" lon="6.17435">
        <ele>220</ele>
        <time>2021-09-04T14:28:44Z</time>
      </trkpt>
      <trkpt lat="47.63253" lon="6.17437">
        <ele>220.3</ele>
        <time>2021-09-04T14:28:44Z</time>
      </trkpt>
      <trkpt lat="47.63258" lon="6.1744">
        <ele>220.7</ele>
        <time>2021-09-04T14:28:49Z</time>
      </trkpt>
      <trkpt lat="47.63265" lon="6.17444">
        <ele>221.2</ele>
        <time>2021-09-04T14:28:52Z</time>
      </trkpt>
      <trkpt lat="47.63269" lon="6.17446">
        <ele>221.5</ele>
        <time>2021-09-04T14:28:54Z</time>
      </trkpt>
      <trkpt lat="47.63276" lon="6.1745">
        <ele>221.9</ele>
        <time>2021-09-04T14:28:57Z</time>
      </trkpt>
      <trkpt lat="47.63281" lon="6.17453">
        <ele>222.3</ele>
        <time>2021-09-04T14:29:00Z</time>
      </trkpt>
      <trkpt lat="47.63286" lon="6.17455">
        <ele>222.7</ele>
        <time>2021-09-04T14:29:00Z</time>
      </trkpt>
      <trkpt lat="47.63291" lon="6.17458">
        <ele>223</ele>
        <time>2021-09-04T14:29:05Z</time>
      </trkpt>
      <trkpt lat="47.63297" lon="6.17461">
        <ele>223.3</ele>
        <time>2021-09-04T14:29:07Z</time>
      </trkpt>
      <trkpt lat="47.63301" lon="6.17464">
        <ele>223.6</ele>
        <time>2021-09-04T14:29:09Z</time>
      </trkpt>
      <trkpt lat="47.63306" lon="6.17466">
        <ele>223.9</ele>
        <time>2021-09-04T14:29:09Z</time>
      </trkpt>
      <trkpt lat="47.63313" lon="6.1747">
        <ele>224.3</ele>
        <time>2021-09-04T14:29:12Z</time>
      </trkpt>
      <trkpt lat="47.63318" lon="6.17473">
        <ele>224.6</ele>
        <time>2021-09-04T14:29:16Z</time>
      </trkpt>
      <trkpt lat="47.63323" lon="6.17475">
        <ele>224.8</ele>
        <time>2021-09-04T14:29:18Z</time>
      </trkpt>
      <trkpt lat="47.63327" lon="6.17478">
        <ele>225.1</ele>
        <time>2021-09-04T14:29:20Z</time>
      </trkpt>
      <trkpt lat="47.63332" lon="6.17481">
        <ele>225.4</ele>
        <time>2021-09-04T14:29:22Z</time>
      </trkpt>
      <trkpt lat="47.63337" lon="6.17485">
        <ele>225.5</ele>
        <time>2021-09-04T14:29:24Z</time>
      </trkpt>
      <trkpt lat="47.63342" lon="6.17488">
        <ele>225.5</ele>
        <time>2021-09-04T14:29:24Z</time>
      </trkpt>
      <trkpt lat="47.63346" lon="6.17491">
        <ele>225.5</ele>
        <time>2021-09-04T14:29:28Z</time>
      </trkpt>
      <trkpt lat="47.63353" lon="6.17494">
        <ele>225.4</ele>
        <time>2021-09-04T14:29:30Z</time>
      </trkpt>
      <trkpt lat="47.63359" lon="6.17497">
        <ele>225.2</ele>
        <time>2021-09-04T14:29:30Z</time>
      </trkpt>
      <trkpt lat="47.63365" lon="6.17501">
        <ele>225.2</ele>
        <time>2021-09-04T14:29:34Z</time>
      </trkpt>
      <trkpt lat="47.6337" lon="6.17505">
        <ele>225.3</ele>
        <time>2021-09-04T14:29:34Z</time>
      </trkpt>
      <trkpt lat="47.63375" lon="6.17507">
        <ele>225.1</ele>
        <time>2021-09-04T14:29:38Z</time>
      </trkpt>
      <trkpt lat="47.63379" lon="6.1751">
        <ele>225.2</ele>
        <time>2021-09-04T14:30:19Z</time>
      </trkpt>
      <trkpt lat="47.63384" lon="6.17513">
        <ele>225.1</ele>
        <time>2021-09-04T14:30:22Z</time>
      </trkpt>
      <trkpt lat="47.63388" lon="6.17515">
        <ele>225.1</ele>
        <time>2021-09-04T14:30:24Z</time>
      </trkpt>
      <trkpt lat="47.63394" lon="6.17519">
        <ele>225.1</ele>
        <time>2021-09-04T14:30:24Z</time>
      </trkpt>
      <trkpt lat="47.63399" lon="6.17521">
        <ele>225.1</ele>
        <time>2021-09-04T14:30:28Z</time>
      </trkpt>
      <trkpt lat="47.63403" lon="6.17525">
        <ele>225.2</ele>
        <time>2021-09-04T14:30:30Z</time>
      </trkpt>
      <trkpt lat="47.63412" lon="6.17531">
        <ele>225.3</ele>
        <time>2021-09-04T14:30:33Z</time>
      </trkpt>
      <trkpt lat="47.63417" lon="6.17535">
        <ele>225.3</ele>
        <time>2021-09-04T14:30:35Z</time>
      </trkpt>
      <trkpt lat="47.63423" lon="6.17539">
        <ele>225.4</ele>
        <time>2021-09-04T14:30:37Z</time>
      </trkpt>
      <trkpt lat="47.63427" lon="6.17542">
        <ele>225.5</ele>
        <time>2021-09-04T14:30:39Z</time>
      </trkpt>
      <trkpt lat="47.63433" lon="6.17546">
        <ele>225.6</ele>
        <time>2021-09-04T14:30:39Z</time>
      </trkpt>
      <trkpt lat="47.63438" lon="6.17549">
        <ele>225.6</ele>
        <time>2021-09-04T14:30:43Z</time>
      </trkpt>
      <trkpt lat="47.63442" lon="6.17554">
        <ele>225.7</ele>
        <time>2021-09-04T14:30:45Z</time>
      </trkpt>
      <trkpt lat="47.63447" lon="6.17558">
        <ele>225.8</ele>
        <time>2021-09-04T14:30:47Z</time>
      </trkpt>
      <trkpt lat="47.63453" lon="6.17562">
        <ele>225.8</ele>
        <time>2021-09-04T14:30:49Z</time>
      </trkpt>
      <trkpt lat="47.63458" lon="6.17566">
        <ele>225.8</ele>
        <time>2021-09-04T14:30:51Z</time>
      </trkpt>
      <trkpt lat="47.63463" lon="6.1757">
        <ele>225.7</ele>
        <time>2021-09-04T14:30:53Z</time>
      </trkpt>
      <trkpt lat="47.6347" lon="6.17576">
        <ele>225.7</ele>
        <time>2021-09-04T14:30:55Z</time>
      </trkpt>
      <trkpt lat="47.63477" lon="6.17581">
        <ele>225.5</ele>
        <time>2021-09-04T14:30:57Z</time>
      </trkpt>
      <trkpt lat="47.63484" lon="6.17587">
        <ele>225.5</ele>
        <time>2021-09-04T14:30:57Z</time>
      </trkpt>
      <trkpt lat="47.6349" lon="6.17592">
        <ele>225.4</ele>
        <time>2021-09-04T14:30:59Z</time>
      </trkpt>
      <trkpt lat="47.63495" lon="6.17596">
        <ele>225.4</ele>
        <time>2021-09-04T14:31:03Z</time>
      </trkpt>
      <trkpt lat="47.63502" lon="6.17602">
        <ele>225.5</ele>
        <time>2021-09-04T14:31:05Z</time>
      </trkpt>
      <trkpt lat="47.63507" lon="6.17608">
        <ele>225.7</ele>
        <time>2021-09-04T14:31:07Z</time>
      </trkpt>
      <trkpt lat="47.63513" lon="6.17612">
        <ele>225.9</ele>
        <time>2021-09-04T14:31:08Z</time>
      </trkpt>
      <trkpt lat="47.63517" lon="6.17616">
        <ele>225.9</ele>
        <time>2021-09-04T14:31:10Z</time>
      </trkpt>
      <trkpt lat="47.63522" lon="6.17621">
        <ele>226</ele>
        <time>2021-09-04T14:31:12Z</time>
      </trkpt>
      <trkpt lat="47.63527" lon="6.17625">
        <ele>226.1</ele>
        <time>2021-09-04T14:31:13Z</time>
      </trkpt>
      <trkpt lat="47.63533" lon="6.17632">
        <ele>226.1</ele>
        <time>2021-09-04T14:31:15Z</time>
      </trkpt>
      <trkpt lat="47.63539" lon="6.17638">
        <ele>226.1</ele>
        <time>2021-09-04T14:31:17Z</time>
      </trkpt>
      <trkpt lat="47.63544" lon="6.17644">
        <ele>226.1</ele>
        <time>2021-09-04T14:31:19Z</time>
      </trkpt>
      <trkpt lat="47.63555" lon="6.17654">
        <ele>225.8</ele>
        <time>2021-09-04T14:31:22Z</time>
      </trkpt>
      <trkpt lat="47.63561" lon="6.17659">
        <ele>225.6</ele>
        <time>2021-09-04T14:31:23Z</time>
      </trkpt>
      <trkpt lat="47.63564" lon="6.17663">
        <ele>225.4</ele>
        <time>2021-09-04T14:31:25Z</time>
      </trkpt>
      <trkpt lat="47.63569" lon="6.17666">
        <ele>225.2</ele>
        <time>2021-09-04T14:31:26Z</time>
      </trkpt>
      <trkpt lat="47.63573" lon="6.17671">
        <ele>225.1</ele>
        <time>2021-09-04T14:31:27Z</time>
      </trkpt>
      <trkpt lat="47.63577" lon="6.17675">
        <ele>225</ele>
        <time>2021-09-04T14:31:28Z</time>
      </trkpt>
      <trkpt lat="47.63583" lon="6.1768">
        <ele>224.8</ele>
        <time>2021-09-04T14:31:28Z</time>
      </trkpt>
      <trkpt lat="47.63588" lon="6.17686">
        <ele>224.9</ele>
        <time>2021-09-04T14:31:32Z</time>
      </trkpt>
      <trkpt lat="47.63595" lon="6.17693">
        <ele>224.8</ele>
        <time>2021-09-04T14:31:32Z</time>
      </trkpt>
      <trkpt lat="47.63599" lon="6.17697">
        <ele>224.8</ele>
        <time>2021-09-04T14:31:36Z</time>
      </trkpt>
      <trkpt lat="47.63605" lon="6.17705">
        <ele>224.8</ele>
        <time>2021-09-04T14:31:36Z</time>
      </trkpt>
      <trkpt lat="47.63611" lon="6.1771">
        <ele>224.6</ele>
        <time>2021-09-04T14:31:38Z</time>
      </trkpt>
      <trkpt lat="47.63615" lon="6.17714">
        <ele>224.4</ele>
        <time>2021-09-04T14:31:42Z</time>
      </trkpt>
      <trkpt lat="47.63626" lon="6.17724">
        <ele>224</ele>
        <time>2021-09-04T14:31:45Z</time>
      </trkpt>
      <trkpt lat="47.6363" lon="6.17728">
        <ele>223.8</ele>
        <time>2021-09-04T14:31:46Z</time>
      </trkpt>
      <trkpt lat="47.63634" lon="6.17733">
        <ele>223.6</ele>
        <time>2021-09-04T14:31:47Z</time>
      </trkpt>
      <trkpt lat="47.63638" lon="6.17737">
        <ele>223.3</ele>
        <time>2021-09-04T14:31:49Z</time>
      </trkpt>
      <trkpt lat="47.63648" lon="6.17747">
        <ele>222.7</ele>
        <time>2021-09-04T14:31:52Z</time>
      </trkpt>
      <trkpt lat="47.63653" lon="6.17752">
        <ele>222.5</ele>
        <time>2021-09-04T14:31:54Z</time>
      </trkpt>
      <trkpt lat="47.63657" lon="6.17757">
        <ele>222.4</ele>
        <time>2021-09-04T14:31:56Z</time>
      </trkpt>
      <trkpt lat="47.63662" lon="6.17763">
        <ele>222.2</ele>
        <time>2021-09-04T14:31:58Z</time>
      </trkpt>
      <trkpt lat="47.63666" lon="6.17767">
        <ele>222.1</ele>
        <time>2021-09-04T14:32:00Z</time>
      </trkpt>
      <trkpt lat="47.63672" lon="6.17773">
        <ele>222.3</ele>
        <time>2021-09-04T14:32:00Z</time>
      </trkpt>
      <trkpt lat="47.63678" lon="6.17778">
        <ele>222.5</ele>
        <time>2021-09-04T14:32:05Z</time>
      </trkpt>
      <trkpt lat="47.63682" lon="6.17783">
        <ele>222.6</ele>
        <time>2021-09-04T14:32:07Z</time>
      </trkpt>
      <trkpt lat="47.63686" lon="6.17787">
        <ele>222.8</ele>
        <time>2021-09-04T14:32:08Z</time>
      </trkpt>
      <trkpt lat="47.63692" lon="6.17793">
        <ele>223</ele>
        <time>2021-09-04T14:32:11Z</time>
      </trkpt>
      <trkpt lat="47.63695" lon="6.17798">
        <ele>223.1</ele>
        <time>2021-09-04T14:32:13Z</time>
      </trkpt>
      <trkpt lat="47.637" lon="6.17801">
        <ele>223.2</ele>
        <time>2021-09-04T14:32:15Z</time>
      </trkpt>
      <trkpt lat="47.63704" lon="6.17804">
        <ele>223.2</ele>
        <time>2021-09-04T14:32:17Z</time>
      </trkpt>
      <trkpt lat="47.63709" lon="6.1781">
        <ele>223.3</ele>
        <time>2021-09-04T14:32:19Z</time>
      </trkpt>
      <trkpt lat="47.63713" lon="6.17814">
        <ele>223.4</ele>
        <time>2021-09-04T14:32:21Z</time>
      </trkpt>
      <trkpt lat="47.63718" lon="6.17819">
        <ele>223.5</ele>
        <time>2021-09-04T14:32:23Z</time>
      </trkpt>
      <trkpt lat="47.63721" lon="6.17823">
        <ele>223.6</ele>
        <time>2021-09-04T14:32:25Z</time>
      </trkpt>
      <trkpt lat="47.63726" lon="6.17827">
        <ele>223.6</ele>
        <time>2021-09-04T14:32:27Z</time>
      </trkpt>
      <trkpt lat="47.6373" lon="6.17831">
        <ele>223.6</ele>
        <time>2021-09-04T14:32:29Z</time>
      </trkpt>
      <trkpt lat="47.63734" lon="6.17836">
        <ele>223.8</ele>
        <time>2021-09-04T14:32:31Z</time>
      </trkpt>
      <trkpt lat="47.63738" lon="6.1784">
        <ele>223.9</ele>
        <time>2021-09-04T14:32:31Z</time>
      </trkpt>
      <trkpt lat="47.63742" lon="6.17845">
        <ele>224.1</ele>
        <time>2021-09-04T14:32:34Z</time>
      </trkpt>
      <trkpt lat="47.63746" lon="6.1785">
        <ele>224.2</ele>
        <time>2021-09-04T14:32:39Z</time>
      </trkpt>
      <trkpt lat="47.6375" lon="6.17854">
        <ele>224.3</ele>
        <time>2021-09-04T14:32:41Z</time>
      </trkpt>
      <trkpt lat="47.63754" lon="6.17859">
        <ele>224.4</ele>
        <time>2021-09-04T14:32:44Z</time>
      </trkpt>
      <trkpt lat="47.6376" lon="6.17866">
        <ele>224.4</ele>
        <time>2021-09-04T14:32:45Z</time>
      </trkpt>
      <trkpt lat="47.63764" lon="6.17871">
        <ele>224.5</ele>
        <time>2021-09-04T14:32:49Z</time>
      </trkpt>
      <trkpt lat="47.63768" lon="6.17877">
        <ele>224.6</ele>
        <time>2021-09-04T14:32:52Z</time>
      </trkpt>
      <trkpt lat="47.63772" lon="6.17882">
        <ele>224.7</ele>
        <time>2021-09-04T14:32:54Z</time>
      </trkpt>
      <trkpt lat="47.63776" lon="6.17888">
        <ele>224.7</ele>
        <time>2021-09-04T14:32:54Z</time>
      </trkpt>
      <trkpt lat="47.63781" lon="6.17895">
        <ele>224.8</ele>
        <time>2021-09-04T14:32:57Z</time>
      </trkpt>
      <trkpt lat="47.63785" lon="6.179">
        <ele>224.8</ele>
        <time>2021-09-04T14:33:01Z</time>
      </trkpt>
      <trkpt lat="47.63788" lon="6.17905">
        <ele>224.7</ele>
        <time>2021-09-04T14:33:03Z</time>
      </trkpt>
      <trkpt lat="47.63793" lon="6.17911">
        <ele>224.7</ele>
        <time>2021-09-04T14:33:03Z</time>
      </trkpt>
      <trkpt lat="47.63796" lon="6.17915">
        <ele>224.6</ele>
        <time>2021-09-04T14:33:05Z</time>
      </trkpt>
      <trkpt lat="47.638" lon="6.1792">
        <ele>224.7</ele>
        <time>2021-09-04T14:33:09Z</time>
      </trkpt>
      <trkpt lat="47.63804" lon="6.17925">
        <ele>224.7</ele>
        <time>2021-09-04T14:33:09Z</time>
      </trkpt>
      <trkpt lat="47.63809" lon="6.17932">
        <ele>224.8</ele>
        <time>2021-09-04T14:33:12Z</time>
      </trkpt>
      <trkpt lat="47.63812" lon="6.17938">
        <ele>224.8</ele>
        <time>2021-09-04T14:33:16Z</time>
      </trkpt>
      <trkpt lat="47.63816" lon="6.17942">
        <ele>224.8</ele>
        <time>2021-09-04T14:33:18Z</time>
      </trkpt>
      <trkpt lat="47.63823" lon="6.17952">
        <ele>224.7</ele>
        <time>2021-09-04T14:33:21Z</time>
      </trkpt>
      <trkpt lat="47.63828" lon="6.1796">
        <ele>224.6</ele>
        <time>2021-09-04T14:33:23Z</time>
      </trkpt>
      <trkpt lat="47.63832" lon="6.17966">
        <ele>224.5</ele>
        <time>2021-09-04T14:33:24Z</time>
      </trkpt>
      <trkpt lat="47.63837" lon="6.17974">
        <ele>224.4</ele>
        <time>2021-09-04T14:33:26Z</time>
      </trkpt>
      <trkpt lat="47.63841" lon="6.1798">
        <ele>224.4</ele>
        <time>2021-09-04T14:33:27Z</time>
      </trkpt>
      <trkpt lat="47.63844" lon="6.17985">
        <ele>224.4</ele>
        <time>2021-09-04T14:33:28Z</time>
      </trkpt>
      <trkpt lat="47.63851" lon="6.17995">
        <ele>224.3</ele>
        <time>2021-09-04T14:33:30Z</time>
      </trkpt>
      <trkpt lat="47.63854" lon="6.18">
        <ele>224.3</ele>
        <time>2021-09-04T14:33:31Z</time>
      </trkpt>
      <trkpt lat="47.6386" lon="6.18009">
        <ele>224.2</ele>
        <time>2021-09-04T14:33:32Z</time>
      </trkpt>
      <trkpt lat="47.63874" lon="6.1803">
        <ele>223.8</ele>
        <time>2021-09-04T14:33:33Z</time>
      </trkpt>
      <trkpt lat="47.63878" lon="6.18036">
        <ele>223.8</ele>
        <time>2021-09-04T14:33:34Z</time>
      </trkpt>
      <trkpt lat="47.63882" lon="6.18042">
        <ele>223.7</ele>
        <time>2021-09-04T14:33:35Z</time>
      </trkpt>
      <trkpt lat="47.63885" lon="6.18047">
        <ele>223.6</ele>
        <time>2021-09-04T14:33:36Z</time>
      </trkpt>
      <trkpt lat="47.63889" lon="6.18053">
        <ele>223.4</ele>
        <time>2021-09-04T14:33:37Z</time>
      </trkpt>
      <trkpt lat="47.63893" lon="6.18059">
        <ele>223.3</ele>
        <time>2021-09-04T14:33:38Z</time>
      </trkpt>
      <trkpt lat="47.63897" lon="6.18064">
        <ele>223.1</ele>
        <time>2021-09-04T14:33:39Z</time>
      </trkpt>
      <trkpt lat="47.63901" lon="6.1807">
        <ele>223</ele>
        <time>2021-09-04T14:33:40Z</time>
      </trkpt>
      <trkpt lat="47.63905" lon="6.18076">
        <ele>222.8</ele>
        <time>2021-09-04T14:33:41Z</time>
      </trkpt>
      <trkpt lat="47.63909" lon="6.18081">
        <ele>222.6</ele>
        <time>2021-09-04T14:33:42Z</time>
      </trkpt>
      <trkpt lat="47.63913" lon="6.18086">
        <ele>222.6</ele>
        <time>2021-09-04T14:33:43Z</time>
      </trkpt>
      <trkpt lat="47.63916" lon="6.18091">
        <ele>222.6</ele>
        <time>2021-09-04T14:33:44Z</time>
      </trkpt>
      <trkpt lat="47.6392" lon="6.18096">
        <ele>222.8</ele>
        <time>2021-09-04T14:33:45Z</time>
      </trkpt>
      <trkpt lat="47.63923" lon="6.18101">
        <ele>223</ele>
        <time>2021-09-04T14:33:46Z</time>
      </trkpt>
      <trkpt lat="47.63927" lon="6.18107">
        <ele>223.2</ele>
        <time>2021-09-04T14:33:47Z</time>
      </trkpt>
      <trkpt lat="47.6393" lon="6.18112">
        <ele>223.4</ele>
        <time>2021-09-04T14:33:48Z</time>
      </trkpt>
      <trkpt lat="47.63933" lon="6.18117">
        <ele>223.6</ele>
        <time>2021-09-04T14:33:49Z</time>
      </trkpt>
      <trkpt lat="47.63937" lon="6.18123">
        <ele>223.8</ele>
        <time>2021-09-04T14:33:50Z</time>
      </trkpt>
      <trkpt lat="47.6394" lon="6.18128">
        <ele>223.9</ele>
        <time>2021-09-04T14:33:51Z</time>
      </trkpt>
      <trkpt lat="47.63944" lon="6.18132">
        <ele>224</ele>
        <time>2021-09-04T14:33:52Z</time>
      </trkpt>
      <trkpt lat="47.6395" lon="6.18142">
        <ele>224.2</ele>
        <time>2021-09-04T14:33:54Z</time>
      </trkpt>
      <trkpt lat="47.63955" lon="6.18151">
        <ele>224.4</ele>
        <time>2021-09-04T14:33:56Z</time>
      </trkpt>
      <trkpt lat="47.63962" lon="6.1816">
        <ele>224.4</ele>
        <time>2021-09-04T14:33:58Z</time>
      </trkpt>
      <trkpt lat="47.63968" lon="6.18168">
        <ele>224.3</ele>
        <time>2021-09-04T14:34:00Z</time>
      </trkpt>
      <trkpt lat="47.63975" lon="6.18174">
        <ele>224.2</ele>
        <time>2021-09-04T14:34:02Z</time>
      </trkpt>
      <trkpt lat="47.63981" lon="6.18178">
        <ele>223.9</ele>
        <time>2021-09-04T14:34:04Z</time>
      </trkpt>
      <trkpt lat="47.63988" lon="6.18182">
        <ele>223.6</ele>
        <time>2021-09-04T14:34:06Z</time>
      </trkpt>
      <trkpt lat="47.63996" lon="6.18187">
        <ele>223.1</ele>
        <time>2021-09-04T14:34:08Z</time>
      </trkpt>
      <trkpt lat="47.63992" lon="6.18193">
        <ele>223.7</ele>
        <time>2021-09-04T14:34:12Z</time>
      </trkpt>
      <trkpt lat="47.63997" lon="6.18197">
        <ele>223.4</ele>
        <time>2021-09-04T14:34:13Z</time>
      </trkpt>
      <trkpt lat="47.64005" lon="6.182">
        <ele>223.1</ele>
        <time>2021-09-04T14:34:15Z</time>
      </trkpt>
      <trkpt lat="47.64013" lon="6.18203">
        <ele>223.2</ele>
        <time>2021-09-04T14:34:16Z</time>
      </trkpt>
      <trkpt lat="47.64025" lon="6.18209">
        <ele>223.2</ele>
        <time>2021-09-04T14:34:16Z</time>
      </trkpt>
      <trkpt lat="47.64032" lon="6.18213">
        <ele>223.3</ele>
        <time>2021-09-04T14:34:20Z</time>
      </trkpt>
      <trkpt lat="47.64038" lon="6.18216">
        <ele>223.3</ele>
        <time>2021-09-04T14:34:21Z</time>
      </trkpt>
      <trkpt lat="47.64047" lon="6.18222">
        <ele>223.4</ele>
        <time>2021-09-04T14:34:23Z</time>
      </trkpt>
      <trkpt lat="47.64052" lon="6.18225">
        <ele>223.5</ele>
        <time>2021-09-04T14:34:25Z</time>
      </trkpt>
      <trkpt lat="47.64061" lon="6.18226">
        <ele>223.4</ele>
        <time>2021-09-04T14:34:25Z</time>
      </trkpt>
      <trkpt lat="47.64066" lon="6.18221">
        <ele>223.2</ele>
        <time>2021-09-04T14:34:29Z</time>
      </trkpt>
      <trkpt lat="47.6407" lon="6.18211">
        <ele>222.8</ele>
        <time>2021-09-04T14:34:31Z</time>
      </trkpt>
      <trkpt lat="47.64072" lon="6.18205">
        <ele>222.5</ele>
        <time>2021-09-04T14:34:32Z</time>
      </trkpt>
      <trkpt lat="47.64076" lon="6.18195">
        <ele>222.1</ele>
        <time>2021-09-04T14:34:34Z</time>
      </trkpt>
      <trkpt lat="47.64079" lon="6.18188">
        <ele>221.8</ele>
        <time>2021-09-04T14:34:35Z</time>
      </trkpt>
      <trkpt lat="47.64087" lon="6.18189">
        <ele>221.7</ele>
        <time>2021-09-04T14:34:37Z</time>
      </trkpt>
      <trkpt lat="47.64097" lon="6.18203">
        <ele>222.1</ele>
        <time>2021-09-04T14:34:38Z</time>
      </trkpt>
      <trkpt lat="47.64104" lon="6.1821">
        <ele>222.2</ele>
        <time>2021-09-04T14:34:42Z</time>
      </trkpt>
      <trkpt lat="47.6411" lon="6.18216">
        <ele>222.3</ele>
        <time>2021-09-04T14:34:44Z</time>
      </trkpt>
      <trkpt lat="47.64115" lon="6.18222">
        <ele>222.5</ele>
        <time>2021-09-04T14:34:45Z</time>
      </trkpt>
      <trkpt lat="47.64123" lon="6.18229">
        <ele>222.6</ele>
        <time>2021-09-04T14:34:47Z</time>
      </trkpt>
      <trkpt lat="47.64128" lon="6.18233">
        <ele>222.7</ele>
        <time>2021-09-04T14:34:49Z</time>
      </trkpt>
      <trkpt lat="47.6414" lon="6.18242">
        <ele>223</ele>
        <time>2021-09-04T14:34:50Z</time>
      </trkpt>
      <trkpt lat="47.64146" lon="6.18246">
        <ele>223.1</ele>
        <time>2021-09-04T14:34:54Z</time>
      </trkpt>
      <trkpt lat="47.6415" lon="6.18249">
        <ele>223.2</ele>
        <time>2021-09-04T14:34:55Z</time>
      </trkpt>
      <trkpt lat="47.64156" lon="6.18252">
        <ele>223.3</ele>
        <time>2021-09-04T14:34:56Z</time>
      </trkpt>
      <trkpt lat="47.64161" lon="6.18254">
        <ele>223.4</ele>
        <time>2021-09-04T14:34:58Z</time>
      </trkpt>
      <trkpt lat="47.64175" lon="6.18257">
        <ele>223.5</ele>
        <time>2021-09-04T14:35:01Z</time>
      </trkpt>
      <trkpt lat="47.64181" lon="6.18258">
        <ele>223.5</ele>
        <time>2021-09-04T14:35:03Z</time>
      </trkpt>
      <trkpt lat="47.64185" lon="6.1826">
        <ele>223.5</ele>
        <time>2021-09-04T14:35:04Z</time>
      </trkpt>
      <trkpt lat="47.64191" lon="6.18261">
        <ele>223.4</ele>
        <time>2021-09-04T14:35:05Z</time>
      </trkpt>
      <trkpt lat="47.64196" lon="6.18262">
        <ele>223.4</ele>
        <time>2021-09-04T14:35:08Z</time>
      </trkpt>
      <trkpt lat="47.64201" lon="6.18262">
        <ele>223.3</ele>
        <time>2021-09-04T14:35:09Z</time>
      </trkpt>
      <trkpt lat="47.64206" lon="6.18261">
        <ele>223.1</ele>
        <time>2021-09-04T14:35:13Z</time>
      </trkpt>
      <trkpt lat="47.64212" lon="6.18261">
        <ele>223</ele>
        <time>2021-09-04T14:35:16Z</time>
      </trkpt>
      <trkpt lat="47.64217" lon="6.18261">
        <ele>222.8</ele>
        <time>2021-09-04T14:35:18Z</time>
      </trkpt>
      <trkpt lat="47.64223" lon="6.18258">
        <ele>222.6</ele>
        <time>2021-09-04T14:35:22Z</time>
      </trkpt>
      <trkpt lat="47.64227" lon="6.18254">
        <ele>222.4</ele>
        <time>2021-09-04T14:35:23Z</time>
      </trkpt>
      <trkpt lat="47.64231" lon="6.18248">
        <ele>222.2</ele>
        <time>2021-09-04T14:35:25Z</time>
      </trkpt>
      <trkpt lat="47.64237" lon="6.18242">
        <ele>222</ele>
        <time>2021-09-04T14:35:28Z</time>
      </trkpt>
      <trkpt lat="47.64241" lon="6.18237">
        <ele>221.9</ele>
        <time>2021-09-04T14:35:30Z</time>
      </trkpt>
      <trkpt lat="47.64249" lon="6.18229">
        <ele>221.8</ele>
        <time>2021-09-04T14:35:32Z</time>
      </trkpt>
      <trkpt lat="47.64257" lon="6.18221">
        <ele>221.7</ele>
        <time>2021-09-04T14:35:33Z</time>
      </trkpt>
      <trkpt lat="47.64266" lon="6.18213">
        <ele>221.6</ele>
        <time>2021-09-04T14:35:36Z</time>
      </trkpt>
      <trkpt lat="47.64273" lon="6.18208">
        <ele>221.6</ele>
        <time>2021-09-04T14:35:37Z</time>
      </trkpt>
      <trkpt lat="47.6428" lon="6.18204">
        <ele>221.7</ele>
        <time>2021-09-04T14:35:39Z</time>
      </trkpt>
      <trkpt lat="47.64303" lon="6.18193">
        <ele>222</ele>
        <time>2021-09-04T14:35:40Z</time>
      </trkpt>
      <trkpt lat="47.6431" lon="6.1819">
        <ele>222.1</ele>
        <time>2021-09-04T14:35:41Z</time>
      </trkpt>
      <trkpt lat="47.64317" lon="6.18188">
        <ele>222.3</ele>
        <time>2021-09-04T14:35:42Z</time>
      </trkpt>
      <trkpt lat="47.64325" lon="6.18186">
        <ele>222.4</ele>
        <time>2021-09-04T14:35:43Z</time>
      </trkpt>
      <trkpt lat="47.64332" lon="6.18187">
        <ele>222.5</ele>
        <time>2021-09-04T14:35:44Z</time>
      </trkpt>
      <trkpt lat="47.64338" lon="6.18189">
        <ele>222.5</ele>
        <time>2021-09-04T14:35:45Z</time>
      </trkpt>
      <trkpt lat="47.64344" lon="6.18191">
        <ele>222.4</ele>
        <time>2021-09-04T14:35:46Z</time>
      </trkpt>
      <trkpt lat="47.64349" lon="6.18195">
        <ele>222.4</ele>
        <time>2021-09-04T14:35:47Z</time>
      </trkpt>
      <trkpt lat="47.64353" lon="6.18199">
        <ele>222.3</ele>
        <time>2021-09-04T14:35:48Z</time>
      </trkpt>
      <trkpt lat="47.64357" lon="6.18203">
        <ele>222.3</ele>
        <time>2021-09-04T14:35:49Z</time>
      </trkpt>
      <trkpt lat="47.64361" lon="6.18208">
        <ele>222.2</ele>
        <time>2021-09-04T14:35:50Z</time>
      </trkpt>
      <trkpt lat="47.64364" lon="6.18212">
        <ele>222.1</ele>
        <time>2021-09-04T14:35:51Z</time>
      </trkpt>
      <trkpt lat="47.64367" lon="6.18217">
        <ele>222</ele>
        <time>2021-09-04T14:35:52Z</time>
      </trkpt>
      <trkpt lat="47.64371" lon="6.18222">
        <ele>222</ele>
        <time>2021-09-04T14:35:53Z</time>
      </trkpt>
      <trkpt lat="47.64375" lon="6.18228">
        <ele>221.9</ele>
        <time>2021-09-04T14:35:54Z</time>
      </trkpt>
      <trkpt lat="47.64379" lon="6.18233">
        <ele>221.8</ele>
        <time>2021-09-04T14:35:55Z</time>
      </trkpt>
      <trkpt lat="47.64384" lon="6.18239">
        <ele>221.8</ele>
        <time>2021-09-04T14:35:56Z</time>
      </trkpt>
      <trkpt lat="47.64388" lon="6.18244">
        <ele>221.8</ele>
        <time>2021-09-04T14:35:57Z</time>
      </trkpt>
      <trkpt lat="47.64393" lon="6.18249">
        <ele>221.7</ele>
        <time>2021-09-04T14:35:58Z</time>
      </trkpt>
      <trkpt lat="47.64397" lon="6.18254">
        <ele>222</ele>
        <time>2021-09-04T14:35:59Z</time>
      </trkpt>
      <trkpt lat="47.64401" lon="6.18259">
        <ele>222.3</ele>
        <time>2021-09-04T14:36:00Z</time>
      </trkpt>
      <trkpt lat="47.64405" lon="6.18263">
        <ele>222.7</ele>
        <time>2021-09-04T14:36:01Z</time>
      </trkpt>
      <trkpt lat="47.64409" lon="6.18268">
        <ele>223.1</ele>
        <time>2021-09-04T14:36:02Z</time>
      </trkpt>
      <trkpt lat="47.64413" lon="6.18272">
        <ele>223.5</ele>
        <time>2021-09-04T14:36:03Z</time>
      </trkpt>
      <trkpt lat="47.64417" lon="6.18277">
        <ele>224</ele>
        <time>2021-09-04T14:36:04Z</time>
      </trkpt>
      <trkpt lat="47.64421" lon="6.18281">
        <ele>224.8</ele>
        <time>2021-09-04T14:36:05Z</time>
      </trkpt>
      <trkpt lat="47.64427" lon="6.18289">
        <ele>226.4</ele>
        <time>2021-09-04T14:36:07Z</time>
      </trkpt>
      <trkpt lat="47.64433" lon="6.18295">
        <ele>227.7</ele>
        <time>2021-09-04T14:36:09Z</time>
      </trkpt>
      <trkpt lat="47.64439" lon="6.18301">
        <ele>229.3</ele>
        <time>2021-09-04T14:36:11Z</time>
      </trkpt>
      <trkpt lat="47.64442" lon="6.18307">
        <ele>230.3</ele>
        <time>2021-09-04T14:36:13Z</time>
      </trkpt>
      <trkpt lat="47.64443" lon="6.18314">
        <ele>231.1</ele>
        <time>2021-09-04T14:36:18Z</time>
      </trkpt>
      <trkpt lat="47.64441" lon="6.18323">
        <ele>231.8</ele>
        <time>2021-09-04T14:36:20Z</time>
      </trkpt>
      <trkpt lat="47.64444" lon="6.18329">
        <ele>232.8</ele>
        <time>2021-09-04T14:36:22Z</time>
      </trkpt>
      <trkpt lat="47.6444" lon="6.18325">
        <ele>231.7</ele>
        <time>2021-09-04T14:38:38Z</time>
      </trkpt>
    </trkseg>
  </trk>
</gpx>